<?xml version="1.0" encoding="UTF-8" standalone="no" ?>
<gpx xmlns="http://www.topografix.com/GPX/1/1" xmlns:xsi="http://www.w3.org/2001/XMLSchema-instance" xsi:schemaLocation="http://www.topografix.com/GPX/1/1 http://www.topografix.com/GPX/1/1/gpx.xsd" version="1.1" creator="VisuGPX - https://www.visugpx.com">
  <metadata>
    <name>les-amis-du-quad-rando-oise-13/11/2011</name>
    <desc><![CDATA[rando dans l\'oise un matin d\'autonne entre copains avec le soleil pour temoin ]]></desc>
  </metadata>
  <wpt lat="49.15421" lon="2.25042">
    <ele>39</ele>
  </wpt>
  <wpt lat="49.16068" lon="2.25801">
    <ele>36</ele>
  </wpt>
  <trk>
    <name><![CDATA[les-amis-du-quad-rando-oise-13/11/2011_1]]></name>
    <trkseg>
      <trkpt lat="49.15421" lon="2.25042">
        <ele>39</ele>
        <time>2011-11-13T08:01:46Z</time>
      </trkpt>
      <trkpt lat="49.15429" lon="2.25051">
        <ele>39</ele>
        <time>2011-11-13T08:04:51Z</time>
      </trkpt>
      <trkpt lat="49.15419" lon="2.25049">
        <ele>39</ele>
        <time>2011-11-13T08:07:47Z</time>
      </trkpt>
      <trkpt lat="49.15413" lon="2.25067">
        <ele>39</ele>
        <time>2011-11-13T08:10:31Z</time>
      </trkpt>
      <trkpt lat="49.1541" lon="2.25088">
        <ele>39</ele>
        <time>2011-11-13T08:10:33Z</time>
      </trkpt>
      <trkpt lat="49.15408" lon="2.25102">
        <ele>39</ele>
        <time>2011-11-13T08:10:34Z</time>
      </trkpt>
      <trkpt lat="49.15406" lon="2.25117">
        <ele>39</ele>
        <time>2011-11-13T08:10:35Z</time>
      </trkpt>
      <trkpt lat="49.15403" lon="2.25133">
        <ele>39</ele>
        <time>2011-11-13T08:10:36Z</time>
      </trkpt>
      <trkpt lat="49.15401" lon="2.2515">
        <ele>39</ele>
        <time>2011-11-13T08:10:37Z</time>
      </trkpt>
      <trkpt lat="49.15399" lon="2.25166">
        <ele>39</ele>
        <time>2011-11-13T08:10:38Z</time>
      </trkpt>
      <trkpt lat="49.15396" lon="2.25183">
        <ele>39</ele>
        <time>2011-11-13T08:10:39Z</time>
      </trkpt>
      <trkpt lat="49.15394" lon="2.25199">
        <ele>39</ele>
        <time>2011-11-13T08:10:40Z</time>
      </trkpt>
      <trkpt lat="49.15391" lon="2.25213">
        <ele>39</ele>
        <time>2011-11-13T08:10:41Z</time>
      </trkpt>
      <trkpt lat="49.15388" lon="2.25227">
        <ele>39</ele>
        <time>2011-11-13T08:10:42Z</time>
      </trkpt>
      <trkpt lat="49.15386" lon="2.25243">
        <ele>39</ele>
        <time>2011-11-13T08:10:43Z</time>
      </trkpt>
      <trkpt lat="49.15383" lon="2.25257">
        <ele>39</ele>
        <time>2011-11-13T08:10:44Z</time>
      </trkpt>
      <trkpt lat="49.15379" lon="2.25271">
        <ele>39</ele>
        <time>2011-11-13T08:10:45Z</time>
      </trkpt>
      <trkpt lat="49.15376" lon="2.25284">
        <ele>39</ele>
        <time>2011-11-13T08:10:46Z</time>
      </trkpt>
      <trkpt lat="49.15371" lon="2.25304">
        <ele>39</ele>
        <time>2011-11-13T08:10:48Z</time>
      </trkpt>
      <trkpt lat="49.15366" lon="2.2532">
        <ele>39</ele>
        <time>2011-11-13T08:10:51Z</time>
      </trkpt>
      <trkpt lat="49.15367" lon="2.25336">
        <ele>39</ele>
        <time>2011-11-13T08:10:55Z</time>
      </trkpt>
      <trkpt lat="49.15375" lon="2.25343">
        <ele>39</ele>
        <time>2011-11-13T08:10:57Z</time>
      </trkpt>
      <trkpt lat="49.15391" lon="2.2535">
        <ele>39</ele>
        <time>2011-11-13T08:10:59Z</time>
      </trkpt>
      <trkpt lat="49.154" lon="2.25353">
        <ele>39</ele>
        <time>2011-11-13T08:11:00Z</time>
      </trkpt>
      <trkpt lat="49.15411" lon="2.25359">
        <ele>39</ele>
        <time>2011-11-13T08:11:01Z</time>
      </trkpt>
      <trkpt lat="49.15423" lon="2.25364">
        <ele>39</ele>
        <time>2011-11-13T08:11:02Z</time>
      </trkpt>
      <trkpt lat="49.15434" lon="2.25369">
        <ele>39</ele>
        <time>2011-11-13T08:11:03Z</time>
      </trkpt>
      <trkpt lat="49.15447" lon="2.25375">
        <ele>39</ele>
        <time>2011-11-13T08:11:04Z</time>
      </trkpt>
      <trkpt lat="49.15459" lon="2.2538">
        <ele>39</ele>
        <time>2011-11-13T08:11:05Z</time>
      </trkpt>
      <trkpt lat="49.1547" lon="2.25385">
        <ele>39</ele>
        <time>2011-11-13T08:11:06Z</time>
      </trkpt>
      <trkpt lat="49.15482" lon="2.25388">
        <ele>39</ele>
        <time>2011-11-13T08:11:07Z</time>
      </trkpt>
      <trkpt lat="49.15493" lon="2.2539">
        <ele>39</ele>
        <time>2011-11-13T08:11:08Z</time>
      </trkpt>
      <trkpt lat="49.15503" lon="2.2539">
        <ele>39</ele>
        <time>2011-11-13T08:11:09Z</time>
      </trkpt>
      <trkpt lat="49.15515" lon="2.25389">
        <ele>39</ele>
        <time>2011-11-13T08:11:10Z</time>
      </trkpt>
      <trkpt lat="49.15525" lon="2.25387">
        <ele>39</ele>
        <time>2011-11-13T08:11:11Z</time>
      </trkpt>
      <trkpt lat="49.15535" lon="2.25384">
        <ele>39</ele>
        <time>2011-11-13T08:11:12Z</time>
      </trkpt>
      <trkpt lat="49.15545" lon="2.25379">
        <ele>39</ele>
        <time>2011-11-13T08:11:13Z</time>
      </trkpt>
      <trkpt lat="49.15555" lon="2.25375">
        <ele>39</ele>
        <time>2011-11-13T08:11:14Z</time>
      </trkpt>
      <trkpt lat="49.15573" lon="2.25372">
        <ele>39</ele>
        <time>2011-11-13T08:11:16Z</time>
      </trkpt>
      <trkpt lat="49.15583" lon="2.25375">
        <ele>39</ele>
        <time>2011-11-13T08:11:17Z</time>
      </trkpt>
      <trkpt lat="49.15594" lon="2.25378">
        <ele>39</ele>
        <time>2011-11-13T08:11:18Z</time>
      </trkpt>
      <trkpt lat="49.15604" lon="2.25381">
        <ele>39</ele>
        <time>2011-11-13T08:11:19Z</time>
      </trkpt>
      <trkpt lat="49.15614" lon="2.25386">
        <ele>39</ele>
        <time>2011-11-13T08:11:20Z</time>
      </trkpt>
      <trkpt lat="49.15623" lon="2.25395">
        <ele>39</ele>
        <time>2011-11-13T08:11:21Z</time>
      </trkpt>
      <trkpt lat="49.15631" lon="2.25405">
        <ele>39</ele>
        <time>2011-11-13T08:11:22Z</time>
      </trkpt>
      <trkpt lat="49.15638" lon="2.25419">
        <ele>39</ele>
        <time>2011-11-13T08:11:23Z</time>
      </trkpt>
      <trkpt lat="49.15647" lon="2.25432">
        <ele>39</ele>
        <time>2011-11-13T08:11:24Z</time>
      </trkpt>
      <trkpt lat="49.15655" lon="2.25446">
        <ele>39</ele>
        <time>2011-11-13T08:11:25Z</time>
      </trkpt>
      <trkpt lat="49.15663" lon="2.25458">
        <ele>39</ele>
        <time>2011-11-13T08:11:26Z</time>
      </trkpt>
      <trkpt lat="49.15671" lon="2.25471">
        <ele>39</ele>
        <time>2011-11-13T08:11:27Z</time>
      </trkpt>
      <trkpt lat="49.15677" lon="2.25482">
        <ele>39</ele>
        <time>2011-11-13T08:11:28Z</time>
      </trkpt>
      <trkpt lat="49.15689" lon="2.25501">
        <ele>34</ele>
        <time>2011-11-13T08:11:30Z</time>
      </trkpt>
      <trkpt lat="49.157" lon="2.25522">
        <ele>34</ele>
        <time>2011-11-13T08:11:32Z</time>
      </trkpt>
      <trkpt lat="49.15707" lon="2.25544">
        <ele>34</ele>
        <time>2011-11-13T08:11:34Z</time>
      </trkpt>
      <trkpt lat="49.15717" lon="2.2556">
        <ele>34</ele>
        <time>2011-11-13T08:11:36Z</time>
      </trkpt>
      <trkpt lat="49.15732" lon="2.25572">
        <ele>34</ele>
        <time>2011-11-13T08:11:38Z</time>
      </trkpt>
      <trkpt lat="49.15739" lon="2.25581">
        <ele>34</ele>
        <time>2011-11-13T08:11:39Z</time>
      </trkpt>
      <trkpt lat="49.15747" lon="2.25593">
        <ele>34</ele>
        <time>2011-11-13T08:11:40Z</time>
      </trkpt>
      <trkpt lat="49.15754" lon="2.25607">
        <ele>34</ele>
        <time>2011-11-13T08:11:41Z</time>
      </trkpt>
      <trkpt lat="49.1576" lon="2.25622">
        <ele>34</ele>
        <time>2011-11-13T08:11:42Z</time>
      </trkpt>
      <trkpt lat="49.15763" lon="2.25637">
        <ele>34</ele>
        <time>2011-11-13T08:11:43Z</time>
      </trkpt>
      <trkpt lat="49.15764" lon="2.25654">
        <ele>34</ele>
        <time>2011-11-13T08:11:44Z</time>
      </trkpt>
      <trkpt lat="49.15763" lon="2.25672">
        <ele>34</ele>
        <time>2011-11-13T08:11:45Z</time>
      </trkpt>
      <trkpt lat="49.15761" lon="2.25689">
        <ele>34</ele>
        <time>2011-11-13T08:11:46Z</time>
      </trkpt>
      <trkpt lat="49.15758" lon="2.25707">
        <ele>34</ele>
        <time>2011-11-13T08:11:47Z</time>
      </trkpt>
      <trkpt lat="49.15756" lon="2.25724">
        <ele>34</ele>
        <time>2011-11-13T08:11:48Z</time>
      </trkpt>
      <trkpt lat="49.15754" lon="2.25741">
        <ele>34</ele>
        <time>2011-11-13T08:11:49Z</time>
      </trkpt>
      <trkpt lat="49.15753" lon="2.25757">
        <ele>34</ele>
        <time>2011-11-13T08:11:50Z</time>
      </trkpt>
      <trkpt lat="49.15755" lon="2.25772">
        <ele>34</ele>
        <time>2011-11-13T08:11:51Z</time>
      </trkpt>
      <trkpt lat="49.15759" lon="2.25785">
        <ele>34</ele>
        <time>2011-11-13T08:11:52Z</time>
      </trkpt>
      <trkpt lat="49.15763" lon="2.25798">
        <ele>34</ele>
        <time>2011-11-13T08:11:53Z</time>
      </trkpt>
      <trkpt lat="49.1577" lon="2.25808">
        <ele>34</ele>
        <time>2011-11-13T08:11:54Z</time>
      </trkpt>
      <trkpt lat="49.15779" lon="2.25817">
        <ele>34</ele>
        <time>2011-11-13T08:11:55Z</time>
      </trkpt>
      <trkpt lat="49.15788" lon="2.25823">
        <ele>34</ele>
        <time>2011-11-13T08:11:56Z</time>
      </trkpt>
      <trkpt lat="49.15799" lon="2.25829">
        <ele>34</ele>
        <time>2011-11-13T08:11:57Z</time>
      </trkpt>
      <trkpt lat="49.1581" lon="2.25837">
        <ele>34</ele>
        <time>2011-11-13T08:11:58Z</time>
      </trkpt>
      <trkpt lat="49.15823" lon="2.25843">
        <ele>34</ele>
        <time>2011-11-13T08:11:59Z</time>
      </trkpt>
      <trkpt lat="49.15835" lon="2.2585">
        <ele>34</ele>
        <time>2011-11-13T08:12:00Z</time>
      </trkpt>
      <trkpt lat="49.15846" lon="2.25858">
        <ele>34</ele>
        <time>2011-11-13T08:12:01Z</time>
      </trkpt>
      <trkpt lat="49.15857" lon="2.25865">
        <ele>34</ele>
        <time>2011-11-13T08:12:02Z</time>
      </trkpt>
      <trkpt lat="49.15868" lon="2.25873">
        <ele>34</ele>
        <time>2011-11-13T08:12:03Z</time>
      </trkpt>
      <trkpt lat="49.15878" lon="2.25881">
        <ele>34</ele>
        <time>2011-11-13T08:12:04Z</time>
      </trkpt>
      <trkpt lat="49.15886" lon="2.2589">
        <ele>34</ele>
        <time>2011-11-13T08:12:05Z</time>
      </trkpt>
      <trkpt lat="49.15895" lon="2.25898">
        <ele>34</ele>
        <time>2011-11-13T08:12:06Z</time>
      </trkpt>
      <trkpt lat="49.15911" lon="2.25909">
        <ele>34</ele>
        <time>2011-11-13T08:12:08Z</time>
      </trkpt>
      <trkpt lat="49.15925" lon="2.2592">
        <ele>34</ele>
        <time>2011-11-13T08:12:10Z</time>
      </trkpt>
      <trkpt lat="49.15936" lon="2.25935">
        <ele>34</ele>
        <time>2011-11-13T08:12:12Z</time>
      </trkpt>
      <trkpt lat="49.15949" lon="2.25943">
        <ele>34</ele>
        <time>2011-11-13T08:12:14Z</time>
      </trkpt>
      <trkpt lat="49.15962" lon="2.25932">
        <ele>34</ele>
        <time>2011-11-13T08:12:16Z</time>
      </trkpt>
      <trkpt lat="49.15969" lon="2.25909">
        <ele>34</ele>
        <time>2011-11-13T08:12:18Z</time>
      </trkpt>
      <trkpt lat="49.15974" lon="2.25897">
        <ele>34</ele>
        <time>2011-11-13T08:12:19Z</time>
      </trkpt>
      <trkpt lat="49.15979" lon="2.25886">
        <ele>34</ele>
        <time>2011-11-13T08:12:20Z</time>
      </trkpt>
      <trkpt lat="49.15987" lon="2.25874">
        <ele>34</ele>
        <time>2011-11-13T08:12:21Z</time>
      </trkpt>
      <trkpt lat="49.15995" lon="2.25861">
        <ele>34</ele>
        <time>2011-11-13T08:12:22Z</time>
      </trkpt>
      <trkpt lat="49.16004" lon="2.25846">
        <ele>34</ele>
        <time>2011-11-13T08:12:23Z</time>
      </trkpt>
      <trkpt lat="49.16012" lon="2.2583">
        <ele>34</ele>
        <time>2011-11-13T08:12:24Z</time>
      </trkpt>
      <trkpt lat="49.16021" lon="2.25812">
        <ele>34</ele>
        <time>2011-11-13T08:12:25Z</time>
      </trkpt>
      <trkpt lat="49.1603" lon="2.25794">
        <ele>34</ele>
        <time>2011-11-13T08:12:26Z</time>
      </trkpt>
      <trkpt lat="49.16038" lon="2.25777">
        <ele>34</ele>
        <time>2011-11-13T08:12:27Z</time>
      </trkpt>
      <trkpt lat="49.16047" lon="2.25759">
        <ele>34</ele>
        <time>2011-11-13T08:12:28Z</time>
      </trkpt>
      <trkpt lat="49.16055" lon="2.25741">
        <ele>34</ele>
        <time>2011-11-13T08:12:29Z</time>
      </trkpt>
      <trkpt lat="49.16064" lon="2.25723">
        <ele>34</ele>
        <time>2011-11-13T08:12:30Z</time>
      </trkpt>
      <trkpt lat="49.16074" lon="2.25704">
        <ele>34</ele>
        <time>2011-11-13T08:12:31Z</time>
      </trkpt>
      <trkpt lat="49.16083" lon="2.25685">
        <ele>34</ele>
        <time>2011-11-13T08:12:32Z</time>
      </trkpt>
      <trkpt lat="49.16093" lon="2.25666">
        <ele>34</ele>
        <time>2011-11-13T08:12:33Z</time>
      </trkpt>
      <trkpt lat="49.16101" lon="2.25649">
        <ele>34</ele>
        <time>2011-11-13T08:12:34Z</time>
      </trkpt>
      <trkpt lat="49.1611" lon="2.25632">
        <ele>34</ele>
        <time>2011-11-13T08:12:35Z</time>
      </trkpt>
      <trkpt lat="49.16117" lon="2.25616">
        <ele>34</ele>
        <time>2011-11-13T08:12:36Z</time>
      </trkpt>
      <trkpt lat="49.16124" lon="2.25603">
        <ele>34</ele>
        <time>2011-11-13T08:12:37Z</time>
      </trkpt>
      <trkpt lat="49.1613" lon="2.2559">
        <ele>34</ele>
        <time>2011-11-13T08:12:38Z</time>
      </trkpt>
      <trkpt lat="49.16136" lon="2.2558">
        <ele>34</ele>
        <time>2011-11-13T08:12:39Z</time>
      </trkpt>
      <trkpt lat="49.16146" lon="2.2556">
        <ele>34</ele>
        <time>2011-11-13T08:12:41Z</time>
      </trkpt>
      <trkpt lat="49.16156" lon="2.25541">
        <ele>34</ele>
        <time>2011-11-13T08:12:43Z</time>
      </trkpt>
      <trkpt lat="49.16164" lon="2.25529">
        <ele>34</ele>
        <time>2011-11-13T08:12:45Z</time>
      </trkpt>
      <trkpt lat="49.16177" lon="2.25537">
        <ele>34</ele>
        <time>2011-11-13T08:12:48Z</time>
      </trkpt>
      <trkpt lat="49.16189" lon="2.25551">
        <ele>34</ele>
        <time>2011-11-13T08:12:50Z</time>
      </trkpt>
      <trkpt lat="49.16203" lon="2.25567">
        <ele>34</ele>
        <time>2011-11-13T08:12:52Z</time>
      </trkpt>
      <trkpt lat="49.16211" lon="2.25577">
        <ele>34</ele>
        <time>2011-11-13T08:12:53Z</time>
      </trkpt>
      <trkpt lat="49.1622" lon="2.25587">
        <ele>34</ele>
        <time>2011-11-13T08:12:54Z</time>
      </trkpt>
      <trkpt lat="49.16229" lon="2.25598">
        <ele>34</ele>
        <time>2011-11-13T08:12:55Z</time>
      </trkpt>
      <trkpt lat="49.16239" lon="2.25608">
        <ele>34</ele>
        <time>2011-11-13T08:12:56Z</time>
      </trkpt>
      <trkpt lat="49.16249" lon="2.2562">
        <ele>39</ele>
        <time>2011-11-13T08:12:57Z</time>
      </trkpt>
      <trkpt lat="49.1626" lon="2.25633">
        <ele>39</ele>
        <time>2011-11-13T08:12:58Z</time>
      </trkpt>
      <trkpt lat="49.1627" lon="2.25644">
        <ele>39</ele>
        <time>2011-11-13T08:12:59Z</time>
      </trkpt>
      <trkpt lat="49.1628" lon="2.25658">
        <ele>39</ele>
        <time>2011-11-13T08:13:00Z</time>
      </trkpt>
      <trkpt lat="49.16292" lon="2.25671">
        <ele>39</ele>
        <time>2011-11-13T08:13:01Z</time>
      </trkpt>
      <trkpt lat="49.16302" lon="2.25685">
        <ele>39</ele>
        <time>2011-11-13T08:13:02Z</time>
      </trkpt>
      <trkpt lat="49.16313" lon="2.25699">
        <ele>39</ele>
        <time>2011-11-13T08:13:03Z</time>
      </trkpt>
      <trkpt lat="49.16325" lon="2.25713">
        <ele>39</ele>
        <time>2011-11-13T08:13:04Z</time>
      </trkpt>
      <trkpt lat="49.16335" lon="2.25728">
        <ele>39</ele>
        <time>2011-11-13T08:13:05Z</time>
      </trkpt>
      <trkpt lat="49.16345" lon="2.25742">
        <ele>39</ele>
        <time>2011-11-13T08:13:06Z</time>
      </trkpt>
      <trkpt lat="49.16355" lon="2.25757">
        <ele>39</ele>
        <time>2011-11-13T08:13:07Z</time>
      </trkpt>
      <trkpt lat="49.16365" lon="2.2577">
        <ele>39</ele>
        <time>2011-11-13T08:13:08Z</time>
      </trkpt>
      <trkpt lat="49.16375" lon="2.25784">
        <ele>39</ele>
        <time>2011-11-13T08:13:09Z</time>
      </trkpt>
      <trkpt lat="49.16384" lon="2.25796">
        <ele>39</ele>
        <time>2011-11-13T08:13:10Z</time>
      </trkpt>
      <trkpt lat="49.16393" lon="2.25809">
        <ele>39</ele>
        <time>2011-11-13T08:13:11Z</time>
      </trkpt>
      <trkpt lat="49.16402" lon="2.2582">
        <ele>39</ele>
        <time>2011-11-13T08:13:12Z</time>
      </trkpt>
      <trkpt lat="49.16411" lon="2.25833">
        <ele>39</ele>
        <time>2011-11-13T08:13:13Z</time>
      </trkpt>
      <trkpt lat="49.1642" lon="2.25845">
        <ele>39</ele>
        <time>2011-11-13T08:13:14Z</time>
      </trkpt>
      <trkpt lat="49.16428" lon="2.25856">
        <ele>39</ele>
        <time>2011-11-13T08:13:15Z</time>
      </trkpt>
      <trkpt lat="49.16437" lon="2.25868">
        <ele>39</ele>
        <time>2011-11-13T08:13:16Z</time>
      </trkpt>
      <trkpt lat="49.16446" lon="2.25881">
        <ele>39</ele>
        <time>2011-11-13T08:13:17Z</time>
      </trkpt>
      <trkpt lat="49.16455" lon="2.25893">
        <ele>39</ele>
        <time>2011-11-13T08:13:18Z</time>
      </trkpt>
      <trkpt lat="49.16465" lon="2.25907">
        <ele>39</ele>
        <time>2011-11-13T08:13:19Z</time>
      </trkpt>
      <trkpt lat="49.16474" lon="2.25919">
        <ele>39</ele>
        <time>2011-11-13T08:13:20Z</time>
      </trkpt>
      <trkpt lat="49.16483" lon="2.25931">
        <ele>39</ele>
        <time>2011-11-13T08:13:21Z</time>
      </trkpt>
      <trkpt lat="49.16491" lon="2.25942">
        <ele>39</ele>
        <time>2011-11-13T08:13:22Z</time>
      </trkpt>
      <trkpt lat="49.16498" lon="2.25951">
        <ele>39</ele>
        <time>2011-11-13T08:13:23Z</time>
      </trkpt>
      <trkpt lat="49.16506" lon="2.25962">
        <ele>39</ele>
        <time>2011-11-13T08:13:24Z</time>
      </trkpt>
      <trkpt lat="49.16514" lon="2.25973">
        <ele>39</ele>
        <time>2011-11-13T08:13:25Z</time>
      </trkpt>
      <trkpt lat="49.16523" lon="2.25985">
        <ele>39</ele>
        <time>2011-11-13T08:13:26Z</time>
      </trkpt>
      <trkpt lat="49.16533" lon="2.25997">
        <ele>39</ele>
        <time>2011-11-13T08:13:27Z</time>
      </trkpt>
      <trkpt lat="49.16543" lon="2.26011">
        <ele>39</ele>
        <time>2011-11-13T08:13:28Z</time>
      </trkpt>
      <trkpt lat="49.16553" lon="2.26024">
        <ele>39</ele>
        <time>2011-11-13T08:13:29Z</time>
      </trkpt>
      <trkpt lat="49.16563" lon="2.26039">
        <ele>39</ele>
        <time>2011-11-13T08:13:30Z</time>
      </trkpt>
      <trkpt lat="49.16574" lon="2.26052">
        <ele>39</ele>
        <time>2011-11-13T08:13:31Z</time>
      </trkpt>
      <trkpt lat="49.16584" lon="2.26066">
        <ele>39</ele>
        <time>2011-11-13T08:13:32Z</time>
      </trkpt>
      <trkpt lat="49.16594" lon="2.2608">
        <ele>39</ele>
        <time>2011-11-13T08:13:33Z</time>
      </trkpt>
      <trkpt lat="49.16603" lon="2.26093">
        <ele>39</ele>
        <time>2011-11-13T08:13:34Z</time>
      </trkpt>
      <trkpt lat="49.16612" lon="2.26105">
        <ele>39</ele>
        <time>2011-11-13T08:13:35Z</time>
      </trkpt>
      <trkpt lat="49.16621" lon="2.26117">
        <ele>39</ele>
        <time>2011-11-13T08:13:36Z</time>
      </trkpt>
      <trkpt lat="49.16629" lon="2.26128">
        <ele>39</ele>
        <time>2011-11-13T08:13:37Z</time>
      </trkpt>
      <trkpt lat="49.16635" lon="2.26137">
        <ele>39</ele>
        <time>2011-11-13T08:13:38Z</time>
      </trkpt>
      <trkpt lat="49.16647" lon="2.26153">
        <ele>39</ele>
        <time>2011-11-13T08:13:40Z</time>
      </trkpt>
      <trkpt lat="49.16659" lon="2.26163">
        <ele>39</ele>
        <time>2011-11-13T08:13:42Z</time>
      </trkpt>
      <trkpt lat="49.16669" lon="2.26169">
        <ele>39</ele>
        <time>2011-11-13T08:13:44Z</time>
      </trkpt>
      <trkpt lat="49.16675" lon="2.26187">
        <ele>39</ele>
        <time>2011-11-13T08:13:47Z</time>
      </trkpt>
      <trkpt lat="49.16683" lon="2.262">
        <ele>39</ele>
        <time>2011-11-13T08:13:49Z</time>
      </trkpt>
      <trkpt lat="49.16693" lon="2.26213">
        <ele>39</ele>
        <time>2011-11-13T08:13:51Z</time>
      </trkpt>
      <trkpt lat="49.16705" lon="2.26229">
        <ele>39</ele>
        <time>2011-11-13T08:13:53Z</time>
      </trkpt>
      <trkpt lat="49.16715" lon="2.26251">
        <ele>39</ele>
        <time>2011-11-13T08:13:55Z</time>
      </trkpt>
      <trkpt lat="49.16721" lon="2.26264">
        <ele>39</ele>
        <time>2011-11-13T08:13:56Z</time>
      </trkpt>
      <trkpt lat="49.16726" lon="2.26278">
        <ele>39</ele>
        <time>2011-11-13T08:13:57Z</time>
      </trkpt>
      <trkpt lat="49.16732" lon="2.26295">
        <ele>39</ele>
        <time>2011-11-13T08:13:58Z</time>
      </trkpt>
      <trkpt lat="49.16738" lon="2.26311">
        <ele>39</ele>
        <time>2011-11-13T08:13:59Z</time>
      </trkpt>
      <trkpt lat="49.16745" lon="2.26328">
        <ele>39</ele>
        <time>2011-11-13T08:14:00Z</time>
      </trkpt>
      <trkpt lat="49.16752" lon="2.26346">
        <ele>39</ele>
        <time>2011-11-13T08:14:01Z</time>
      </trkpt>
      <trkpt lat="49.16759" lon="2.26363">
        <ele>39</ele>
        <time>2011-11-13T08:14:02Z</time>
      </trkpt>
      <trkpt lat="49.16766" lon="2.2638">
        <ele>39</ele>
        <time>2011-11-13T08:14:03Z</time>
      </trkpt>
      <trkpt lat="49.16772" lon="2.26397">
        <ele>39</ele>
        <time>2011-11-13T08:14:04Z</time>
      </trkpt>
      <trkpt lat="49.16779" lon="2.26414">
        <ele>39</ele>
        <time>2011-11-13T08:14:05Z</time>
      </trkpt>
      <trkpt lat="49.16786" lon="2.2643">
        <ele>39</ele>
        <time>2011-11-13T08:14:06Z</time>
      </trkpt>
      <trkpt lat="49.16792" lon="2.26446">
        <ele>39</ele>
        <time>2011-11-13T08:14:07Z</time>
      </trkpt>
      <trkpt lat="49.16799" lon="2.26463">
        <ele>39</ele>
        <time>2011-11-13T08:14:08Z</time>
      </trkpt>
      <trkpt lat="49.16805" lon="2.26479">
        <ele>39</ele>
        <time>2011-11-13T08:14:09Z</time>
      </trkpt>
      <trkpt lat="49.16811" lon="2.26494">
        <ele>39</ele>
        <time>2011-11-13T08:14:10Z</time>
      </trkpt>
      <trkpt lat="49.16818" lon="2.26508">
        <ele>39</ele>
        <time>2011-11-13T08:14:11Z</time>
      </trkpt>
      <trkpt lat="49.16824" lon="2.26524">
        <ele>39</ele>
        <time>2011-11-13T08:14:12Z</time>
      </trkpt>
      <trkpt lat="49.16829" lon="2.26538">
        <ele>39</ele>
        <time>2011-11-13T08:14:13Z</time>
      </trkpt>
      <trkpt lat="49.16835" lon="2.26552">
        <ele>39</ele>
        <time>2011-11-13T08:14:14Z</time>
      </trkpt>
      <trkpt lat="49.1684" lon="2.26566">
        <ele>39</ele>
        <time>2011-11-13T08:14:15Z</time>
      </trkpt>
      <trkpt lat="49.16845" lon="2.26579">
        <ele>39</ele>
        <time>2011-11-13T08:14:16Z</time>
      </trkpt>
      <trkpt lat="49.16851" lon="2.26593">
        <ele>39</ele>
        <time>2011-11-13T08:14:17Z</time>
      </trkpt>
      <trkpt lat="49.16856" lon="2.26606">
        <ele>39</ele>
        <time>2011-11-13T08:14:18Z</time>
      </trkpt>
      <trkpt lat="49.16861" lon="2.2662">
        <ele>39</ele>
        <time>2011-11-13T08:14:19Z</time>
      </trkpt>
      <trkpt lat="49.16867" lon="2.26634">
        <ele>39</ele>
        <time>2011-11-13T08:14:20Z</time>
      </trkpt>
      <trkpt lat="49.16873" lon="2.26648">
        <ele>39</ele>
        <time>2011-11-13T08:14:21Z</time>
      </trkpt>
      <trkpt lat="49.16878" lon="2.26661">
        <ele>39</ele>
        <time>2011-11-13T08:14:22Z</time>
      </trkpt>
      <trkpt lat="49.16884" lon="2.26675">
        <ele>39</ele>
        <time>2011-11-13T08:14:23Z</time>
      </trkpt>
      <trkpt lat="49.16889" lon="2.26687">
        <ele>39</ele>
        <time>2011-11-13T08:14:24Z</time>
      </trkpt>
      <trkpt lat="49.16895" lon="2.267">
        <ele>39</ele>
        <time>2011-11-13T08:14:25Z</time>
      </trkpt>
      <trkpt lat="49.169" lon="2.26713">
        <ele>39</ele>
        <time>2011-11-13T08:14:26Z</time>
      </trkpt>
      <trkpt lat="49.16906" lon="2.26727">
        <ele>39</ele>
        <time>2011-11-13T08:14:27Z</time>
      </trkpt>
      <trkpt lat="49.16912" lon="2.26741">
        <ele>39</ele>
        <time>2011-11-13T08:14:28Z</time>
      </trkpt>
      <trkpt lat="49.16917" lon="2.26755">
        <ele>39</ele>
        <time>2011-11-13T08:14:29Z</time>
      </trkpt>
      <trkpt lat="49.16923" lon="2.2677">
        <ele>39</ele>
        <time>2011-11-13T08:14:30Z</time>
      </trkpt>
      <trkpt lat="49.16929" lon="2.26785">
        <ele>39</ele>
        <time>2011-11-13T08:14:31Z</time>
      </trkpt>
      <trkpt lat="49.16935" lon="2.268">
        <ele>39</ele>
        <time>2011-11-13T08:14:32Z</time>
      </trkpt>
      <trkpt lat="49.16941" lon="2.26813">
        <ele>39</ele>
        <time>2011-11-13T08:14:33Z</time>
      </trkpt>
      <trkpt lat="49.16947" lon="2.26827">
        <ele>39</ele>
        <time>2011-11-13T08:14:34Z</time>
      </trkpt>
      <trkpt lat="49.16953" lon="2.26843">
        <ele>39</ele>
        <time>2011-11-13T08:14:35Z</time>
      </trkpt>
      <trkpt lat="49.16959" lon="2.26857">
        <ele>39</ele>
        <time>2011-11-13T08:14:36Z</time>
      </trkpt>
      <trkpt lat="49.16965" lon="2.26872">
        <ele>39</ele>
        <time>2011-11-13T08:14:37Z</time>
      </trkpt>
      <trkpt lat="49.16971" lon="2.26888">
        <ele>39</ele>
        <time>2011-11-13T08:14:38Z</time>
      </trkpt>
      <trkpt lat="49.16977" lon="2.26903">
        <ele>39</ele>
        <time>2011-11-13T08:14:39Z</time>
      </trkpt>
      <trkpt lat="49.16983" lon="2.26918">
        <ele>39</ele>
        <time>2011-11-13T08:14:40Z</time>
      </trkpt>
      <trkpt lat="49.16989" lon="2.26932">
        <ele>39</ele>
        <time>2011-11-13T08:14:41Z</time>
      </trkpt>
      <trkpt lat="49.16995" lon="2.26948">
        <ele>39</ele>
        <time>2011-11-13T08:14:42Z</time>
      </trkpt>
      <trkpt lat="49.17001" lon="2.26962">
        <ele>39</ele>
        <time>2011-11-13T08:14:43Z</time>
      </trkpt>
      <trkpt lat="49.17007" lon="2.26976">
        <ele>39</ele>
        <time>2011-11-13T08:14:44Z</time>
      </trkpt>
      <trkpt lat="49.17012" lon="2.26991">
        <ele>39</ele>
        <time>2011-11-13T08:14:45Z</time>
      </trkpt>
      <trkpt lat="49.17017" lon="2.27003">
        <ele>39</ele>
        <time>2011-11-13T08:14:46Z</time>
      </trkpt>
      <trkpt lat="49.17026" lon="2.27027">
        <ele>39</ele>
        <time>2011-11-13T08:14:48Z</time>
      </trkpt>
      <trkpt lat="49.17031" lon="2.27039">
        <ele>39</ele>
        <time>2011-11-13T08:14:49Z</time>
      </trkpt>
      <trkpt lat="49.17036" lon="2.27052">
        <ele>39</ele>
        <time>2011-11-13T08:14:50Z</time>
      </trkpt>
      <trkpt lat="49.17041" lon="2.27065">
        <ele>39</ele>
        <time>2011-11-13T08:14:51Z</time>
      </trkpt>
      <trkpt lat="49.17047" lon="2.27078">
        <ele>39</ele>
        <time>2011-11-13T08:14:52Z</time>
      </trkpt>
      <trkpt lat="49.17053" lon="2.27092">
        <ele>39</ele>
        <time>2011-11-13T08:14:53Z</time>
      </trkpt>
      <trkpt lat="49.17059" lon="2.27107">
        <ele>39</ele>
        <time>2011-11-13T08:14:54Z</time>
      </trkpt>
      <trkpt lat="49.17064" lon="2.27121">
        <ele>39</ele>
        <time>2011-11-13T08:14:55Z</time>
      </trkpt>
      <trkpt lat="49.1707" lon="2.27136">
        <ele>39</ele>
        <time>2011-11-13T08:14:56Z</time>
      </trkpt>
      <trkpt lat="49.17076" lon="2.27152">
        <ele>39</ele>
        <time>2011-11-13T08:14:57Z</time>
      </trkpt>
      <trkpt lat="49.17083" lon="2.27167">
        <ele>39</ele>
        <time>2011-11-13T08:14:58Z</time>
      </trkpt>
      <trkpt lat="49.17089" lon="2.27181">
        <ele>39</ele>
        <time>2011-11-13T08:14:59Z</time>
      </trkpt>
      <trkpt lat="49.17094" lon="2.27195">
        <ele>39</ele>
        <time>2011-11-13T08:15:00Z</time>
      </trkpt>
      <trkpt lat="49.17099" lon="2.27208">
        <ele>39</ele>
        <time>2011-11-13T08:15:01Z</time>
      </trkpt>
      <trkpt lat="49.17105" lon="2.27222">
        <ele>39</ele>
        <time>2011-11-13T08:15:02Z</time>
      </trkpt>
      <trkpt lat="49.1711" lon="2.27234">
        <ele>39</ele>
        <time>2011-11-13T08:15:03Z</time>
      </trkpt>
      <trkpt lat="49.17115" lon="2.27248">
        <ele>39</ele>
        <time>2011-11-13T08:15:04Z</time>
      </trkpt>
      <trkpt lat="49.1712" lon="2.27259">
        <ele>39</ele>
        <time>2011-11-13T08:15:05Z</time>
      </trkpt>
      <trkpt lat="49.17126" lon="2.27273">
        <ele>39</ele>
        <time>2011-11-13T08:15:06Z</time>
      </trkpt>
      <trkpt lat="49.1713" lon="2.27285">
        <ele>39</ele>
        <time>2011-11-13T08:15:07Z</time>
      </trkpt>
      <trkpt lat="49.17136" lon="2.27298">
        <ele>39</ele>
        <time>2011-11-13T08:15:08Z</time>
      </trkpt>
      <trkpt lat="49.17141" lon="2.27311">
        <ele>39</ele>
        <time>2011-11-13T08:15:09Z</time>
      </trkpt>
      <trkpt lat="49.17146" lon="2.27323">
        <ele>39</ele>
        <time>2011-11-13T08:15:10Z</time>
      </trkpt>
      <trkpt lat="49.17151" lon="2.27337">
        <ele>39</ele>
        <time>2011-11-13T08:15:11Z</time>
      </trkpt>
      <trkpt lat="49.17157" lon="2.27349">
        <ele>39</ele>
        <time>2011-11-13T08:15:12Z</time>
      </trkpt>
      <trkpt lat="49.17162" lon="2.27363">
        <ele>39</ele>
        <time>2011-11-13T08:15:13Z</time>
      </trkpt>
      <trkpt lat="49.17168" lon="2.27375">
        <ele>39</ele>
        <time>2011-11-13T08:15:14Z</time>
      </trkpt>
      <trkpt lat="49.17176" lon="2.27397">
        <ele>39</ele>
        <time>2011-11-13T08:15:16Z</time>
      </trkpt>
      <trkpt lat="49.17183" lon="2.27414">
        <ele>39</ele>
        <time>2011-11-13T08:15:18Z</time>
      </trkpt>
      <trkpt lat="49.17189" lon="2.2743">
        <ele>39</ele>
        <time>2011-11-13T08:15:20Z</time>
      </trkpt>
      <trkpt lat="49.17189" lon="2.27448">
        <ele>39</ele>
        <time>2011-11-13T08:15:22Z</time>
      </trkpt>
      <trkpt lat="49.17179" lon="2.27461">
        <ele>39</ele>
        <time>2011-11-13T08:15:24Z</time>
      </trkpt>
      <trkpt lat="49.17167" lon="2.27471">
        <ele>39</ele>
        <time>2011-11-13T08:15:26Z</time>
      </trkpt>
      <trkpt lat="49.17162" lon="2.27487">
        <ele>39</ele>
        <time>2011-11-13T08:15:29Z</time>
      </trkpt>
      <trkpt lat="49.17171" lon="2.27494">
        <ele>39</ele>
        <time>2011-11-13T08:15:31Z</time>
      </trkpt>
      <trkpt lat="49.17184" lon="2.275">
        <ele>39</ele>
        <time>2011-11-13T08:15:33Z</time>
      </trkpt>
      <trkpt lat="49.172" lon="2.27511">
        <ele>39</ele>
        <time>2011-11-13T08:15:35Z</time>
      </trkpt>
      <trkpt lat="49.17214" lon="2.27524">
        <ele>39</ele>
        <time>2011-11-13T08:15:37Z</time>
      </trkpt>
      <trkpt lat="49.17224" lon="2.27537">
        <ele>39</ele>
        <time>2011-11-13T08:15:39Z</time>
      </trkpt>
      <trkpt lat="49.17234" lon="2.2755">
        <ele>39</ele>
        <time>2011-11-13T08:15:41Z</time>
      </trkpt>
      <trkpt lat="49.17245" lon="2.27563">
        <ele>39</ele>
        <time>2011-11-13T08:15:43Z</time>
      </trkpt>
      <trkpt lat="49.17258" lon="2.27577">
        <ele>39</ele>
        <time>2011-11-13T08:15:45Z</time>
      </trkpt>
      <trkpt lat="49.17272" lon="2.2759">
        <ele>39</ele>
        <time>2011-11-13T08:15:47Z</time>
      </trkpt>
      <trkpt lat="49.17281" lon="2.27597">
        <ele>39</ele>
        <time>2011-11-13T08:15:48Z</time>
      </trkpt>
      <trkpt lat="49.17291" lon="2.27603">
        <ele>39</ele>
        <time>2011-11-13T08:15:49Z</time>
      </trkpt>
      <trkpt lat="49.17302" lon="2.27609">
        <ele>39</ele>
        <time>2011-11-13T08:15:50Z</time>
      </trkpt>
      <trkpt lat="49.17314" lon="2.27613">
        <ele>39</ele>
        <time>2011-11-13T08:15:51Z</time>
      </trkpt>
      <trkpt lat="49.17325" lon="2.27617">
        <ele>39</ele>
        <time>2011-11-13T08:15:52Z</time>
      </trkpt>
      <trkpt lat="49.17337" lon="2.27618">
        <ele>39</ele>
        <time>2011-11-13T08:15:53Z</time>
      </trkpt>
      <trkpt lat="49.17348" lon="2.27619">
        <ele>39</ele>
        <time>2011-11-13T08:15:54Z</time>
      </trkpt>
      <trkpt lat="49.1736" lon="2.27619">
        <ele>39</ele>
        <time>2011-11-13T08:15:55Z</time>
      </trkpt>
      <trkpt lat="49.17372" lon="2.2762">
        <ele>39</ele>
        <time>2011-11-13T08:15:56Z</time>
      </trkpt>
      <trkpt lat="49.17384" lon="2.2762">
        <ele>39</ele>
        <time>2011-11-13T08:15:57Z</time>
      </trkpt>
      <trkpt lat="49.17396" lon="2.27621">
        <ele>39</ele>
        <time>2011-11-13T08:15:58Z</time>
      </trkpt>
      <trkpt lat="49.17408" lon="2.27621">
        <ele>39</ele>
        <time>2011-11-13T08:15:59Z</time>
      </trkpt>
      <trkpt lat="49.1742" lon="2.27622">
        <ele>39</ele>
        <time>2011-11-13T08:16:00Z</time>
      </trkpt>
      <trkpt lat="49.17433" lon="2.27623">
        <ele>39</ele>
        <time>2011-11-13T08:16:01Z</time>
      </trkpt>
      <trkpt lat="49.17444" lon="2.27623">
        <ele>39</ele>
        <time>2011-11-13T08:16:02Z</time>
      </trkpt>
      <trkpt lat="49.17456" lon="2.27624">
        <ele>39</ele>
        <time>2011-11-13T08:16:03Z</time>
      </trkpt>
      <trkpt lat="49.17468" lon="2.27624">
        <ele>39</ele>
        <time>2011-11-13T08:16:04Z</time>
      </trkpt>
      <trkpt lat="49.17479" lon="2.27625">
        <ele>39</ele>
        <time>2011-11-13T08:16:05Z</time>
      </trkpt>
      <trkpt lat="49.17489" lon="2.27625">
        <ele>39</ele>
        <time>2011-11-13T08:16:06Z</time>
      </trkpt>
      <trkpt lat="49.17499" lon="2.27625">
        <ele>39</ele>
        <time>2011-11-13T08:16:07Z</time>
      </trkpt>
      <trkpt lat="49.17509" lon="2.27626">
        <ele>39</ele>
        <time>2011-11-13T08:16:08Z</time>
      </trkpt>
      <trkpt lat="49.17519" lon="2.27626">
        <ele>39</ele>
        <time>2011-11-13T08:16:09Z</time>
      </trkpt>
      <trkpt lat="49.17529" lon="2.27627">
        <ele>39</ele>
        <time>2011-11-13T08:16:10Z</time>
      </trkpt>
      <trkpt lat="49.17538" lon="2.27628">
        <ele>39</ele>
        <time>2011-11-13T08:16:11Z</time>
      </trkpt>
      <trkpt lat="49.17547" lon="2.27628">
        <ele>39</ele>
        <time>2011-11-13T08:16:12Z</time>
      </trkpt>
      <trkpt lat="49.17565" lon="2.2763">
        <ele>39</ele>
        <time>2011-11-13T08:16:14Z</time>
      </trkpt>
      <trkpt lat="49.17581" lon="2.27637">
        <ele>39</ele>
        <time>2011-11-13T08:16:16Z</time>
      </trkpt>
      <trkpt lat="49.17599" lon="2.27643">
        <ele>39</ele>
        <time>2011-11-13T08:16:18Z</time>
      </trkpt>
      <trkpt lat="49.17609" lon="2.27647">
        <ele>39</ele>
        <time>2011-11-13T08:16:19Z</time>
      </trkpt>
      <trkpt lat="49.1762" lon="2.27651">
        <ele>39</ele>
        <time>2011-11-13T08:16:20Z</time>
      </trkpt>
      <trkpt lat="49.17629" lon="2.27655">
        <ele>39</ele>
        <time>2011-11-13T08:16:21Z</time>
      </trkpt>
      <trkpt lat="49.17638" lon="2.27659">
        <ele>39</ele>
        <time>2011-11-13T08:16:22Z</time>
      </trkpt>
      <trkpt lat="49.17648" lon="2.27663">
        <ele>39</ele>
        <time>2011-11-13T08:16:23Z</time>
      </trkpt>
      <trkpt lat="49.17657" lon="2.27667">
        <ele>39</ele>
        <time>2011-11-13T08:16:24Z</time>
      </trkpt>
      <trkpt lat="49.17667" lon="2.27671">
        <ele>39</ele>
        <time>2011-11-13T08:16:25Z</time>
      </trkpt>
      <trkpt lat="49.17678" lon="2.27675">
        <ele>39</ele>
        <time>2011-11-13T08:16:26Z</time>
      </trkpt>
      <trkpt lat="49.17688" lon="2.27679">
        <ele>39</ele>
        <time>2011-11-13T08:16:27Z</time>
      </trkpt>
      <trkpt lat="49.17697" lon="2.27683">
        <ele>39</ele>
        <time>2011-11-13T08:16:28Z</time>
      </trkpt>
      <trkpt lat="49.17706" lon="2.27686">
        <ele>39</ele>
        <time>2011-11-13T08:16:29Z</time>
      </trkpt>
      <trkpt lat="49.17721" lon="2.27692">
        <ele>44</ele>
        <time>2011-11-13T08:16:31Z</time>
      </trkpt>
      <trkpt lat="49.17734" lon="2.27697">
        <ele>44</ele>
        <time>2011-11-13T08:16:33Z</time>
      </trkpt>
      <trkpt lat="49.17749" lon="2.277">
        <ele>44</ele>
        <time>2011-11-13T08:16:35Z</time>
      </trkpt>
      <trkpt lat="49.17758" lon="2.27703">
        <ele>44</ele>
        <time>2011-11-13T08:16:36Z</time>
      </trkpt>
      <trkpt lat="49.17767" lon="2.27706">
        <ele>44</ele>
        <time>2011-11-13T08:16:37Z</time>
      </trkpt>
      <trkpt lat="49.17777" lon="2.27709">
        <ele>44</ele>
        <time>2011-11-13T08:16:38Z</time>
      </trkpt>
      <trkpt lat="49.17787" lon="2.27712">
        <ele>44</ele>
        <time>2011-11-13T08:16:39Z</time>
      </trkpt>
      <trkpt lat="49.17797" lon="2.27716">
        <ele>44</ele>
        <time>2011-11-13T08:16:40Z</time>
      </trkpt>
      <trkpt lat="49.17813" lon="2.27723">
        <ele>44</ele>
        <time>2011-11-13T08:16:42Z</time>
      </trkpt>
      <trkpt lat="49.17829" lon="2.27727">
        <ele>44</ele>
        <time>2011-11-13T08:16:44Z</time>
      </trkpt>
      <trkpt lat="49.17844" lon="2.27732">
        <ele>44</ele>
        <time>2011-11-13T08:16:46Z</time>
      </trkpt>
      <trkpt lat="49.17858" lon="2.27738">
        <ele>44</ele>
        <time>2011-11-13T08:16:48Z</time>
      </trkpt>
      <trkpt lat="49.1787" lon="2.27745">
        <ele>44</ele>
        <time>2011-11-13T08:16:50Z</time>
      </trkpt>
      <trkpt lat="49.17881" lon="2.27752">
        <ele>44</ele>
        <time>2011-11-13T08:16:52Z</time>
      </trkpt>
      <trkpt lat="49.17893" lon="2.2776">
        <ele>44</ele>
        <time>2011-11-13T08:16:54Z</time>
      </trkpt>
      <trkpt lat="49.17906" lon="2.27767">
        <ele>44</ele>
        <time>2011-11-13T08:16:56Z</time>
      </trkpt>
      <trkpt lat="49.17919" lon="2.27776">
        <ele>44</ele>
        <time>2011-11-13T08:16:58Z</time>
      </trkpt>
      <trkpt lat="49.17932" lon="2.27785">
        <ele>44</ele>
        <time>2011-11-13T08:17:00Z</time>
      </trkpt>
      <trkpt lat="49.17947" lon="2.27795">
        <ele>44</ele>
        <time>2011-11-13T08:17:02Z</time>
      </trkpt>
      <trkpt lat="49.17956" lon="2.278">
        <ele>44</ele>
        <time>2011-11-13T08:17:03Z</time>
      </trkpt>
      <trkpt lat="49.17972" lon="2.27809">
        <ele>44</ele>
        <time>2011-11-13T08:17:05Z</time>
      </trkpt>
      <trkpt lat="49.17986" lon="2.27817">
        <ele>44</ele>
        <time>2011-11-13T08:17:07Z</time>
      </trkpt>
      <trkpt lat="49.17997" lon="2.27824">
        <ele>44</ele>
        <time>2011-11-13T08:17:09Z</time>
      </trkpt>
      <trkpt lat="49.1801" lon="2.27827">
        <ele>44</ele>
        <time>2011-11-13T08:17:12Z</time>
      </trkpt>
      <trkpt lat="49.1802" lon="2.27832">
        <ele>44</ele>
        <time>2011-11-13T08:17:16Z</time>
      </trkpt>
      <trkpt lat="49.18029" lon="2.27842">
        <ele>44</ele>
        <time>2011-11-13T08:17:18Z</time>
      </trkpt>
      <trkpt lat="49.18041" lon="2.27856">
        <ele>44</ele>
        <time>2011-11-13T08:17:20Z</time>
      </trkpt>
      <trkpt lat="49.18055" lon="2.2787">
        <ele>44</ele>
        <time>2011-11-13T08:17:22Z</time>
      </trkpt>
      <trkpt lat="49.18066" lon="2.27882">
        <ele>44</ele>
        <time>2011-11-13T08:17:24Z</time>
      </trkpt>
      <trkpt lat="49.18076" lon="2.27892">
        <ele>44</ele>
        <time>2011-11-13T08:17:27Z</time>
      </trkpt>
      <trkpt lat="49.18084" lon="2.27899">
        <ele>50</ele>
        <time>2011-11-13T08:17:30Z</time>
      </trkpt>
      <trkpt lat="49.18093" lon="2.27908">
        <ele>50</ele>
        <time>2011-11-13T08:17:33Z</time>
      </trkpt>
      <trkpt lat="49.18103" lon="2.27916">
        <ele>50</ele>
        <time>2011-11-13T08:17:35Z</time>
      </trkpt>
      <trkpt lat="49.18113" lon="2.27928">
        <ele>50</ele>
        <time>2011-11-13T08:17:37Z</time>
      </trkpt>
      <trkpt lat="49.18125" lon="2.2794">
        <ele>50</ele>
        <time>2011-11-13T08:17:39Z</time>
      </trkpt>
      <trkpt lat="49.18136" lon="2.27956">
        <ele>50</ele>
        <time>2011-11-13T08:17:41Z</time>
      </trkpt>
      <trkpt lat="49.18147" lon="2.27974">
        <ele>50</ele>
        <time>2011-11-13T08:17:43Z</time>
      </trkpt>
      <trkpt lat="49.18158" lon="2.27994">
        <ele>50</ele>
        <time>2011-11-13T08:17:45Z</time>
      </trkpt>
      <trkpt lat="49.18169" lon="2.28016">
        <ele>50</ele>
        <time>2011-11-13T08:17:47Z</time>
      </trkpt>
      <trkpt lat="49.18179" lon="2.28036">
        <ele>50</ele>
        <time>2011-11-13T08:17:49Z</time>
      </trkpt>
      <trkpt lat="49.18189" lon="2.28056">
        <ele>50</ele>
        <time>2011-11-13T08:17:51Z</time>
      </trkpt>
      <trkpt lat="49.182" lon="2.28074">
        <ele>50</ele>
        <time>2011-11-13T08:17:53Z</time>
      </trkpt>
      <trkpt lat="49.1821" lon="2.28091">
        <ele>50</ele>
        <time>2011-11-13T08:17:55Z</time>
      </trkpt>
      <trkpt lat="49.18221" lon="2.28109">
        <ele>50</ele>
        <time>2011-11-13T08:17:57Z</time>
      </trkpt>
      <trkpt lat="49.18231" lon="2.28126">
        <ele>50</ele>
        <time>2011-11-13T08:17:59Z</time>
      </trkpt>
      <trkpt lat="49.18241" lon="2.28144">
        <ele>50</ele>
        <time>2011-11-13T08:18:01Z</time>
      </trkpt>
      <trkpt lat="49.18251" lon="2.28162">
        <ele>50</ele>
        <time>2011-11-13T08:18:03Z</time>
      </trkpt>
      <trkpt lat="49.18262" lon="2.28178">
        <ele>50</ele>
        <time>2011-11-13T08:18:05Z</time>
      </trkpt>
      <trkpt lat="49.18274" lon="2.28192">
        <ele>50</ele>
        <time>2011-11-13T08:18:07Z</time>
      </trkpt>
      <trkpt lat="49.18287" lon="2.28203">
        <ele>50</ele>
        <time>2011-11-13T08:18:09Z</time>
      </trkpt>
      <trkpt lat="49.18298" lon="2.28214">
        <ele>50</ele>
        <time>2011-11-13T08:18:11Z</time>
      </trkpt>
      <trkpt lat="49.18303" lon="2.28231">
        <ele>50</ele>
        <time>2011-11-13T08:18:13Z</time>
      </trkpt>
      <trkpt lat="49.18305" lon="2.28248">
        <ele>50</ele>
        <time>2011-11-13T08:18:15Z</time>
      </trkpt>
      <trkpt lat="49.18307" lon="2.28266">
        <ele>50</ele>
        <time>2011-11-13T08:18:17Z</time>
      </trkpt>
      <trkpt lat="49.1831" lon="2.28287">
        <ele>50</ele>
        <time>2011-11-13T08:18:19Z</time>
      </trkpt>
      <trkpt lat="49.18314" lon="2.2831">
        <ele>50</ele>
        <time>2011-11-13T08:18:21Z</time>
      </trkpt>
      <trkpt lat="49.18318" lon="2.28334">
        <ele>50</ele>
        <time>2011-11-13T08:18:23Z</time>
      </trkpt>
      <trkpt lat="49.18322" lon="2.2836">
        <ele>50</ele>
        <time>2011-11-13T08:18:25Z</time>
      </trkpt>
      <trkpt lat="49.18326" lon="2.28388">
        <ele>50</ele>
        <time>2011-11-13T08:18:27Z</time>
      </trkpt>
      <trkpt lat="49.18328" lon="2.28402">
        <ele>50</ele>
        <time>2011-11-13T08:18:28Z</time>
      </trkpt>
      <trkpt lat="49.18331" lon="2.28417">
        <ele>50</ele>
        <time>2011-11-13T08:18:29Z</time>
      </trkpt>
      <trkpt lat="49.18333" lon="2.28433">
        <ele>50</ele>
        <time>2011-11-13T08:18:30Z</time>
      </trkpt>
      <trkpt lat="49.18335" lon="2.28448">
        <ele>50</ele>
        <time>2011-11-13T08:18:31Z</time>
      </trkpt>
      <trkpt lat="49.18338" lon="2.28462">
        <ele>50</ele>
        <time>2011-11-13T08:18:32Z</time>
      </trkpt>
      <trkpt lat="49.18342" lon="2.2849">
        <ele>50</ele>
        <time>2011-11-13T08:18:34Z</time>
      </trkpt>
      <trkpt lat="49.18344" lon="2.28504">
        <ele>50</ele>
        <time>2011-11-13T08:18:35Z</time>
      </trkpt>
      <trkpt lat="49.18347" lon="2.28525">
        <ele>50</ele>
        <time>2011-11-13T08:18:37Z</time>
      </trkpt>
      <trkpt lat="49.18354" lon="2.28535">
        <ele>50</ele>
        <time>2011-11-13T08:18:40Z</time>
      </trkpt>
      <trkpt lat="49.18364" lon="2.28529">
        <ele>50</ele>
        <time>2011-11-13T08:18:42Z</time>
      </trkpt>
      <trkpt lat="49.18378" lon="2.2852">
        <ele>50</ele>
        <time>2011-11-13T08:18:44Z</time>
      </trkpt>
      <trkpt lat="49.18396" lon="2.28511">
        <ele>50</ele>
        <time>2011-11-13T08:18:46Z</time>
      </trkpt>
      <trkpt lat="49.18406" lon="2.28505">
        <ele>50</ele>
        <time>2011-11-13T08:18:47Z</time>
      </trkpt>
      <trkpt lat="49.18415" lon="2.285">
        <ele>50</ele>
        <time>2011-11-13T08:18:48Z</time>
      </trkpt>
      <trkpt lat="49.18424" lon="2.28496">
        <ele>50</ele>
        <time>2011-11-13T08:18:49Z</time>
      </trkpt>
      <trkpt lat="49.18433" lon="2.2849">
        <ele>50</ele>
        <time>2011-11-13T08:18:50Z</time>
      </trkpt>
      <trkpt lat="49.18449" lon="2.2848">
        <ele>50</ele>
        <time>2011-11-13T08:18:52Z</time>
      </trkpt>
      <trkpt lat="49.18461" lon="2.28471">
        <ele>50</ele>
        <time>2011-11-13T08:18:54Z</time>
      </trkpt>
      <trkpt lat="49.18474" lon="2.28464">
        <ele>50</ele>
        <time>2011-11-13T08:18:56Z</time>
      </trkpt>
      <trkpt lat="49.18488" lon="2.28455">
        <ele>50</ele>
        <time>2011-11-13T08:18:58Z</time>
      </trkpt>
      <trkpt lat="49.18503" lon="2.28446">
        <ele>50</ele>
        <time>2011-11-13T08:19:00Z</time>
      </trkpt>
      <trkpt lat="49.18518" lon="2.28436">
        <ele>50</ele>
        <time>2011-11-13T08:19:02Z</time>
      </trkpt>
      <trkpt lat="49.18533" lon="2.28426">
        <ele>50</ele>
        <time>2011-11-13T08:19:04Z</time>
      </trkpt>
      <trkpt lat="49.18549" lon="2.28416">
        <ele>50</ele>
        <time>2011-11-13T08:19:06Z</time>
      </trkpt>
      <trkpt lat="49.18562" lon="2.28407">
        <ele>50</ele>
        <time>2011-11-13T08:19:08Z</time>
      </trkpt>
      <trkpt lat="49.18575" lon="2.28399">
        <ele>50</ele>
        <time>2011-11-13T08:19:10Z</time>
      </trkpt>
      <trkpt lat="49.18587" lon="2.28391">
        <ele>50</ele>
        <time>2011-11-13T08:19:12Z</time>
      </trkpt>
      <trkpt lat="49.18598" lon="2.28381">
        <ele>50</ele>
        <time>2011-11-13T08:19:14Z</time>
      </trkpt>
      <trkpt lat="49.18608" lon="2.28373">
        <ele>50</ele>
        <time>2011-11-13T08:19:16Z</time>
      </trkpt>
      <trkpt lat="49.18617" lon="2.28366">
        <ele>50</ele>
        <time>2011-11-13T08:19:18Z</time>
      </trkpt>
      <trkpt lat="49.18629" lon="2.28357">
        <ele>55</ele>
        <time>2011-11-13T08:19:21Z</time>
      </trkpt>
      <trkpt lat="49.18639" lon="2.2835">
        <ele>55</ele>
        <time>2011-11-13T08:19:24Z</time>
      </trkpt>
      <trkpt lat="49.1865" lon="2.28349">
        <ele>55</ele>
        <time>2011-11-13T08:19:26Z</time>
      </trkpt>
      <trkpt lat="49.18664" lon="2.28347">
        <ele>55</ele>
        <time>2011-11-13T08:19:28Z</time>
      </trkpt>
      <trkpt lat="49.18681" lon="2.28345">
        <ele>55</ele>
        <time>2011-11-13T08:19:30Z</time>
      </trkpt>
      <trkpt lat="49.18699" lon="2.28341">
        <ele>55</ele>
        <time>2011-11-13T08:19:32Z</time>
      </trkpt>
      <trkpt lat="49.18709" lon="2.28339">
        <ele>55</ele>
        <time>2011-11-13T08:19:33Z</time>
      </trkpt>
      <trkpt lat="49.18719" lon="2.28338">
        <ele>55</ele>
        <time>2011-11-13T08:19:34Z</time>
      </trkpt>
      <trkpt lat="49.1873" lon="2.28337">
        <ele>55</ele>
        <time>2011-11-13T08:19:35Z</time>
      </trkpt>
      <trkpt lat="49.18741" lon="2.28334">
        <ele>55</ele>
        <time>2011-11-13T08:19:36Z</time>
      </trkpt>
      <trkpt lat="49.18751" lon="2.28332">
        <ele>55</ele>
        <time>2011-11-13T08:19:37Z</time>
      </trkpt>
      <trkpt lat="49.18761" lon="2.28331">
        <ele>55</ele>
        <time>2011-11-13T08:19:38Z</time>
      </trkpt>
      <trkpt lat="49.18772" lon="2.28333">
        <ele>55</ele>
        <time>2011-11-13T08:19:39Z</time>
      </trkpt>
      <trkpt lat="49.18782" lon="2.28337">
        <ele>55</ele>
        <time>2011-11-13T08:19:40Z</time>
      </trkpt>
      <trkpt lat="49.18792" lon="2.28341">
        <ele>55</ele>
        <time>2011-11-13T08:19:41Z</time>
      </trkpt>
      <trkpt lat="49.18802" lon="2.28346">
        <ele>55</ele>
        <time>2011-11-13T08:19:42Z</time>
      </trkpt>
      <trkpt lat="49.18812" lon="2.28353">
        <ele>55</ele>
        <time>2011-11-13T08:19:43Z</time>
      </trkpt>
      <trkpt lat="49.18824" lon="2.28359">
        <ele>60</ele>
        <time>2011-11-13T08:19:44Z</time>
      </trkpt>
      <trkpt lat="49.18835" lon="2.28364">
        <ele>60</ele>
        <time>2011-11-13T08:19:45Z</time>
      </trkpt>
      <trkpt lat="49.18846" lon="2.2837">
        <ele>60</ele>
        <time>2011-11-13T08:19:46Z</time>
      </trkpt>
      <trkpt lat="49.18858" lon="2.28375">
        <ele>60</ele>
        <time>2011-11-13T08:19:47Z</time>
      </trkpt>
      <trkpt lat="49.1887" lon="2.28381">
        <ele>60</ele>
        <time>2011-11-13T08:19:48Z</time>
      </trkpt>
      <trkpt lat="49.18881" lon="2.28386">
        <ele>60</ele>
        <time>2011-11-13T08:19:49Z</time>
      </trkpt>
      <trkpt lat="49.18894" lon="2.28389">
        <ele>60</ele>
        <time>2011-11-13T08:19:50Z</time>
      </trkpt>
      <trkpt lat="49.18905" lon="2.28393">
        <ele>60</ele>
        <time>2011-11-13T08:19:51Z</time>
      </trkpt>
      <trkpt lat="49.18915" lon="2.28397">
        <ele>60</ele>
        <time>2011-11-13T08:19:52Z</time>
      </trkpt>
      <trkpt lat="49.18925" lon="2.28401">
        <ele>60</ele>
        <time>2011-11-13T08:19:53Z</time>
      </trkpt>
      <trkpt lat="49.18942" lon="2.28412">
        <ele>60</ele>
        <time>2011-11-13T08:19:55Z</time>
      </trkpt>
      <trkpt lat="49.18958" lon="2.28416">
        <ele>60</ele>
        <time>2011-11-13T08:19:57Z</time>
      </trkpt>
      <trkpt lat="49.18972" lon="2.28414">
        <ele>60</ele>
        <time>2011-11-13T08:19:59Z</time>
      </trkpt>
      <trkpt lat="49.1898" lon="2.28403">
        <ele>60</ele>
        <time>2011-11-13T08:20:01Z</time>
      </trkpt>
      <trkpt lat="49.18988" lon="2.2839">
        <ele>60</ele>
        <time>2011-11-13T08:20:04Z</time>
      </trkpt>
      <trkpt lat="49.18998" lon="2.28394">
        <ele>60</ele>
        <time>2011-11-13T08:20:07Z</time>
      </trkpt>
      <trkpt lat="49.19008" lon="2.28392">
        <ele>60</ele>
        <time>2011-11-13T08:20:09Z</time>
      </trkpt>
      <trkpt lat="49.1902" lon="2.28389">
        <ele>60</ele>
        <time>2011-11-13T08:20:11Z</time>
      </trkpt>
      <trkpt lat="49.19034" lon="2.28386">
        <ele>60</ele>
        <time>2011-11-13T08:20:13Z</time>
      </trkpt>
      <trkpt lat="49.19046" lon="2.28389">
        <ele>60</ele>
        <time>2011-11-13T08:20:15Z</time>
      </trkpt>
      <trkpt lat="49.19054" lon="2.28397">
        <ele>65</ele>
        <time>2011-11-13T08:20:26Z</time>
      </trkpt>
      <trkpt lat="49.19059" lon="2.28408">
        <ele>65</ele>
        <time>2011-11-13T08:20:33Z</time>
      </trkpt>
      <trkpt lat="49.19071" lon="2.28409">
        <ele>65</ele>
        <time>2011-11-13T08:20:36Z</time>
      </trkpt>
      <trkpt lat="49.19087" lon="2.28405">
        <ele>65</ele>
        <time>2011-11-13T08:20:38Z</time>
      </trkpt>
      <trkpt lat="49.19097" lon="2.28403">
        <ele>65</ele>
        <time>2011-11-13T08:20:39Z</time>
      </trkpt>
      <trkpt lat="49.19107" lon="2.284">
        <ele>65</ele>
        <time>2011-11-13T08:20:40Z</time>
      </trkpt>
      <trkpt lat="49.19119" lon="2.28398">
        <ele>65</ele>
        <time>2011-11-13T08:20:41Z</time>
      </trkpt>
      <trkpt lat="49.19131" lon="2.28394">
        <ele>65</ele>
        <time>2011-11-13T08:20:42Z</time>
      </trkpt>
      <trkpt lat="49.19144" lon="2.28391">
        <ele>65</ele>
        <time>2011-11-13T08:20:43Z</time>
      </trkpt>
      <trkpt lat="49.19157" lon="2.28388">
        <ele>71</ele>
        <time>2011-11-13T08:20:44Z</time>
      </trkpt>
      <trkpt lat="49.19171" lon="2.28384">
        <ele>71</ele>
        <time>2011-11-13T08:20:45Z</time>
      </trkpt>
      <trkpt lat="49.19185" lon="2.28381">
        <ele>71</ele>
        <time>2011-11-13T08:20:46Z</time>
      </trkpt>
      <trkpt lat="49.19199" lon="2.28377">
        <ele>71</ele>
        <time>2011-11-13T08:20:47Z</time>
      </trkpt>
      <trkpt lat="49.19213" lon="2.28372">
        <ele>71</ele>
        <time>2011-11-13T08:20:48Z</time>
      </trkpt>
      <trkpt lat="49.19228" lon="2.28369">
        <ele>71</ele>
        <time>2011-11-13T08:20:49Z</time>
      </trkpt>
      <trkpt lat="49.19244" lon="2.28365">
        <ele>77</ele>
        <time>2011-11-13T08:20:50Z</time>
      </trkpt>
      <trkpt lat="49.19259" lon="2.28361">
        <ele>77</ele>
        <time>2011-11-13T08:20:51Z</time>
      </trkpt>
      <trkpt lat="49.19275" lon="2.28357">
        <ele>77</ele>
        <time>2011-11-13T08:20:52Z</time>
      </trkpt>
      <trkpt lat="49.19291" lon="2.28354">
        <ele>77</ele>
        <time>2011-11-13T08:20:53Z</time>
      </trkpt>
      <trkpt lat="49.19307" lon="2.2835">
        <ele>77</ele>
        <time>2011-11-13T08:20:54Z</time>
      </trkpt>
      <trkpt lat="49.19323" lon="2.28346">
        <ele>82</ele>
        <time>2011-11-13T08:20:55Z</time>
      </trkpt>
      <trkpt lat="49.19339" lon="2.28342">
        <ele>82</ele>
        <time>2011-11-13T08:20:56Z</time>
      </trkpt>
      <trkpt lat="49.19355" lon="2.28337">
        <ele>82</ele>
        <time>2011-11-13T08:20:57Z</time>
      </trkpt>
      <trkpt lat="49.19371" lon="2.28333">
        <ele>82</ele>
        <time>2011-11-13T08:20:58Z</time>
      </trkpt>
      <trkpt lat="49.19387" lon="2.28329">
        <ele>82</ele>
        <time>2011-11-13T08:20:59Z</time>
      </trkpt>
      <trkpt lat="49.19403" lon="2.28325">
        <ele>88</ele>
        <time>2011-11-13T08:21:00Z</time>
      </trkpt>
      <trkpt lat="49.19419" lon="2.28321">
        <ele>88</ele>
        <time>2011-11-13T08:21:01Z</time>
      </trkpt>
      <trkpt lat="49.19436" lon="2.28318">
        <ele>88</ele>
        <time>2011-11-13T08:21:02Z</time>
      </trkpt>
      <trkpt lat="49.19452" lon="2.28313">
        <ele>88</ele>
        <time>2011-11-13T08:21:03Z</time>
      </trkpt>
      <trkpt lat="49.19469" lon="2.2831">
        <ele>88</ele>
        <time>2011-11-13T08:21:04Z</time>
      </trkpt>
      <trkpt lat="49.19485" lon="2.28305">
        <ele>88</ele>
        <time>2011-11-13T08:21:05Z</time>
      </trkpt>
      <trkpt lat="49.19502" lon="2.28301">
        <ele>88</ele>
        <time>2011-11-13T08:21:06Z</time>
      </trkpt>
      <trkpt lat="49.19518" lon="2.28297">
        <ele>88</ele>
        <time>2011-11-13T08:21:07Z</time>
      </trkpt>
      <trkpt lat="49.19535" lon="2.28293">
        <ele>93</ele>
        <time>2011-11-13T08:21:08Z</time>
      </trkpt>
      <trkpt lat="49.19552" lon="2.28289">
        <ele>93</ele>
        <time>2011-11-13T08:21:09Z</time>
      </trkpt>
      <trkpt lat="49.19568" lon="2.28284">
        <ele>93</ele>
        <time>2011-11-13T08:21:10Z</time>
      </trkpt>
      <trkpt lat="49.19585" lon="2.28281">
        <ele>93</ele>
        <time>2011-11-13T08:21:11Z</time>
      </trkpt>
      <trkpt lat="49.19601" lon="2.28276">
        <ele>93</ele>
        <time>2011-11-13T08:21:12Z</time>
      </trkpt>
      <trkpt lat="49.19618" lon="2.28273">
        <ele>93</ele>
        <time>2011-11-13T08:21:13Z</time>
      </trkpt>
      <trkpt lat="49.19634" lon="2.28269">
        <ele>93</ele>
        <time>2011-11-13T08:21:14Z</time>
      </trkpt>
      <trkpt lat="49.19651" lon="2.28265">
        <ele>93</ele>
        <time>2011-11-13T08:21:15Z</time>
      </trkpt>
      <trkpt lat="49.19668" lon="2.2826">
        <ele>93</ele>
        <time>2011-11-13T08:21:16Z</time>
      </trkpt>
      <trkpt lat="49.19686" lon="2.28256">
        <ele>93</ele>
        <time>2011-11-13T08:21:17Z</time>
      </trkpt>
      <trkpt lat="49.19704" lon="2.28251">
        <ele>93</ele>
        <time>2011-11-13T08:21:18Z</time>
      </trkpt>
      <trkpt lat="49.19721" lon="2.28247">
        <ele>93</ele>
        <time>2011-11-13T08:21:19Z</time>
      </trkpt>
      <trkpt lat="49.19738" lon="2.28243">
        <ele>93</ele>
        <time>2011-11-13T08:21:20Z</time>
      </trkpt>
      <trkpt lat="49.19756" lon="2.28239">
        <ele>93</ele>
        <time>2011-11-13T08:21:21Z</time>
      </trkpt>
      <trkpt lat="49.19773" lon="2.28234">
        <ele>93</ele>
        <time>2011-11-13T08:21:22Z</time>
      </trkpt>
      <trkpt lat="49.1979" lon="2.2823">
        <ele>93</ele>
        <time>2011-11-13T08:21:23Z</time>
      </trkpt>
      <trkpt lat="49.19807" lon="2.28225">
        <ele>93</ele>
        <time>2011-11-13T08:21:24Z</time>
      </trkpt>
      <trkpt lat="49.19824" lon="2.28222">
        <ele>93</ele>
        <time>2011-11-13T08:21:25Z</time>
      </trkpt>
      <trkpt lat="49.19842" lon="2.28217">
        <ele>93</ele>
        <time>2011-11-13T08:21:26Z</time>
      </trkpt>
      <trkpt lat="49.19859" lon="2.28213">
        <ele>93</ele>
        <time>2011-11-13T08:21:27Z</time>
      </trkpt>
      <trkpt lat="49.19877" lon="2.2821">
        <ele>93</ele>
        <time>2011-11-13T08:21:28Z</time>
      </trkpt>
      <trkpt lat="49.19895" lon="2.28205">
        <ele>93</ele>
        <time>2011-11-13T08:21:29Z</time>
      </trkpt>
      <trkpt lat="49.19912" lon="2.28202">
        <ele>93</ele>
        <time>2011-11-13T08:21:30Z</time>
      </trkpt>
      <trkpt lat="49.19929" lon="2.28197">
        <ele>93</ele>
        <time>2011-11-13T08:21:31Z</time>
      </trkpt>
      <trkpt lat="49.19947" lon="2.28194">
        <ele>93</ele>
        <time>2011-11-13T08:21:32Z</time>
      </trkpt>
      <trkpt lat="49.19964" lon="2.28189">
        <ele>93</ele>
        <time>2011-11-13T08:21:33Z</time>
      </trkpt>
      <trkpt lat="49.19981" lon="2.28185">
        <ele>93</ele>
        <time>2011-11-13T08:21:34Z</time>
      </trkpt>
      <trkpt lat="49.19998" lon="2.28181">
        <ele>93</ele>
        <time>2011-11-13T08:21:35Z</time>
      </trkpt>
      <trkpt lat="49.20015" lon="2.28177">
        <ele>93</ele>
        <time>2011-11-13T08:21:36Z</time>
      </trkpt>
      <trkpt lat="49.20032" lon="2.28173">
        <ele>93</ele>
        <time>2011-11-13T08:21:37Z</time>
      </trkpt>
      <trkpt lat="49.2005" lon="2.28169">
        <ele>93</ele>
        <time>2011-11-13T08:21:38Z</time>
      </trkpt>
      <trkpt lat="49.20067" lon="2.28164">
        <ele>93</ele>
        <time>2011-11-13T08:21:39Z</time>
      </trkpt>
      <trkpt lat="49.20084" lon="2.2816">
        <ele>93</ele>
        <time>2011-11-13T08:21:40Z</time>
      </trkpt>
      <trkpt lat="49.20101" lon="2.28154">
        <ele>93</ele>
        <time>2011-11-13T08:21:41Z</time>
      </trkpt>
      <trkpt lat="49.20118" lon="2.2815">
        <ele>93</ele>
        <time>2011-11-13T08:21:42Z</time>
      </trkpt>
      <trkpt lat="49.20135" lon="2.28145">
        <ele>93</ele>
        <time>2011-11-13T08:21:43Z</time>
      </trkpt>
      <trkpt lat="49.20152" lon="2.28141">
        <ele>93</ele>
        <time>2011-11-13T08:21:44Z</time>
      </trkpt>
      <trkpt lat="49.20168" lon="2.28136">
        <ele>93</ele>
        <time>2011-11-13T08:21:45Z</time>
      </trkpt>
      <trkpt lat="49.20185" lon="2.28133">
        <ele>93</ele>
        <time>2011-11-13T08:21:46Z</time>
      </trkpt>
      <trkpt lat="49.20202" lon="2.28128">
        <ele>93</ele>
        <time>2011-11-13T08:21:47Z</time>
      </trkpt>
      <trkpt lat="49.20219" lon="2.28124">
        <ele>93</ele>
        <time>2011-11-13T08:21:48Z</time>
      </trkpt>
      <trkpt lat="49.20236" lon="2.28119">
        <ele>93</ele>
        <time>2011-11-13T08:21:49Z</time>
      </trkpt>
      <trkpt lat="49.20253" lon="2.28116">
        <ele>93</ele>
        <time>2011-11-13T08:21:50Z</time>
      </trkpt>
      <trkpt lat="49.2027" lon="2.28111">
        <ele>99</ele>
        <time>2011-11-13T08:21:51Z</time>
      </trkpt>
      <trkpt lat="49.20287" lon="2.28107">
        <ele>99</ele>
        <time>2011-11-13T08:21:52Z</time>
      </trkpt>
      <trkpt lat="49.20304" lon="2.28102">
        <ele>99</ele>
        <time>2011-11-13T08:21:53Z</time>
      </trkpt>
      <trkpt lat="49.20321" lon="2.28098">
        <ele>99</ele>
        <time>2011-11-13T08:21:54Z</time>
      </trkpt>
      <trkpt lat="49.20338" lon="2.28093">
        <ele>99</ele>
        <time>2011-11-13T08:21:55Z</time>
      </trkpt>
      <trkpt lat="49.20355" lon="2.28089">
        <ele>99</ele>
        <time>2011-11-13T08:21:56Z</time>
      </trkpt>
      <trkpt lat="49.20372" lon="2.28085">
        <ele>99</ele>
        <time>2011-11-13T08:21:57Z</time>
      </trkpt>
      <trkpt lat="49.20389" lon="2.28081">
        <ele>99</ele>
        <time>2011-11-13T08:21:58Z</time>
      </trkpt>
      <trkpt lat="49.20406" lon="2.28077">
        <ele>99</ele>
        <time>2011-11-13T08:21:59Z</time>
      </trkpt>
      <trkpt lat="49.20423" lon="2.28072">
        <ele>99</ele>
        <time>2011-11-13T08:22:00Z</time>
      </trkpt>
      <trkpt lat="49.2044" lon="2.28068">
        <ele>99</ele>
        <time>2011-11-13T08:22:01Z</time>
      </trkpt>
      <trkpt lat="49.20457" lon="2.28063">
        <ele>99</ele>
        <time>2011-11-13T08:22:02Z</time>
      </trkpt>
      <trkpt lat="49.20473" lon="2.2806">
        <ele>99</ele>
        <time>2011-11-13T08:22:03Z</time>
      </trkpt>
      <trkpt lat="49.2049" lon="2.28055">
        <ele>99</ele>
        <time>2011-11-13T08:22:04Z</time>
      </trkpt>
      <trkpt lat="49.20507" lon="2.28051">
        <ele>104</ele>
        <time>2011-11-13T08:22:05Z</time>
      </trkpt>
      <trkpt lat="49.20524" lon="2.28046">
        <ele>104</ele>
        <time>2011-11-13T08:22:06Z</time>
      </trkpt>
      <trkpt lat="49.2054" lon="2.28042">
        <ele>104</ele>
        <time>2011-11-13T08:22:07Z</time>
      </trkpt>
      <trkpt lat="49.20557" lon="2.28038">
        <ele>104</ele>
        <time>2011-11-13T08:22:08Z</time>
      </trkpt>
      <trkpt lat="49.20575" lon="2.28035">
        <ele>104</ele>
        <time>2011-11-13T08:22:09Z</time>
      </trkpt>
      <trkpt lat="49.20592" lon="2.28031">
        <ele>104</ele>
        <time>2011-11-13T08:22:10Z</time>
      </trkpt>
      <trkpt lat="49.20609" lon="2.28027">
        <ele>104</ele>
        <time>2011-11-13T08:22:11Z</time>
      </trkpt>
      <trkpt lat="49.20626" lon="2.28023">
        <ele>104</ele>
        <time>2011-11-13T08:22:12Z</time>
      </trkpt>
      <trkpt lat="49.20643" lon="2.28019">
        <ele>104</ele>
        <time>2011-11-13T08:22:13Z</time>
      </trkpt>
      <trkpt lat="49.2066" lon="2.28015">
        <ele>104</ele>
        <time>2011-11-13T08:22:14Z</time>
      </trkpt>
      <trkpt lat="49.20677" lon="2.2801">
        <ele>104</ele>
        <time>2011-11-13T08:22:15Z</time>
      </trkpt>
      <trkpt lat="49.20694" lon="2.28006">
        <ele>104</ele>
        <time>2011-11-13T08:22:16Z</time>
      </trkpt>
      <trkpt lat="49.2071" lon="2.28001">
        <ele>104</ele>
        <time>2011-11-13T08:22:17Z</time>
      </trkpt>
      <trkpt lat="49.20726" lon="2.27998">
        <ele>104</ele>
        <time>2011-11-13T08:22:18Z</time>
      </trkpt>
      <trkpt lat="49.20742" lon="2.27993">
        <ele>104</ele>
        <time>2011-11-13T08:22:19Z</time>
      </trkpt>
      <trkpt lat="49.20756" lon="2.2799">
        <ele>104</ele>
        <time>2011-11-13T08:22:20Z</time>
      </trkpt>
      <trkpt lat="49.2077" lon="2.27987">
        <ele>104</ele>
        <time>2011-11-13T08:22:21Z</time>
      </trkpt>
      <trkpt lat="49.20783" lon="2.27983">
        <ele>104</ele>
        <time>2011-11-13T08:22:22Z</time>
      </trkpt>
      <trkpt lat="49.20795" lon="2.27981">
        <ele>104</ele>
        <time>2011-11-13T08:22:23Z</time>
      </trkpt>
      <trkpt lat="49.20807" lon="2.27977">
        <ele>109</ele>
        <time>2011-11-13T08:22:24Z</time>
      </trkpt>
      <trkpt lat="49.20819" lon="2.27975">
        <ele>109</ele>
        <time>2011-11-13T08:22:25Z</time>
      </trkpt>
      <trkpt lat="49.20829" lon="2.27972">
        <ele>109</ele>
        <time>2011-11-13T08:22:26Z</time>
      </trkpt>
      <trkpt lat="49.2084" lon="2.27969">
        <ele>109</ele>
        <time>2011-11-13T08:22:27Z</time>
      </trkpt>
      <trkpt lat="49.2085" lon="2.27966">
        <ele>109</ele>
        <time>2011-11-13T08:22:28Z</time>
      </trkpt>
      <trkpt lat="49.2086" lon="2.27964">
        <ele>109</ele>
        <time>2011-11-13T08:22:29Z</time>
      </trkpt>
      <trkpt lat="49.20877" lon="2.2796">
        <ele>109</ele>
        <time>2011-11-13T08:22:31Z</time>
      </trkpt>
      <trkpt lat="49.20892" lon="2.27966">
        <ele>109</ele>
        <time>2011-11-13T08:22:33Z</time>
      </trkpt>
      <trkpt lat="49.20902" lon="2.2798">
        <ele>109</ele>
        <time>2011-11-13T08:22:35Z</time>
      </trkpt>
      <trkpt lat="49.20913" lon="2.28">
        <ele>109</ele>
        <time>2011-11-13T08:22:37Z</time>
      </trkpt>
      <trkpt lat="49.2092" lon="2.2801">
        <ele>109</ele>
        <time>2011-11-13T08:22:38Z</time>
      </trkpt>
      <trkpt lat="49.20927" lon="2.28022">
        <ele>109</ele>
        <time>2011-11-13T08:22:39Z</time>
      </trkpt>
      <trkpt lat="49.20935" lon="2.28034">
        <ele>109</ele>
        <time>2011-11-13T08:22:40Z</time>
      </trkpt>
      <trkpt lat="49.20942" lon="2.28047">
        <ele>109</ele>
        <time>2011-11-13T08:22:41Z</time>
      </trkpt>
      <trkpt lat="49.2095" lon="2.28061">
        <ele>109</ele>
        <time>2011-11-13T08:22:42Z</time>
      </trkpt>
      <trkpt lat="49.20957" lon="2.28075">
        <ele>109</ele>
        <time>2011-11-13T08:22:43Z</time>
      </trkpt>
      <trkpt lat="49.20963" lon="2.28089">
        <ele>109</ele>
        <time>2011-11-13T08:22:44Z</time>
      </trkpt>
      <trkpt lat="49.20969" lon="2.28105">
        <ele>109</ele>
        <time>2011-11-13T08:22:45Z</time>
      </trkpt>
      <trkpt lat="49.20975" lon="2.28122">
        <ele>109</ele>
        <time>2011-11-13T08:22:46Z</time>
      </trkpt>
      <trkpt lat="49.20979" lon="2.28139">
        <ele>109</ele>
        <time>2011-11-13T08:22:47Z</time>
      </trkpt>
      <trkpt lat="49.20983" lon="2.28158">
        <ele>109</ele>
        <time>2011-11-13T08:22:48Z</time>
      </trkpt>
      <trkpt lat="49.20987" lon="2.28178">
        <ele>109</ele>
        <time>2011-11-13T08:22:49Z</time>
      </trkpt>
      <trkpt lat="49.20991" lon="2.28197">
        <ele>109</ele>
        <time>2011-11-13T08:22:50Z</time>
      </trkpt>
      <trkpt lat="49.20994" lon="2.28216">
        <ele>109</ele>
        <time>2011-11-13T08:22:51Z</time>
      </trkpt>
      <trkpt lat="49.20998" lon="2.28235">
        <ele>109</ele>
        <time>2011-11-13T08:22:52Z</time>
      </trkpt>
      <trkpt lat="49.21" lon="2.28252">
        <ele>109</ele>
        <time>2011-11-13T08:22:53Z</time>
      </trkpt>
      <trkpt lat="49.21003" lon="2.28267">
        <ele>109</ele>
        <time>2011-11-13T08:22:54Z</time>
      </trkpt>
      <trkpt lat="49.21006" lon="2.28283">
        <ele>109</ele>
        <time>2011-11-13T08:22:55Z</time>
      </trkpt>
      <trkpt lat="49.21009" lon="2.28298">
        <ele>109</ele>
        <time>2011-11-13T08:22:56Z</time>
      </trkpt>
      <trkpt lat="49.21012" lon="2.28314">
        <ele>109</ele>
        <time>2011-11-13T08:22:57Z</time>
      </trkpt>
      <trkpt lat="49.21015" lon="2.2833">
        <ele>109</ele>
        <time>2011-11-13T08:22:58Z</time>
      </trkpt>
      <trkpt lat="49.2102" lon="2.28346">
        <ele>109</ele>
        <time>2011-11-13T08:22:59Z</time>
      </trkpt>
      <trkpt lat="49.21025" lon="2.28362">
        <ele>109</ele>
        <time>2011-11-13T08:23:00Z</time>
      </trkpt>
      <trkpt lat="49.21029" lon="2.28377">
        <ele>109</ele>
        <time>2011-11-13T08:23:01Z</time>
      </trkpt>
      <trkpt lat="49.21033" lon="2.28393">
        <ele>109</ele>
        <time>2011-11-13T08:23:02Z</time>
      </trkpt>
      <trkpt lat="49.21038" lon="2.28407">
        <ele>109</ele>
        <time>2011-11-13T08:23:03Z</time>
      </trkpt>
      <trkpt lat="49.21044" lon="2.28422">
        <ele>109</ele>
        <time>2011-11-13T08:23:04Z</time>
      </trkpt>
      <trkpt lat="49.21049" lon="2.28436">
        <ele>109</ele>
        <time>2011-11-13T08:23:05Z</time>
      </trkpt>
      <trkpt lat="49.21054" lon="2.2845">
        <ele>109</ele>
        <time>2011-11-13T08:23:06Z</time>
      </trkpt>
      <trkpt lat="49.21059" lon="2.28463">
        <ele>109</ele>
        <time>2011-11-13T08:23:07Z</time>
      </trkpt>
      <trkpt lat="49.21064" lon="2.28477">
        <ele>109</ele>
        <time>2011-11-13T08:23:08Z</time>
      </trkpt>
      <trkpt lat="49.21069" lon="2.28492">
        <ele>109</ele>
        <time>2011-11-13T08:23:09Z</time>
      </trkpt>
      <trkpt lat="49.21074" lon="2.28506">
        <ele>109</ele>
        <time>2011-11-13T08:23:10Z</time>
      </trkpt>
      <trkpt lat="49.21079" lon="2.28521">
        <ele>109</ele>
        <time>2011-11-13T08:23:11Z</time>
      </trkpt>
      <trkpt lat="49.21085" lon="2.28535">
        <ele>109</ele>
        <time>2011-11-13T08:23:12Z</time>
      </trkpt>
      <trkpt lat="49.2109" lon="2.28549">
        <ele>109</ele>
        <time>2011-11-13T08:23:13Z</time>
      </trkpt>
      <trkpt lat="49.21096" lon="2.28564">
        <ele>109</ele>
        <time>2011-11-13T08:23:14Z</time>
      </trkpt>
      <trkpt lat="49.21102" lon="2.28578">
        <ele>109</ele>
        <time>2011-11-13T08:23:15Z</time>
      </trkpt>
      <trkpt lat="49.21108" lon="2.28593">
        <ele>109</ele>
        <time>2011-11-13T08:23:16Z</time>
      </trkpt>
      <trkpt lat="49.21114" lon="2.28609">
        <ele>109</ele>
        <time>2011-11-13T08:23:17Z</time>
      </trkpt>
      <trkpt lat="49.21118" lon="2.28625">
        <ele>109</ele>
        <time>2011-11-13T08:23:18Z</time>
      </trkpt>
      <trkpt lat="49.21123" lon="2.28641">
        <ele>109</ele>
        <time>2011-11-13T08:23:19Z</time>
      </trkpt>
      <trkpt lat="49.21128" lon="2.28658">
        <ele>109</ele>
        <time>2011-11-13T08:23:20Z</time>
      </trkpt>
      <trkpt lat="49.21133" lon="2.28674">
        <ele>109</ele>
        <time>2011-11-13T08:23:21Z</time>
      </trkpt>
      <trkpt lat="49.21138" lon="2.2869">
        <ele>109</ele>
        <time>2011-11-13T08:23:22Z</time>
      </trkpt>
      <trkpt lat="49.21142" lon="2.28707">
        <ele>109</ele>
        <time>2011-11-13T08:23:23Z</time>
      </trkpt>
      <trkpt lat="49.21146" lon="2.28723">
        <ele>109</ele>
        <time>2011-11-13T08:23:24Z</time>
      </trkpt>
      <trkpt lat="49.2115" lon="2.28739">
        <ele>109</ele>
        <time>2011-11-13T08:23:25Z</time>
      </trkpt>
      <trkpt lat="49.21155" lon="2.28755">
        <ele>109</ele>
        <time>2011-11-13T08:23:26Z</time>
      </trkpt>
      <trkpt lat="49.21159" lon="2.28771">
        <ele>109</ele>
        <time>2011-11-13T08:23:27Z</time>
      </trkpt>
      <trkpt lat="49.21164" lon="2.28788">
        <ele>109</ele>
        <time>2011-11-13T08:23:28Z</time>
      </trkpt>
      <trkpt lat="49.21169" lon="2.28805">
        <ele>109</ele>
        <time>2011-11-13T08:23:29Z</time>
      </trkpt>
      <trkpt lat="49.21174" lon="2.28823">
        <ele>109</ele>
        <time>2011-11-13T08:23:30Z</time>
      </trkpt>
      <trkpt lat="49.21179" lon="2.2884">
        <ele>109</ele>
        <time>2011-11-13T08:23:31Z</time>
      </trkpt>
      <trkpt lat="49.21185" lon="2.28858">
        <ele>109</ele>
        <time>2011-11-13T08:23:32Z</time>
      </trkpt>
      <trkpt lat="49.2119" lon="2.28876">
        <ele>109</ele>
        <time>2011-11-13T08:23:33Z</time>
      </trkpt>
      <trkpt lat="49.21195" lon="2.28895">
        <ele>109</ele>
        <time>2011-11-13T08:23:34Z</time>
      </trkpt>
      <trkpt lat="49.21201" lon="2.28914">
        <ele>109</ele>
        <time>2011-11-13T08:23:35Z</time>
      </trkpt>
      <trkpt lat="49.21206" lon="2.28932">
        <ele>109</ele>
        <time>2011-11-13T08:23:36Z</time>
      </trkpt>
      <trkpt lat="49.21211" lon="2.28949">
        <ele>109</ele>
        <time>2011-11-13T08:23:37Z</time>
      </trkpt>
      <trkpt lat="49.21215" lon="2.28965">
        <ele>109</ele>
        <time>2011-11-13T08:23:38Z</time>
      </trkpt>
      <trkpt lat="49.21219" lon="2.28979">
        <ele>109</ele>
        <time>2011-11-13T08:23:39Z</time>
      </trkpt>
      <trkpt lat="49.21228" lon="2.29002">
        <ele>109</ele>
        <time>2011-11-13T08:23:41Z</time>
      </trkpt>
      <trkpt lat="49.21235" lon="2.29028">
        <ele>109</ele>
        <time>2011-11-13T08:23:43Z</time>
      </trkpt>
      <trkpt lat="49.21241" lon="2.29051">
        <ele>109</ele>
        <time>2011-11-13T08:23:45Z</time>
      </trkpt>
      <trkpt lat="49.21247" lon="2.29069">
        <ele>109</ele>
        <time>2011-11-13T08:23:47Z</time>
      </trkpt>
      <trkpt lat="49.21254" lon="2.29088">
        <ele>109</ele>
        <time>2011-11-13T08:23:49Z</time>
      </trkpt>
      <trkpt lat="49.21262" lon="2.29112">
        <ele>109</ele>
        <time>2011-11-13T08:23:51Z</time>
      </trkpt>
      <trkpt lat="49.21267" lon="2.29127">
        <ele>109</ele>
        <time>2011-11-13T08:23:52Z</time>
      </trkpt>
      <trkpt lat="49.21272" lon="2.29143">
        <ele>109</ele>
        <time>2011-11-13T08:23:53Z</time>
      </trkpt>
      <trkpt lat="49.21277" lon="2.2916">
        <ele>109</ele>
        <time>2011-11-13T08:23:54Z</time>
      </trkpt>
      <trkpt lat="49.21282" lon="2.29178">
        <ele>109</ele>
        <time>2011-11-13T08:23:55Z</time>
      </trkpt>
      <trkpt lat="49.21288" lon="2.29197">
        <ele>109</ele>
        <time>2011-11-13T08:23:56Z</time>
      </trkpt>
      <trkpt lat="49.21295" lon="2.29217">
        <ele>109</ele>
        <time>2011-11-13T08:23:57Z</time>
      </trkpt>
      <trkpt lat="49.21301" lon="2.29237">
        <ele>109</ele>
        <time>2011-11-13T08:23:58Z</time>
      </trkpt>
      <trkpt lat="49.21308" lon="2.29257">
        <ele>109</ele>
        <time>2011-11-13T08:23:59Z</time>
      </trkpt>
      <trkpt lat="49.21315" lon="2.29279">
        <ele>109</ele>
        <time>2011-11-13T08:24:00Z</time>
      </trkpt>
      <trkpt lat="49.21322" lon="2.293">
        <ele>109</ele>
        <time>2011-11-13T08:24:01Z</time>
      </trkpt>
      <trkpt lat="49.21328" lon="2.29321">
        <ele>109</ele>
        <time>2011-11-13T08:24:02Z</time>
      </trkpt>
      <trkpt lat="49.21335" lon="2.29341">
        <ele>109</ele>
        <time>2011-11-13T08:24:03Z</time>
      </trkpt>
      <trkpt lat="49.21341" lon="2.2936">
        <ele>109</ele>
        <time>2011-11-13T08:24:04Z</time>
      </trkpt>
      <trkpt lat="49.21347" lon="2.29378">
        <ele>109</ele>
        <time>2011-11-13T08:24:05Z</time>
      </trkpt>
      <trkpt lat="49.21351" lon="2.29393">
        <ele>109</ele>
        <time>2011-11-13T08:24:06Z</time>
      </trkpt>
      <trkpt lat="49.21356" lon="2.29407">
        <ele>109</ele>
        <time>2011-11-13T08:24:07Z</time>
      </trkpt>
      <trkpt lat="49.21361" lon="2.29423">
        <ele>109</ele>
        <time>2011-11-13T08:24:08Z</time>
      </trkpt>
      <trkpt lat="49.21365" lon="2.29437">
        <ele>109</ele>
        <time>2011-11-13T08:24:09Z</time>
      </trkpt>
      <trkpt lat="49.2137" lon="2.29451">
        <ele>109</ele>
        <time>2011-11-13T08:24:10Z</time>
      </trkpt>
      <trkpt lat="49.21374" lon="2.29465">
        <ele>109</ele>
        <time>2011-11-13T08:24:11Z</time>
      </trkpt>
      <trkpt lat="49.21379" lon="2.29478">
        <ele>109</ele>
        <time>2011-11-13T08:24:12Z</time>
      </trkpt>
      <trkpt lat="49.21384" lon="2.29493">
        <ele>109</ele>
        <time>2011-11-13T08:24:13Z</time>
      </trkpt>
      <trkpt lat="49.21388" lon="2.29506">
        <ele>109</ele>
        <time>2011-11-13T08:24:14Z</time>
      </trkpt>
      <trkpt lat="49.21392" lon="2.29519">
        <ele>109</ele>
        <time>2011-11-13T08:24:15Z</time>
      </trkpt>
      <trkpt lat="49.21399" lon="2.29543">
        <ele>109</ele>
        <time>2011-11-13T08:24:17Z</time>
      </trkpt>
      <trkpt lat="49.21405" lon="2.29564">
        <ele>109</ele>
        <time>2011-11-13T08:24:19Z</time>
      </trkpt>
      <trkpt lat="49.21413" lon="2.2958">
        <ele>109</ele>
        <time>2011-11-13T08:24:21Z</time>
      </trkpt>
      <trkpt lat="49.21421" lon="2.29594">
        <ele>109</ele>
        <time>2011-11-13T08:24:23Z</time>
      </trkpt>
      <trkpt lat="49.21434" lon="2.29607">
        <ele>109</ele>
        <time>2011-11-13T08:24:25Z</time>
      </trkpt>
      <trkpt lat="49.21447" lon="2.29618">
        <ele>109</ele>
        <time>2011-11-13T08:24:27Z</time>
      </trkpt>
      <trkpt lat="49.21459" lon="2.2963">
        <ele>109</ele>
        <time>2011-11-13T08:24:29Z</time>
      </trkpt>
      <trkpt lat="49.21472" lon="2.29643">
        <ele>109</ele>
        <time>2011-11-13T08:24:31Z</time>
      </trkpt>
      <trkpt lat="49.21485" lon="2.29655">
        <ele>114</ele>
        <time>2011-11-13T08:24:33Z</time>
      </trkpt>
      <trkpt lat="49.21499" lon="2.2967">
        <ele>114</ele>
        <time>2011-11-13T08:24:35Z</time>
      </trkpt>
      <trkpt lat="49.21514" lon="2.29684">
        <ele>114</ele>
        <time>2011-11-13T08:24:37Z</time>
      </trkpt>
      <trkpt lat="49.2153" lon="2.29698">
        <ele>114</ele>
        <time>2011-11-13T08:24:39Z</time>
      </trkpt>
      <trkpt lat="49.21538" lon="2.29706">
        <ele>114</ele>
        <time>2011-11-13T08:24:40Z</time>
      </trkpt>
      <trkpt lat="49.21546" lon="2.29714">
        <ele>114</ele>
        <time>2011-11-13T08:24:41Z</time>
      </trkpt>
      <trkpt lat="49.21561" lon="2.29729">
        <ele>114</ele>
        <time>2011-11-13T08:24:43Z</time>
      </trkpt>
      <trkpt lat="49.21576" lon="2.29743">
        <ele>114</ele>
        <time>2011-11-13T08:24:45Z</time>
      </trkpt>
      <trkpt lat="49.21583" lon="2.29751">
        <ele>114</ele>
        <time>2011-11-13T08:24:46Z</time>
      </trkpt>
      <trkpt lat="49.21591" lon="2.29759">
        <ele>114</ele>
        <time>2011-11-13T08:24:47Z</time>
      </trkpt>
      <trkpt lat="49.21606" lon="2.29775">
        <ele>114</ele>
        <time>2011-11-13T08:24:49Z</time>
      </trkpt>
      <trkpt lat="49.21614" lon="2.29783">
        <ele>114</ele>
        <time>2011-11-13T08:24:50Z</time>
      </trkpt>
      <trkpt lat="49.21629" lon="2.29798">
        <ele>114</ele>
        <time>2011-11-13T08:24:52Z</time>
      </trkpt>
      <trkpt lat="49.21637" lon="2.29806">
        <ele>114</ele>
        <time>2011-11-13T08:24:53Z</time>
      </trkpt>
      <trkpt lat="49.21652" lon="2.29821">
        <ele>114</ele>
        <time>2011-11-13T08:24:55Z</time>
      </trkpt>
      <trkpt lat="49.2166" lon="2.2983">
        <ele>114</ele>
        <time>2011-11-13T08:24:56Z</time>
      </trkpt>
      <trkpt lat="49.21667" lon="2.29838">
        <ele>114</ele>
        <time>2011-11-13T08:24:57Z</time>
      </trkpt>
      <trkpt lat="49.21676" lon="2.29845">
        <ele>114</ele>
        <time>2011-11-13T08:24:58Z</time>
      </trkpt>
      <trkpt lat="49.21684" lon="2.29853">
        <ele>114</ele>
        <time>2011-11-13T08:24:59Z</time>
      </trkpt>
      <trkpt lat="49.21691" lon="2.29861">
        <ele>114</ele>
        <time>2011-11-13T08:25:00Z</time>
      </trkpt>
      <trkpt lat="49.217" lon="2.29869">
        <ele>120</ele>
        <time>2011-11-13T08:25:01Z</time>
      </trkpt>
      <trkpt lat="49.21707" lon="2.29877">
        <ele>120</ele>
        <time>2011-11-13T08:25:02Z</time>
      </trkpt>
      <trkpt lat="49.21716" lon="2.29885">
        <ele>120</ele>
        <time>2011-11-13T08:25:03Z</time>
      </trkpt>
      <trkpt lat="49.21724" lon="2.29893">
        <ele>120</ele>
        <time>2011-11-13T08:25:04Z</time>
      </trkpt>
      <trkpt lat="49.21732" lon="2.29902">
        <ele>120</ele>
        <time>2011-11-13T08:25:05Z</time>
      </trkpt>
      <trkpt lat="49.2174" lon="2.2991">
        <ele>120</ele>
        <time>2011-11-13T08:25:06Z</time>
      </trkpt>
      <trkpt lat="49.21749" lon="2.29918">
        <ele>120</ele>
        <time>2011-11-13T08:25:07Z</time>
      </trkpt>
      <trkpt lat="49.21757" lon="2.29927">
        <ele>120</ele>
        <time>2011-11-13T08:25:08Z</time>
      </trkpt>
      <trkpt lat="49.21765" lon="2.29935">
        <ele>120</ele>
        <time>2011-11-13T08:25:09Z</time>
      </trkpt>
      <trkpt lat="49.21773" lon="2.29943">
        <ele>120</ele>
        <time>2011-11-13T08:25:10Z</time>
      </trkpt>
      <trkpt lat="49.21787" lon="2.29958">
        <ele>120</ele>
        <time>2011-11-13T08:25:12Z</time>
      </trkpt>
      <trkpt lat="49.21801" lon="2.29971">
        <ele>120</ele>
        <time>2011-11-13T08:25:14Z</time>
      </trkpt>
      <trkpt lat="49.21811" lon="2.29981">
        <ele>120</ele>
        <time>2011-11-13T08:25:16Z</time>
      </trkpt>
      <trkpt lat="49.21822" lon="2.29971">
        <ele>120</ele>
        <time>2011-11-13T08:25:19Z</time>
      </trkpt>
      <trkpt lat="49.21829" lon="2.29952">
        <ele>120</ele>
        <time>2011-11-13T08:25:21Z</time>
      </trkpt>
      <trkpt lat="49.21837" lon="2.29927">
        <ele>120</ele>
        <time>2011-11-13T08:25:23Z</time>
      </trkpt>
      <trkpt lat="49.21842" lon="2.29913">
        <ele>120</ele>
        <time>2011-11-13T08:25:24Z</time>
      </trkpt>
      <trkpt lat="49.21847" lon="2.29899">
        <ele>120</ele>
        <time>2011-11-13T08:25:25Z</time>
      </trkpt>
      <trkpt lat="49.21852" lon="2.29883">
        <ele>120</ele>
        <time>2011-11-13T08:25:26Z</time>
      </trkpt>
      <trkpt lat="49.21857" lon="2.29868">
        <ele>120</ele>
        <time>2011-11-13T08:25:27Z</time>
      </trkpt>
      <trkpt lat="49.21863" lon="2.29854">
        <ele>120</ele>
        <time>2011-11-13T08:25:28Z</time>
      </trkpt>
      <trkpt lat="49.21868" lon="2.29839">
        <ele>120</ele>
        <time>2011-11-13T08:25:29Z</time>
      </trkpt>
      <trkpt lat="49.21873" lon="2.29824">
        <ele>120</ele>
        <time>2011-11-13T08:25:30Z</time>
      </trkpt>
      <trkpt lat="49.21879" lon="2.29809">
        <ele>120</ele>
        <time>2011-11-13T08:25:31Z</time>
      </trkpt>
      <trkpt lat="49.21884" lon="2.29794">
        <ele>120</ele>
        <time>2011-11-13T08:25:32Z</time>
      </trkpt>
      <trkpt lat="49.21889" lon="2.29779">
        <ele>120</ele>
        <time>2011-11-13T08:25:33Z</time>
      </trkpt>
      <trkpt lat="49.21894" lon="2.29764">
        <ele>120</ele>
        <time>2011-11-13T08:25:34Z</time>
      </trkpt>
      <trkpt lat="49.219" lon="2.2975">
        <ele>125</ele>
        <time>2011-11-13T08:25:35Z</time>
      </trkpt>
      <trkpt lat="49.21905" lon="2.29734">
        <ele>125</ele>
        <time>2011-11-13T08:25:36Z</time>
      </trkpt>
      <trkpt lat="49.2191" lon="2.2972">
        <ele>125</ele>
        <time>2011-11-13T08:25:37Z</time>
      </trkpt>
      <trkpt lat="49.21916" lon="2.29706">
        <ele>125</ele>
        <time>2011-11-13T08:25:38Z</time>
      </trkpt>
      <trkpt lat="49.21921" lon="2.29691">
        <ele>125</ele>
        <time>2011-11-13T08:25:39Z</time>
      </trkpt>
      <trkpt lat="49.21926" lon="2.29676">
        <ele>125</ele>
        <time>2011-11-13T08:25:40Z</time>
      </trkpt>
      <trkpt lat="49.21931" lon="2.29662">
        <ele>125</ele>
        <time>2011-11-13T08:25:41Z</time>
      </trkpt>
      <trkpt lat="49.21937" lon="2.29646">
        <ele>125</ele>
        <time>2011-11-13T08:25:42Z</time>
      </trkpt>
      <trkpt lat="49.21942" lon="2.29631">
        <ele>125</ele>
        <time>2011-11-13T08:25:43Z</time>
      </trkpt>
      <trkpt lat="49.21947" lon="2.29615">
        <ele>125</ele>
        <time>2011-11-13T08:25:44Z</time>
      </trkpt>
      <trkpt lat="49.21953" lon="2.296">
        <ele>125</ele>
        <time>2011-11-13T08:25:45Z</time>
      </trkpt>
      <trkpt lat="49.21959" lon="2.29583">
        <ele>125</ele>
        <time>2011-11-13T08:25:46Z</time>
      </trkpt>
      <trkpt lat="49.21964" lon="2.29568">
        <ele>125</ele>
        <time>2011-11-13T08:25:47Z</time>
      </trkpt>
      <trkpt lat="49.2197" lon="2.29552">
        <ele>125</ele>
        <time>2011-11-13T08:25:48Z</time>
      </trkpt>
      <trkpt lat="49.21976" lon="2.29536">
        <ele>125</ele>
        <time>2011-11-13T08:25:49Z</time>
      </trkpt>
      <trkpt lat="49.21982" lon="2.29521">
        <ele>125</ele>
        <time>2011-11-13T08:25:50Z</time>
      </trkpt>
      <trkpt lat="49.21987" lon="2.29506">
        <ele>125</ele>
        <time>2011-11-13T08:25:51Z</time>
      </trkpt>
      <trkpt lat="49.21993" lon="2.29491">
        <ele>125</ele>
        <time>2011-11-13T08:25:52Z</time>
      </trkpt>
      <trkpt lat="49.21999" lon="2.29476">
        <ele>125</ele>
        <time>2011-11-13T08:25:53Z</time>
      </trkpt>
      <trkpt lat="49.22004" lon="2.2946">
        <ele>125</ele>
        <time>2011-11-13T08:25:54Z</time>
      </trkpt>
      <trkpt lat="49.22009" lon="2.29446">
        <ele>125</ele>
        <time>2011-11-13T08:25:55Z</time>
      </trkpt>
      <trkpt lat="49.22014" lon="2.29432">
        <ele>125</ele>
        <time>2011-11-13T08:25:56Z</time>
      </trkpt>
      <trkpt lat="49.22019" lon="2.29417">
        <ele>125</ele>
        <time>2011-11-13T08:25:57Z</time>
      </trkpt>
      <trkpt lat="49.22024" lon="2.29403">
        <ele>130</ele>
        <time>2011-11-13T08:25:58Z</time>
      </trkpt>
      <trkpt lat="49.22029" lon="2.29389">
        <ele>130</ele>
        <time>2011-11-13T08:25:59Z</time>
      </trkpt>
      <trkpt lat="49.22035" lon="2.29375">
        <ele>130</ele>
        <time>2011-11-13T08:26:00Z</time>
      </trkpt>
      <trkpt lat="49.22039" lon="2.29361">
        <ele>130</ele>
        <time>2011-11-13T08:26:01Z</time>
      </trkpt>
      <trkpt lat="49.22044" lon="2.29347">
        <ele>130</ele>
        <time>2011-11-13T08:26:02Z</time>
      </trkpt>
      <trkpt lat="49.22049" lon="2.29333">
        <ele>130</ele>
        <time>2011-11-13T08:26:03Z</time>
      </trkpt>
      <trkpt lat="49.22053" lon="2.29318">
        <ele>130</ele>
        <time>2011-11-13T08:26:04Z</time>
      </trkpt>
      <trkpt lat="49.22059" lon="2.29305">
        <ele>130</ele>
        <time>2011-11-13T08:26:05Z</time>
      </trkpt>
      <trkpt lat="49.22063" lon="2.29292">
        <ele>130</ele>
        <time>2011-11-13T08:26:06Z</time>
      </trkpt>
      <trkpt lat="49.22068" lon="2.2928">
        <ele>130</ele>
        <time>2011-11-13T08:26:07Z</time>
      </trkpt>
      <trkpt lat="49.22073" lon="2.29268">
        <ele>130</ele>
        <time>2011-11-13T08:26:08Z</time>
      </trkpt>
      <trkpt lat="49.22083" lon="2.29247">
        <ele>130</ele>
        <time>2011-11-13T08:26:10Z</time>
      </trkpt>
      <trkpt lat="49.22095" lon="2.29226">
        <ele>130</ele>
        <time>2011-11-13T08:26:12Z</time>
      </trkpt>
      <trkpt lat="49.22102" lon="2.29214">
        <ele>130</ele>
        <time>2011-11-13T08:26:13Z</time>
      </trkpt>
      <trkpt lat="49.22108" lon="2.29203">
        <ele>130</ele>
        <time>2011-11-13T08:26:14Z</time>
      </trkpt>
      <trkpt lat="49.22115" lon="2.29192">
        <ele>130</ele>
        <time>2011-11-13T08:26:15Z</time>
      </trkpt>
      <trkpt lat="49.22122" lon="2.29179">
        <ele>130</ele>
        <time>2011-11-13T08:26:16Z</time>
      </trkpt>
      <trkpt lat="49.22129" lon="2.29167">
        <ele>130</ele>
        <time>2011-11-13T08:26:17Z</time>
      </trkpt>
      <trkpt lat="49.22135" lon="2.29156">
        <ele>130</ele>
        <time>2011-11-13T08:26:18Z</time>
      </trkpt>
      <trkpt lat="49.22142" lon="2.29144">
        <ele>130</ele>
        <time>2011-11-13T08:26:19Z</time>
      </trkpt>
      <trkpt lat="49.22149" lon="2.29132">
        <ele>130</ele>
        <time>2011-11-13T08:26:20Z</time>
      </trkpt>
      <trkpt lat="49.22156" lon="2.2912">
        <ele>130</ele>
        <time>2011-11-13T08:26:21Z</time>
      </trkpt>
      <trkpt lat="49.22163" lon="2.29108">
        <ele>130</ele>
        <time>2011-11-13T08:26:22Z</time>
      </trkpt>
      <trkpt lat="49.2217" lon="2.29096">
        <ele>130</ele>
        <time>2011-11-13T08:26:23Z</time>
      </trkpt>
      <trkpt lat="49.22176" lon="2.29085">
        <ele>130</ele>
        <time>2011-11-13T08:26:24Z</time>
      </trkpt>
      <trkpt lat="49.22183" lon="2.29074">
        <ele>130</ele>
        <time>2011-11-13T08:26:25Z</time>
      </trkpt>
      <trkpt lat="49.22189" lon="2.29062">
        <ele>130</ele>
        <time>2011-11-13T08:26:26Z</time>
      </trkpt>
      <trkpt lat="49.22196" lon="2.29051">
        <ele>130</ele>
        <time>2011-11-13T08:26:27Z</time>
      </trkpt>
      <trkpt lat="49.22207" lon="2.29032">
        <ele>130</ele>
        <time>2011-11-13T08:26:29Z</time>
      </trkpt>
      <trkpt lat="49.22213" lon="2.29019">
        <ele>130</ele>
        <time>2011-11-13T08:26:31Z</time>
      </trkpt>
      <trkpt lat="49.22223" lon="2.29011">
        <ele>130</ele>
        <time>2011-11-13T08:26:34Z</time>
      </trkpt>
      <trkpt lat="49.22235" lon="2.29013">
        <ele>130</ele>
        <time>2011-11-13T08:26:36Z</time>
      </trkpt>
      <trkpt lat="49.22249" lon="2.29016">
        <ele>130</ele>
        <time>2011-11-13T08:26:38Z</time>
      </trkpt>
      <trkpt lat="49.22262" lon="2.29023">
        <ele>130</ele>
        <time>2011-11-13T08:26:40Z</time>
      </trkpt>
      <trkpt lat="49.22273" lon="2.29031">
        <ele>130</ele>
        <time>2011-11-13T08:26:42Z</time>
      </trkpt>
      <trkpt lat="49.22283" lon="2.29039">
        <ele>130</ele>
        <time>2011-11-13T08:26:44Z</time>
      </trkpt>
      <trkpt lat="49.22293" lon="2.29045">
        <ele>130</ele>
        <time>2011-11-13T08:26:46Z</time>
      </trkpt>
      <trkpt lat="49.22303" lon="2.29052">
        <ele>130</ele>
        <time>2011-11-13T08:26:48Z</time>
      </trkpt>
      <trkpt lat="49.22316" lon="2.29061">
        <ele>130</ele>
        <time>2011-11-13T08:26:50Z</time>
      </trkpt>
      <trkpt lat="49.22331" lon="2.29074">
        <ele>130</ele>
        <time>2011-11-13T08:26:52Z</time>
      </trkpt>
      <trkpt lat="49.22339" lon="2.2908">
        <ele>130</ele>
        <time>2011-11-13T08:26:53Z</time>
      </trkpt>
      <trkpt lat="49.22348" lon="2.29087">
        <ele>130</ele>
        <time>2011-11-13T08:26:54Z</time>
      </trkpt>
      <trkpt lat="49.22356" lon="2.29093">
        <ele>130</ele>
        <time>2011-11-13T08:26:55Z</time>
      </trkpt>
      <trkpt lat="49.22371" lon="2.29104">
        <ele>130</ele>
        <time>2011-11-13T08:26:57Z</time>
      </trkpt>
      <trkpt lat="49.22381" lon="2.29111">
        <ele>130</ele>
        <time>2011-11-13T08:26:59Z</time>
      </trkpt>
      <trkpt lat="49.22384" lon="2.29127">
        <ele>130</ele>
        <time>2011-11-13T08:27:02Z</time>
      </trkpt>
      <trkpt lat="49.22379" lon="2.2915">
        <ele>130</ele>
        <time>2011-11-13T08:27:04Z</time>
      </trkpt>
      <trkpt lat="49.22376" lon="2.29166">
        <ele>130</ele>
        <time>2011-11-13T08:27:05Z</time>
      </trkpt>
      <trkpt lat="49.22372" lon="2.29183">
        <ele>130</ele>
        <time>2011-11-13T08:27:06Z</time>
      </trkpt>
      <trkpt lat="49.22368" lon="2.29202">
        <ele>130</ele>
        <time>2011-11-13T08:27:07Z</time>
      </trkpt>
      <trkpt lat="49.22363" lon="2.29221">
        <ele>130</ele>
        <time>2011-11-13T08:27:08Z</time>
      </trkpt>
      <trkpt lat="49.22359" lon="2.29241">
        <ele>130</ele>
        <time>2011-11-13T08:27:09Z</time>
      </trkpt>
      <trkpt lat="49.22355" lon="2.29262">
        <ele>130</ele>
        <time>2011-11-13T08:27:10Z</time>
      </trkpt>
      <trkpt lat="49.22352" lon="2.29282">
        <ele>130</ele>
        <time>2011-11-13T08:27:11Z</time>
      </trkpt>
      <trkpt lat="49.22347" lon="2.29302">
        <ele>130</ele>
        <time>2011-11-13T08:27:12Z</time>
      </trkpt>
      <trkpt lat="49.22343" lon="2.29323">
        <ele>130</ele>
        <time>2011-11-13T08:27:13Z</time>
      </trkpt>
      <trkpt lat="49.22339" lon="2.29344">
        <ele>130</ele>
        <time>2011-11-13T08:27:14Z</time>
      </trkpt>
      <trkpt lat="49.22335" lon="2.29365">
        <ele>130</ele>
        <time>2011-11-13T08:27:15Z</time>
      </trkpt>
      <trkpt lat="49.2233" lon="2.29386">
        <ele>130</ele>
        <time>2011-11-13T08:27:16Z</time>
      </trkpt>
      <trkpt lat="49.22326" lon="2.29406">
        <ele>130</ele>
        <time>2011-11-13T08:27:17Z</time>
      </trkpt>
      <trkpt lat="49.22322" lon="2.29426">
        <ele>130</ele>
        <time>2011-11-13T08:27:18Z</time>
      </trkpt>
      <trkpt lat="49.22318" lon="2.29448">
        <ele>130</ele>
        <time>2011-11-13T08:27:19Z</time>
      </trkpt>
      <trkpt lat="49.22314" lon="2.29469">
        <ele>130</ele>
        <time>2011-11-13T08:27:20Z</time>
      </trkpt>
      <trkpt lat="49.22309" lon="2.29491">
        <ele>130</ele>
        <time>2011-11-13T08:27:21Z</time>
      </trkpt>
      <trkpt lat="49.22305" lon="2.29513">
        <ele>130</ele>
        <time>2011-11-13T08:27:22Z</time>
      </trkpt>
      <trkpt lat="49.223" lon="2.29536">
        <ele>130</ele>
        <time>2011-11-13T08:27:23Z</time>
      </trkpt>
      <trkpt lat="49.22296" lon="2.29558">
        <ele>130</ele>
        <time>2011-11-13T08:27:24Z</time>
      </trkpt>
      <trkpt lat="49.22291" lon="2.29581">
        <ele>130</ele>
        <time>2011-11-13T08:27:25Z</time>
      </trkpt>
      <trkpt lat="49.22286" lon="2.29604">
        <ele>130</ele>
        <time>2011-11-13T08:27:26Z</time>
      </trkpt>
      <trkpt lat="49.22282" lon="2.29627">
        <ele>130</ele>
        <time>2011-11-13T08:27:27Z</time>
      </trkpt>
      <trkpt lat="49.22277" lon="2.29651">
        <ele>130</ele>
        <time>2011-11-13T08:27:28Z</time>
      </trkpt>
      <trkpt lat="49.22273" lon="2.29674">
        <ele>130</ele>
        <time>2011-11-13T08:27:29Z</time>
      </trkpt>
      <trkpt lat="49.22268" lon="2.29698">
        <ele>130</ele>
        <time>2011-11-13T08:27:30Z</time>
      </trkpt>
      <trkpt lat="49.22263" lon="2.29723">
        <ele>130</ele>
        <time>2011-11-13T08:27:31Z</time>
      </trkpt>
      <trkpt lat="49.22259" lon="2.29747">
        <ele>130</ele>
        <time>2011-11-13T08:27:32Z</time>
      </trkpt>
      <trkpt lat="49.22254" lon="2.29771">
        <ele>130</ele>
        <time>2011-11-13T08:27:33Z</time>
      </trkpt>
      <trkpt lat="49.22249" lon="2.29795">
        <ele>130</ele>
        <time>2011-11-13T08:27:34Z</time>
      </trkpt>
      <trkpt lat="49.22244" lon="2.2982">
        <ele>130</ele>
        <time>2011-11-13T08:27:35Z</time>
      </trkpt>
      <trkpt lat="49.22239" lon="2.29843">
        <ele>130</ele>
        <time>2011-11-13T08:27:36Z</time>
      </trkpt>
      <trkpt lat="49.22235" lon="2.29867">
        <ele>130</ele>
        <time>2011-11-13T08:27:37Z</time>
      </trkpt>
      <trkpt lat="49.2223" lon="2.29891">
        <ele>130</ele>
        <time>2011-11-13T08:27:38Z</time>
      </trkpt>
      <trkpt lat="49.22226" lon="2.29913">
        <ele>130</ele>
        <time>2011-11-13T08:27:39Z</time>
      </trkpt>
      <trkpt lat="49.22221" lon="2.29935">
        <ele>130</ele>
        <time>2011-11-13T08:27:40Z</time>
      </trkpt>
      <trkpt lat="49.22217" lon="2.29956">
        <ele>130</ele>
        <time>2011-11-13T08:27:41Z</time>
      </trkpt>
      <trkpt lat="49.22213" lon="2.29977">
        <ele>130</ele>
        <time>2011-11-13T08:27:42Z</time>
      </trkpt>
      <trkpt lat="49.22209" lon="2.29998">
        <ele>130</ele>
        <time>2011-11-13T08:27:43Z</time>
      </trkpt>
      <trkpt lat="49.22206" lon="2.30016">
        <ele>130</ele>
        <time>2011-11-13T08:27:44Z</time>
      </trkpt>
      <trkpt lat="49.22202" lon="2.30034">
        <ele>130</ele>
        <time>2011-11-13T08:27:45Z</time>
      </trkpt>
      <trkpt lat="49.22198" lon="2.30052">
        <ele>130</ele>
        <time>2011-11-13T08:27:46Z</time>
      </trkpt>
      <trkpt lat="49.22195" lon="2.30068">
        <ele>130</ele>
        <time>2011-11-13T08:27:47Z</time>
      </trkpt>
      <trkpt lat="49.22191" lon="2.30084">
        <ele>130</ele>
        <time>2011-11-13T08:27:48Z</time>
      </trkpt>
      <trkpt lat="49.22187" lon="2.30098">
        <ele>130</ele>
        <time>2011-11-13T08:27:49Z</time>
      </trkpt>
      <trkpt lat="49.22182" lon="2.30121">
        <ele>130</ele>
        <time>2011-11-13T08:27:51Z</time>
      </trkpt>
      <trkpt lat="49.22179" lon="2.30138">
        <ele>130</ele>
        <time>2011-11-13T08:27:53Z</time>
      </trkpt>
      <trkpt lat="49.22185" lon="2.30149">
        <ele>130</ele>
        <time>2011-11-13T08:27:56Z</time>
      </trkpt>
      <trkpt lat="49.22196" lon="2.3015">
        <ele>130</ele>
        <time>2011-11-13T08:28:03Z</time>
      </trkpt>
      <trkpt lat="49.22207" lon="2.30153">
        <ele>130</ele>
        <time>2011-11-13T08:28:05Z</time>
      </trkpt>
      <trkpt lat="49.22218" lon="2.30156">
        <ele>130</ele>
        <time>2011-11-13T08:28:07Z</time>
      </trkpt>
      <trkpt lat="49.2223" lon="2.30157">
        <ele>130</ele>
        <time>2011-11-13T08:28:09Z</time>
      </trkpt>
      <trkpt lat="49.22245" lon="2.30158">
        <ele>130</ele>
        <time>2011-11-13T08:28:11Z</time>
      </trkpt>
      <trkpt lat="49.22261" lon="2.30162">
        <ele>130</ele>
        <time>2011-11-13T08:28:13Z</time>
      </trkpt>
      <trkpt lat="49.22278" lon="2.30165">
        <ele>130</ele>
        <time>2011-11-13T08:28:15Z</time>
      </trkpt>
      <trkpt lat="49.22288" lon="2.30165">
        <ele>130</ele>
        <time>2011-11-13T08:28:16Z</time>
      </trkpt>
      <trkpt lat="49.22306" lon="2.30167">
        <ele>130</ele>
        <time>2011-11-13T08:28:18Z</time>
      </trkpt>
      <trkpt lat="49.22324" lon="2.3017">
        <ele>130</ele>
        <time>2011-11-13T08:28:20Z</time>
      </trkpt>
      <trkpt lat="49.22343" lon="2.30173">
        <ele>130</ele>
        <time>2011-11-13T08:28:22Z</time>
      </trkpt>
      <trkpt lat="49.22362" lon="2.30173">
        <ele>130</ele>
        <time>2011-11-13T08:28:24Z</time>
      </trkpt>
      <trkpt lat="49.22371" lon="2.30172">
        <ele>130</ele>
        <time>2011-11-13T08:28:25Z</time>
      </trkpt>
      <trkpt lat="49.22381" lon="2.3017">
        <ele>130</ele>
        <time>2011-11-13T08:28:26Z</time>
      </trkpt>
      <trkpt lat="49.22391" lon="2.30167">
        <ele>130</ele>
        <time>2011-11-13T08:28:27Z</time>
      </trkpt>
      <trkpt lat="49.22402" lon="2.30165">
        <ele>130</ele>
        <time>2011-11-13T08:28:28Z</time>
      </trkpt>
      <trkpt lat="49.22412" lon="2.30163">
        <ele>130</ele>
        <time>2011-11-13T08:28:29Z</time>
      </trkpt>
      <trkpt lat="49.22422" lon="2.30161">
        <ele>130</ele>
        <time>2011-11-13T08:28:30Z</time>
      </trkpt>
      <trkpt lat="49.22433" lon="2.30159">
        <ele>130</ele>
        <time>2011-11-13T08:28:31Z</time>
      </trkpt>
      <trkpt lat="49.22444" lon="2.30157">
        <ele>130</ele>
        <time>2011-11-13T08:28:32Z</time>
      </trkpt>
      <trkpt lat="49.22455" lon="2.30156">
        <ele>130</ele>
        <time>2011-11-13T08:28:33Z</time>
      </trkpt>
      <trkpt lat="49.22465" lon="2.30155">
        <ele>130</ele>
        <time>2011-11-13T08:28:34Z</time>
      </trkpt>
      <trkpt lat="49.22474" lon="2.30154">
        <ele>130</ele>
        <time>2011-11-13T08:28:35Z</time>
      </trkpt>
      <trkpt lat="49.22491" lon="2.30154">
        <ele>130</ele>
        <time>2011-11-13T08:28:37Z</time>
      </trkpt>
      <trkpt lat="49.22508" lon="2.30154">
        <ele>130</ele>
        <time>2011-11-13T08:28:39Z</time>
      </trkpt>
      <trkpt lat="49.22517" lon="2.30155">
        <ele>130</ele>
        <time>2011-11-13T08:28:40Z</time>
      </trkpt>
      <trkpt lat="49.22526" lon="2.30155">
        <ele>130</ele>
        <time>2011-11-13T08:28:41Z</time>
      </trkpt>
      <trkpt lat="49.22536" lon="2.30156">
        <ele>130</ele>
        <time>2011-11-13T08:28:42Z</time>
      </trkpt>
      <trkpt lat="49.22546" lon="2.30156">
        <ele>130</ele>
        <time>2011-11-13T08:28:43Z</time>
      </trkpt>
      <trkpt lat="49.22556" lon="2.30156">
        <ele>130</ele>
        <time>2011-11-13T08:28:44Z</time>
      </trkpt>
      <trkpt lat="49.22566" lon="2.30157">
        <ele>130</ele>
        <time>2011-11-13T08:28:45Z</time>
      </trkpt>
      <trkpt lat="49.22576" lon="2.30157">
        <ele>130</ele>
        <time>2011-11-13T08:28:46Z</time>
      </trkpt>
      <trkpt lat="49.22586" lon="2.30157">
        <ele>130</ele>
        <time>2011-11-13T08:28:47Z</time>
      </trkpt>
      <trkpt lat="49.22596" lon="2.30158">
        <ele>124</ele>
        <time>2011-11-13T08:28:48Z</time>
      </trkpt>
      <trkpt lat="49.22614" lon="2.30162">
        <ele>124</ele>
        <time>2011-11-13T08:28:50Z</time>
      </trkpt>
      <trkpt lat="49.22623" lon="2.30164">
        <ele>124</ele>
        <time>2011-11-13T08:28:51Z</time>
      </trkpt>
      <trkpt lat="49.22633" lon="2.30165">
        <ele>124</ele>
        <time>2011-11-13T08:28:52Z</time>
      </trkpt>
      <trkpt lat="49.22642" lon="2.30166">
        <ele>124</ele>
        <time>2011-11-13T08:28:53Z</time>
      </trkpt>
      <trkpt lat="49.22652" lon="2.30168">
        <ele>124</ele>
        <time>2011-11-13T08:28:54Z</time>
      </trkpt>
      <trkpt lat="49.22662" lon="2.3017">
        <ele>124</ele>
        <time>2011-11-13T08:28:55Z</time>
      </trkpt>
      <trkpt lat="49.22673" lon="2.30172">
        <ele>119</ele>
        <time>2011-11-13T08:28:56Z</time>
      </trkpt>
      <trkpt lat="49.22683" lon="2.30174">
        <ele>119</ele>
        <time>2011-11-13T08:28:57Z</time>
      </trkpt>
      <trkpt lat="49.22695" lon="2.30174">
        <ele>119</ele>
        <time>2011-11-13T08:28:58Z</time>
      </trkpt>
      <trkpt lat="49.22705" lon="2.30176">
        <ele>119</ele>
        <time>2011-11-13T08:28:59Z</time>
      </trkpt>
      <trkpt lat="49.22716" lon="2.30177">
        <ele>119</ele>
        <time>2011-11-13T08:29:00Z</time>
      </trkpt>
      <trkpt lat="49.22728" lon="2.30179">
        <ele>119</ele>
        <time>2011-11-13T08:29:01Z</time>
      </trkpt>
      <trkpt lat="49.22738" lon="2.30179">
        <ele>119</ele>
        <time>2011-11-13T08:29:02Z</time>
      </trkpt>
      <trkpt lat="49.22749" lon="2.3018">
        <ele>119</ele>
        <time>2011-11-13T08:29:03Z</time>
      </trkpt>
      <trkpt lat="49.22761" lon="2.30181">
        <ele>119</ele>
        <time>2011-11-13T08:29:04Z</time>
      </trkpt>
      <trkpt lat="49.22771" lon="2.30182">
        <ele>119</ele>
        <time>2011-11-13T08:29:05Z</time>
      </trkpt>
      <trkpt lat="49.22782" lon="2.30182">
        <ele>119</ele>
        <time>2011-11-13T08:29:06Z</time>
      </trkpt>
      <trkpt lat="49.22793" lon="2.30183">
        <ele>119</ele>
        <time>2011-11-13T08:29:07Z</time>
      </trkpt>
      <trkpt lat="49.22804" lon="2.30184">
        <ele>119</ele>
        <time>2011-11-13T08:29:08Z</time>
      </trkpt>
      <trkpt lat="49.22815" lon="2.30185">
        <ele>119</ele>
        <time>2011-11-13T08:29:09Z</time>
      </trkpt>
      <trkpt lat="49.22825" lon="2.30186">
        <ele>119</ele>
        <time>2011-11-13T08:29:10Z</time>
      </trkpt>
      <trkpt lat="49.22836" lon="2.30188">
        <ele>119</ele>
        <time>2011-11-13T08:29:11Z</time>
      </trkpt>
      <trkpt lat="49.22847" lon="2.30191">
        <ele>119</ele>
        <time>2011-11-13T08:29:12Z</time>
      </trkpt>
      <trkpt lat="49.22858" lon="2.30192">
        <ele>119</ele>
        <time>2011-11-13T08:29:13Z</time>
      </trkpt>
      <trkpt lat="49.22869" lon="2.30194">
        <ele>119</ele>
        <time>2011-11-13T08:29:14Z</time>
      </trkpt>
      <trkpt lat="49.2288" lon="2.30197">
        <ele>119</ele>
        <time>2011-11-13T08:29:15Z</time>
      </trkpt>
      <trkpt lat="49.22891" lon="2.30199">
        <ele>119</ele>
        <time>2011-11-13T08:29:16Z</time>
      </trkpt>
      <trkpt lat="49.22902" lon="2.30201">
        <ele>119</ele>
        <time>2011-11-13T08:29:17Z</time>
      </trkpt>
      <trkpt lat="49.22912" lon="2.30203">
        <ele>124</ele>
        <time>2011-11-13T08:29:18Z</time>
      </trkpt>
      <trkpt lat="49.22922" lon="2.30205">
        <ele>124</ele>
        <time>2011-11-13T08:29:19Z</time>
      </trkpt>
      <trkpt lat="49.22931" lon="2.30206">
        <ele>124</ele>
        <time>2011-11-13T08:29:20Z</time>
      </trkpt>
      <trkpt lat="49.22949" lon="2.30209">
        <ele>124</ele>
        <time>2011-11-13T08:29:22Z</time>
      </trkpt>
      <trkpt lat="49.22966" lon="2.30209">
        <ele>130</ele>
        <time>2011-11-13T08:29:24Z</time>
      </trkpt>
      <trkpt lat="49.22984" lon="2.30207">
        <ele>130</ele>
        <time>2011-11-13T08:29:26Z</time>
      </trkpt>
      <trkpt lat="49.23002" lon="2.30208">
        <ele>130</ele>
        <time>2011-11-13T08:29:28Z</time>
      </trkpt>
      <trkpt lat="49.23019" lon="2.30214">
        <ele>130</ele>
        <time>2011-11-13T08:29:30Z</time>
      </trkpt>
      <trkpt lat="49.23035" lon="2.30224">
        <ele>130</ele>
        <time>2011-11-13T08:29:32Z</time>
      </trkpt>
      <trkpt lat="49.23051" lon="2.30238">
        <ele>135</ele>
        <time>2011-11-13T08:29:34Z</time>
      </trkpt>
      <trkpt lat="49.23059" lon="2.30245">
        <ele>135</ele>
        <time>2011-11-13T08:29:35Z</time>
      </trkpt>
      <trkpt lat="49.23068" lon="2.30254">
        <ele>135</ele>
        <time>2011-11-13T08:29:36Z</time>
      </trkpt>
      <trkpt lat="49.23076" lon="2.30263">
        <ele>135</ele>
        <time>2011-11-13T08:29:37Z</time>
      </trkpt>
      <trkpt lat="49.23085" lon="2.30273">
        <ele>135</ele>
        <time>2011-11-13T08:29:38Z</time>
      </trkpt>
      <trkpt lat="49.23093" lon="2.30284">
        <ele>135</ele>
        <time>2011-11-13T08:29:39Z</time>
      </trkpt>
      <trkpt lat="49.23102" lon="2.30295">
        <ele>135</ele>
        <time>2011-11-13T08:29:40Z</time>
      </trkpt>
      <trkpt lat="49.23111" lon="2.30307">
        <ele>135</ele>
        <time>2011-11-13T08:29:41Z</time>
      </trkpt>
      <trkpt lat="49.23121" lon="2.30318">
        <ele>135</ele>
        <time>2011-11-13T08:29:42Z</time>
      </trkpt>
      <trkpt lat="49.23131" lon="2.30329">
        <ele>135</ele>
        <time>2011-11-13T08:29:43Z</time>
      </trkpt>
      <trkpt lat="49.23141" lon="2.30341">
        <ele>135</ele>
        <time>2011-11-13T08:29:44Z</time>
      </trkpt>
      <trkpt lat="49.23151" lon="2.30351">
        <ele>135</ele>
        <time>2011-11-13T08:29:45Z</time>
      </trkpt>
      <trkpt lat="49.2316" lon="2.30363">
        <ele>135</ele>
        <time>2011-11-13T08:29:46Z</time>
      </trkpt>
      <trkpt lat="49.23169" lon="2.30376">
        <ele>135</ele>
        <time>2011-11-13T08:29:47Z</time>
      </trkpt>
      <trkpt lat="49.23179" lon="2.30387">
        <ele>135</ele>
        <time>2011-11-13T08:29:48Z</time>
      </trkpt>
      <trkpt lat="49.23188" lon="2.30398">
        <ele>135</ele>
        <time>2011-11-13T08:29:49Z</time>
      </trkpt>
      <trkpt lat="49.23197" lon="2.30408">
        <ele>135</ele>
        <time>2011-11-13T08:29:50Z</time>
      </trkpt>
      <trkpt lat="49.23205" lon="2.30419">
        <ele>135</ele>
        <time>2011-11-13T08:29:51Z</time>
      </trkpt>
      <trkpt lat="49.23212" lon="2.30429">
        <ele>135</ele>
        <time>2011-11-13T08:29:52Z</time>
      </trkpt>
      <trkpt lat="49.23219" lon="2.30439">
        <ele>140</ele>
        <time>2011-11-13T08:29:53Z</time>
      </trkpt>
      <trkpt lat="49.23226" lon="2.30451">
        <ele>140</ele>
        <time>2011-11-13T08:29:54Z</time>
      </trkpt>
      <trkpt lat="49.23237" lon="2.30471">
        <ele>140</ele>
        <time>2011-11-13T08:29:56Z</time>
      </trkpt>
      <trkpt lat="49.23239" lon="2.30489">
        <ele>140</ele>
        <time>2011-11-13T08:29:58Z</time>
      </trkpt>
      <trkpt lat="49.23242" lon="2.30503">
        <ele>140</ele>
        <time>2011-11-13T08:30:00Z</time>
      </trkpt>
      <trkpt lat="49.23253" lon="2.30516">
        <ele>140</ele>
        <time>2011-11-13T08:30:02Z</time>
      </trkpt>
      <trkpt lat="49.23264" lon="2.30543">
        <ele>140</ele>
        <time>2011-11-13T08:30:04Z</time>
      </trkpt>
      <trkpt lat="49.23271" lon="2.30559">
        <ele>140</ele>
        <time>2011-11-13T08:30:05Z</time>
      </trkpt>
      <trkpt lat="49.2328" lon="2.30575">
        <ele>140</ele>
        <time>2011-11-13T08:30:06Z</time>
      </trkpt>
      <trkpt lat="49.23289" lon="2.30593">
        <ele>140</ele>
        <time>2011-11-13T08:30:07Z</time>
      </trkpt>
      <trkpt lat="49.23299" lon="2.30612">
        <ele>140</ele>
        <time>2011-11-13T08:30:08Z</time>
      </trkpt>
      <trkpt lat="49.23308" lon="2.3063">
        <ele>140</ele>
        <time>2011-11-13T08:30:09Z</time>
      </trkpt>
      <trkpt lat="49.23316" lon="2.30648">
        <ele>140</ele>
        <time>2011-11-13T08:30:10Z</time>
      </trkpt>
      <trkpt lat="49.23324" lon="2.30665">
        <ele>140</ele>
        <time>2011-11-13T08:30:11Z</time>
      </trkpt>
      <trkpt lat="49.23331" lon="2.30681">
        <ele>140</ele>
        <time>2011-11-13T08:30:12Z</time>
      </trkpt>
      <trkpt lat="49.23337" lon="2.30695">
        <ele>140</ele>
        <time>2011-11-13T08:30:13Z</time>
      </trkpt>
      <trkpt lat="49.23342" lon="2.30708">
        <ele>140</ele>
        <time>2011-11-13T08:30:14Z</time>
      </trkpt>
      <trkpt lat="49.23351" lon="2.30727">
        <ele>140</ele>
        <time>2011-11-13T08:30:16Z</time>
      </trkpt>
      <trkpt lat="49.23357" lon="2.3074">
        <ele>140</ele>
        <time>2011-11-13T08:30:20Z</time>
      </trkpt>
      <trkpt lat="49.23366" lon="2.30757">
        <ele>140</ele>
        <time>2011-11-13T08:30:23Z</time>
      </trkpt>
      <trkpt lat="49.23377" lon="2.30778">
        <ele>140</ele>
        <time>2011-11-13T08:30:25Z</time>
      </trkpt>
      <trkpt lat="49.23382" lon="2.30791">
        <ele>140</ele>
        <time>2011-11-13T08:30:26Z</time>
      </trkpt>
      <trkpt lat="49.23389" lon="2.30804">
        <ele>140</ele>
        <time>2011-11-13T08:30:27Z</time>
      </trkpt>
      <trkpt lat="49.23396" lon="2.30819">
        <ele>140</ele>
        <time>2011-11-13T08:30:28Z</time>
      </trkpt>
      <trkpt lat="49.23404" lon="2.30833">
        <ele>140</ele>
        <time>2011-11-13T08:30:29Z</time>
      </trkpt>
      <trkpt lat="49.23411" lon="2.30849">
        <ele>140</ele>
        <time>2011-11-13T08:30:30Z</time>
      </trkpt>
      <trkpt lat="49.23419" lon="2.30864">
        <ele>140</ele>
        <time>2011-11-13T08:30:31Z</time>
      </trkpt>
      <trkpt lat="49.23427" lon="2.30881">
        <ele>140</ele>
        <time>2011-11-13T08:30:32Z</time>
      </trkpt>
      <trkpt lat="49.23435" lon="2.30896">
        <ele>140</ele>
        <time>2011-11-13T08:30:33Z</time>
      </trkpt>
      <trkpt lat="49.23443" lon="2.30912">
        <ele>140</ele>
        <time>2011-11-13T08:30:34Z</time>
      </trkpt>
      <trkpt lat="49.23452" lon="2.30928">
        <ele>140</ele>
        <time>2011-11-13T08:30:35Z</time>
      </trkpt>
      <trkpt lat="49.23461" lon="2.30944">
        <ele>140</ele>
        <time>2011-11-13T08:30:36Z</time>
      </trkpt>
      <trkpt lat="49.23469" lon="2.3096">
        <ele>140</ele>
        <time>2011-11-13T08:30:37Z</time>
      </trkpt>
      <trkpt lat="49.23477" lon="2.30974">
        <ele>140</ele>
        <time>2011-11-13T08:30:38Z</time>
      </trkpt>
      <trkpt lat="49.23485" lon="2.30987">
        <ele>134</ele>
        <time>2011-11-13T08:30:39Z</time>
      </trkpt>
      <trkpt lat="49.23494" lon="2.30998">
        <ele>134</ele>
        <time>2011-11-13T08:30:40Z</time>
      </trkpt>
      <trkpt lat="49.23503" lon="2.31006">
        <ele>134</ele>
        <time>2011-11-13T08:30:41Z</time>
      </trkpt>
      <trkpt lat="49.23513" lon="2.31013">
        <ele>134</ele>
        <time>2011-11-13T08:30:42Z</time>
      </trkpt>
      <trkpt lat="49.23524" lon="2.31017">
        <ele>134</ele>
        <time>2011-11-13T08:30:43Z</time>
      </trkpt>
      <trkpt lat="49.23535" lon="2.3102">
        <ele>134</ele>
        <time>2011-11-13T08:30:44Z</time>
      </trkpt>
      <trkpt lat="49.23546" lon="2.31022">
        <ele>134</ele>
        <time>2011-11-13T08:30:45Z</time>
      </trkpt>
      <trkpt lat="49.23557" lon="2.31025">
        <ele>134</ele>
        <time>2011-11-13T08:30:46Z</time>
      </trkpt>
      <trkpt lat="49.23567" lon="2.31028">
        <ele>134</ele>
        <time>2011-11-13T08:30:47Z</time>
      </trkpt>
      <trkpt lat="49.23584" lon="2.31031">
        <ele>134</ele>
        <time>2011-11-13T08:30:49Z</time>
      </trkpt>
      <trkpt lat="49.23597" lon="2.31031">
        <ele>134</ele>
        <time>2011-11-13T08:30:51Z</time>
      </trkpt>
      <trkpt lat="49.23607" lon="2.31033">
        <ele>129</ele>
        <time>2011-11-13T08:30:54Z</time>
      </trkpt>
      <trkpt lat="49.23617" lon="2.31034">
        <ele>129</ele>
        <time>2011-11-13T08:30:58Z</time>
      </trkpt>
      <trkpt lat="49.23627" lon="2.31034">
        <ele>129</ele>
        <time>2011-11-13T08:31:04Z</time>
      </trkpt>
      <trkpt lat="49.23637" lon="2.31037">
        <ele>129</ele>
        <time>2011-11-13T08:31:06Z</time>
      </trkpt>
      <trkpt lat="49.23648" lon="2.31045">
        <ele>129</ele>
        <time>2011-11-13T08:31:08Z</time>
      </trkpt>
      <trkpt lat="49.23662" lon="2.31057">
        <ele>129</ele>
        <time>2011-11-13T08:31:10Z</time>
      </trkpt>
      <trkpt lat="49.23671" lon="2.31063">
        <ele>129</ele>
        <time>2011-11-13T08:31:11Z</time>
      </trkpt>
      <trkpt lat="49.23679" lon="2.31069">
        <ele>129</ele>
        <time>2011-11-13T08:31:12Z</time>
      </trkpt>
      <trkpt lat="49.23688" lon="2.31076">
        <ele>129</ele>
        <time>2011-11-13T08:31:13Z</time>
      </trkpt>
      <trkpt lat="49.23697" lon="2.31084">
        <ele>135</ele>
        <time>2011-11-13T08:31:14Z</time>
      </trkpt>
      <trkpt lat="49.23707" lon="2.31091">
        <ele>135</ele>
        <time>2011-11-13T08:31:15Z</time>
      </trkpt>
      <trkpt lat="49.23715" lon="2.31099">
        <ele>135</ele>
        <time>2011-11-13T08:31:16Z</time>
      </trkpt>
      <trkpt lat="49.23729" lon="2.31112">
        <ele>135</ele>
        <time>2011-11-13T08:31:18Z</time>
      </trkpt>
      <trkpt lat="49.23741" lon="2.31124">
        <ele>135</ele>
        <time>2011-11-13T08:31:20Z</time>
      </trkpt>
      <trkpt lat="49.23749" lon="2.31135">
        <ele>135</ele>
        <time>2011-11-13T08:31:22Z</time>
      </trkpt>
      <trkpt lat="49.23757" lon="2.31144">
        <ele>135</ele>
        <time>2011-11-13T08:31:24Z</time>
      </trkpt>
      <trkpt lat="49.23767" lon="2.31156">
        <ele>135</ele>
        <time>2011-11-13T08:31:27Z</time>
      </trkpt>
      <trkpt lat="49.23774" lon="2.31166">
        <ele>135</ele>
        <time>2011-11-13T08:31:29Z</time>
      </trkpt>
      <trkpt lat="49.23781" lon="2.31176">
        <ele>135</ele>
        <time>2011-11-13T08:31:31Z</time>
      </trkpt>
      <trkpt lat="49.23788" lon="2.31186">
        <ele>135</ele>
        <time>2011-11-13T08:31:33Z</time>
      </trkpt>
      <trkpt lat="49.23797" lon="2.31196">
        <ele>140</ele>
        <time>2011-11-13T08:31:35Z</time>
      </trkpt>
      <trkpt lat="49.23806" lon="2.31207">
        <ele>140</ele>
        <time>2011-11-13T08:31:37Z</time>
      </trkpt>
      <trkpt lat="49.23817" lon="2.3122">
        <ele>140</ele>
        <time>2011-11-13T08:31:39Z</time>
      </trkpt>
      <trkpt lat="49.23829" lon="2.31237">
        <ele>140</ele>
        <time>2011-11-13T08:31:41Z</time>
      </trkpt>
      <trkpt lat="49.23844" lon="2.31254">
        <ele>140</ele>
        <time>2011-11-13T08:31:43Z</time>
      </trkpt>
      <trkpt lat="49.23851" lon="2.31263">
        <ele>140</ele>
        <time>2011-11-13T08:31:44Z</time>
      </trkpt>
      <trkpt lat="49.23858" lon="2.31273">
        <ele>140</ele>
        <time>2011-11-13T08:31:45Z</time>
      </trkpt>
      <trkpt lat="49.23865" lon="2.31283">
        <ele>140</ele>
        <time>2011-11-13T08:31:46Z</time>
      </trkpt>
      <trkpt lat="49.23872" lon="2.31293">
        <ele>140</ele>
        <time>2011-11-13T08:31:47Z</time>
      </trkpt>
      <trkpt lat="49.23879" lon="2.31302">
        <ele>140</ele>
        <time>2011-11-13T08:31:48Z</time>
      </trkpt>
      <trkpt lat="49.23888" lon="2.31312">
        <ele>140</ele>
        <time>2011-11-13T08:31:49Z</time>
      </trkpt>
      <trkpt lat="49.23897" lon="2.3132">
        <ele>140</ele>
        <time>2011-11-13T08:31:50Z</time>
      </trkpt>
      <trkpt lat="49.23905" lon="2.31328">
        <ele>140</ele>
        <time>2011-11-13T08:31:51Z</time>
      </trkpt>
      <trkpt lat="49.23915" lon="2.31336">
        <ele>140</ele>
        <time>2011-11-13T08:31:52Z</time>
      </trkpt>
      <trkpt lat="49.23924" lon="2.31343">
        <ele>140</ele>
        <time>2011-11-13T08:31:53Z</time>
      </trkpt>
      <trkpt lat="49.23933" lon="2.31351">
        <ele>140</ele>
        <time>2011-11-13T08:31:54Z</time>
      </trkpt>
      <trkpt lat="49.23942" lon="2.31359">
        <ele>140</ele>
        <time>2011-11-13T08:31:55Z</time>
      </trkpt>
      <trkpt lat="49.23952" lon="2.31367">
        <ele>140</ele>
        <time>2011-11-13T08:31:56Z</time>
      </trkpt>
      <trkpt lat="49.23962" lon="2.31376">
        <ele>140</ele>
        <time>2011-11-13T08:31:57Z</time>
      </trkpt>
      <trkpt lat="49.23972" lon="2.31385">
        <ele>140</ele>
        <time>2011-11-13T08:31:58Z</time>
      </trkpt>
      <trkpt lat="49.23983" lon="2.31394">
        <ele>140</ele>
        <time>2011-11-13T08:31:59Z</time>
      </trkpt>
      <trkpt lat="49.23994" lon="2.31404">
        <ele>140</ele>
        <time>2011-11-13T08:32:00Z</time>
      </trkpt>
      <trkpt lat="49.24005" lon="2.31413">
        <ele>140</ele>
        <time>2011-11-13T08:32:01Z</time>
      </trkpt>
      <trkpt lat="49.24015" lon="2.31422">
        <ele>140</ele>
        <time>2011-11-13T08:32:02Z</time>
      </trkpt>
      <trkpt lat="49.24027" lon="2.31431">
        <ele>140</ele>
        <time>2011-11-13T08:32:03Z</time>
      </trkpt>
      <trkpt lat="49.24037" lon="2.3144">
        <ele>140</ele>
        <time>2011-11-13T08:32:04Z</time>
      </trkpt>
      <trkpt lat="49.24047" lon="2.31449">
        <ele>140</ele>
        <time>2011-11-13T08:32:05Z</time>
      </trkpt>
      <trkpt lat="49.24057" lon="2.31458">
        <ele>140</ele>
        <time>2011-11-13T08:32:06Z</time>
      </trkpt>
      <trkpt lat="49.24066" lon="2.31467">
        <ele>140</ele>
        <time>2011-11-13T08:32:07Z</time>
      </trkpt>
      <trkpt lat="49.24076" lon="2.31475">
        <ele>140</ele>
        <time>2011-11-13T08:32:08Z</time>
      </trkpt>
      <trkpt lat="49.24085" lon="2.31483">
        <ele>140</ele>
        <time>2011-11-13T08:32:09Z</time>
      </trkpt>
      <trkpt lat="49.24094" lon="2.31491">
        <ele>140</ele>
        <time>2011-11-13T08:32:10Z</time>
      </trkpt>
      <trkpt lat="49.24104" lon="2.31499">
        <ele>140</ele>
        <time>2011-11-13T08:32:11Z</time>
      </trkpt>
      <trkpt lat="49.24114" lon="2.31507">
        <ele>140</ele>
        <time>2011-11-13T08:32:12Z</time>
      </trkpt>
      <trkpt lat="49.24123" lon="2.31515">
        <ele>140</ele>
        <time>2011-11-13T08:32:13Z</time>
      </trkpt>
      <trkpt lat="49.24132" lon="2.31523">
        <ele>140</ele>
        <time>2011-11-13T08:32:14Z</time>
      </trkpt>
      <trkpt lat="49.24142" lon="2.31532">
        <ele>134</ele>
        <time>2011-11-13T08:32:15Z</time>
      </trkpt>
      <trkpt lat="49.24152" lon="2.3154">
        <ele>134</ele>
        <time>2011-11-13T08:32:16Z</time>
      </trkpt>
      <trkpt lat="49.24161" lon="2.31548">
        <ele>134</ele>
        <time>2011-11-13T08:32:17Z</time>
      </trkpt>
      <trkpt lat="49.2417" lon="2.31556">
        <ele>134</ele>
        <time>2011-11-13T08:32:18Z</time>
      </trkpt>
      <trkpt lat="49.24178" lon="2.31563">
        <ele>134</ele>
        <time>2011-11-13T08:32:19Z</time>
      </trkpt>
      <trkpt lat="49.24194" lon="2.31577">
        <ele>134</ele>
        <time>2011-11-13T08:32:21Z</time>
      </trkpt>
      <trkpt lat="49.24209" lon="2.3159">
        <ele>134</ele>
        <time>2011-11-13T08:32:23Z</time>
      </trkpt>
      <trkpt lat="49.24225" lon="2.31604">
        <ele>128</ele>
        <time>2011-11-13T08:32:25Z</time>
      </trkpt>
      <trkpt lat="49.24241" lon="2.31617">
        <ele>128</ele>
        <time>2011-11-13T08:32:27Z</time>
      </trkpt>
      <trkpt lat="49.24249" lon="2.31624">
        <ele>128</ele>
        <time>2011-11-13T08:32:28Z</time>
      </trkpt>
      <trkpt lat="49.24258" lon="2.31632">
        <ele>128</ele>
        <time>2011-11-13T08:32:29Z</time>
      </trkpt>
      <trkpt lat="49.24266" lon="2.3164">
        <ele>128</ele>
        <time>2011-11-13T08:32:30Z</time>
      </trkpt>
      <trkpt lat="49.24275" lon="2.31648">
        <ele>128</ele>
        <time>2011-11-13T08:32:31Z</time>
      </trkpt>
      <trkpt lat="49.24284" lon="2.31655">
        <ele>128</ele>
        <time>2011-11-13T08:32:32Z</time>
      </trkpt>
      <trkpt lat="49.24293" lon="2.31663">
        <ele>128</ele>
        <time>2011-11-13T08:32:33Z</time>
      </trkpt>
      <trkpt lat="49.24302" lon="2.31669">
        <ele>123</ele>
        <time>2011-11-13T08:32:34Z</time>
      </trkpt>
      <trkpt lat="49.24311" lon="2.31676">
        <ele>123</ele>
        <time>2011-11-13T08:32:35Z</time>
      </trkpt>
      <trkpt lat="49.24319" lon="2.31685">
        <ele>123</ele>
        <time>2011-11-13T08:32:36Z</time>
      </trkpt>
      <trkpt lat="49.24328" lon="2.31692">
        <ele>123</ele>
        <time>2011-11-13T08:32:37Z</time>
      </trkpt>
      <trkpt lat="49.24337" lon="2.317">
        <ele>123</ele>
        <time>2011-11-13T08:32:38Z</time>
      </trkpt>
      <trkpt lat="49.24345" lon="2.31707">
        <ele>123</ele>
        <time>2011-11-13T08:32:39Z</time>
      </trkpt>
      <trkpt lat="49.24361" lon="2.3172">
        <ele>123</ele>
        <time>2011-11-13T08:32:41Z</time>
      </trkpt>
      <trkpt lat="49.24373" lon="2.31731">
        <ele>123</ele>
        <time>2011-11-13T08:32:43Z</time>
      </trkpt>
      <trkpt lat="49.24382" lon="2.3174">
        <ele>123</ele>
        <time>2011-11-13T08:32:45Z</time>
      </trkpt>
      <trkpt lat="49.24386" lon="2.31753">
        <ele>117</ele>
        <time>2011-11-13T08:32:47Z</time>
      </trkpt>
      <trkpt lat="49.24384" lon="2.31769">
        <ele>117</ele>
        <time>2011-11-13T08:32:49Z</time>
      </trkpt>
      <trkpt lat="49.24375" lon="2.31785">
        <ele>117</ele>
        <time>2011-11-13T08:32:51Z</time>
      </trkpt>
      <trkpt lat="49.24364" lon="2.31805">
        <ele>117</ele>
        <time>2011-11-13T08:32:53Z</time>
      </trkpt>
      <trkpt lat="49.24358" lon="2.31817">
        <ele>117</ele>
        <time>2011-11-13T08:32:54Z</time>
      </trkpt>
      <trkpt lat="49.24351" lon="2.31828">
        <ele>117</ele>
        <time>2011-11-13T08:32:55Z</time>
      </trkpt>
      <trkpt lat="49.24345" lon="2.3184">
        <ele>117</ele>
        <time>2011-11-13T08:32:56Z</time>
      </trkpt>
      <trkpt lat="49.24338" lon="2.31852">
        <ele>117</ele>
        <time>2011-11-13T08:32:57Z</time>
      </trkpt>
      <trkpt lat="49.24331" lon="2.31863">
        <ele>117</ele>
        <time>2011-11-13T08:32:58Z</time>
      </trkpt>
      <trkpt lat="49.24324" lon="2.31874">
        <ele>112</ele>
        <time>2011-11-13T08:32:59Z</time>
      </trkpt>
      <trkpt lat="49.24318" lon="2.31885">
        <ele>112</ele>
        <time>2011-11-13T08:33:00Z</time>
      </trkpt>
      <trkpt lat="49.24311" lon="2.31895">
        <ele>112</ele>
        <time>2011-11-13T08:33:01Z</time>
      </trkpt>
      <trkpt lat="49.24301" lon="2.31914">
        <ele>112</ele>
        <time>2011-11-13T08:33:03Z</time>
      </trkpt>
      <trkpt lat="49.24293" lon="2.3193">
        <ele>112</ele>
        <time>2011-11-13T08:33:05Z</time>
      </trkpt>
      <trkpt lat="49.24286" lon="2.31944">
        <ele>112</ele>
        <time>2011-11-13T08:33:07Z</time>
      </trkpt>
      <trkpt lat="49.24285" lon="2.31961">
        <ele>112</ele>
        <time>2011-11-13T08:33:09Z</time>
      </trkpt>
      <trkpt lat="49.24291" lon="2.31978">
        <ele>112</ele>
        <time>2011-11-13T08:33:11Z</time>
      </trkpt>
      <trkpt lat="49.24298" lon="2.31997">
        <ele>112</ele>
        <time>2011-11-13T08:33:13Z</time>
      </trkpt>
      <trkpt lat="49.24307" lon="2.32019">
        <ele>112</ele>
        <time>2011-11-13T08:33:15Z</time>
      </trkpt>
      <trkpt lat="49.24316" lon="2.32043">
        <ele>112</ele>
        <time>2011-11-13T08:33:17Z</time>
      </trkpt>
      <trkpt lat="49.24321" lon="2.32056">
        <ele>112</ele>
        <time>2011-11-13T08:33:18Z</time>
      </trkpt>
      <trkpt lat="49.24326" lon="2.32068">
        <ele>112</ele>
        <time>2011-11-13T08:33:19Z</time>
      </trkpt>
      <trkpt lat="49.24332" lon="2.32082">
        <ele>112</ele>
        <time>2011-11-13T08:33:20Z</time>
      </trkpt>
      <trkpt lat="49.24336" lon="2.32095">
        <ele>112</ele>
        <time>2011-11-13T08:33:21Z</time>
      </trkpt>
      <trkpt lat="49.24342" lon="2.32109">
        <ele>112</ele>
        <time>2011-11-13T08:33:22Z</time>
      </trkpt>
      <trkpt lat="49.24346" lon="2.32122">
        <ele>112</ele>
        <time>2011-11-13T08:33:23Z</time>
      </trkpt>
      <trkpt lat="49.24352" lon="2.32135">
        <ele>106</ele>
        <time>2011-11-13T08:33:24Z</time>
      </trkpt>
      <trkpt lat="49.24356" lon="2.32148">
        <ele>106</ele>
        <time>2011-11-13T08:33:25Z</time>
      </trkpt>
      <trkpt lat="49.24361" lon="2.32161">
        <ele>106</ele>
        <time>2011-11-13T08:33:26Z</time>
      </trkpt>
      <trkpt lat="49.24366" lon="2.32173">
        <ele>106</ele>
        <time>2011-11-13T08:33:27Z</time>
      </trkpt>
      <trkpt lat="49.24375" lon="2.32197">
        <ele>106</ele>
        <time>2011-11-13T08:33:29Z</time>
      </trkpt>
      <trkpt lat="49.24384" lon="2.32222">
        <ele>106</ele>
        <time>2011-11-13T08:33:31Z</time>
      </trkpt>
      <trkpt lat="49.24389" lon="2.32234">
        <ele>106</ele>
        <time>2011-11-13T08:33:32Z</time>
      </trkpt>
      <trkpt lat="49.24394" lon="2.32247">
        <ele>106</ele>
        <time>2011-11-13T08:33:33Z</time>
      </trkpt>
      <trkpt lat="49.24399" lon="2.32259">
        <ele>106</ele>
        <time>2011-11-13T08:33:34Z</time>
      </trkpt>
      <trkpt lat="49.24405" lon="2.32272">
        <ele>106</ele>
        <time>2011-11-13T08:33:35Z</time>
      </trkpt>
      <trkpt lat="49.24409" lon="2.32285">
        <ele>106</ele>
        <time>2011-11-13T08:33:36Z</time>
      </trkpt>
      <trkpt lat="49.24419" lon="2.32304">
        <ele>106</ele>
        <time>2011-11-13T08:33:38Z</time>
      </trkpt>
      <trkpt lat="49.24427" lon="2.32321">
        <ele>106</ele>
        <time>2011-11-13T08:33:40Z</time>
      </trkpt>
      <trkpt lat="49.24434" lon="2.32332">
        <ele>106</ele>
        <time>2011-11-13T08:33:42Z</time>
      </trkpt>
      <trkpt lat="49.24436" lon="2.32348">
        <ele>101</ele>
        <time>2011-11-13T08:33:45Z</time>
      </trkpt>
      <trkpt lat="49.24429" lon="2.3236">
        <ele>101</ele>
        <time>2011-11-13T08:33:47Z</time>
      </trkpt>
      <trkpt lat="49.24415" lon="2.32376">
        <ele>101</ele>
        <time>2011-11-13T08:33:49Z</time>
      </trkpt>
      <trkpt lat="49.24406" lon="2.32389">
        <ele>101</ele>
        <time>2011-11-13T08:33:50Z</time>
      </trkpt>
      <trkpt lat="49.24398" lon="2.32402">
        <ele>101</ele>
        <time>2011-11-13T08:33:51Z</time>
      </trkpt>
      <trkpt lat="49.24389" lon="2.32418">
        <ele>101</ele>
        <time>2011-11-13T08:33:52Z</time>
      </trkpt>
      <trkpt lat="49.24379" lon="2.32435">
        <ele>101</ele>
        <time>2011-11-13T08:33:53Z</time>
      </trkpt>
      <trkpt lat="49.24369" lon="2.32453">
        <ele>101</ele>
        <time>2011-11-13T08:33:54Z</time>
      </trkpt>
      <trkpt lat="49.24359" lon="2.32472">
        <ele>101</ele>
        <time>2011-11-13T08:33:55Z</time>
      </trkpt>
      <trkpt lat="49.24349" lon="2.32492">
        <ele>101</ele>
        <time>2011-11-13T08:33:56Z</time>
      </trkpt>
      <trkpt lat="49.24339" lon="2.32512">
        <ele>101</ele>
        <time>2011-11-13T08:33:57Z</time>
      </trkpt>
      <trkpt lat="49.24328" lon="2.32533">
        <ele>101</ele>
        <time>2011-11-13T08:33:58Z</time>
      </trkpt>
      <trkpt lat="49.24318" lon="2.32553">
        <ele>101</ele>
        <time>2011-11-13T08:33:59Z</time>
      </trkpt>
      <trkpt lat="49.24307" lon="2.32574">
        <ele>101</ele>
        <time>2011-11-13T08:34:00Z</time>
      </trkpt>
      <trkpt lat="49.24296" lon="2.32595">
        <ele>101</ele>
        <time>2011-11-13T08:34:01Z</time>
      </trkpt>
      <trkpt lat="49.24285" lon="2.32616">
        <ele>101</ele>
        <time>2011-11-13T08:34:02Z</time>
      </trkpt>
      <trkpt lat="49.24274" lon="2.32638">
        <ele>101</ele>
        <time>2011-11-13T08:34:03Z</time>
      </trkpt>
      <trkpt lat="49.24263" lon="2.32658">
        <ele>101</ele>
        <time>2011-11-13T08:34:04Z</time>
      </trkpt>
      <trkpt lat="49.24252" lon="2.3268">
        <ele>101</ele>
        <time>2011-11-13T08:34:05Z</time>
      </trkpt>
      <trkpt lat="49.24241" lon="2.32701">
        <ele>101</ele>
        <time>2011-11-13T08:34:06Z</time>
      </trkpt>
      <trkpt lat="49.24229" lon="2.32723">
        <ele>101</ele>
        <time>2011-11-13T08:34:07Z</time>
      </trkpt>
      <trkpt lat="49.24218" lon="2.32745">
        <ele>96</ele>
        <time>2011-11-13T08:34:08Z</time>
      </trkpt>
      <trkpt lat="49.24206" lon="2.32767">
        <ele>96</ele>
        <time>2011-11-13T08:34:09Z</time>
      </trkpt>
      <trkpt lat="49.24195" lon="2.32788">
        <ele>96</ele>
        <time>2011-11-13T08:34:10Z</time>
      </trkpt>
      <trkpt lat="49.24184" lon="2.32808">
        <ele>96</ele>
        <time>2011-11-13T08:34:11Z</time>
      </trkpt>
      <trkpt lat="49.24172" lon="2.32828">
        <ele>96</ele>
        <time>2011-11-13T08:34:12Z</time>
      </trkpt>
      <trkpt lat="49.24161" lon="2.32846">
        <ele>96</ele>
        <time>2011-11-13T08:34:13Z</time>
      </trkpt>
      <trkpt lat="49.24148" lon="2.32864">
        <ele>96</ele>
        <time>2011-11-13T08:34:14Z</time>
      </trkpt>
      <trkpt lat="49.24135" lon="2.32881">
        <ele>96</ele>
        <time>2011-11-13T08:34:15Z</time>
      </trkpt>
      <trkpt lat="49.24122" lon="2.32897">
        <ele>96</ele>
        <time>2011-11-13T08:34:16Z</time>
      </trkpt>
      <trkpt lat="49.24109" lon="2.32913">
        <ele>96</ele>
        <time>2011-11-13T08:34:17Z</time>
      </trkpt>
      <trkpt lat="49.24096" lon="2.32928">
        <ele>96</ele>
        <time>2011-11-13T08:34:18Z</time>
      </trkpt>
      <trkpt lat="49.24082" lon="2.32942">
        <ele>96</ele>
        <time>2011-11-13T08:34:19Z</time>
      </trkpt>
      <trkpt lat="49.2407" lon="2.32956">
        <ele>96</ele>
        <time>2011-11-13T08:34:20Z</time>
      </trkpt>
      <trkpt lat="49.24059" lon="2.32969">
        <ele>96</ele>
        <time>2011-11-13T08:34:21Z</time>
      </trkpt>
      <trkpt lat="49.24048" lon="2.32981">
        <ele>96</ele>
        <time>2011-11-13T08:34:22Z</time>
      </trkpt>
      <trkpt lat="49.24038" lon="2.32992">
        <ele>96</ele>
        <time>2011-11-13T08:34:23Z</time>
      </trkpt>
      <trkpt lat="49.24028" lon="2.33003">
        <ele>96</ele>
        <time>2011-11-13T08:34:24Z</time>
      </trkpt>
      <trkpt lat="49.24018" lon="2.33013">
        <ele>96</ele>
        <time>2011-11-13T08:34:25Z</time>
      </trkpt>
      <trkpt lat="49.24009" lon="2.33023">
        <ele>96</ele>
        <time>2011-11-13T08:34:26Z</time>
      </trkpt>
      <trkpt lat="49.24001" lon="2.33033">
        <ele>96</ele>
        <time>2011-11-13T08:34:27Z</time>
      </trkpt>
      <trkpt lat="49.23993" lon="2.33041">
        <ele>96</ele>
        <time>2011-11-13T08:34:28Z</time>
      </trkpt>
      <trkpt lat="49.23981" lon="2.33054">
        <ele>96</ele>
        <time>2011-11-13T08:34:30Z</time>
      </trkpt>
      <trkpt lat="49.23972" lon="2.33065">
        <ele>96</ele>
        <time>2011-11-13T08:34:32Z</time>
      </trkpt>
      <trkpt lat="49.23969" lon="2.33079">
        <ele>96</ele>
        <time>2011-11-13T08:34:35Z</time>
      </trkpt>
      <trkpt lat="49.23972" lon="2.33092">
        <ele>96</ele>
        <time>2011-11-13T08:34:40Z</time>
      </trkpt>
      <trkpt lat="49.23975" lon="2.33107">
        <ele>96</ele>
        <time>2011-11-13T08:34:49Z</time>
      </trkpt>
      <trkpt lat="49.23976" lon="2.33123">
        <ele>96</ele>
        <time>2011-11-13T08:34:53Z</time>
      </trkpt>
      <trkpt lat="49.23979" lon="2.3314">
        <ele>96</ele>
        <time>2011-11-13T08:34:57Z</time>
      </trkpt>
      <trkpt lat="49.23987" lon="2.33156">
        <ele>96</ele>
        <time>2011-11-13T08:35:00Z</time>
      </trkpt>
      <trkpt lat="49.23994" lon="2.33168">
        <ele>96</ele>
        <time>2011-11-13T08:35:02Z</time>
      </trkpt>
      <trkpt lat="49.24001" lon="2.33181">
        <ele>96</ele>
        <time>2011-11-13T08:35:04Z</time>
      </trkpt>
      <trkpt lat="49.24008" lon="2.33195">
        <ele>90</ele>
        <time>2011-11-13T08:35:06Z</time>
      </trkpt>
      <trkpt lat="49.24014" lon="2.33208">
        <ele>90</ele>
        <time>2011-11-13T08:35:08Z</time>
      </trkpt>
      <trkpt lat="49.24018" lon="2.33225">
        <ele>90</ele>
        <time>2011-11-13T08:35:10Z</time>
      </trkpt>
      <trkpt lat="49.24024" lon="2.33241">
        <ele>97</ele>
        <time>2011-11-13T08:35:12Z</time>
      </trkpt>
      <trkpt lat="49.24028" lon="2.33256">
        <ele>97</ele>
        <time>2011-11-13T08:35:14Z</time>
      </trkpt>
      <trkpt lat="49.24032" lon="2.3327">
        <ele>97</ele>
        <time>2011-11-13T08:35:16Z</time>
      </trkpt>
      <trkpt lat="49.24037" lon="2.33285">
        <ele>97</ele>
        <time>2011-11-13T08:35:18Z</time>
      </trkpt>
      <trkpt lat="49.24041" lon="2.33301">
        <ele>97</ele>
        <time>2011-11-13T08:35:20Z</time>
      </trkpt>
      <trkpt lat="49.24045" lon="2.33316">
        <ele>97</ele>
        <time>2011-11-13T08:35:22Z</time>
      </trkpt>
      <trkpt lat="49.24049" lon="2.33331">
        <ele>97</ele>
        <time>2011-11-13T08:35:24Z</time>
      </trkpt>
      <trkpt lat="49.24055" lon="2.33347">
        <ele>97</ele>
        <time>2011-11-13T08:35:26Z</time>
      </trkpt>
      <trkpt lat="49.24062" lon="2.33363">
        <ele>97</ele>
        <time>2011-11-13T08:35:28Z</time>
      </trkpt>
      <trkpt lat="49.24066" lon="2.3338">
        <ele>97</ele>
        <time>2011-11-13T08:35:31Z</time>
      </trkpt>
      <trkpt lat="49.24068" lon="2.33394">
        <ele>104</ele>
        <time>2011-11-13T08:35:35Z</time>
      </trkpt>
      <trkpt lat="49.24072" lon="2.33411">
        <ele>104</ele>
        <time>2011-11-13T08:35:38Z</time>
      </trkpt>
      <trkpt lat="49.24079" lon="2.33428">
        <ele>104</ele>
        <time>2011-11-13T08:35:41Z</time>
      </trkpt>
      <trkpt lat="49.24085" lon="2.33439">
        <ele>104</ele>
        <time>2011-11-13T08:35:43Z</time>
      </trkpt>
      <trkpt lat="49.24091" lon="2.33451">
        <ele>104</ele>
        <time>2011-11-13T08:35:45Z</time>
      </trkpt>
      <trkpt lat="49.24096" lon="2.33462">
        <ele>104</ele>
        <time>2011-11-13T08:35:47Z</time>
      </trkpt>
      <trkpt lat="49.24102" lon="2.33476">
        <ele>104</ele>
        <time>2011-11-13T08:35:49Z</time>
      </trkpt>
      <trkpt lat="49.24109" lon="2.33487">
        <ele>104</ele>
        <time>2011-11-13T08:35:51Z</time>
      </trkpt>
      <trkpt lat="49.24116" lon="2.33498">
        <ele>104</ele>
        <time>2011-11-13T08:35:53Z</time>
      </trkpt>
      <trkpt lat="49.24122" lon="2.3351">
        <ele>104</ele>
        <time>2011-11-13T08:35:56Z</time>
      </trkpt>
      <trkpt lat="49.24129" lon="2.33523">
        <ele>104</ele>
        <time>2011-11-13T08:36:00Z</time>
      </trkpt>
      <trkpt lat="49.24136" lon="2.33537">
        <ele>104</ele>
        <time>2011-11-13T08:36:04Z</time>
      </trkpt>
      <trkpt lat="49.24142" lon="2.33549">
        <ele>104</ele>
        <time>2011-11-13T08:36:09Z</time>
      </trkpt>
      <trkpt lat="49.24151" lon="2.33561">
        <ele>104</ele>
        <time>2011-11-13T08:36:13Z</time>
      </trkpt>
      <trkpt lat="49.24157" lon="2.33574">
        <ele>104</ele>
        <time>2011-11-13T08:36:17Z</time>
      </trkpt>
      <trkpt lat="49.24164" lon="2.33588">
        <ele>104</ele>
        <time>2011-11-13T08:36:21Z</time>
      </trkpt>
      <trkpt lat="49.2417" lon="2.33602">
        <ele>104</ele>
        <time>2011-11-13T08:36:25Z</time>
      </trkpt>
      <trkpt lat="49.24176" lon="2.33616">
        <ele>104</ele>
        <time>2011-11-13T08:36:28Z</time>
      </trkpt>
      <trkpt lat="49.24183" lon="2.3363">
        <ele>104</ele>
        <time>2011-11-13T08:36:30Z</time>
      </trkpt>
      <trkpt lat="49.2419" lon="2.33646">
        <ele>104</ele>
        <time>2011-11-13T08:36:32Z</time>
      </trkpt>
      <trkpt lat="49.24198" lon="2.33663">
        <ele>104</ele>
        <time>2011-11-13T08:36:34Z</time>
      </trkpt>
      <trkpt lat="49.24205" lon="2.33679">
        <ele>104</ele>
        <time>2011-11-13T08:36:36Z</time>
      </trkpt>
      <trkpt lat="49.24212" lon="2.33696">
        <ele>104</ele>
        <time>2011-11-13T08:36:38Z</time>
      </trkpt>
      <trkpt lat="49.24218" lon="2.33715">
        <ele>104</ele>
        <time>2011-11-13T08:36:40Z</time>
      </trkpt>
      <trkpt lat="49.24223" lon="2.33735">
        <ele>104</ele>
        <time>2011-11-13T08:36:42Z</time>
      </trkpt>
      <trkpt lat="49.24227" lon="2.33755">
        <ele>104</ele>
        <time>2011-11-13T08:36:44Z</time>
      </trkpt>
      <trkpt lat="49.24231" lon="2.33774">
        <ele>110</ele>
        <time>2011-11-13T08:36:46Z</time>
      </trkpt>
      <trkpt lat="49.24235" lon="2.33793">
        <ele>110</ele>
        <time>2011-11-13T08:36:48Z</time>
      </trkpt>
      <trkpt lat="49.24238" lon="2.3381">
        <ele>110</ele>
        <time>2011-11-13T08:36:50Z</time>
      </trkpt>
      <trkpt lat="49.2424" lon="2.33823">
        <ele>115</ele>
        <time>2011-11-13T08:36:53Z</time>
      </trkpt>
      <trkpt lat="49.24249" lon="2.33822">
        <ele>122</ele>
        <time>2011-11-13T08:38:35Z</time>
      </trkpt>
      <trkpt lat="49.24241" lon="2.33829">
        <ele>122</ele>
        <time>2011-11-13T08:43:14Z</time>
      </trkpt>
      <trkpt lat="49.24247" lon="2.33841">
        <ele>129</ele>
        <time>2011-11-13T08:43:52Z</time>
      </trkpt>
      <trkpt lat="49.24249" lon="2.33858">
        <ele>129</ele>
        <time>2011-11-13T08:43:55Z</time>
      </trkpt>
      <trkpt lat="49.24252" lon="2.33872">
        <ele>129</ele>
        <time>2011-11-13T08:43:57Z</time>
      </trkpt>
      <trkpt lat="49.24255" lon="2.33889">
        <ele>129</ele>
        <time>2011-11-13T08:43:59Z</time>
      </trkpt>
      <trkpt lat="49.24257" lon="2.33907">
        <ele>129</ele>
        <time>2011-11-13T08:44:01Z</time>
      </trkpt>
      <trkpt lat="49.24261" lon="2.33925">
        <ele>129</ele>
        <time>2011-11-13T08:44:03Z</time>
      </trkpt>
      <trkpt lat="49.24265" lon="2.3394">
        <ele>129</ele>
        <time>2011-11-13T08:44:05Z</time>
      </trkpt>
      <trkpt lat="49.2427" lon="2.33955">
        <ele>129</ele>
        <time>2011-11-13T08:44:07Z</time>
      </trkpt>
      <trkpt lat="49.24273" lon="2.3397">
        <ele>129</ele>
        <time>2011-11-13T08:44:09Z</time>
      </trkpt>
      <trkpt lat="49.24275" lon="2.33986">
        <ele>129</ele>
        <time>2011-11-13T08:44:11Z</time>
      </trkpt>
      <trkpt lat="49.24279" lon="2.34002">
        <ele>129</ele>
        <time>2011-11-13T08:44:13Z</time>
      </trkpt>
      <trkpt lat="49.24282" lon="2.34017">
        <ele>129</ele>
        <time>2011-11-13T08:44:15Z</time>
      </trkpt>
      <trkpt lat="49.24285" lon="2.34033">
        <ele>129</ele>
        <time>2011-11-13T08:44:17Z</time>
      </trkpt>
      <trkpt lat="49.24286" lon="2.34049">
        <ele>129</ele>
        <time>2011-11-13T08:44:19Z</time>
      </trkpt>
      <trkpt lat="49.2429" lon="2.34063">
        <ele>129</ele>
        <time>2011-11-13T08:44:21Z</time>
      </trkpt>
      <trkpt lat="49.24294" lon="2.3408">
        <ele>129</ele>
        <time>2011-11-13T08:44:23Z</time>
      </trkpt>
      <trkpt lat="49.24298" lon="2.34096">
        <ele>129</ele>
        <time>2011-11-13T08:44:25Z</time>
      </trkpt>
      <trkpt lat="49.24303" lon="2.34109">
        <ele>129</ele>
        <time>2011-11-13T08:44:27Z</time>
      </trkpt>
      <trkpt lat="49.24308" lon="2.34122">
        <ele>129</ele>
        <time>2011-11-13T08:44:29Z</time>
      </trkpt>
      <trkpt lat="49.24312" lon="2.34135">
        <ele>129</ele>
        <time>2011-11-13T08:44:31Z</time>
      </trkpt>
      <trkpt lat="49.24318" lon="2.34153">
        <ele>129</ele>
        <time>2011-11-13T08:44:34Z</time>
      </trkpt>
      <trkpt lat="49.24323" lon="2.34167">
        <ele>129</ele>
        <time>2011-11-13T08:44:37Z</time>
      </trkpt>
      <trkpt lat="49.24329" lon="2.34178">
        <ele>129</ele>
        <time>2011-11-13T08:44:39Z</time>
      </trkpt>
      <trkpt lat="49.24336" lon="2.34194">
        <ele>129</ele>
        <time>2011-11-13T08:44:42Z</time>
      </trkpt>
      <trkpt lat="49.24341" lon="2.34208">
        <ele>129</ele>
        <time>2011-11-13T08:44:45Z</time>
      </trkpt>
      <trkpt lat="49.24349" lon="2.34219">
        <ele>129</ele>
        <time>2011-11-13T08:44:47Z</time>
      </trkpt>
      <trkpt lat="49.24357" lon="2.3423">
        <ele>129</ele>
        <time>2011-11-13T08:44:50Z</time>
      </trkpt>
      <trkpt lat="49.24362" lon="2.34242">
        <ele>129</ele>
        <time>2011-11-13T08:45:00Z</time>
      </trkpt>
      <trkpt lat="49.24362" lon="2.34257">
        <ele>129</ele>
        <time>2011-11-13T08:45:04Z</time>
      </trkpt>
      <trkpt lat="49.24358" lon="2.34272">
        <ele>129</ele>
        <time>2011-11-13T08:45:08Z</time>
      </trkpt>
      <trkpt lat="49.24354" lon="2.34285">
        <ele>129</ele>
        <time>2011-11-13T08:45:12Z</time>
      </trkpt>
      <trkpt lat="49.24351" lon="2.34299">
        <ele>122</ele>
        <time>2011-11-13T08:45:20Z</time>
      </trkpt>
      <trkpt lat="49.24344" lon="2.3431">
        <ele>122</ele>
        <time>2011-11-13T08:45:29Z</time>
      </trkpt>
      <trkpt lat="49.24337" lon="2.34325">
        <ele>122</ele>
        <time>2011-11-13T08:45:34Z</time>
      </trkpt>
      <trkpt lat="49.24331" lon="2.34337">
        <ele>122</ele>
        <time>2011-11-13T08:45:38Z</time>
      </trkpt>
      <trkpt lat="49.24325" lon="2.34349">
        <ele>116</ele>
        <time>2011-11-13T08:45:42Z</time>
      </trkpt>
      <trkpt lat="49.24318" lon="2.34361">
        <ele>110</ele>
        <time>2011-11-13T08:45:46Z</time>
      </trkpt>
      <trkpt lat="49.24311" lon="2.34374">
        <ele>104</ele>
        <time>2011-11-13T08:45:50Z</time>
      </trkpt>
      <trkpt lat="49.24302" lon="2.34388">
        <ele>98</ele>
        <time>2011-11-13T08:45:54Z</time>
      </trkpt>
      <trkpt lat="49.24299" lon="2.34402">
        <ele>98</ele>
        <time>2011-11-13T08:45:57Z</time>
      </trkpt>
      <trkpt lat="49.24295" lon="2.34415">
        <ele>98</ele>
        <time>2011-11-13T08:46:00Z</time>
      </trkpt>
      <trkpt lat="49.2429" lon="2.34429">
        <ele>90</ele>
        <time>2011-11-13T08:46:04Z</time>
      </trkpt>
      <trkpt lat="49.24285" lon="2.34441">
        <ele>83</ele>
        <time>2011-11-13T08:46:09Z</time>
      </trkpt>
      <trkpt lat="49.24282" lon="2.34455">
        <ele>83</ele>
        <time>2011-11-13T08:46:12Z</time>
      </trkpt>
      <trkpt lat="49.24276" lon="2.34468">
        <ele>76</ele>
        <time>2011-11-13T08:46:16Z</time>
      </trkpt>
      <trkpt lat="49.24273" lon="2.34482">
        <ele>76</ele>
        <time>2011-11-13T08:46:21Z</time>
      </trkpt>
      <trkpt lat="49.24267" lon="2.34494">
        <ele>88</ele>
        <time>2011-11-13T08:46:32Z</time>
      </trkpt>
      <trkpt lat="49.24266" lon="2.34508">
        <ele>101</ele>
        <time>2011-11-13T08:46:41Z</time>
      </trkpt>
      <trkpt lat="49.24267" lon="2.34522">
        <ele>115</ele>
        <time>2011-11-13T08:46:55Z</time>
      </trkpt>
      <trkpt lat="49.24262" lon="2.34537">
        <ele>115</ele>
        <time>2011-11-13T08:47:00Z</time>
      </trkpt>
      <trkpt lat="49.24259" lon="2.34551">
        <ele>115</ele>
        <time>2011-11-13T08:47:03Z</time>
      </trkpt>
      <trkpt lat="49.24256" lon="2.34568">
        <ele>115</ele>
        <time>2011-11-13T08:47:07Z</time>
      </trkpt>
      <trkpt lat="49.24254" lon="2.34585">
        <ele>115</ele>
        <time>2011-11-13T08:47:11Z</time>
      </trkpt>
      <trkpt lat="49.24249" lon="2.34605">
        <ele>115</ele>
        <time>2011-11-13T08:47:14Z</time>
      </trkpt>
      <trkpt lat="49.24246" lon="2.34623">
        <ele>115</ele>
        <time>2011-11-13T08:47:17Z</time>
      </trkpt>
      <trkpt lat="49.24242" lon="2.34641">
        <ele>121</ele>
        <time>2011-11-13T08:47:20Z</time>
      </trkpt>
      <trkpt lat="49.2424" lon="2.34655">
        <ele>121</ele>
        <time>2011-11-13T08:47:23Z</time>
      </trkpt>
      <trkpt lat="49.24237" lon="2.34671">
        <ele>121</ele>
        <time>2011-11-13T08:47:27Z</time>
      </trkpt>
      <trkpt lat="49.24234" lon="2.34687">
        <ele>121</ele>
        <time>2011-11-13T08:47:31Z</time>
      </trkpt>
      <trkpt lat="49.24232" lon="2.34701">
        <ele>121</ele>
        <time>2011-11-13T08:47:34Z</time>
      </trkpt>
      <trkpt lat="49.2423" lon="2.34715">
        <ele>121</ele>
        <time>2011-11-13T08:47:37Z</time>
      </trkpt>
      <trkpt lat="49.24225" lon="2.34732">
        <ele>121</ele>
        <time>2011-11-13T08:47:41Z</time>
      </trkpt>
      <trkpt lat="49.24219" lon="2.34744">
        <ele>115</ele>
        <time>2011-11-13T08:47:44Z</time>
      </trkpt>
      <trkpt lat="49.24216" lon="2.34759">
        <ele>115</ele>
        <time>2011-11-13T08:47:48Z</time>
      </trkpt>
      <trkpt lat="49.24214" lon="2.34772">
        <ele>115</ele>
        <time>2011-11-13T08:47:52Z</time>
      </trkpt>
      <trkpt lat="49.24211" lon="2.34787">
        <ele>115</ele>
        <time>2011-11-13T08:47:57Z</time>
      </trkpt>
      <trkpt lat="49.24209" lon="2.34803">
        <ele>115</ele>
        <time>2011-11-13T08:48:03Z</time>
      </trkpt>
      <trkpt lat="49.24206" lon="2.34817">
        <ele>122</ele>
        <time>2011-11-13T08:48:13Z</time>
      </trkpt>
      <trkpt lat="49.24201" lon="2.3483">
        <ele>122</ele>
        <time>2011-11-13T08:48:19Z</time>
      </trkpt>
      <trkpt lat="49.24198" lon="2.34845">
        <ele>116</ele>
        <time>2011-11-13T08:48:25Z</time>
      </trkpt>
      <trkpt lat="49.24195" lon="2.34858">
        <ele>116</ele>
        <time>2011-11-13T08:48:32Z</time>
      </trkpt>
      <trkpt lat="49.24195" lon="2.34873">
        <ele>124</ele>
        <time>2011-11-13T08:48:42Z</time>
      </trkpt>
      <trkpt lat="49.24194" lon="2.34888">
        <ele>133</ele>
        <time>2011-11-13T08:49:06Z</time>
      </trkpt>
      <trkpt lat="49.2419" lon="2.34901">
        <ele>133</ele>
        <time>2011-11-13T08:49:18Z</time>
      </trkpt>
      <trkpt lat="49.24186" lon="2.34915">
        <ele>133</ele>
        <time>2011-11-13T08:49:28Z</time>
      </trkpt>
      <trkpt lat="49.24182" lon="2.34928">
        <ele>133</ele>
        <time>2011-11-13T08:49:34Z</time>
      </trkpt>
      <trkpt lat="49.24178" lon="2.34942">
        <ele>133</ele>
        <time>2011-11-13T08:49:48Z</time>
      </trkpt>
      <trkpt lat="49.24178" lon="2.34957">
        <ele>133</ele>
        <time>2011-11-13T08:50:05Z</time>
      </trkpt>
      <trkpt lat="49.24175" lon="2.34971">
        <ele>133</ele>
        <time>2011-11-13T08:50:17Z</time>
      </trkpt>
      <trkpt lat="49.24171" lon="2.34984">
        <ele>151</ele>
        <time>2011-11-13T08:51:07Z</time>
      </trkpt>
      <trkpt lat="49.24162" lon="2.34989">
        <ele>151</ele>
        <time>2011-11-13T08:52:24Z</time>
      </trkpt>
      <trkpt lat="49.24161" lon="2.35003">
        <ele>151</ele>
        <time>2011-11-13T08:52:32Z</time>
      </trkpt>
      <trkpt lat="49.24161" lon="2.35018">
        <ele>146</ele>
        <time>2011-11-13T08:52:41Z</time>
      </trkpt>
      <trkpt lat="49.24159" lon="2.35033">
        <ele>146</ele>
        <time>2011-11-13T08:52:50Z</time>
      </trkpt>
      <trkpt lat="49.24155" lon="2.35046">
        <ele>146</ele>
        <time>2011-11-13T08:53:11Z</time>
      </trkpt>
      <trkpt lat="49.24154" lon="2.3506">
        <ele>146</ele>
        <time>2011-11-13T08:53:46Z</time>
      </trkpt>
      <trkpt lat="49.24155" lon="2.35075">
        <ele>146</ele>
        <time>2011-11-13T08:54:05Z</time>
      </trkpt>
      <trkpt lat="49.24153" lon="2.35089">
        <ele>136</ele>
        <time>2011-11-13T08:54:31Z</time>
      </trkpt>
      <trkpt lat="49.24149" lon="2.35102">
        <ele>136</ele>
        <time>2011-11-13T08:55:02Z</time>
      </trkpt>
      <trkpt lat="49.24146" lon="2.35116">
        <ele>136</ele>
        <time>2011-11-13T08:55:12Z</time>
      </trkpt>
      <trkpt lat="49.24145" lon="2.3513">
        <ele>129</ele>
        <time>2011-11-13T08:55:19Z</time>
      </trkpt>
      <trkpt lat="49.24142" lon="2.35145">
        <ele>124</ele>
        <time>2011-11-13T08:55:25Z</time>
      </trkpt>
      <trkpt lat="49.24138" lon="2.35161">
        <ele>131</ele>
        <time>2011-11-13T08:55:32Z</time>
      </trkpt>
      <trkpt lat="49.24135" lon="2.35179">
        <ele>131</ele>
        <time>2011-11-13T08:55:35Z</time>
      </trkpt>
      <trkpt lat="49.24132" lon="2.35194">
        <ele>131</ele>
        <time>2011-11-13T08:55:38Z</time>
      </trkpt>
      <trkpt lat="49.2413" lon="2.3521">
        <ele>131</ele>
        <time>2011-11-13T08:55:41Z</time>
      </trkpt>
      <trkpt lat="49.24126" lon="2.35223">
        <ele>138</ele>
        <time>2011-11-13T08:55:44Z</time>
      </trkpt>
      <trkpt lat="49.24125" lon="2.35237">
        <ele>138</ele>
        <time>2011-11-13T08:55:49Z</time>
      </trkpt>
      <trkpt lat="49.24122" lon="2.35252">
        <ele>138</ele>
        <time>2011-11-13T08:55:54Z</time>
      </trkpt>
      <trkpt lat="49.24123" lon="2.35266">
        <ele>138</ele>
        <time>2011-11-13T08:55:58Z</time>
      </trkpt>
      <trkpt lat="49.24122" lon="2.35282">
        <ele>138</ele>
        <time>2011-11-13T08:56:03Z</time>
      </trkpt>
      <trkpt lat="49.2412" lon="2.35298">
        <ele>138</ele>
        <time>2011-11-13T08:56:08Z</time>
      </trkpt>
      <trkpt lat="49.24119" lon="2.35315">
        <ele>138</ele>
        <time>2011-11-13T08:56:18Z</time>
      </trkpt>
      <trkpt lat="49.24119" lon="2.35329">
        <ele>138</ele>
        <time>2011-11-13T08:56:24Z</time>
      </trkpt>
      <trkpt lat="49.24118" lon="2.35344">
        <ele>138</ele>
        <time>2011-11-13T08:56:34Z</time>
      </trkpt>
      <trkpt lat="49.24115" lon="2.35358">
        <ele>143</ele>
        <time>2011-11-13T08:56:46Z</time>
      </trkpt>
      <trkpt lat="49.24115" lon="2.35372">
        <ele>143</ele>
        <time>2011-11-13T08:56:54Z</time>
      </trkpt>
      <trkpt lat="49.24114" lon="2.35387">
        <ele>143</ele>
        <time>2011-11-13T08:56:59Z</time>
      </trkpt>
      <trkpt lat="49.24114" lon="2.35401">
        <ele>143</ele>
        <time>2011-11-13T08:57:04Z</time>
      </trkpt>
      <trkpt lat="49.24116" lon="2.35415">
        <ele>143</ele>
        <time>2011-11-13T08:57:10Z</time>
      </trkpt>
      <trkpt lat="49.24118" lon="2.35431">
        <ele>143</ele>
        <time>2011-11-13T08:57:15Z</time>
      </trkpt>
      <trkpt lat="49.24118" lon="2.35445">
        <ele>143</ele>
        <time>2011-11-13T08:57:20Z</time>
      </trkpt>
      <trkpt lat="49.24118" lon="2.35459">
        <ele>143</ele>
        <time>2011-11-13T08:57:26Z</time>
      </trkpt>
      <trkpt lat="49.24116" lon="2.35475">
        <ele>137</ele>
        <time>2011-11-13T08:57:31Z</time>
      </trkpt>
      <trkpt lat="49.24115" lon="2.35493">
        <ele>137</ele>
        <time>2011-11-13T08:57:37Z</time>
      </trkpt>
      <trkpt lat="49.24114" lon="2.35508">
        <ele>127</ele>
        <time>2011-11-13T08:57:42Z</time>
      </trkpt>
      <trkpt lat="49.24113" lon="2.35523">
        <ele>127</ele>
        <time>2011-11-13T08:57:48Z</time>
      </trkpt>
      <trkpt lat="49.24112" lon="2.35539">
        <ele>127</ele>
        <time>2011-11-13T08:57:53Z</time>
      </trkpt>
      <trkpt lat="49.24113" lon="2.35556">
        <ele>127</ele>
        <time>2011-11-13T08:57:59Z</time>
      </trkpt>
      <trkpt lat="49.24115" lon="2.35574">
        <ele>127</ele>
        <time>2011-11-13T08:58:04Z</time>
      </trkpt>
      <trkpt lat="49.24115" lon="2.35591">
        <ele>122</ele>
        <time>2011-11-13T08:58:09Z</time>
      </trkpt>
      <trkpt lat="49.24115" lon="2.35607">
        <ele>122</ele>
        <time>2011-11-13T08:58:14Z</time>
      </trkpt>
      <trkpt lat="49.24115" lon="2.35624">
        <ele>116</ele>
        <time>2011-11-13T08:58:18Z</time>
      </trkpt>
      <trkpt lat="49.24115" lon="2.3564">
        <ele>116</ele>
        <time>2011-11-13T08:58:22Z</time>
      </trkpt>
      <trkpt lat="49.24115" lon="2.35655">
        <ele>116</ele>
        <time>2011-11-13T08:58:26Z</time>
      </trkpt>
      <trkpt lat="49.24115" lon="2.35669">
        <ele>116</ele>
        <time>2011-11-13T08:58:30Z</time>
      </trkpt>
      <trkpt lat="49.24114" lon="2.35685">
        <ele>110</ele>
        <time>2011-11-13T08:58:35Z</time>
      </trkpt>
      <trkpt lat="49.24114" lon="2.35701">
        <ele>110</ele>
        <time>2011-11-13T08:58:39Z</time>
      </trkpt>
      <trkpt lat="49.24112" lon="2.35715">
        <ele>110</ele>
        <time>2011-11-13T08:58:43Z</time>
      </trkpt>
      <trkpt lat="49.24112" lon="2.3573">
        <ele>110</ele>
        <time>2011-11-13T08:58:48Z</time>
      </trkpt>
      <trkpt lat="49.24108" lon="2.35746">
        <ele>122</ele>
        <time>2011-11-13T08:58:57Z</time>
      </trkpt>
      <trkpt lat="49.24106" lon="2.35763">
        <ele>122</ele>
        <time>2011-11-13T08:59:02Z</time>
      </trkpt>
      <trkpt lat="49.24105" lon="2.35779">
        <ele>129</ele>
        <time>2011-11-13T08:59:07Z</time>
      </trkpt>
      <trkpt lat="49.24102" lon="2.35797">
        <ele>129</ele>
        <time>2011-11-13T08:59:11Z</time>
      </trkpt>
      <trkpt lat="49.24099" lon="2.35811">
        <ele>129</ele>
        <time>2011-11-13T08:59:15Z</time>
      </trkpt>
      <trkpt lat="49.241" lon="2.35826">
        <ele>135</ele>
        <time>2011-11-13T08:59:21Z</time>
      </trkpt>
      <trkpt lat="49.241" lon="2.35841">
        <ele>135</ele>
        <time>2011-11-13T08:59:27Z</time>
      </trkpt>
      <trkpt lat="49.241" lon="2.35855">
        <ele>135</ele>
        <time>2011-11-13T08:59:31Z</time>
      </trkpt>
      <trkpt lat="49.24098" lon="2.35869">
        <ele>142</ele>
        <time>2011-11-13T08:59:36Z</time>
      </trkpt>
      <trkpt lat="49.24096" lon="2.35883">
        <ele>142</ele>
        <time>2011-11-13T08:59:41Z</time>
      </trkpt>
      <trkpt lat="49.24094" lon="2.35899">
        <ele>142</ele>
        <time>2011-11-13T08:59:48Z</time>
      </trkpt>
      <trkpt lat="49.24094" lon="2.35913">
        <ele>142</ele>
        <time>2011-11-13T08:59:53Z</time>
      </trkpt>
      <trkpt lat="49.24094" lon="2.35927">
        <ele>142</ele>
        <time>2011-11-13T08:59:59Z</time>
      </trkpt>
      <trkpt lat="49.24093" lon="2.35943">
        <ele>142</ele>
        <time>2011-11-13T09:00:07Z</time>
      </trkpt>
      <trkpt lat="49.24095" lon="2.35956">
        <ele>151</ele>
        <time>2011-11-13T09:00:22Z</time>
      </trkpt>
      <trkpt lat="49.24095" lon="2.35972">
        <ele>151</ele>
        <time>2011-11-13T09:00:42Z</time>
      </trkpt>
      <trkpt lat="49.24094" lon="2.35987">
        <ele>151</ele>
        <time>2011-11-13T09:00:58Z</time>
      </trkpt>
      <trkpt lat="49.24087" lon="2.35996">
        <ele>158</ele>
        <time>2011-11-13T09:01:29Z</time>
      </trkpt>
      <trkpt lat="49.24096" lon="2.36001">
        <ele>158</ele>
        <time>2011-11-13T09:02:37Z</time>
      </trkpt>
      <trkpt lat="49.24094" lon="2.36015">
        <ele>147</ele>
        <time>2011-11-13T09:03:20Z</time>
      </trkpt>
      <trkpt lat="49.24096" lon="2.36031">
        <ele>147</ele>
        <time>2011-11-13T09:03:38Z</time>
      </trkpt>
      <trkpt lat="49.24098" lon="2.36045">
        <ele>139</ele>
        <time>2011-11-13T09:03:49Z</time>
      </trkpt>
      <trkpt lat="49.24098" lon="2.3606">
        <ele>139</ele>
        <time>2011-11-13T09:03:59Z</time>
      </trkpt>
      <trkpt lat="49.24096" lon="2.36075">
        <ele>139</ele>
        <time>2011-11-13T09:04:11Z</time>
      </trkpt>
      <trkpt lat="49.2409" lon="2.36085">
        <ele>153</ele>
        <time>2011-11-13T09:04:29Z</time>
      </trkpt>
      <trkpt lat="49.24099" lon="2.36085">
        <ele>143</ele>
        <time>2011-11-13T09:06:05Z</time>
      </trkpt>
      <trkpt lat="49.24096" lon="2.36099">
        <ele>170</ele>
        <time>2011-11-13T09:09:04Z</time>
      </trkpt>
      <trkpt lat="49.24093" lon="2.36084">
        <ele>155</ele>
        <time>2011-11-13T09:09:40Z</time>
      </trkpt>
      <trkpt lat="49.24095" lon="2.36101">
        <ele>149</ele>
        <time>2011-11-13T09:10:05Z</time>
      </trkpt>
      <trkpt lat="49.24095" lon="2.36115">
        <ele>149</ele>
        <time>2011-11-13T09:10:08Z</time>
      </trkpt>
      <trkpt lat="49.24095" lon="2.3613">
        <ele>142</ele>
        <time>2011-11-13T09:10:13Z</time>
      </trkpt>
      <trkpt lat="49.24094" lon="2.36146">
        <ele>142</ele>
        <time>2011-11-13T09:10:21Z</time>
      </trkpt>
      <trkpt lat="49.24103" lon="2.36144">
        <ele>135</ele>
        <time>2011-11-13T09:10:45Z</time>
      </trkpt>
      <trkpt lat="49.24094" lon="2.36146">
        <ele>135</ele>
        <time>2011-11-13T09:12:07Z</time>
      </trkpt>
      <trkpt lat="49.24099" lon="2.36136">
        <ele>147</ele>
        <time>2011-11-13T09:14:38Z</time>
      </trkpt>
      <trkpt lat="49.24092" lon="2.36144">
        <ele>128</ele>
        <time>2011-11-13T09:16:30Z</time>
      </trkpt>
      <trkpt lat="49.24084" lon="2.36152">
        <ele>136</ele>
        <time>2011-11-13T09:20:42Z</time>
      </trkpt>
      <trkpt lat="49.24091" lon="2.36144">
        <ele>136</ele>
        <time>2011-11-13T09:21:55Z</time>
      </trkpt>
      <trkpt lat="49.24086" lon="2.36156">
        <ele>142</ele>
        <time>2011-11-13T09:24:38Z</time>
      </trkpt>
      <trkpt lat="49.24094" lon="2.36149">
        <ele>142</ele>
        <time>2011-11-13T09:26:38Z</time>
      </trkpt>
      <trkpt lat="49.24103" lon="2.36145">
        <ele>147</ele>
        <time>2011-11-13T09:38:06Z</time>
      </trkpt>
      <trkpt lat="49.24113" lon="2.3614">
        <ele>166</ele>
        <time>2011-11-13T09:38:58Z</time>
      </trkpt>
      <trkpt lat="49.24104" lon="2.36142">
        <ele>144</ele>
        <time>2011-11-13T09:40:32Z</time>
      </trkpt>
      <trkpt lat="49.24099" lon="2.36155">
        <ele>138</ele>
        <time>2011-11-13T09:44:47Z</time>
      </trkpt>
      <trkpt lat="49.24094" lon="2.36166">
        <ele>138</ele>
        <time>2011-11-13T09:44:59Z</time>
      </trkpt>
      <trkpt lat="49.24098" lon="2.36181">
        <ele>138</ele>
        <time>2011-11-13T09:45:05Z</time>
      </trkpt>
      <trkpt lat="49.24099" lon="2.36195">
        <ele>138</ele>
        <time>2011-11-13T09:45:11Z</time>
      </trkpt>
      <trkpt lat="49.24096" lon="2.36208">
        <ele>144</ele>
        <time>2011-11-13T09:45:20Z</time>
      </trkpt>
      <trkpt lat="49.24102" lon="2.3622">
        <ele>156</ele>
        <time>2011-11-13T09:45:46Z</time>
      </trkpt>
      <trkpt lat="49.24105" lon="2.36234">
        <ele>149</ele>
        <time>2011-11-13T09:45:55Z</time>
      </trkpt>
      <trkpt lat="49.24101" lon="2.36248">
        <ele>143</ele>
        <time>2011-11-13T09:46:05Z</time>
      </trkpt>
      <trkpt lat="49.24096" lon="2.36263">
        <ele>137</ele>
        <time>2011-11-13T09:46:12Z</time>
      </trkpt>
      <trkpt lat="49.24098" lon="2.36279">
        <ele>137</ele>
        <time>2011-11-13T09:46:17Z</time>
      </trkpt>
      <trkpt lat="49.24101" lon="2.36296">
        <ele>129</ele>
        <time>2011-11-13T09:46:22Z</time>
      </trkpt>
      <trkpt lat="49.24098" lon="2.36309">
        <ele>129</ele>
        <time>2011-11-13T09:46:28Z</time>
      </trkpt>
      <trkpt lat="49.24097" lon="2.36323">
        <ele>136</ele>
        <time>2011-11-13T09:46:35Z</time>
      </trkpt>
      <trkpt lat="49.24103" lon="2.36334">
        <ele>136</ele>
        <time>2011-11-13T09:46:46Z</time>
      </trkpt>
      <trkpt lat="49.24101" lon="2.36349">
        <ele>136</ele>
        <time>2011-11-13T09:46:54Z</time>
      </trkpt>
      <trkpt lat="49.24098" lon="2.36364">
        <ele>136</ele>
        <time>2011-11-13T09:47:14Z</time>
      </trkpt>
      <trkpt lat="49.24098" lon="2.36378">
        <ele>136</ele>
        <time>2011-11-13T09:47:27Z</time>
      </trkpt>
      <trkpt lat="49.24098" lon="2.36394">
        <ele>136</ele>
        <time>2011-11-13T09:47:33Z</time>
      </trkpt>
      <trkpt lat="49.24099" lon="2.36409">
        <ele>136</ele>
        <time>2011-11-13T09:47:37Z</time>
      </trkpt>
      <trkpt lat="49.24099" lon="2.36423">
        <ele>136</ele>
        <time>2011-11-13T09:47:41Z</time>
      </trkpt>
      <trkpt lat="49.24101" lon="2.36438">
        <ele>136</ele>
        <time>2011-11-13T09:47:50Z</time>
      </trkpt>
      <trkpt lat="49.241" lon="2.36454">
        <ele>136</ele>
        <time>2011-11-13T09:47:57Z</time>
      </trkpt>
      <trkpt lat="49.24101" lon="2.36468">
        <ele>136</ele>
        <time>2011-11-13T09:48:03Z</time>
      </trkpt>
      <trkpt lat="49.24102" lon="2.36485">
        <ele>136</ele>
        <time>2011-11-13T09:48:08Z</time>
      </trkpt>
      <trkpt lat="49.24101" lon="2.36503">
        <ele>136</ele>
        <time>2011-11-13T09:48:13Z</time>
      </trkpt>
      <trkpt lat="49.24101" lon="2.36517">
        <ele>136</ele>
        <time>2011-11-13T09:48:20Z</time>
      </trkpt>
      <trkpt lat="49.24105" lon="2.36532">
        <ele>142</ele>
        <time>2011-11-13T09:48:28Z</time>
      </trkpt>
      <trkpt lat="49.24106" lon="2.36547">
        <ele>142</ele>
        <time>2011-11-13T09:48:32Z</time>
      </trkpt>
      <trkpt lat="49.24108" lon="2.36562">
        <ele>142</ele>
        <time>2011-11-13T09:48:38Z</time>
      </trkpt>
      <trkpt lat="49.24108" lon="2.36579">
        <ele>142</ele>
        <time>2011-11-13T09:48:43Z</time>
      </trkpt>
      <trkpt lat="49.24105" lon="2.36598">
        <ele>142</ele>
        <time>2011-11-13T09:48:47Z</time>
      </trkpt>
      <trkpt lat="49.24105" lon="2.36614">
        <ele>142</ele>
        <time>2011-11-13T09:48:50Z</time>
      </trkpt>
      <trkpt lat="49.24105" lon="2.36632">
        <ele>136</ele>
        <time>2011-11-13T09:48:54Z</time>
      </trkpt>
      <trkpt lat="49.24104" lon="2.36647">
        <ele>136</ele>
        <time>2011-11-13T09:48:58Z</time>
      </trkpt>
      <trkpt lat="49.24105" lon="2.36664">
        <ele>136</ele>
        <time>2011-11-13T09:49:03Z</time>
      </trkpt>
      <trkpt lat="49.24103" lon="2.36678">
        <ele>136</ele>
        <time>2011-11-13T09:49:10Z</time>
      </trkpt>
      <trkpt lat="49.24102" lon="2.36693">
        <ele>136</ele>
        <time>2011-11-13T09:49:18Z</time>
      </trkpt>
      <trkpt lat="49.24109" lon="2.36704">
        <ele>136</ele>
        <time>2011-11-13T09:49:30Z</time>
      </trkpt>
      <trkpt lat="49.24115" lon="2.36716">
        <ele>142</ele>
        <time>2011-11-13T09:49:37Z</time>
      </trkpt>
      <trkpt lat="49.24114" lon="2.36731">
        <ele>142</ele>
        <time>2011-11-13T09:49:44Z</time>
      </trkpt>
      <trkpt lat="49.24111" lon="2.36746">
        <ele>142</ele>
        <time>2011-11-13T09:49:50Z</time>
      </trkpt>
      <trkpt lat="49.24104" lon="2.36755">
        <ele>142</ele>
        <time>2011-11-13T09:49:58Z</time>
      </trkpt>
      <trkpt lat="49.24106" lon="2.36768">
        <ele>142</ele>
        <time>2011-11-13T09:50:04Z</time>
      </trkpt>
      <trkpt lat="49.24105" lon="2.36784">
        <ele>142</ele>
        <time>2011-11-13T09:50:08Z</time>
      </trkpt>
      <trkpt lat="49.24101" lon="2.368">
        <ele>142</ele>
        <time>2011-11-13T09:50:12Z</time>
      </trkpt>
      <trkpt lat="49.24097" lon="2.36815">
        <ele>142</ele>
        <time>2011-11-13T09:50:15Z</time>
      </trkpt>
      <trkpt lat="49.24098" lon="2.36833">
        <ele>136</ele>
        <time>2011-11-13T09:50:19Z</time>
      </trkpt>
      <trkpt lat="49.24099" lon="2.3685">
        <ele>136</ele>
        <time>2011-11-13T09:50:23Z</time>
      </trkpt>
      <trkpt lat="49.24102" lon="2.36867">
        <ele>136</ele>
        <time>2011-11-13T09:50:26Z</time>
      </trkpt>
      <trkpt lat="49.24103" lon="2.36882">
        <ele>136</ele>
        <time>2011-11-13T09:50:29Z</time>
      </trkpt>
      <trkpt lat="49.24106" lon="2.36897">
        <ele>136</ele>
        <time>2011-11-13T09:50:32Z</time>
      </trkpt>
      <trkpt lat="49.24111" lon="2.3691">
        <ele>136</ele>
        <time>2011-11-13T09:50:36Z</time>
      </trkpt>
      <trkpt lat="49.24111" lon="2.36925">
        <ele>146</ele>
        <time>2011-11-13T09:50:45Z</time>
      </trkpt>
      <trkpt lat="49.24101" lon="2.36932">
        <ele>146</ele>
        <time>2011-11-13T09:50:50Z</time>
      </trkpt>
      <trkpt lat="49.24093" lon="2.36924">
        <ele>146</ele>
        <time>2011-11-13T09:50:53Z</time>
      </trkpt>
      <trkpt lat="49.24082" lon="2.36916">
        <ele>146</ele>
        <time>2011-11-13T09:50:57Z</time>
      </trkpt>
      <trkpt lat="49.2407" lon="2.36909">
        <ele>146</ele>
        <time>2011-11-13T09:51:00Z</time>
      </trkpt>
      <trkpt lat="49.24061" lon="2.36902">
        <ele>140</ele>
        <time>2011-11-13T09:51:02Z</time>
      </trkpt>
      <trkpt lat="49.24053" lon="2.36893">
        <ele>140</ele>
        <time>2011-11-13T09:51:04Z</time>
      </trkpt>
      <trkpt lat="49.24044" lon="2.36888">
        <ele>140</ele>
        <time>2011-11-13T09:51:07Z</time>
      </trkpt>
      <trkpt lat="49.24037" lon="2.36879">
        <ele>134</ele>
        <time>2011-11-13T09:51:10Z</time>
      </trkpt>
      <trkpt lat="49.24031" lon="2.36866">
        <ele>134</ele>
        <time>2011-11-13T09:51:13Z</time>
      </trkpt>
      <trkpt lat="49.24025" lon="2.36854">
        <ele>134</ele>
        <time>2011-11-13T09:51:16Z</time>
      </trkpt>
      <trkpt lat="49.24024" lon="2.36837">
        <ele>134</ele>
        <time>2011-11-13T09:51:19Z</time>
      </trkpt>
      <trkpt lat="49.24023" lon="2.36819">
        <ele>134</ele>
        <time>2011-11-13T09:51:21Z</time>
      </trkpt>
      <trkpt lat="49.24023" lon="2.36803">
        <ele>134</ele>
        <time>2011-11-13T09:51:23Z</time>
      </trkpt>
      <trkpt lat="49.24022" lon="2.36784">
        <ele>128</ele>
        <time>2011-11-13T09:51:25Z</time>
      </trkpt>
      <trkpt lat="49.24022" lon="2.36768">
        <ele>128</ele>
        <time>2011-11-13T09:51:27Z</time>
      </trkpt>
      <trkpt lat="49.24019" lon="2.36749">
        <ele>128</ele>
        <time>2011-11-13T09:51:29Z</time>
      </trkpt>
      <trkpt lat="49.24017" lon="2.36732">
        <ele>128</ele>
        <time>2011-11-13T09:51:31Z</time>
      </trkpt>
      <trkpt lat="49.24014" lon="2.36717">
        <ele>128</ele>
        <time>2011-11-13T09:51:33Z</time>
      </trkpt>
      <trkpt lat="49.24012" lon="2.36703">
        <ele>128</ele>
        <time>2011-11-13T09:51:35Z</time>
      </trkpt>
      <trkpt lat="49.24009" lon="2.36686">
        <ele>128</ele>
        <time>2011-11-13T09:51:40Z</time>
      </trkpt>
      <trkpt lat="49.24009" lon="2.3667">
        <ele>128</ele>
        <time>2011-11-13T09:51:48Z</time>
      </trkpt>
      <trkpt lat="49.2401" lon="2.36652">
        <ele>128</ele>
        <time>2011-11-13T09:51:53Z</time>
      </trkpt>
      <trkpt lat="49.24009" lon="2.36636">
        <ele>128</ele>
        <time>2011-11-13T09:51:56Z</time>
      </trkpt>
      <trkpt lat="49.24009" lon="2.36617">
        <ele>128</ele>
        <time>2011-11-13T09:51:59Z</time>
      </trkpt>
      <trkpt lat="49.24009" lon="2.36599">
        <ele>128</ele>
        <time>2011-11-13T09:52:02Z</time>
      </trkpt>
      <trkpt lat="49.24008" lon="2.36581">
        <ele>121</ele>
        <time>2011-11-13T09:52:05Z</time>
      </trkpt>
      <trkpt lat="49.24009" lon="2.36562">
        <ele>121</ele>
        <time>2011-11-13T09:52:08Z</time>
      </trkpt>
      <trkpt lat="49.2401" lon="2.36544">
        <ele>115</ele>
        <time>2011-11-13T09:52:11Z</time>
      </trkpt>
      <trkpt lat="49.24009" lon="2.36529">
        <ele>115</ele>
        <time>2011-11-13T09:52:13Z</time>
      </trkpt>
      <trkpt lat="49.24011" lon="2.3651">
        <ele>115</ele>
        <time>2011-11-13T09:52:17Z</time>
      </trkpt>
      <trkpt lat="49.24012" lon="2.36494">
        <ele>115</ele>
        <time>2011-11-13T09:52:20Z</time>
      </trkpt>
      <trkpt lat="49.24011" lon="2.36478">
        <ele>109</ele>
        <time>2011-11-13T09:52:22Z</time>
      </trkpt>
      <trkpt lat="49.24008" lon="2.36458">
        <ele>109</ele>
        <time>2011-11-13T09:52:24Z</time>
      </trkpt>
      <trkpt lat="49.24007" lon="2.3644">
        <ele>109</ele>
        <time>2011-11-13T09:52:26Z</time>
      </trkpt>
      <trkpt lat="49.24005" lon="2.36418">
        <ele>109</ele>
        <time>2011-11-13T09:52:28Z</time>
      </trkpt>
      <trkpt lat="49.24005" lon="2.36399">
        <ele>109</ele>
        <time>2011-11-13T09:52:31Z</time>
      </trkpt>
      <trkpt lat="49.24008" lon="2.36385">
        <ele>109</ele>
        <time>2011-11-13T09:52:34Z</time>
      </trkpt>
      <trkpt lat="49.24009" lon="2.36367">
        <ele>109</ele>
        <time>2011-11-13T09:52:37Z</time>
      </trkpt>
      <trkpt lat="49.24004" lon="2.36351">
        <ele>100</ele>
        <time>2011-11-13T09:52:42Z</time>
      </trkpt>
      <trkpt lat="49.24006" lon="2.36335">
        <ele>100</ele>
        <time>2011-11-13T09:52:45Z</time>
      </trkpt>
      <trkpt lat="49.24007" lon="2.36319">
        <ele>100</ele>
        <time>2011-11-13T09:52:48Z</time>
      </trkpt>
      <trkpt lat="49.24007" lon="2.36303">
        <ele>100</ele>
        <time>2011-11-13T09:52:52Z</time>
      </trkpt>
      <trkpt lat="49.24009" lon="2.36289">
        <ele>100</ele>
        <time>2011-11-13T09:52:57Z</time>
      </trkpt>
      <trkpt lat="49.24015" lon="2.36278">
        <ele>100</ele>
        <time>2011-11-13T09:53:05Z</time>
      </trkpt>
      <trkpt lat="49.24013" lon="2.36262">
        <ele>110</ele>
        <time>2011-11-13T09:53:13Z</time>
      </trkpt>
      <trkpt lat="49.24007" lon="2.36248">
        <ele>121</ele>
        <time>2011-11-13T09:53:23Z</time>
      </trkpt>
      <trkpt lat="49.23999" lon="2.36238">
        <ele>121</ele>
        <time>2011-11-13T09:53:27Z</time>
      </trkpt>
      <trkpt lat="49.23994" lon="2.36225">
        <ele>128</ele>
        <time>2011-11-13T09:53:31Z</time>
      </trkpt>
      <trkpt lat="49.23987" lon="2.36214">
        <ele>128</ele>
        <time>2011-11-13T09:53:36Z</time>
      </trkpt>
      <trkpt lat="49.23988" lon="2.36199">
        <ele>128</ele>
        <time>2011-11-13T09:53:40Z</time>
      </trkpt>
      <trkpt lat="49.23989" lon="2.36184">
        <ele>134</ele>
        <time>2011-11-13T09:53:43Z</time>
      </trkpt>
      <trkpt lat="49.23988" lon="2.36163">
        <ele>134</ele>
        <time>2011-11-13T09:53:46Z</time>
      </trkpt>
      <trkpt lat="49.23988" lon="2.36148">
        <ele>134</ele>
        <time>2011-11-13T09:53:49Z</time>
      </trkpt>
      <trkpt lat="49.23988" lon="2.36134">
        <ele>125</ele>
        <time>2011-11-13T09:53:52Z</time>
      </trkpt>
      <trkpt lat="49.23989" lon="2.3612">
        <ele>125</ele>
        <time>2011-11-13T09:53:54Z</time>
      </trkpt>
      <trkpt lat="49.23989" lon="2.36105">
        <ele>119</ele>
        <time>2011-11-13T09:53:56Z</time>
      </trkpt>
      <trkpt lat="49.23989" lon="2.3609">
        <ele>119</ele>
        <time>2011-11-13T09:53:59Z</time>
      </trkpt>
      <trkpt lat="49.23991" lon="2.36072">
        <ele>119</ele>
        <time>2011-11-13T09:54:03Z</time>
      </trkpt>
      <trkpt lat="49.2399" lon="2.36056">
        <ele>111</ele>
        <time>2011-11-13T09:54:06Z</time>
      </trkpt>
      <trkpt lat="49.23989" lon="2.36038">
        <ele>111</ele>
        <time>2011-11-13T09:54:08Z</time>
      </trkpt>
      <trkpt lat="49.23989" lon="2.36022">
        <ele>111</ele>
        <time>2011-11-13T09:54:11Z</time>
      </trkpt>
      <trkpt lat="49.23988" lon="2.36007">
        <ele>111</ele>
        <time>2011-11-13T09:54:17Z</time>
      </trkpt>
      <trkpt lat="49.23989" lon="2.35993">
        <ele>111</ele>
        <time>2011-11-13T09:54:20Z</time>
      </trkpt>
      <trkpt lat="49.23986" lon="2.35978">
        <ele>111</ele>
        <time>2011-11-13T09:54:23Z</time>
      </trkpt>
      <trkpt lat="49.23985" lon="2.35962">
        <ele>111</ele>
        <time>2011-11-13T09:54:29Z</time>
      </trkpt>
      <trkpt lat="49.23989" lon="2.35948">
        <ele>111</ele>
        <time>2011-11-13T09:54:32Z</time>
      </trkpt>
      <trkpt lat="49.23989" lon="2.3593">
        <ele>111</ele>
        <time>2011-11-13T09:54:35Z</time>
      </trkpt>
      <trkpt lat="49.23993" lon="2.35917">
        <ele>111</ele>
        <time>2011-11-13T09:54:39Z</time>
      </trkpt>
      <trkpt lat="49.23987" lon="2.35905">
        <ele>111</ele>
        <time>2011-11-13T09:54:45Z</time>
      </trkpt>
      <trkpt lat="49.23975" lon="2.35904">
        <ele>111</ele>
        <time>2011-11-13T09:54:49Z</time>
      </trkpt>
      <trkpt lat="49.23964" lon="2.35901">
        <ele>111</ele>
        <time>2011-11-13T09:54:52Z</time>
      </trkpt>
      <trkpt lat="49.23951" lon="2.35899">
        <ele>111</ele>
        <time>2011-11-13T09:54:55Z</time>
      </trkpt>
      <trkpt lat="49.23938" lon="2.35899">
        <ele>111</ele>
        <time>2011-11-13T09:54:58Z</time>
      </trkpt>
      <trkpt lat="49.23926" lon="2.35895">
        <ele>111</ele>
        <time>2011-11-13T09:55:00Z</time>
      </trkpt>
      <trkpt lat="49.23915" lon="2.35892">
        <ele>111</ele>
        <time>2011-11-13T09:55:02Z</time>
      </trkpt>
      <trkpt lat="49.23904" lon="2.35888">
        <ele>121</ele>
        <time>2011-11-13T09:55:04Z</time>
      </trkpt>
      <trkpt lat="49.23892" lon="2.35886">
        <ele>121</ele>
        <time>2011-11-13T09:55:06Z</time>
      </trkpt>
      <trkpt lat="49.23879" lon="2.35885">
        <ele>128</ele>
        <time>2011-11-13T09:55:08Z</time>
      </trkpt>
      <trkpt lat="49.23865" lon="2.35884">
        <ele>128</ele>
        <time>2011-11-13T09:55:10Z</time>
      </trkpt>
      <trkpt lat="49.23851" lon="2.35883">
        <ele>128</ele>
        <time>2011-11-13T09:55:12Z</time>
      </trkpt>
      <trkpt lat="49.23839" lon="2.35883">
        <ele>128</ele>
        <time>2011-11-13T09:55:14Z</time>
      </trkpt>
      <trkpt lat="49.23828" lon="2.35884">
        <ele>128</ele>
        <time>2011-11-13T09:55:16Z</time>
      </trkpt>
      <trkpt lat="49.23819" lon="2.35887">
        <ele>133</ele>
        <time>2011-11-13T09:55:21Z</time>
      </trkpt>
      <trkpt lat="49.23811" lon="2.35895">
        <ele>133</ele>
        <time>2011-11-13T09:55:26Z</time>
      </trkpt>
      <trkpt lat="49.23801" lon="2.35895">
        <ele>133</ele>
        <time>2011-11-13T09:55:33Z</time>
      </trkpt>
      <trkpt lat="49.23791" lon="2.35893">
        <ele>138</ele>
        <time>2011-11-13T09:55:40Z</time>
      </trkpt>
      <trkpt lat="49.23781" lon="2.35895">
        <ele>138</ele>
        <time>2011-11-13T09:55:57Z</time>
      </trkpt>
      <trkpt lat="49.23772" lon="2.35901">
        <ele>138</ele>
        <time>2011-11-13T09:56:02Z</time>
      </trkpt>
      <trkpt lat="49.23766" lon="2.35912">
        <ele>138</ele>
        <time>2011-11-13T09:56:08Z</time>
      </trkpt>
      <trkpt lat="49.23757" lon="2.35909">
        <ele>138</ele>
        <time>2011-11-13T09:56:18Z</time>
      </trkpt>
      <trkpt lat="49.23747" lon="2.35905">
        <ele>138</ele>
        <time>2011-11-13T09:56:24Z</time>
      </trkpt>
      <trkpt lat="49.23737" lon="2.35906">
        <ele>138</ele>
        <time>2011-11-13T09:56:29Z</time>
      </trkpt>
      <trkpt lat="49.23727" lon="2.35911">
        <ele>138</ele>
        <time>2011-11-13T09:56:33Z</time>
      </trkpt>
      <trkpt lat="49.23718" lon="2.35915">
        <ele>138</ele>
        <time>2011-11-13T09:56:35Z</time>
      </trkpt>
      <trkpt lat="49.23708" lon="2.35921">
        <ele>138</ele>
        <time>2011-11-13T09:56:38Z</time>
      </trkpt>
      <trkpt lat="49.237" lon="2.35927">
        <ele>138</ele>
        <time>2011-11-13T09:56:41Z</time>
      </trkpt>
      <trkpt lat="49.2369" lon="2.35934">
        <ele>138</ele>
        <time>2011-11-13T09:56:46Z</time>
      </trkpt>
      <trkpt lat="49.23681" lon="2.35941">
        <ele>138</ele>
        <time>2011-11-13T09:56:50Z</time>
      </trkpt>
      <trkpt lat="49.23673" lon="2.35948">
        <ele>138</ele>
        <time>2011-11-13T09:56:53Z</time>
      </trkpt>
      <trkpt lat="49.23664" lon="2.35954">
        <ele>138</ele>
        <time>2011-11-13T09:56:57Z</time>
      </trkpt>
      <trkpt lat="49.23656" lon="2.35963">
        <ele>138</ele>
        <time>2011-11-13T09:57:00Z</time>
      </trkpt>
      <trkpt lat="49.23645" lon="2.35964">
        <ele>138</ele>
        <time>2011-11-13T09:57:04Z</time>
      </trkpt>
      <trkpt lat="49.23635" lon="2.3597">
        <ele>133</ele>
        <time>2011-11-13T09:57:08Z</time>
      </trkpt>
      <trkpt lat="49.23625" lon="2.35979">
        <ele>133</ele>
        <time>2011-11-13T09:57:13Z</time>
      </trkpt>
      <trkpt lat="49.23616" lon="2.35984">
        <ele>133</ele>
        <time>2011-11-13T09:57:16Z</time>
      </trkpt>
      <trkpt lat="49.23606" lon="2.35991">
        <ele>133</ele>
        <time>2011-11-13T09:57:20Z</time>
      </trkpt>
      <trkpt lat="49.23597" lon="2.35996">
        <ele>133</ele>
        <time>2011-11-13T09:57:32Z</time>
      </trkpt>
      <trkpt lat="49.23588" lon="2.36004">
        <ele>133</ele>
        <time>2011-11-13T09:58:15Z</time>
      </trkpt>
      <trkpt lat="49.23578" lon="2.36008">
        <ele>133</ele>
        <time>2011-11-13T09:58:22Z</time>
      </trkpt>
      <trkpt lat="49.23569" lon="2.36012">
        <ele>133</ele>
        <time>2011-11-13T09:58:31Z</time>
      </trkpt>
      <trkpt lat="49.2356" lon="2.36017">
        <ele>133</ele>
        <time>2011-11-13T09:58:40Z</time>
      </trkpt>
      <trkpt lat="49.23552" lon="2.36024">
        <ele>133</ele>
        <time>2011-11-13T09:58:47Z</time>
      </trkpt>
      <trkpt lat="49.23543" lon="2.36034">
        <ele>133</ele>
        <time>2011-11-13T09:58:56Z</time>
      </trkpt>
      <trkpt lat="49.23538" lon="2.36047">
        <ele>133</ele>
        <time>2011-11-13T09:59:02Z</time>
      </trkpt>
      <trkpt lat="49.23532" lon="2.36057">
        <ele>133</ele>
        <time>2011-11-13T09:59:11Z</time>
      </trkpt>
      <trkpt lat="49.23523" lon="2.36061">
        <ele>138</ele>
        <time>2011-11-13T09:59:18Z</time>
      </trkpt>
      <trkpt lat="49.23514" lon="2.36065">
        <ele>138</ele>
        <time>2011-11-13T09:59:55Z</time>
      </trkpt>
      <trkpt lat="49.23505" lon="2.36068">
        <ele>138</ele>
        <time>2011-11-13T10:00:02Z</time>
      </trkpt>
      <trkpt lat="49.23495" lon="2.36067">
        <ele>138</ele>
        <time>2011-11-13T10:00:08Z</time>
      </trkpt>
      <trkpt lat="49.23486" lon="2.36069">
        <ele>138</ele>
        <time>2011-11-13T10:00:15Z</time>
      </trkpt>
      <trkpt lat="49.23477" lon="2.36074">
        <ele>130</ele>
        <time>2011-11-13T10:00:49Z</time>
      </trkpt>
      <trkpt lat="49.23468" lon="2.36076">
        <ele>130</ele>
        <time>2011-11-13T10:00:58Z</time>
      </trkpt>
      <trkpt lat="49.23463" lon="2.36093">
        <ele>136</ele>
        <time>2011-11-13T10:01:03Z</time>
      </trkpt>
      <trkpt lat="49.23457" lon="2.36106">
        <ele>136</ele>
        <time>2011-11-13T10:01:05Z</time>
      </trkpt>
      <trkpt lat="49.23451" lon="2.3612">
        <ele>136</ele>
        <time>2011-11-13T10:01:07Z</time>
      </trkpt>
      <trkpt lat="49.23445" lon="2.36136">
        <ele>136</ele>
        <time>2011-11-13T10:01:09Z</time>
      </trkpt>
      <trkpt lat="49.23438" lon="2.36153">
        <ele>136</ele>
        <time>2011-11-13T10:01:11Z</time>
      </trkpt>
      <trkpt lat="49.23433" lon="2.36172">
        <ele>136</ele>
        <time>2011-11-13T10:01:13Z</time>
      </trkpt>
      <trkpt lat="49.23427" lon="2.36192">
        <ele>136</ele>
        <time>2011-11-13T10:01:15Z</time>
      </trkpt>
      <trkpt lat="49.23418" lon="2.36217">
        <ele>136</ele>
        <time>2011-11-13T10:01:17Z</time>
      </trkpt>
      <trkpt lat="49.23414" lon="2.3623">
        <ele>136</ele>
        <time>2011-11-13T10:01:18Z</time>
      </trkpt>
      <trkpt lat="49.23409" lon="2.36243">
        <ele>136</ele>
        <time>2011-11-13T10:01:19Z</time>
      </trkpt>
      <trkpt lat="49.23404" lon="2.36255">
        <ele>136</ele>
        <time>2011-11-13T10:01:20Z</time>
      </trkpt>
      <trkpt lat="49.23399" lon="2.36269">
        <ele>136</ele>
        <time>2011-11-13T10:01:21Z</time>
      </trkpt>
      <trkpt lat="49.23394" lon="2.3628">
        <ele>136</ele>
        <time>2011-11-13T10:01:22Z</time>
      </trkpt>
      <trkpt lat="49.23388" lon="2.36292">
        <ele>136</ele>
        <time>2011-11-13T10:01:23Z</time>
      </trkpt>
      <trkpt lat="49.23378" lon="2.36314">
        <ele>131</ele>
        <time>2011-11-13T10:01:25Z</time>
      </trkpt>
      <trkpt lat="49.23367" lon="2.36336">
        <ele>131</ele>
        <time>2011-11-13T10:01:27Z</time>
      </trkpt>
      <trkpt lat="49.23362" lon="2.36349">
        <ele>131</ele>
        <time>2011-11-13T10:01:28Z</time>
      </trkpt>
      <trkpt lat="49.23357" lon="2.36363">
        <ele>131</ele>
        <time>2011-11-13T10:01:29Z</time>
      </trkpt>
      <trkpt lat="49.23351" lon="2.36376">
        <ele>131</ele>
        <time>2011-11-13T10:01:30Z</time>
      </trkpt>
      <trkpt lat="49.23345" lon="2.36391">
        <ele>131</ele>
        <time>2011-11-13T10:01:31Z</time>
      </trkpt>
      <trkpt lat="49.23339" lon="2.36405">
        <ele>131</ele>
        <time>2011-11-13T10:01:32Z</time>
      </trkpt>
      <trkpt lat="49.23334" lon="2.3642">
        <ele>126</ele>
        <time>2011-11-13T10:01:33Z</time>
      </trkpt>
      <trkpt lat="49.23329" lon="2.36434">
        <ele>126</ele>
        <time>2011-11-13T10:01:34Z</time>
      </trkpt>
      <trkpt lat="49.23324" lon="2.36447">
        <ele>126</ele>
        <time>2011-11-13T10:01:35Z</time>
      </trkpt>
      <trkpt lat="49.23318" lon="2.36458">
        <ele>126</ele>
        <time>2011-11-13T10:01:36Z</time>
      </trkpt>
      <trkpt lat="49.23312" lon="2.36471">
        <ele>126</ele>
        <time>2011-11-13T10:01:37Z</time>
      </trkpt>
      <trkpt lat="49.23303" lon="2.36493">
        <ele>119</ele>
        <time>2011-11-13T10:01:39Z</time>
      </trkpt>
      <trkpt lat="49.23295" lon="2.36512">
        <ele>119</ele>
        <time>2011-11-13T10:01:41Z</time>
      </trkpt>
      <trkpt lat="49.23289" lon="2.36528">
        <ele>119</ele>
        <time>2011-11-13T10:01:43Z</time>
      </trkpt>
      <trkpt lat="49.2328" lon="2.36548">
        <ele>112</ele>
        <time>2011-11-13T10:01:45Z</time>
      </trkpt>
      <trkpt lat="49.23272" lon="2.36567">
        <ele>112</ele>
        <time>2011-11-13T10:01:47Z</time>
      </trkpt>
      <trkpt lat="49.23264" lon="2.36588">
        <ele>112</ele>
        <time>2011-11-13T10:01:49Z</time>
      </trkpt>
      <trkpt lat="49.23254" lon="2.36612">
        <ele>112</ele>
        <time>2011-11-13T10:01:51Z</time>
      </trkpt>
      <trkpt lat="49.23244" lon="2.36633">
        <ele>105</ele>
        <time>2011-11-13T10:01:53Z</time>
      </trkpt>
      <trkpt lat="49.23236" lon="2.36651">
        <ele>105</ele>
        <time>2011-11-13T10:01:55Z</time>
      </trkpt>
      <trkpt lat="49.23228" lon="2.36671">
        <ele>105</ele>
        <time>2011-11-13T10:01:57Z</time>
      </trkpt>
      <trkpt lat="49.2322" lon="2.3669">
        <ele>105</ele>
        <time>2011-11-13T10:01:59Z</time>
      </trkpt>
      <trkpt lat="49.23211" lon="2.36711">
        <ele>100</ele>
        <time>2011-11-13T10:02:01Z</time>
      </trkpt>
      <trkpt lat="49.23202" lon="2.36729">
        <ele>100</ele>
        <time>2011-11-13T10:02:03Z</time>
      </trkpt>
      <trkpt lat="49.23195" lon="2.36746">
        <ele>100</ele>
        <time>2011-11-13T10:02:05Z</time>
      </trkpt>
      <trkpt lat="49.23188" lon="2.36757">
        <ele>100</ele>
        <time>2011-11-13T10:02:07Z</time>
      </trkpt>
      <trkpt lat="49.23179" lon="2.36761">
        <ele>100</ele>
        <time>2011-11-13T10:02:09Z</time>
      </trkpt>
      <trkpt lat="49.23169" lon="2.36751">
        <ele>100</ele>
        <time>2011-11-13T10:02:11Z</time>
      </trkpt>
      <trkpt lat="49.2316" lon="2.36738">
        <ele>93</ele>
        <time>2011-11-13T10:02:13Z</time>
      </trkpt>
      <trkpt lat="49.23153" lon="2.36729">
        <ele>93</ele>
        <time>2011-11-13T10:02:14Z</time>
      </trkpt>
      <trkpt lat="49.23144" lon="2.36717">
        <ele>93</ele>
        <time>2011-11-13T10:02:15Z</time>
      </trkpt>
      <trkpt lat="49.23136" lon="2.36707">
        <ele>93</ele>
        <time>2011-11-13T10:02:16Z</time>
      </trkpt>
      <trkpt lat="49.23129" lon="2.36698">
        <ele>93</ele>
        <time>2011-11-13T10:02:17Z</time>
      </trkpt>
      <trkpt lat="49.23118" lon="2.36685">
        <ele>93</ele>
        <time>2011-11-13T10:02:19Z</time>
      </trkpt>
      <trkpt lat="49.23108" lon="2.36674">
        <ele>93</ele>
        <time>2011-11-13T10:02:21Z</time>
      </trkpt>
      <trkpt lat="49.23098" lon="2.36665">
        <ele>93</ele>
        <time>2011-11-13T10:02:23Z</time>
      </trkpt>
      <trkpt lat="49.2309" lon="2.36655">
        <ele>93</ele>
        <time>2011-11-13T10:02:25Z</time>
      </trkpt>
      <trkpt lat="49.23082" lon="2.36645">
        <ele>93</ele>
        <time>2011-11-13T10:02:27Z</time>
      </trkpt>
      <trkpt lat="49.23072" lon="2.36632">
        <ele>98</ele>
        <time>2011-11-13T10:02:29Z</time>
      </trkpt>
      <trkpt lat="49.23061" lon="2.36623">
        <ele>98</ele>
        <time>2011-11-13T10:02:31Z</time>
      </trkpt>
      <trkpt lat="49.23051" lon="2.36614">
        <ele>98</ele>
        <time>2011-11-13T10:02:33Z</time>
      </trkpt>
      <trkpt lat="49.2304" lon="2.36603">
        <ele>98</ele>
        <time>2011-11-13T10:02:36Z</time>
      </trkpt>
      <trkpt lat="49.23027" lon="2.36596">
        <ele>104</ele>
        <time>2011-11-13T10:02:39Z</time>
      </trkpt>
      <trkpt lat="49.23017" lon="2.36596">
        <ele>104</ele>
        <time>2011-11-13T10:02:41Z</time>
      </trkpt>
      <trkpt lat="49.23006" lon="2.366">
        <ele>104</ele>
        <time>2011-11-13T10:02:43Z</time>
      </trkpt>
      <trkpt lat="49.22996" lon="2.36612">
        <ele>104</ele>
        <time>2011-11-13T10:02:45Z</time>
      </trkpt>
      <trkpt lat="49.22988" lon="2.36627">
        <ele>104</ele>
        <time>2011-11-13T10:02:47Z</time>
      </trkpt>
      <trkpt lat="49.22982" lon="2.36644">
        <ele>104</ele>
        <time>2011-11-13T10:02:49Z</time>
      </trkpt>
      <trkpt lat="49.22978" lon="2.36659">
        <ele>104</ele>
        <time>2011-11-13T10:02:51Z</time>
      </trkpt>
      <trkpt lat="49.22972" lon="2.36676">
        <ele>104</ele>
        <time>2011-11-13T10:02:54Z</time>
      </trkpt>
      <trkpt lat="49.22967" lon="2.36688">
        <ele>99</ele>
        <time>2011-11-13T10:02:57Z</time>
      </trkpt>
      <trkpt lat="49.22961" lon="2.367">
        <ele>99</ele>
        <time>2011-11-13T10:03:04Z</time>
      </trkpt>
      <trkpt lat="49.22951" lon="2.36694">
        <ele>99</ele>
        <time>2011-11-13T10:03:08Z</time>
      </trkpt>
      <trkpt lat="49.22948" lon="2.36679">
        <ele>99</ele>
        <time>2011-11-13T10:03:10Z</time>
      </trkpt>
      <trkpt lat="49.22942" lon="2.36663">
        <ele>99</ele>
        <time>2011-11-13T10:03:13Z</time>
      </trkpt>
      <trkpt lat="49.22938" lon="2.36646">
        <ele>99</ele>
        <time>2011-11-13T10:03:16Z</time>
      </trkpt>
      <trkpt lat="49.22934" lon="2.3663">
        <ele>99</ele>
        <time>2011-11-13T10:03:18Z</time>
      </trkpt>
      <trkpt lat="49.22928" lon="2.36611">
        <ele>99</ele>
        <time>2011-11-13T10:03:20Z</time>
      </trkpt>
      <trkpt lat="49.2292" lon="2.3659">
        <ele>99</ele>
        <time>2011-11-13T10:03:22Z</time>
      </trkpt>
      <trkpt lat="49.22912" lon="2.36568">
        <ele>99</ele>
        <time>2011-11-13T10:03:24Z</time>
      </trkpt>
      <trkpt lat="49.22905" lon="2.36545">
        <ele>99</ele>
        <time>2011-11-13T10:03:26Z</time>
      </trkpt>
      <trkpt lat="49.22896" lon="2.36524">
        <ele>99</ele>
        <time>2011-11-13T10:03:28Z</time>
      </trkpt>
      <trkpt lat="49.22888" lon="2.36503">
        <ele>99</ele>
        <time>2011-11-13T10:03:30Z</time>
      </trkpt>
      <trkpt lat="49.22884" lon="2.36488">
        <ele>99</ele>
        <time>2011-11-13T10:03:32Z</time>
      </trkpt>
      <trkpt lat="49.22877" lon="2.36469">
        <ele>99</ele>
        <time>2011-11-13T10:03:35Z</time>
      </trkpt>
      <trkpt lat="49.22872" lon="2.36454">
        <ele>99</ele>
        <time>2011-11-13T10:03:37Z</time>
      </trkpt>
      <trkpt lat="49.22866" lon="2.36436">
        <ele>99</ele>
        <time>2011-11-13T10:03:39Z</time>
      </trkpt>
      <trkpt lat="49.22861" lon="2.36417">
        <ele>99</ele>
        <time>2011-11-13T10:03:41Z</time>
      </trkpt>
      <trkpt lat="49.22857" lon="2.36398">
        <ele>99</ele>
        <time>2011-11-13T10:03:43Z</time>
      </trkpt>
      <trkpt lat="49.22851" lon="2.36378">
        <ele>99</ele>
        <time>2011-11-13T10:03:45Z</time>
      </trkpt>
      <trkpt lat="49.22841" lon="2.36357">
        <ele>99</ele>
        <time>2011-11-13T10:03:47Z</time>
      </trkpt>
      <trkpt lat="49.22832" lon="2.36334">
        <ele>99</ele>
        <time>2011-11-13T10:03:49Z</time>
      </trkpt>
      <trkpt lat="49.22827" lon="2.36323">
        <ele>99</ele>
        <time>2011-11-13T10:03:50Z</time>
      </trkpt>
      <trkpt lat="49.22817" lon="2.36302">
        <ele>99</ele>
        <time>2011-11-13T10:03:52Z</time>
      </trkpt>
      <trkpt lat="49.22807" lon="2.36284">
        <ele>99</ele>
        <time>2011-11-13T10:03:54Z</time>
      </trkpt>
      <trkpt lat="49.22799" lon="2.36266">
        <ele>104</ele>
        <time>2011-11-13T10:03:56Z</time>
      </trkpt>
      <trkpt lat="49.22791" lon="2.36246">
        <ele>104</ele>
        <time>2011-11-13T10:03:58Z</time>
      </trkpt>
      <trkpt lat="49.22785" lon="2.36231">
        <ele>104</ele>
        <time>2011-11-13T10:04:00Z</time>
      </trkpt>
      <trkpt lat="49.22779" lon="2.36219">
        <ele>104</ele>
        <time>2011-11-13T10:04:03Z</time>
      </trkpt>
      <trkpt lat="49.22774" lon="2.362">
        <ele>104</ele>
        <time>2011-11-13T10:04:06Z</time>
      </trkpt>
      <trkpt lat="49.22769" lon="2.36183">
        <ele>104</ele>
        <time>2011-11-13T10:04:08Z</time>
      </trkpt>
      <trkpt lat="49.22765" lon="2.36164">
        <ele>104</ele>
        <time>2011-11-13T10:04:10Z</time>
      </trkpt>
      <trkpt lat="49.2276" lon="2.36146">
        <ele>104</ele>
        <time>2011-11-13T10:04:12Z</time>
      </trkpt>
      <trkpt lat="49.22756" lon="2.36126">
        <ele>104</ele>
        <time>2011-11-13T10:04:14Z</time>
      </trkpt>
      <trkpt lat="49.22751" lon="2.36103">
        <ele>104</ele>
        <time>2011-11-13T10:04:16Z</time>
      </trkpt>
      <trkpt lat="49.22747" lon="2.36078">
        <ele>104</ele>
        <time>2011-11-13T10:04:18Z</time>
      </trkpt>
      <trkpt lat="49.22745" lon="2.36053">
        <ele>110</ele>
        <time>2011-11-13T10:04:20Z</time>
      </trkpt>
      <trkpt lat="49.22746" lon="2.36029">
        <ele>110</ele>
        <time>2011-11-13T10:04:22Z</time>
      </trkpt>
      <trkpt lat="49.22749" lon="2.36005">
        <ele>110</ele>
        <time>2011-11-13T10:04:24Z</time>
      </trkpt>
      <trkpt lat="49.22749" lon="2.35983">
        <ele>110</ele>
        <time>2011-11-13T10:04:26Z</time>
      </trkpt>
      <trkpt lat="49.22747" lon="2.35959">
        <ele>110</ele>
        <time>2011-11-13T10:04:28Z</time>
      </trkpt>
      <trkpt lat="49.22744" lon="2.35936">
        <ele>110</ele>
        <time>2011-11-13T10:04:30Z</time>
      </trkpt>
      <trkpt lat="49.2274" lon="2.35915">
        <ele>110</ele>
        <time>2011-11-13T10:04:32Z</time>
      </trkpt>
      <trkpt lat="49.22735" lon="2.35894">
        <ele>110</ele>
        <time>2011-11-13T10:04:34Z</time>
      </trkpt>
      <trkpt lat="49.22729" lon="2.35877">
        <ele>110</ele>
        <time>2011-11-13T10:04:36Z</time>
      </trkpt>
      <trkpt lat="49.22719" lon="2.35867">
        <ele>110</ele>
        <time>2011-11-13T10:04:39Z</time>
      </trkpt>
      <trkpt lat="49.2271" lon="2.35883">
        <ele>110</ele>
        <time>2011-11-13T10:04:42Z</time>
      </trkpt>
      <trkpt lat="49.22702" lon="2.35903">
        <ele>110</ele>
        <time>2011-11-13T10:04:44Z</time>
      </trkpt>
      <trkpt lat="49.22694" lon="2.35925">
        <ele>110</ele>
        <time>2011-11-13T10:04:46Z</time>
      </trkpt>
      <trkpt lat="49.22686" lon="2.35944">
        <ele>110</ele>
        <time>2011-11-13T10:04:48Z</time>
      </trkpt>
      <trkpt lat="49.22679" lon="2.35961">
        <ele>110</ele>
        <time>2011-11-13T10:04:50Z</time>
      </trkpt>
      <trkpt lat="49.22673" lon="2.35978">
        <ele>110</ele>
        <time>2011-11-13T10:04:52Z</time>
      </trkpt>
      <trkpt lat="49.22665" lon="2.35996">
        <ele>110</ele>
        <time>2011-11-13T10:04:54Z</time>
      </trkpt>
      <trkpt lat="49.22656" lon="2.36015">
        <ele>110</ele>
        <time>2011-11-13T10:04:56Z</time>
      </trkpt>
      <trkpt lat="49.22646" lon="2.36036">
        <ele>110</ele>
        <time>2011-11-13T10:04:58Z</time>
      </trkpt>
      <trkpt lat="49.22636" lon="2.36057">
        <ele>110</ele>
        <time>2011-11-13T10:05:00Z</time>
      </trkpt>
      <trkpt lat="49.22626" lon="2.36077">
        <ele>110</ele>
        <time>2011-11-13T10:05:02Z</time>
      </trkpt>
      <trkpt lat="49.22615" lon="2.36097">
        <ele>110</ele>
        <time>2011-11-13T10:05:04Z</time>
      </trkpt>
      <trkpt lat="49.22604" lon="2.36118">
        <ele>110</ele>
        <time>2011-11-13T10:05:06Z</time>
      </trkpt>
      <trkpt lat="49.22592" lon="2.36137">
        <ele>110</ele>
        <time>2011-11-13T10:05:08Z</time>
      </trkpt>
      <trkpt lat="49.22578" lon="2.36154">
        <ele>110</ele>
        <time>2011-11-13T10:05:10Z</time>
      </trkpt>
      <trkpt lat="49.22563" lon="2.36164">
        <ele>110</ele>
        <time>2011-11-13T10:05:12Z</time>
      </trkpt>
      <trkpt lat="49.22549" lon="2.36173">
        <ele>110</ele>
        <time>2011-11-13T10:05:14Z</time>
      </trkpt>
      <trkpt lat="49.22536" lon="2.3618">
        <ele>110</ele>
        <time>2011-11-13T10:05:16Z</time>
      </trkpt>
      <trkpt lat="49.22525" lon="2.36188">
        <ele>110</ele>
        <time>2011-11-13T10:05:18Z</time>
      </trkpt>
      <trkpt lat="49.22516" lon="2.36197">
        <ele>110</ele>
        <time>2011-11-13T10:05:20Z</time>
      </trkpt>
      <trkpt lat="49.22506" lon="2.36206">
        <ele>110</ele>
        <time>2011-11-13T10:05:22Z</time>
      </trkpt>
      <trkpt lat="49.22493" lon="2.36217">
        <ele>110</ele>
        <time>2011-11-13T10:05:24Z</time>
      </trkpt>
      <trkpt lat="49.22481" lon="2.36228">
        <ele>110</ele>
        <time>2011-11-13T10:05:26Z</time>
      </trkpt>
      <trkpt lat="49.22468" lon="2.36241">
        <ele>110</ele>
        <time>2011-11-13T10:05:28Z</time>
      </trkpt>
      <trkpt lat="49.22455" lon="2.36249">
        <ele>110</ele>
        <time>2011-11-13T10:05:30Z</time>
      </trkpt>
      <trkpt lat="49.22443" lon="2.36257">
        <ele>110</ele>
        <time>2011-11-13T10:05:32Z</time>
      </trkpt>
      <trkpt lat="49.22433" lon="2.36264">
        <ele>110</ele>
        <time>2011-11-13T10:05:34Z</time>
      </trkpt>
      <trkpt lat="49.22423" lon="2.3627">
        <ele>110</ele>
        <time>2011-11-13T10:05:36Z</time>
      </trkpt>
      <trkpt lat="49.22412" lon="2.36278">
        <ele>115</ele>
        <time>2011-11-13T10:05:38Z</time>
      </trkpt>
      <trkpt lat="49.224" lon="2.36285">
        <ele>115</ele>
        <time>2011-11-13T10:05:40Z</time>
      </trkpt>
      <trkpt lat="49.2239" lon="2.36293">
        <ele>115</ele>
        <time>2011-11-13T10:05:42Z</time>
      </trkpt>
      <trkpt lat="49.2238" lon="2.36301">
        <ele>115</ele>
        <time>2011-11-13T10:05:44Z</time>
      </trkpt>
      <trkpt lat="49.22371" lon="2.36311">
        <ele>115</ele>
        <time>2011-11-13T10:05:46Z</time>
      </trkpt>
      <trkpt lat="49.22362" lon="2.36323">
        <ele>115</ele>
        <time>2011-11-13T10:05:48Z</time>
      </trkpt>
      <trkpt lat="49.22352" lon="2.36332">
        <ele>115</ele>
        <time>2011-11-13T10:05:50Z</time>
      </trkpt>
      <trkpt lat="49.22342" lon="2.3634">
        <ele>115</ele>
        <time>2011-11-13T10:05:52Z</time>
      </trkpt>
      <trkpt lat="49.22333" lon="2.3635">
        <ele>115</ele>
        <time>2011-11-13T10:05:54Z</time>
      </trkpt>
      <trkpt lat="49.22323" lon="2.36358">
        <ele>115</ele>
        <time>2011-11-13T10:05:56Z</time>
      </trkpt>
      <trkpt lat="49.22314" lon="2.36368">
        <ele>115</ele>
        <time>2011-11-13T10:05:59Z</time>
      </trkpt>
      <trkpt lat="49.22304" lon="2.36376">
        <ele>120</ele>
        <time>2011-11-13T10:06:02Z</time>
      </trkpt>
      <trkpt lat="49.22294" lon="2.36384">
        <ele>120</ele>
        <time>2011-11-13T10:06:04Z</time>
      </trkpt>
      <trkpt lat="49.22283" lon="2.36395">
        <ele>120</ele>
        <time>2011-11-13T10:06:06Z</time>
      </trkpt>
      <trkpt lat="49.22273" lon="2.36407">
        <ele>120</ele>
        <time>2011-11-13T10:06:08Z</time>
      </trkpt>
      <trkpt lat="49.2226" lon="2.36418">
        <ele>120</ele>
        <time>2011-11-13T10:06:10Z</time>
      </trkpt>
      <trkpt lat="49.22246" lon="2.36428">
        <ele>120</ele>
        <time>2011-11-13T10:06:12Z</time>
      </trkpt>
      <trkpt lat="49.22233" lon="2.36438">
        <ele>120</ele>
        <time>2011-11-13T10:06:14Z</time>
      </trkpt>
      <trkpt lat="49.22219" lon="2.3645">
        <ele>120</ele>
        <time>2011-11-13T10:06:16Z</time>
      </trkpt>
      <trkpt lat="49.22203" lon="2.36461">
        <ele>115</ele>
        <time>2011-11-13T10:06:18Z</time>
      </trkpt>
      <trkpt lat="49.22187" lon="2.36471">
        <ele>115</ele>
        <time>2011-11-13T10:06:20Z</time>
      </trkpt>
      <trkpt lat="49.22171" lon="2.3648">
        <ele>115</ele>
        <time>2011-11-13T10:06:22Z</time>
      </trkpt>
      <trkpt lat="49.22156" lon="2.36488">
        <ele>115</ele>
        <time>2011-11-13T10:06:24Z</time>
      </trkpt>
      <trkpt lat="49.2214" lon="2.36495">
        <ele>115</ele>
        <time>2011-11-13T10:06:26Z</time>
      </trkpt>
      <trkpt lat="49.22126" lon="2.36501">
        <ele>115</ele>
        <time>2011-11-13T10:06:28Z</time>
      </trkpt>
      <trkpt lat="49.22112" lon="2.3651">
        <ele>115</ele>
        <time>2011-11-13T10:06:30Z</time>
      </trkpt>
      <trkpt lat="49.22099" lon="2.36519">
        <ele>115</ele>
        <time>2011-11-13T10:06:32Z</time>
      </trkpt>
      <trkpt lat="49.22085" lon="2.3653">
        <ele>115</ele>
        <time>2011-11-13T10:06:34Z</time>
      </trkpt>
      <trkpt lat="49.2207" lon="2.36541">
        <ele>115</ele>
        <time>2011-11-13T10:06:36Z</time>
      </trkpt>
      <trkpt lat="49.22056" lon="2.36553">
        <ele>110</ele>
        <time>2011-11-13T10:06:38Z</time>
      </trkpt>
      <trkpt lat="49.22044" lon="2.36561">
        <ele>110</ele>
        <time>2011-11-13T10:06:40Z</time>
      </trkpt>
      <trkpt lat="49.22035" lon="2.36567">
        <ele>110</ele>
        <time>2011-11-13T10:06:42Z</time>
      </trkpt>
      <trkpt lat="49.22025" lon="2.36568">
        <ele>104</ele>
        <time>2011-11-13T10:06:44Z</time>
      </trkpt>
      <trkpt lat="49.22016" lon="2.36571">
        <ele>104</ele>
        <time>2011-11-13T10:06:46Z</time>
      </trkpt>
      <trkpt lat="49.22006" lon="2.36581">
        <ele>104</ele>
        <time>2011-11-13T10:06:49Z</time>
      </trkpt>
      <trkpt lat="49.22" lon="2.36594">
        <ele>94</ele>
        <time>2011-11-13T10:06:54Z</time>
      </trkpt>
      <trkpt lat="49.21992" lon="2.36606">
        <ele>94</ele>
        <time>2011-11-13T10:06:57Z</time>
      </trkpt>
      <trkpt lat="49.21986" lon="2.36615">
        <ele>94</ele>
        <time>2011-11-13T10:07:00Z</time>
      </trkpt>
      <trkpt lat="49.21978" lon="2.36624">
        <ele>88</ele>
        <time>2011-11-13T10:07:03Z</time>
      </trkpt>
      <trkpt lat="49.21972" lon="2.36637">
        <ele>88</ele>
        <time>2011-11-13T10:07:06Z</time>
      </trkpt>
      <trkpt lat="49.21966" lon="2.36649">
        <ele>88</ele>
        <time>2011-11-13T10:07:08Z</time>
      </trkpt>
      <trkpt lat="49.21961" lon="2.3666">
        <ele>88</ele>
        <time>2011-11-13T10:07:10Z</time>
      </trkpt>
      <trkpt lat="49.21954" lon="2.36678">
        <ele>88</ele>
        <time>2011-11-13T10:07:13Z</time>
      </trkpt>
      <trkpt lat="49.21949" lon="2.36693">
        <ele>88</ele>
        <time>2011-11-13T10:07:15Z</time>
      </trkpt>
      <trkpt lat="49.21943" lon="2.36705">
        <ele>88</ele>
        <time>2011-11-13T10:07:17Z</time>
      </trkpt>
      <trkpt lat="49.21937" lon="2.36716">
        <ele>88</ele>
        <time>2011-11-13T10:07:19Z</time>
      </trkpt>
      <trkpt lat="49.21931" lon="2.36729">
        <ele>88</ele>
        <time>2011-11-13T10:07:22Z</time>
      </trkpt>
      <trkpt lat="49.21924" lon="2.36741">
        <ele>88</ele>
        <time>2011-11-13T10:07:26Z</time>
      </trkpt>
      <trkpt lat="49.21914" lon="2.36752">
        <ele>88</ele>
        <time>2011-11-13T10:07:29Z</time>
      </trkpt>
      <trkpt lat="49.21906" lon="2.36759">
        <ele>88</ele>
        <time>2011-11-13T10:07:31Z</time>
      </trkpt>
      <trkpt lat="49.21895" lon="2.36768">
        <ele>88</ele>
        <time>2011-11-13T10:07:33Z</time>
      </trkpt>
      <trkpt lat="49.21885" lon="2.36778">
        <ele>88</ele>
        <time>2011-11-13T10:07:35Z</time>
      </trkpt>
      <trkpt lat="49.21874" lon="2.36787">
        <ele>88</ele>
        <time>2011-11-13T10:07:37Z</time>
      </trkpt>
      <trkpt lat="49.21862" lon="2.36796">
        <ele>88</ele>
        <time>2011-11-13T10:07:39Z</time>
      </trkpt>
      <trkpt lat="49.21851" lon="2.36805">
        <ele>88</ele>
        <time>2011-11-13T10:07:41Z</time>
      </trkpt>
      <trkpt lat="49.21839" lon="2.36812">
        <ele>88</ele>
        <time>2011-11-13T10:07:43Z</time>
      </trkpt>
      <trkpt lat="49.21827" lon="2.3682">
        <ele>88</ele>
        <time>2011-11-13T10:07:45Z</time>
      </trkpt>
      <trkpt lat="49.21816" lon="2.36827">
        <ele>88</ele>
        <time>2011-11-13T10:07:47Z</time>
      </trkpt>
      <trkpt lat="49.21806" lon="2.3683">
        <ele>88</ele>
        <time>2011-11-13T10:07:49Z</time>
      </trkpt>
      <trkpt lat="49.21796" lon="2.36828">
        <ele>88</ele>
        <time>2011-11-13T10:07:51Z</time>
      </trkpt>
      <trkpt lat="49.21785" lon="2.36835">
        <ele>83</ele>
        <time>2011-11-13T10:07:54Z</time>
      </trkpt>
      <trkpt lat="49.21777" lon="2.36841">
        <ele>74</ele>
        <time>2011-11-13T10:08:22Z</time>
      </trkpt>
      <trkpt lat="49.21767" lon="2.36835">
        <ele>74</ele>
        <time>2011-11-13T10:23:06Z</time>
      </trkpt>
      <trkpt lat="49.21754" lon="2.36828">
        <ele>74</ele>
        <time>2011-11-13T10:23:09Z</time>
      </trkpt>
      <trkpt lat="49.21739" lon="2.36824">
        <ele>74</ele>
        <time>2011-11-13T10:23:11Z</time>
      </trkpt>
      <trkpt lat="49.21723" lon="2.36819">
        <ele>74</ele>
        <time>2011-11-13T10:23:13Z</time>
      </trkpt>
      <trkpt lat="49.21708" lon="2.36814">
        <ele>74</ele>
        <time>2011-11-13T10:23:15Z</time>
      </trkpt>
      <trkpt lat="49.21692" lon="2.36808">
        <ele>74</ele>
        <time>2011-11-13T10:23:17Z</time>
      </trkpt>
      <trkpt lat="49.21677" lon="2.36799">
        <ele>69</ele>
        <time>2011-11-13T10:23:19Z</time>
      </trkpt>
      <trkpt lat="49.21663" lon="2.36791">
        <ele>69</ele>
        <time>2011-11-13T10:23:21Z</time>
      </trkpt>
      <trkpt lat="49.21652" lon="2.36783">
        <ele>69</ele>
        <time>2011-11-13T10:23:23Z</time>
      </trkpt>
      <trkpt lat="49.21643" lon="2.36777">
        <ele>69</ele>
        <time>2011-11-13T10:23:25Z</time>
      </trkpt>
      <trkpt lat="49.21634" lon="2.36772">
        <ele>69</ele>
        <time>2011-11-13T10:23:27Z</time>
      </trkpt>
      <trkpt lat="49.21624" lon="2.36766">
        <ele>64</ele>
        <time>2011-11-13T10:23:29Z</time>
      </trkpt>
      <trkpt lat="49.21611" lon="2.36759">
        <ele>64</ele>
        <time>2011-11-13T10:23:31Z</time>
      </trkpt>
      <trkpt lat="49.21597" lon="2.36754">
        <ele>64</ele>
        <time>2011-11-13T10:23:33Z</time>
      </trkpt>
      <trkpt lat="49.21582" lon="2.36747">
        <ele>64</ele>
        <time>2011-11-13T10:23:35Z</time>
      </trkpt>
      <trkpt lat="49.21567" lon="2.36739">
        <ele>58</ele>
        <time>2011-11-13T10:23:37Z</time>
      </trkpt>
      <trkpt lat="49.21551" lon="2.36732">
        <ele>58</ele>
        <time>2011-11-13T10:23:39Z</time>
      </trkpt>
      <trkpt lat="49.21536" lon="2.36728">
        <ele>58</ele>
        <time>2011-11-13T10:23:41Z</time>
      </trkpt>
      <trkpt lat="49.21522" lon="2.36722">
        <ele>58</ele>
        <time>2011-11-13T10:23:43Z</time>
      </trkpt>
      <trkpt lat="49.21508" lon="2.36719">
        <ele>53</ele>
        <time>2011-11-13T10:23:45Z</time>
      </trkpt>
      <trkpt lat="49.21497" lon="2.36714">
        <ele>53</ele>
        <time>2011-11-13T10:23:47Z</time>
      </trkpt>
      <trkpt lat="49.21485" lon="2.36711">
        <ele>53</ele>
        <time>2011-11-13T10:23:49Z</time>
      </trkpt>
      <trkpt lat="49.21475" lon="2.36706">
        <ele>47</ele>
        <time>2011-11-13T10:23:51Z</time>
      </trkpt>
      <trkpt lat="49.21465" lon="2.36703">
        <ele>47</ele>
        <time>2011-11-13T10:23:53Z</time>
      </trkpt>
      <trkpt lat="49.21455" lon="2.36703">
        <ele>47</ele>
        <time>2011-11-13T10:23:57Z</time>
      </trkpt>
      <trkpt lat="49.21446" lon="2.36703">
        <ele>47</ele>
        <time>2011-11-13T10:24:02Z</time>
      </trkpt>
      <trkpt lat="49.21443" lon="2.3669">
        <ele>42</ele>
        <time>2011-11-13T10:24:06Z</time>
      </trkpt>
      <trkpt lat="49.21451" lon="2.36675">
        <ele>42</ele>
        <time>2011-11-13T10:24:09Z</time>
      </trkpt>
      <trkpt lat="49.2146" lon="2.36661">
        <ele>42</ele>
        <time>2011-11-13T10:24:12Z</time>
      </trkpt>
      <trkpt lat="49.21465" lon="2.3665">
        <ele>42</ele>
        <time>2011-11-13T10:24:16Z</time>
      </trkpt>
      <trkpt lat="49.21461" lon="2.36634">
        <ele>42</ele>
        <time>2011-11-13T10:24:25Z</time>
      </trkpt>
      <trkpt lat="49.21455" lon="2.3662">
        <ele>42</ele>
        <time>2011-11-13T10:24:27Z</time>
      </trkpt>
      <trkpt lat="49.21451" lon="2.36601">
        <ele>42</ele>
        <time>2011-11-13T10:24:29Z</time>
      </trkpt>
      <trkpt lat="49.21444" lon="2.36578">
        <ele>42</ele>
        <time>2011-11-13T10:24:31Z</time>
      </trkpt>
      <trkpt lat="49.21437" lon="2.36554">
        <ele>42</ele>
        <time>2011-11-13T10:24:33Z</time>
      </trkpt>
      <trkpt lat="49.2143" lon="2.36533">
        <ele>42</ele>
        <time>2011-11-13T10:24:35Z</time>
      </trkpt>
      <trkpt lat="49.21424" lon="2.36512">
        <ele>42</ele>
        <time>2011-11-13T10:24:37Z</time>
      </trkpt>
      <trkpt lat="49.2142" lon="2.36489">
        <ele>42</ele>
        <time>2011-11-13T10:24:39Z</time>
      </trkpt>
      <trkpt lat="49.21415" lon="2.36465">
        <ele>42</ele>
        <time>2011-11-13T10:24:41Z</time>
      </trkpt>
      <trkpt lat="49.21412" lon="2.36442">
        <ele>42</ele>
        <time>2011-11-13T10:24:43Z</time>
      </trkpt>
      <trkpt lat="49.21407" lon="2.36419">
        <ele>42</ele>
        <time>2011-11-13T10:24:45Z</time>
      </trkpt>
      <trkpt lat="49.21401" lon="2.36394">
        <ele>42</ele>
        <time>2011-11-13T10:24:47Z</time>
      </trkpt>
      <trkpt lat="49.21398" lon="2.36381">
        <ele>42</ele>
        <time>2011-11-13T10:24:48Z</time>
      </trkpt>
      <trkpt lat="49.21392" lon="2.36357">
        <ele>42</ele>
        <time>2011-11-13T10:24:50Z</time>
      </trkpt>
      <trkpt lat="49.21385" lon="2.36332">
        <ele>48</ele>
        <time>2011-11-13T10:24:52Z</time>
      </trkpt>
      <trkpt lat="49.2138" lon="2.36306">
        <ele>48</ele>
        <time>2011-11-13T10:24:54Z</time>
      </trkpt>
      <trkpt lat="49.21374" lon="2.36284">
        <ele>48</ele>
        <time>2011-11-13T10:24:56Z</time>
      </trkpt>
      <trkpt lat="49.21368" lon="2.36261">
        <ele>48</ele>
        <time>2011-11-13T10:24:58Z</time>
      </trkpt>
      <trkpt lat="49.21361" lon="2.36239">
        <ele>48</ele>
        <time>2011-11-13T10:25:00Z</time>
      </trkpt>
      <trkpt lat="49.21353" lon="2.36217">
        <ele>53</ele>
        <time>2011-11-13T10:25:02Z</time>
      </trkpt>
      <trkpt lat="49.21348" lon="2.36206">
        <ele>53</ele>
        <time>2011-11-13T10:25:03Z</time>
      </trkpt>
      <trkpt lat="49.21338" lon="2.36186">
        <ele>53</ele>
        <time>2011-11-13T10:25:05Z</time>
      </trkpt>
      <trkpt lat="49.21328" lon="2.36166">
        <ele>53</ele>
        <time>2011-11-13T10:25:07Z</time>
      </trkpt>
      <trkpt lat="49.2132" lon="2.36148">
        <ele>53</ele>
        <time>2011-11-13T10:25:09Z</time>
      </trkpt>
      <trkpt lat="49.21312" lon="2.36131">
        <ele>53</ele>
        <time>2011-11-13T10:25:11Z</time>
      </trkpt>
      <trkpt lat="49.21305" lon="2.36116">
        <ele>53</ele>
        <time>2011-11-13T10:25:13Z</time>
      </trkpt>
      <trkpt lat="49.21299" lon="2.36103">
        <ele>53</ele>
        <time>2011-11-13T10:25:15Z</time>
      </trkpt>
      <trkpt lat="49.21295" lon="2.3609">
        <ele>59</ele>
        <time>2011-11-13T10:25:17Z</time>
      </trkpt>
      <trkpt lat="49.21305" lon="2.36077">
        <ele>59</ele>
        <time>2011-11-13T10:25:20Z</time>
      </trkpt>
      <trkpt lat="49.21316" lon="2.36072">
        <ele>59</ele>
        <time>2011-11-13T10:25:22Z</time>
      </trkpt>
      <trkpt lat="49.21326" lon="2.36065">
        <ele>59</ele>
        <time>2011-11-13T10:25:24Z</time>
      </trkpt>
      <trkpt lat="49.21337" lon="2.36057">
        <ele>65</ele>
        <time>2011-11-13T10:25:26Z</time>
      </trkpt>
      <trkpt lat="49.2135" lon="2.36048">
        <ele>65</ele>
        <time>2011-11-13T10:25:28Z</time>
      </trkpt>
      <trkpt lat="49.21364" lon="2.36038">
        <ele>70</ele>
        <time>2011-11-13T10:25:30Z</time>
      </trkpt>
      <trkpt lat="49.21372" lon="2.36031">
        <ele>70</ele>
        <time>2011-11-13T10:25:31Z</time>
      </trkpt>
      <trkpt lat="49.21381" lon="2.36025">
        <ele>70</ele>
        <time>2011-11-13T10:25:32Z</time>
      </trkpt>
      <trkpt lat="49.21391" lon="2.36018">
        <ele>70</ele>
        <time>2011-11-13T10:25:33Z</time>
      </trkpt>
      <trkpt lat="49.21401" lon="2.36012">
        <ele>70</ele>
        <time>2011-11-13T10:25:34Z</time>
      </trkpt>
      <trkpt lat="49.21411" lon="2.36004">
        <ele>76</ele>
        <time>2011-11-13T10:25:35Z</time>
      </trkpt>
      <trkpt lat="49.21422" lon="2.35996">
        <ele>76</ele>
        <time>2011-11-13T10:25:36Z</time>
      </trkpt>
      <trkpt lat="49.21432" lon="2.35989">
        <ele>76</ele>
        <time>2011-11-13T10:25:37Z</time>
      </trkpt>
      <trkpt lat="49.21441" lon="2.35983">
        <ele>76</ele>
        <time>2011-11-13T10:25:38Z</time>
      </trkpt>
      <trkpt lat="49.21457" lon="2.35973">
        <ele>76</ele>
        <time>2011-11-13T10:25:40Z</time>
      </trkpt>
      <trkpt lat="49.2147" lon="2.35965">
        <ele>76</ele>
        <time>2011-11-13T10:25:42Z</time>
      </trkpt>
      <trkpt lat="49.21477" lon="2.35953">
        <ele>76</ele>
        <time>2011-11-13T10:25:44Z</time>
      </trkpt>
      <trkpt lat="49.21477" lon="2.35939">
        <ele>76</ele>
        <time>2011-11-13T10:25:46Z</time>
      </trkpt>
      <trkpt lat="49.21471" lon="2.35917">
        <ele>81</ele>
        <time>2011-11-13T10:25:48Z</time>
      </trkpt>
      <trkpt lat="49.21468" lon="2.35904">
        <ele>81</ele>
        <time>2011-11-13T10:25:49Z</time>
      </trkpt>
      <trkpt lat="49.21465" lon="2.3589">
        <ele>81</ele>
        <time>2011-11-13T10:25:50Z</time>
      </trkpt>
      <trkpt lat="49.21461" lon="2.35875">
        <ele>81</ele>
        <time>2011-11-13T10:25:51Z</time>
      </trkpt>
      <trkpt lat="49.21453" lon="2.35851">
        <ele>81</ele>
        <time>2011-11-13T10:25:53Z</time>
      </trkpt>
      <trkpt lat="49.21448" lon="2.35828">
        <ele>81</ele>
        <time>2011-11-13T10:25:55Z</time>
      </trkpt>
      <trkpt lat="49.21443" lon="2.35805">
        <ele>81</ele>
        <time>2011-11-13T10:25:57Z</time>
      </trkpt>
      <trkpt lat="49.21443" lon="2.3579">
        <ele>87</ele>
        <time>2011-11-13T10:25:59Z</time>
      </trkpt>
      <trkpt lat="49.21455" lon="2.35782">
        <ele>87</ele>
        <time>2011-11-13T10:26:02Z</time>
      </trkpt>
      <trkpt lat="49.21467" lon="2.35775">
        <ele>87</ele>
        <time>2011-11-13T10:26:04Z</time>
      </trkpt>
      <trkpt lat="49.21475" lon="2.35763">
        <ele>87</ele>
        <time>2011-11-13T10:26:06Z</time>
      </trkpt>
      <trkpt lat="49.21473" lon="2.35742">
        <ele>87</ele>
        <time>2011-11-13T10:26:08Z</time>
      </trkpt>
      <trkpt lat="49.21469" lon="2.35715">
        <ele>87</ele>
        <time>2011-11-13T10:26:10Z</time>
      </trkpt>
      <trkpt lat="49.21466" lon="2.35699">
        <ele>87</ele>
        <time>2011-11-13T10:26:11Z</time>
      </trkpt>
      <trkpt lat="49.21464" lon="2.35683">
        <ele>93</ele>
        <time>2011-11-13T10:26:12Z</time>
      </trkpt>
      <trkpt lat="49.21462" lon="2.35665">
        <ele>93</ele>
        <time>2011-11-13T10:26:13Z</time>
      </trkpt>
      <trkpt lat="49.2146" lon="2.35646">
        <ele>93</ele>
        <time>2011-11-13T10:26:14Z</time>
      </trkpt>
      <trkpt lat="49.21457" lon="2.35627">
        <ele>93</ele>
        <time>2011-11-13T10:26:15Z</time>
      </trkpt>
      <trkpt lat="49.21454" lon="2.35607">
        <ele>93</ele>
        <time>2011-11-13T10:26:16Z</time>
      </trkpt>
      <trkpt lat="49.21452" lon="2.35588">
        <ele>93</ele>
        <time>2011-11-13T10:26:17Z</time>
      </trkpt>
      <trkpt lat="49.21449" lon="2.35568">
        <ele>93</ele>
        <time>2011-11-13T10:26:18Z</time>
      </trkpt>
      <trkpt lat="49.21447" lon="2.35548">
        <ele>93</ele>
        <time>2011-11-13T10:26:19Z</time>
      </trkpt>
      <trkpt lat="49.21444" lon="2.35529">
        <ele>93</ele>
        <time>2011-11-13T10:26:20Z</time>
      </trkpt>
      <trkpt lat="49.21441" lon="2.35511">
        <ele>93</ele>
        <time>2011-11-13T10:26:21Z</time>
      </trkpt>
      <trkpt lat="49.21438" lon="2.35494">
        <ele>93</ele>
        <time>2011-11-13T10:26:22Z</time>
      </trkpt>
      <trkpt lat="49.21436" lon="2.35478">
        <ele>98</ele>
        <time>2011-11-13T10:26:23Z</time>
      </trkpt>
      <trkpt lat="49.21434" lon="2.35462">
        <ele>98</ele>
        <time>2011-11-13T10:26:24Z</time>
      </trkpt>
      <trkpt lat="49.21431" lon="2.35447">
        <ele>98</ele>
        <time>2011-11-13T10:26:25Z</time>
      </trkpt>
      <trkpt lat="49.21428" lon="2.35431">
        <ele>98</ele>
        <time>2011-11-13T10:26:26Z</time>
      </trkpt>
      <trkpt lat="49.21426" lon="2.35416">
        <ele>98</ele>
        <time>2011-11-13T10:26:27Z</time>
      </trkpt>
      <trkpt lat="49.21424" lon="2.35401">
        <ele>98</ele>
        <time>2011-11-13T10:26:28Z</time>
      </trkpt>
      <trkpt lat="49.21421" lon="2.35387">
        <ele>98</ele>
        <time>2011-11-13T10:26:29Z</time>
      </trkpt>
      <trkpt lat="49.21418" lon="2.35372">
        <ele>98</ele>
        <time>2011-11-13T10:26:30Z</time>
      </trkpt>
      <trkpt lat="49.21415" lon="2.35359">
        <ele>98</ele>
        <time>2011-11-13T10:26:31Z</time>
      </trkpt>
      <trkpt lat="49.21413" lon="2.35344">
        <ele>98</ele>
        <time>2011-11-13T10:26:32Z</time>
      </trkpt>
      <trkpt lat="49.2141" lon="2.3533">
        <ele>98</ele>
        <time>2011-11-13T10:26:33Z</time>
      </trkpt>
      <trkpt lat="49.21404" lon="2.35304">
        <ele>98</ele>
        <time>2011-11-13T10:26:35Z</time>
      </trkpt>
      <trkpt lat="49.21401" lon="2.3529">
        <ele>98</ele>
        <time>2011-11-13T10:26:36Z</time>
      </trkpt>
      <trkpt lat="49.21397" lon="2.35277">
        <ele>98</ele>
        <time>2011-11-13T10:26:37Z</time>
      </trkpt>
      <trkpt lat="49.21394" lon="2.35263">
        <ele>98</ele>
        <time>2011-11-13T10:26:38Z</time>
      </trkpt>
      <trkpt lat="49.2139" lon="2.3525">
        <ele>98</ele>
        <time>2011-11-13T10:26:39Z</time>
      </trkpt>
      <trkpt lat="49.21387" lon="2.35236">
        <ele>98</ele>
        <time>2011-11-13T10:26:40Z</time>
      </trkpt>
      <trkpt lat="49.21382" lon="2.35221">
        <ele>98</ele>
        <time>2011-11-13T10:26:41Z</time>
      </trkpt>
      <trkpt lat="49.21378" lon="2.35205">
        <ele>98</ele>
        <time>2011-11-13T10:26:42Z</time>
      </trkpt>
      <trkpt lat="49.21374" lon="2.3519">
        <ele>103</ele>
        <time>2011-11-13T10:26:43Z</time>
      </trkpt>
      <trkpt lat="49.2137" lon="2.35174">
        <ele>103</ele>
        <time>2011-11-13T10:26:44Z</time>
      </trkpt>
      <trkpt lat="49.21366" lon="2.35157">
        <ele>103</ele>
        <time>2011-11-13T10:26:45Z</time>
      </trkpt>
      <trkpt lat="49.21362" lon="2.35141">
        <ele>103</ele>
        <time>2011-11-13T10:26:46Z</time>
      </trkpt>
      <trkpt lat="49.21358" lon="2.35125">
        <ele>103</ele>
        <time>2011-11-13T10:26:47Z</time>
      </trkpt>
      <trkpt lat="49.21354" lon="2.3511">
        <ele>103</ele>
        <time>2011-11-13T10:26:48Z</time>
      </trkpt>
      <trkpt lat="49.21349" lon="2.35094">
        <ele>103</ele>
        <time>2011-11-13T10:26:49Z</time>
      </trkpt>
      <trkpt lat="49.21345" lon="2.35077">
        <ele>103</ele>
        <time>2011-11-13T10:26:50Z</time>
      </trkpt>
      <trkpt lat="49.2134" lon="2.3506">
        <ele>103</ele>
        <time>2011-11-13T10:26:51Z</time>
      </trkpt>
      <trkpt lat="49.21336" lon="2.35043">
        <ele>103</ele>
        <time>2011-11-13T10:26:52Z</time>
      </trkpt>
      <trkpt lat="49.21331" lon="2.35027">
        <ele>103</ele>
        <time>2011-11-13T10:26:53Z</time>
      </trkpt>
      <trkpt lat="49.21327" lon="2.35011">
        <ele>103</ele>
        <time>2011-11-13T10:26:54Z</time>
      </trkpt>
      <trkpt lat="49.21323" lon="2.34995">
        <ele>103</ele>
        <time>2011-11-13T10:26:55Z</time>
      </trkpt>
      <trkpt lat="49.21319" lon="2.3498">
        <ele>103</ele>
        <time>2011-11-13T10:26:56Z</time>
      </trkpt>
      <trkpt lat="49.21315" lon="2.34964">
        <ele>103</ele>
        <time>2011-11-13T10:26:57Z</time>
      </trkpt>
      <trkpt lat="49.21311" lon="2.34951">
        <ele>103</ele>
        <time>2011-11-13T10:26:58Z</time>
      </trkpt>
      <trkpt lat="49.21306" lon="2.34928">
        <ele>103</ele>
        <time>2011-11-13T10:27:00Z</time>
      </trkpt>
      <trkpt lat="49.21301" lon="2.34909">
        <ele>103</ele>
        <time>2011-11-13T10:27:02Z</time>
      </trkpt>
      <trkpt lat="49.21295" lon="2.3489">
        <ele>108</ele>
        <time>2011-11-13T10:27:04Z</time>
      </trkpt>
      <trkpt lat="49.21288" lon="2.34865">
        <ele>108</ele>
        <time>2011-11-13T10:27:06Z</time>
      </trkpt>
      <trkpt lat="49.21284" lon="2.34851">
        <ele>108</ele>
        <time>2011-11-13T10:27:07Z</time>
      </trkpt>
      <trkpt lat="49.21281" lon="2.34836">
        <ele>108</ele>
        <time>2011-11-13T10:27:08Z</time>
      </trkpt>
      <trkpt lat="49.21277" lon="2.34821">
        <ele>108</ele>
        <time>2011-11-13T10:27:09Z</time>
      </trkpt>
      <trkpt lat="49.21272" lon="2.34805">
        <ele>108</ele>
        <time>2011-11-13T10:27:10Z</time>
      </trkpt>
      <trkpt lat="49.21269" lon="2.34789">
        <ele>108</ele>
        <time>2011-11-13T10:27:11Z</time>
      </trkpt>
      <trkpt lat="49.21265" lon="2.34774">
        <ele>108</ele>
        <time>2011-11-13T10:27:12Z</time>
      </trkpt>
      <trkpt lat="49.21261" lon="2.34759">
        <ele>108</ele>
        <time>2011-11-13T10:27:13Z</time>
      </trkpt>
      <trkpt lat="49.21257" lon="2.34746">
        <ele>108</ele>
        <time>2011-11-13T10:27:14Z</time>
      </trkpt>
      <trkpt lat="49.21251" lon="2.3472">
        <ele>108</ele>
        <time>2011-11-13T10:27:16Z</time>
      </trkpt>
      <trkpt lat="49.21244" lon="2.34696">
        <ele>108</ele>
        <time>2011-11-13T10:27:18Z</time>
      </trkpt>
      <trkpt lat="49.21237" lon="2.34672">
        <ele>108</ele>
        <time>2011-11-13T10:27:20Z</time>
      </trkpt>
      <trkpt lat="49.21231" lon="2.34649">
        <ele>108</ele>
        <time>2011-11-13T10:27:22Z</time>
      </trkpt>
      <trkpt lat="49.21225" lon="2.34625">
        <ele>108</ele>
        <time>2011-11-13T10:27:24Z</time>
      </trkpt>
      <trkpt lat="49.21218" lon="2.34604">
        <ele>113</ele>
        <time>2011-11-13T10:27:26Z</time>
      </trkpt>
      <trkpt lat="49.21214" lon="2.3459">
        <ele>113</ele>
        <time>2011-11-13T10:27:28Z</time>
      </trkpt>
      <trkpt lat="49.21211" lon="2.34574">
        <ele>113</ele>
        <time>2011-11-13T10:27:31Z</time>
      </trkpt>
      <trkpt lat="49.21203" lon="2.34564">
        <ele>113</ele>
        <time>2011-11-13T10:27:34Z</time>
      </trkpt>
      <trkpt lat="49.21191" lon="2.34562">
        <ele>113</ele>
        <time>2011-11-13T10:27:36Z</time>
      </trkpt>
      <trkpt lat="49.21174" lon="2.34561">
        <ele>113</ele>
        <time>2011-11-13T10:27:38Z</time>
      </trkpt>
      <trkpt lat="49.21164" lon="2.34559">
        <ele>113</ele>
        <time>2011-11-13T10:27:39Z</time>
      </trkpt>
      <trkpt lat="49.21155" lon="2.34556">
        <ele>113</ele>
        <time>2011-11-13T10:27:40Z</time>
      </trkpt>
      <trkpt lat="49.21144" lon="2.34555">
        <ele>113</ele>
        <time>2011-11-13T10:27:41Z</time>
      </trkpt>
      <trkpt lat="49.21133" lon="2.34553">
        <ele>113</ele>
        <time>2011-11-13T10:27:42Z</time>
      </trkpt>
      <trkpt lat="49.21121" lon="2.34551">
        <ele>113</ele>
        <time>2011-11-13T10:27:43Z</time>
      </trkpt>
      <trkpt lat="49.21108" lon="2.34549">
        <ele>113</ele>
        <time>2011-11-13T10:27:44Z</time>
      </trkpt>
      <trkpt lat="49.21095" lon="2.34547">
        <ele>113</ele>
        <time>2011-11-13T10:27:45Z</time>
      </trkpt>
      <trkpt lat="49.21082" lon="2.34543">
        <ele>113</ele>
        <time>2011-11-13T10:27:46Z</time>
      </trkpt>
      <trkpt lat="49.21069" lon="2.3454">
        <ele>113</ele>
        <time>2011-11-13T10:27:47Z</time>
      </trkpt>
      <trkpt lat="49.21056" lon="2.34538">
        <ele>113</ele>
        <time>2011-11-13T10:27:48Z</time>
      </trkpt>
      <trkpt lat="49.21044" lon="2.34535">
        <ele>113</ele>
        <time>2011-11-13T10:27:49Z</time>
      </trkpt>
      <trkpt lat="49.21032" lon="2.34532">
        <ele>113</ele>
        <time>2011-11-13T10:27:50Z</time>
      </trkpt>
      <trkpt lat="49.21021" lon="2.3453">
        <ele>113</ele>
        <time>2011-11-13T10:27:51Z</time>
      </trkpt>
      <trkpt lat="49.21011" lon="2.34528">
        <ele>113</ele>
        <time>2011-11-13T10:27:52Z</time>
      </trkpt>
      <trkpt lat="49.21001" lon="2.34526">
        <ele>113</ele>
        <time>2011-11-13T10:27:53Z</time>
      </trkpt>
      <trkpt lat="49.20985" lon="2.34521">
        <ele>113</ele>
        <time>2011-11-13T10:27:55Z</time>
      </trkpt>
      <trkpt lat="49.2097" lon="2.34518">
        <ele>113</ele>
        <time>2011-11-13T10:27:57Z</time>
      </trkpt>
      <trkpt lat="49.20957" lon="2.34515">
        <ele>113</ele>
        <time>2011-11-13T10:27:59Z</time>
      </trkpt>
      <trkpt lat="49.20943" lon="2.34512">
        <ele>113</ele>
        <time>2011-11-13T10:28:01Z</time>
      </trkpt>
      <trkpt lat="49.20929" lon="2.3451">
        <ele>113</ele>
        <time>2011-11-13T10:28:03Z</time>
      </trkpt>
      <trkpt lat="49.20919" lon="2.34507">
        <ele>113</ele>
        <time>2011-11-13T10:28:05Z</time>
      </trkpt>
      <trkpt lat="49.20906" lon="2.34504">
        <ele>113</ele>
        <time>2011-11-13T10:28:08Z</time>
      </trkpt>
      <trkpt lat="49.20895" lon="2.34503">
        <ele>113</ele>
        <time>2011-11-13T10:28:11Z</time>
      </trkpt>
      <trkpt lat="49.20885" lon="2.345">
        <ele>113</ele>
        <time>2011-11-13T10:28:16Z</time>
      </trkpt>
      <trkpt lat="49.20874" lon="2.34498">
        <ele>113</ele>
        <time>2011-11-13T10:28:27Z</time>
      </trkpt>
      <trkpt lat="49.20865" lon="2.34508">
        <ele>113</ele>
        <time>2011-11-13T10:28:29Z</time>
      </trkpt>
      <trkpt lat="49.20855" lon="2.3453">
        <ele>113</ele>
        <time>2011-11-13T10:28:31Z</time>
      </trkpt>
      <trkpt lat="49.20849" lon="2.34545">
        <ele>113</ele>
        <time>2011-11-13T10:28:32Z</time>
      </trkpt>
      <trkpt lat="49.20842" lon="2.34559">
        <ele>113</ele>
        <time>2011-11-13T10:28:33Z</time>
      </trkpt>
      <trkpt lat="49.20836" lon="2.34574">
        <ele>113</ele>
        <time>2011-11-13T10:28:34Z</time>
      </trkpt>
      <trkpt lat="49.20828" lon="2.34591">
        <ele>113</ele>
        <time>2011-11-13T10:28:35Z</time>
      </trkpt>
      <trkpt lat="49.20821" lon="2.34607">
        <ele>113</ele>
        <time>2011-11-13T10:28:36Z</time>
      </trkpt>
      <trkpt lat="49.20813" lon="2.34624">
        <ele>113</ele>
        <time>2011-11-13T10:28:37Z</time>
      </trkpt>
      <trkpt lat="49.20805" lon="2.34641">
        <ele>113</ele>
        <time>2011-11-13T10:28:38Z</time>
      </trkpt>
      <trkpt lat="49.20796" lon="2.34659">
        <ele>113</ele>
        <time>2011-11-13T10:28:39Z</time>
      </trkpt>
      <trkpt lat="49.20787" lon="2.34677">
        <ele>113</ele>
        <time>2011-11-13T10:28:40Z</time>
      </trkpt>
      <trkpt lat="49.20777" lon="2.34695">
        <ele>113</ele>
        <time>2011-11-13T10:28:41Z</time>
      </trkpt>
      <trkpt lat="49.20767" lon="2.34713">
        <ele>113</ele>
        <time>2011-11-13T10:28:42Z</time>
      </trkpt>
      <trkpt lat="49.20757" lon="2.34731">
        <ele>113</ele>
        <time>2011-11-13T10:28:43Z</time>
      </trkpt>
      <trkpt lat="49.20747" lon="2.34749">
        <ele>113</ele>
        <time>2011-11-13T10:28:44Z</time>
      </trkpt>
      <trkpt lat="49.20736" lon="2.34768">
        <ele>113</ele>
        <time>2011-11-13T10:28:45Z</time>
      </trkpt>
      <trkpt lat="49.20725" lon="2.34786">
        <ele>113</ele>
        <time>2011-11-13T10:28:46Z</time>
      </trkpt>
      <trkpt lat="49.20714" lon="2.34804">
        <ele>113</ele>
        <time>2011-11-13T10:28:47Z</time>
      </trkpt>
      <trkpt lat="49.20704" lon="2.34823">
        <ele>113</ele>
        <time>2011-11-13T10:28:48Z</time>
      </trkpt>
      <trkpt lat="49.20694" lon="2.34841">
        <ele>113</ele>
        <time>2011-11-13T10:28:49Z</time>
      </trkpt>
      <trkpt lat="49.20683" lon="2.34858">
        <ele>113</ele>
        <time>2011-11-13T10:28:50Z</time>
      </trkpt>
      <trkpt lat="49.20673" lon="2.34875">
        <ele>113</ele>
        <time>2011-11-13T10:28:51Z</time>
      </trkpt>
      <trkpt lat="49.20663" lon="2.34893">
        <ele>113</ele>
        <time>2011-11-13T10:28:52Z</time>
      </trkpt>
      <trkpt lat="49.20653" lon="2.34911">
        <ele>113</ele>
        <time>2011-11-13T10:28:53Z</time>
      </trkpt>
      <trkpt lat="49.20643" lon="2.34928">
        <ele>113</ele>
        <time>2011-11-13T10:28:54Z</time>
      </trkpt>
      <trkpt lat="49.20633" lon="2.34945">
        <ele>113</ele>
        <time>2011-11-13T10:28:55Z</time>
      </trkpt>
      <trkpt lat="49.20623" lon="2.34962">
        <ele>113</ele>
        <time>2011-11-13T10:28:56Z</time>
      </trkpt>
      <trkpt lat="49.20614" lon="2.34979">
        <ele>113</ele>
        <time>2011-11-13T10:28:57Z</time>
      </trkpt>
      <trkpt lat="49.20604" lon="2.34996">
        <ele>113</ele>
        <time>2011-11-13T10:28:58Z</time>
      </trkpt>
      <trkpt lat="49.20595" lon="2.35012">
        <ele>113</ele>
        <time>2011-11-13T10:28:59Z</time>
      </trkpt>
      <trkpt lat="49.20586" lon="2.35027">
        <ele>113</ele>
        <time>2011-11-13T10:29:00Z</time>
      </trkpt>
      <trkpt lat="49.20577" lon="2.35042">
        <ele>113</ele>
        <time>2011-11-13T10:29:01Z</time>
      </trkpt>
      <trkpt lat="49.20568" lon="2.35059">
        <ele>113</ele>
        <time>2011-11-13T10:29:02Z</time>
      </trkpt>
      <trkpt lat="49.2056" lon="2.35073">
        <ele>113</ele>
        <time>2011-11-13T10:29:03Z</time>
      </trkpt>
      <trkpt lat="49.20551" lon="2.35087">
        <ele>113</ele>
        <time>2011-11-13T10:29:04Z</time>
      </trkpt>
      <trkpt lat="49.20543" lon="2.35102">
        <ele>113</ele>
        <time>2011-11-13T10:29:05Z</time>
      </trkpt>
      <trkpt lat="49.20536" lon="2.35115">
        <ele>113</ele>
        <time>2011-11-13T10:29:06Z</time>
      </trkpt>
      <trkpt lat="49.20529" lon="2.35127">
        <ele>113</ele>
        <time>2011-11-13T10:29:07Z</time>
      </trkpt>
      <trkpt lat="49.20521" lon="2.35139">
        <ele>113</ele>
        <time>2011-11-13T10:29:08Z</time>
      </trkpt>
      <trkpt lat="49.20515" lon="2.35148">
        <ele>113</ele>
        <time>2011-11-13T10:29:09Z</time>
      </trkpt>
      <trkpt lat="49.20503" lon="2.35166">
        <ele>113</ele>
        <time>2011-11-13T10:29:11Z</time>
      </trkpt>
      <trkpt lat="49.20494" lon="2.35176">
        <ele>113</ele>
        <time>2011-11-13T10:29:13Z</time>
      </trkpt>
      <trkpt lat="49.20487" lon="2.35185">
        <ele>113</ele>
        <time>2011-11-13T10:29:16Z</time>
      </trkpt>
      <trkpt lat="49.20478" lon="2.35192">
        <ele>113</ele>
        <time>2011-11-13T10:29:21Z</time>
      </trkpt>
      <trkpt lat="49.20472" lon="2.35179">
        <ele>113</ele>
        <time>2011-11-13T10:29:29Z</time>
      </trkpt>
      <trkpt lat="49.20468" lon="2.35164">
        <ele>113</ele>
        <time>2011-11-13T10:29:31Z</time>
      </trkpt>
      <trkpt lat="49.20463" lon="2.35145">
        <ele>113</ele>
        <time>2011-11-13T10:29:33Z</time>
      </trkpt>
      <trkpt lat="49.20453" lon="2.35127">
        <ele>113</ele>
        <time>2011-11-13T10:29:35Z</time>
      </trkpt>
      <trkpt lat="49.20439" lon="2.35111">
        <ele>113</ele>
        <time>2011-11-13T10:29:37Z</time>
      </trkpt>
      <trkpt lat="49.20431" lon="2.35103">
        <ele>113</ele>
        <time>2011-11-13T10:29:38Z</time>
      </trkpt>
      <trkpt lat="49.20422" lon="2.35095">
        <ele>113</ele>
        <time>2011-11-13T10:29:39Z</time>
      </trkpt>
      <trkpt lat="49.20413" lon="2.35088">
        <ele>113</ele>
        <time>2011-11-13T10:29:40Z</time>
      </trkpt>
      <trkpt lat="49.20402" lon="2.3508">
        <ele>113</ele>
        <time>2011-11-13T10:29:41Z</time>
      </trkpt>
      <trkpt lat="49.20391" lon="2.35072">
        <ele>113</ele>
        <time>2011-11-13T10:29:42Z</time>
      </trkpt>
      <trkpt lat="49.2038" lon="2.35063">
        <ele>113</ele>
        <time>2011-11-13T10:29:43Z</time>
      </trkpt>
      <trkpt lat="49.2037" lon="2.35055">
        <ele>113</ele>
        <time>2011-11-13T10:29:44Z</time>
      </trkpt>
      <trkpt lat="49.20358" lon="2.35047">
        <ele>113</ele>
        <time>2011-11-13T10:29:45Z</time>
      </trkpt>
      <trkpt lat="49.20347" lon="2.35039">
        <ele>113</ele>
        <time>2011-11-13T10:29:46Z</time>
      </trkpt>
      <trkpt lat="49.20336" lon="2.35031">
        <ele>113</ele>
        <time>2011-11-13T10:29:47Z</time>
      </trkpt>
      <trkpt lat="49.20325" lon="2.35022">
        <ele>108</ele>
        <time>2011-11-13T10:29:48Z</time>
      </trkpt>
      <trkpt lat="49.20314" lon="2.35013">
        <ele>108</ele>
        <time>2011-11-13T10:29:49Z</time>
      </trkpt>
      <trkpt lat="49.20302" lon="2.35004">
        <ele>108</ele>
        <time>2011-11-13T10:29:50Z</time>
      </trkpt>
      <trkpt lat="49.20291" lon="2.34996">
        <ele>108</ele>
        <time>2011-11-13T10:29:51Z</time>
      </trkpt>
      <trkpt lat="49.2028" lon="2.34987">
        <ele>108</ele>
        <time>2011-11-13T10:29:52Z</time>
      </trkpt>
      <trkpt lat="49.2027" lon="2.34979">
        <ele>108</ele>
        <time>2011-11-13T10:29:53Z</time>
      </trkpt>
      <trkpt lat="49.20259" lon="2.34971">
        <ele>108</ele>
        <time>2011-11-13T10:29:54Z</time>
      </trkpt>
      <trkpt lat="49.20248" lon="2.34962">
        <ele>108</ele>
        <time>2011-11-13T10:29:55Z</time>
      </trkpt>
      <trkpt lat="49.20238" lon="2.34954">
        <ele>108</ele>
        <time>2011-11-13T10:29:56Z</time>
      </trkpt>
      <trkpt lat="49.20228" lon="2.34945">
        <ele>108</ele>
        <time>2011-11-13T10:29:57Z</time>
      </trkpt>
      <trkpt lat="49.20218" lon="2.34938">
        <ele>108</ele>
        <time>2011-11-13T10:29:58Z</time>
      </trkpt>
      <trkpt lat="49.2021" lon="2.34931">
        <ele>108</ele>
        <time>2011-11-13T10:29:59Z</time>
      </trkpt>
      <trkpt lat="49.20196" lon="2.34919">
        <ele>108</ele>
        <time>2011-11-13T10:30:01Z</time>
      </trkpt>
      <trkpt lat="49.20185" lon="2.34909">
        <ele>108</ele>
        <time>2011-11-13T10:30:03Z</time>
      </trkpt>
      <trkpt lat="49.20179" lon="2.34894">
        <ele>108</ele>
        <time>2011-11-13T10:30:05Z</time>
      </trkpt>
      <trkpt lat="49.20181" lon="2.34876">
        <ele>108</ele>
        <time>2011-11-13T10:30:07Z</time>
      </trkpt>
      <trkpt lat="49.20182" lon="2.34852">
        <ele>108</ele>
        <time>2011-11-13T10:30:09Z</time>
      </trkpt>
      <trkpt lat="49.20184" lon="2.34838">
        <ele>108</ele>
        <time>2011-11-13T10:30:10Z</time>
      </trkpt>
      <trkpt lat="49.20185" lon="2.34821">
        <ele>108</ele>
        <time>2011-11-13T10:30:11Z</time>
      </trkpt>
      <trkpt lat="49.20186" lon="2.34804">
        <ele>108</ele>
        <time>2011-11-13T10:30:12Z</time>
      </trkpt>
      <trkpt lat="49.20187" lon="2.34786">
        <ele>108</ele>
        <time>2011-11-13T10:30:13Z</time>
      </trkpt>
      <trkpt lat="49.20187" lon="2.34768">
        <ele>108</ele>
        <time>2011-11-13T10:30:14Z</time>
      </trkpt>
      <trkpt lat="49.20187" lon="2.34749">
        <ele>108</ele>
        <time>2011-11-13T10:30:15Z</time>
      </trkpt>
      <trkpt lat="49.20186" lon="2.3473">
        <ele>108</ele>
        <time>2011-11-13T10:30:16Z</time>
      </trkpt>
      <trkpt lat="49.20183" lon="2.3471">
        <ele>108</ele>
        <time>2011-11-13T10:30:17Z</time>
      </trkpt>
      <trkpt lat="49.20179" lon="2.3469">
        <ele>108</ele>
        <time>2011-11-13T10:30:18Z</time>
      </trkpt>
      <trkpt lat="49.20174" lon="2.34671">
        <ele>108</ele>
        <time>2011-11-13T10:30:19Z</time>
      </trkpt>
      <trkpt lat="49.20169" lon="2.3465">
        <ele>108</ele>
        <time>2011-11-13T10:30:20Z</time>
      </trkpt>
      <trkpt lat="49.20164" lon="2.34629">
        <ele>108</ele>
        <time>2011-11-13T10:30:21Z</time>
      </trkpt>
      <trkpt lat="49.20159" lon="2.34609">
        <ele>108</ele>
        <time>2011-11-13T10:30:22Z</time>
      </trkpt>
      <trkpt lat="49.20155" lon="2.34591">
        <ele>108</ele>
        <time>2011-11-13T10:30:23Z</time>
      </trkpt>
      <trkpt lat="49.20151" lon="2.34573">
        <ele>108</ele>
        <time>2011-11-13T10:30:24Z</time>
      </trkpt>
      <trkpt lat="49.20146" lon="2.34556">
        <ele>108</ele>
        <time>2011-11-13T10:30:25Z</time>
      </trkpt>
      <trkpt lat="49.20143" lon="2.34539">
        <ele>108</ele>
        <time>2011-11-13T10:30:26Z</time>
      </trkpt>
      <trkpt lat="49.2014" lon="2.34524">
        <ele>108</ele>
        <time>2011-11-13T10:30:27Z</time>
      </trkpt>
      <trkpt lat="49.20138" lon="2.3451">
        <ele>108</ele>
        <time>2011-11-13T10:30:28Z</time>
      </trkpt>
      <trkpt lat="49.20135" lon="2.34496">
        <ele>108</ele>
        <time>2011-11-13T10:30:29Z</time>
      </trkpt>
      <trkpt lat="49.20135" lon="2.34469">
        <ele>108</ele>
        <time>2011-11-13T10:30:31Z</time>
      </trkpt>
      <trkpt lat="49.20136" lon="2.34455">
        <ele>108</ele>
        <time>2011-11-13T10:30:32Z</time>
      </trkpt>
      <trkpt lat="49.20141" lon="2.3444">
        <ele>108</ele>
        <time>2011-11-13T10:30:33Z</time>
      </trkpt>
      <trkpt lat="49.20145" lon="2.34424">
        <ele>108</ele>
        <time>2011-11-13T10:30:34Z</time>
      </trkpt>
      <trkpt lat="49.20152" lon="2.34407">
        <ele>108</ele>
        <time>2011-11-13T10:30:35Z</time>
      </trkpt>
      <trkpt lat="49.20158" lon="2.34389">
        <ele>108</ele>
        <time>2011-11-13T10:30:36Z</time>
      </trkpt>
      <trkpt lat="49.20165" lon="2.3437">
        <ele>108</ele>
        <time>2011-11-13T10:30:37Z</time>
      </trkpt>
      <trkpt lat="49.20172" lon="2.3435">
        <ele>108</ele>
        <time>2011-11-13T10:30:38Z</time>
      </trkpt>
      <trkpt lat="49.2018" lon="2.3433">
        <ele>108</ele>
        <time>2011-11-13T10:30:39Z</time>
      </trkpt>
      <trkpt lat="49.20188" lon="2.34311">
        <ele>108</ele>
        <time>2011-11-13T10:30:40Z</time>
      </trkpt>
      <trkpt lat="49.20196" lon="2.34292">
        <ele>108</ele>
        <time>2011-11-13T10:30:41Z</time>
      </trkpt>
      <trkpt lat="49.20203" lon="2.34275">
        <ele>108</ele>
        <time>2011-11-13T10:30:42Z</time>
      </trkpt>
      <trkpt lat="49.2021" lon="2.34259">
        <ele>108</ele>
        <time>2011-11-13T10:30:43Z</time>
      </trkpt>
      <trkpt lat="49.20217" lon="2.34243">
        <ele>108</ele>
        <time>2011-11-13T10:30:44Z</time>
      </trkpt>
      <trkpt lat="49.20224" lon="2.34227">
        <ele>108</ele>
        <time>2011-11-13T10:30:45Z</time>
      </trkpt>
      <trkpt lat="49.2023" lon="2.34212">
        <ele>108</ele>
        <time>2011-11-13T10:30:46Z</time>
      </trkpt>
      <trkpt lat="49.20237" lon="2.34195">
        <ele>108</ele>
        <time>2011-11-13T10:30:47Z</time>
      </trkpt>
      <trkpt lat="49.20244" lon="2.34179">
        <ele>108</ele>
        <time>2011-11-13T10:30:48Z</time>
      </trkpt>
      <trkpt lat="49.20251" lon="2.34162">
        <ele>108</ele>
        <time>2011-11-13T10:30:49Z</time>
      </trkpt>
      <trkpt lat="49.20258" lon="2.34146">
        <ele>108</ele>
        <time>2011-11-13T10:30:50Z</time>
      </trkpt>
      <trkpt lat="49.20265" lon="2.34132">
        <ele>108</ele>
        <time>2011-11-13T10:30:51Z</time>
      </trkpt>
      <trkpt lat="49.20271" lon="2.34117">
        <ele>108</ele>
        <time>2011-11-13T10:30:52Z</time>
      </trkpt>
      <trkpt lat="49.20278" lon="2.34103">
        <ele>108</ele>
        <time>2011-11-13T10:30:53Z</time>
      </trkpt>
      <trkpt lat="49.20284" lon="2.34088">
        <ele>108</ele>
        <time>2011-11-13T10:30:54Z</time>
      </trkpt>
      <trkpt lat="49.20291" lon="2.34074">
        <ele>108</ele>
        <time>2011-11-13T10:30:55Z</time>
      </trkpt>
      <trkpt lat="49.20298" lon="2.34061">
        <ele>108</ele>
        <time>2011-11-13T10:30:56Z</time>
      </trkpt>
      <trkpt lat="49.20305" lon="2.34047">
        <ele>108</ele>
        <time>2011-11-13T10:30:57Z</time>
      </trkpt>
      <trkpt lat="49.20312" lon="2.34034">
        <ele>108</ele>
        <time>2011-11-13T10:30:58Z</time>
      </trkpt>
      <trkpt lat="49.20319" lon="2.3402">
        <ele>108</ele>
        <time>2011-11-13T10:30:59Z</time>
      </trkpt>
      <trkpt lat="49.20327" lon="2.34006">
        <ele>108</ele>
        <time>2011-11-13T10:31:00Z</time>
      </trkpt>
      <trkpt lat="49.20334" lon="2.33993">
        <ele>108</ele>
        <time>2011-11-13T10:31:01Z</time>
      </trkpt>
      <trkpt lat="49.20341" lon="2.3398">
        <ele>108</ele>
        <time>2011-11-13T10:31:02Z</time>
      </trkpt>
      <trkpt lat="49.20349" lon="2.33967">
        <ele>108</ele>
        <time>2011-11-13T10:31:03Z</time>
      </trkpt>
      <trkpt lat="49.20357" lon="2.33955">
        <ele>108</ele>
        <time>2011-11-13T10:31:04Z</time>
      </trkpt>
      <trkpt lat="49.20363" lon="2.33943">
        <ele>108</ele>
        <time>2011-11-13T10:31:05Z</time>
      </trkpt>
      <trkpt lat="49.2037" lon="2.33932">
        <ele>108</ele>
        <time>2011-11-13T10:31:06Z</time>
      </trkpt>
      <trkpt lat="49.20382" lon="2.33912">
        <ele>108</ele>
        <time>2011-11-13T10:31:08Z</time>
      </trkpt>
      <trkpt lat="49.20388" lon="2.33902">
        <ele>108</ele>
        <time>2011-11-13T10:31:09Z</time>
      </trkpt>
      <trkpt lat="49.20395" lon="2.33891">
        <ele>108</ele>
        <time>2011-11-13T10:31:10Z</time>
      </trkpt>
      <trkpt lat="49.20402" lon="2.3388">
        <ele>108</ele>
        <time>2011-11-13T10:31:11Z</time>
      </trkpt>
      <trkpt lat="49.20409" lon="2.33867">
        <ele>108</ele>
        <time>2011-11-13T10:31:12Z</time>
      </trkpt>
      <trkpt lat="49.20416" lon="2.33856">
        <ele>108</ele>
        <time>2011-11-13T10:31:13Z</time>
      </trkpt>
      <trkpt lat="49.20423" lon="2.33843">
        <ele>108</ele>
        <time>2011-11-13T10:31:14Z</time>
      </trkpt>
      <trkpt lat="49.2043" lon="2.33832">
        <ele>108</ele>
        <time>2011-11-13T10:31:15Z</time>
      </trkpt>
      <trkpt lat="49.20437" lon="2.3382">
        <ele>108</ele>
        <time>2011-11-13T10:31:16Z</time>
      </trkpt>
      <trkpt lat="49.20444" lon="2.33808">
        <ele>108</ele>
        <time>2011-11-13T10:31:17Z</time>
      </trkpt>
      <trkpt lat="49.2045" lon="2.33796">
        <ele>108</ele>
        <time>2011-11-13T10:31:18Z</time>
      </trkpt>
      <trkpt lat="49.20457" lon="2.33785">
        <ele>108</ele>
        <time>2011-11-13T10:31:19Z</time>
      </trkpt>
      <trkpt lat="49.20464" lon="2.33773">
        <ele>108</ele>
        <time>2011-11-13T10:31:20Z</time>
      </trkpt>
      <trkpt lat="49.20471" lon="2.33761">
        <ele>108</ele>
        <time>2011-11-13T10:31:21Z</time>
      </trkpt>
      <trkpt lat="49.20478" lon="2.33749">
        <ele>108</ele>
        <time>2011-11-13T10:31:22Z</time>
      </trkpt>
      <trkpt lat="49.20485" lon="2.33737">
        <ele>108</ele>
        <time>2011-11-13T10:31:23Z</time>
      </trkpt>
      <trkpt lat="49.20491" lon="2.33726">
        <ele>108</ele>
        <time>2011-11-13T10:31:24Z</time>
      </trkpt>
      <trkpt lat="49.20498" lon="2.33715">
        <ele>108</ele>
        <time>2011-11-13T10:31:25Z</time>
      </trkpt>
      <trkpt lat="49.20504" lon="2.33704">
        <ele>108</ele>
        <time>2011-11-13T10:31:26Z</time>
      </trkpt>
      <trkpt lat="49.20511" lon="2.33693">
        <ele>108</ele>
        <time>2011-11-13T10:31:27Z</time>
      </trkpt>
      <trkpt lat="49.20518" lon="2.33681">
        <ele>108</ele>
        <time>2011-11-13T10:31:28Z</time>
      </trkpt>
      <trkpt lat="49.20525" lon="2.3367">
        <ele>108</ele>
        <time>2011-11-13T10:31:29Z</time>
      </trkpt>
      <trkpt lat="49.20532" lon="2.33658">
        <ele>108</ele>
        <time>2011-11-13T10:31:30Z</time>
      </trkpt>
      <trkpt lat="49.20539" lon="2.33646">
        <ele>108</ele>
        <time>2011-11-13T10:31:31Z</time>
      </trkpt>
      <trkpt lat="49.20545" lon="2.33635">
        <ele>108</ele>
        <time>2011-11-13T10:31:32Z</time>
      </trkpt>
      <trkpt lat="49.20551" lon="2.33623">
        <ele>108</ele>
        <time>2011-11-13T10:31:33Z</time>
      </trkpt>
      <trkpt lat="49.20558" lon="2.33612">
        <ele>108</ele>
        <time>2011-11-13T10:31:34Z</time>
      </trkpt>
      <trkpt lat="49.20564" lon="2.33601">
        <ele>108</ele>
        <time>2011-11-13T10:31:35Z</time>
      </trkpt>
      <trkpt lat="49.20571" lon="2.3359">
        <ele>108</ele>
        <time>2011-11-13T10:31:36Z</time>
      </trkpt>
      <trkpt lat="49.20578" lon="2.33578">
        <ele>108</ele>
        <time>2011-11-13T10:31:37Z</time>
      </trkpt>
      <trkpt lat="49.20584" lon="2.33567">
        <ele>108</ele>
        <time>2011-11-13T10:31:38Z</time>
      </trkpt>
      <trkpt lat="49.20591" lon="2.33557">
        <ele>108</ele>
        <time>2011-11-13T10:31:39Z</time>
      </trkpt>
      <trkpt lat="49.20601" lon="2.33535">
        <ele>108</ele>
        <time>2011-11-13T10:31:41Z</time>
      </trkpt>
      <trkpt lat="49.20609" lon="2.33514">
        <ele>108</ele>
        <time>2011-11-13T10:31:43Z</time>
      </trkpt>
      <trkpt lat="49.20614" lon="2.33487">
        <ele>108</ele>
        <time>2011-11-13T10:31:45Z</time>
      </trkpt>
      <trkpt lat="49.20617" lon="2.33471">
        <ele>108</ele>
        <time>2011-11-13T10:31:46Z</time>
      </trkpt>
      <trkpt lat="49.20619" lon="2.33456">
        <ele>108</ele>
        <time>2011-11-13T10:31:47Z</time>
      </trkpt>
      <trkpt lat="49.20622" lon="2.3344">
        <ele>108</ele>
        <time>2011-11-13T10:31:48Z</time>
      </trkpt>
      <trkpt lat="49.20624" lon="2.33423">
        <ele>108</ele>
        <time>2011-11-13T10:31:49Z</time>
      </trkpt>
      <trkpt lat="49.20627" lon="2.33407">
        <ele>108</ele>
        <time>2011-11-13T10:31:50Z</time>
      </trkpt>
      <trkpt lat="49.20629" lon="2.3339">
        <ele>108</ele>
        <time>2011-11-13T10:31:51Z</time>
      </trkpt>
      <trkpt lat="49.20632" lon="2.33376">
        <ele>103</ele>
        <time>2011-11-13T10:31:52Z</time>
      </trkpt>
      <trkpt lat="49.20634" lon="2.33363">
        <ele>103</ele>
        <time>2011-11-13T10:31:53Z</time>
      </trkpt>
      <trkpt lat="49.20639" lon="2.33337">
        <ele>103</ele>
        <time>2011-11-13T10:31:55Z</time>
      </trkpt>
      <trkpt lat="49.20642" lon="2.33311">
        <ele>103</ele>
        <time>2011-11-13T10:31:57Z</time>
      </trkpt>
      <trkpt lat="49.20646" lon="2.33283">
        <ele>103</ele>
        <time>2011-11-13T10:31:59Z</time>
      </trkpt>
      <trkpt lat="49.20649" lon="2.33267">
        <ele>103</ele>
        <time>2011-11-13T10:32:00Z</time>
      </trkpt>
      <trkpt lat="49.20651" lon="2.33251">
        <ele>103</ele>
        <time>2011-11-13T10:32:01Z</time>
      </trkpt>
      <trkpt lat="49.20654" lon="2.33235">
        <ele>103</ele>
        <time>2011-11-13T10:32:02Z</time>
      </trkpt>
      <trkpt lat="49.20657" lon="2.33219">
        <ele>103</ele>
        <time>2011-11-13T10:32:03Z</time>
      </trkpt>
      <trkpt lat="49.20659" lon="2.33203">
        <ele>103</ele>
        <time>2011-11-13T10:32:04Z</time>
      </trkpt>
      <trkpt lat="49.20662" lon="2.33188">
        <ele>103</ele>
        <time>2011-11-13T10:32:05Z</time>
      </trkpt>
      <trkpt lat="49.20664" lon="2.33175">
        <ele>103</ele>
        <time>2011-11-13T10:32:06Z</time>
      </trkpt>
      <trkpt lat="49.20667" lon="2.33149">
        <ele>103</ele>
        <time>2011-11-13T10:32:08Z</time>
      </trkpt>
      <trkpt lat="49.2067" lon="2.33135">
        <ele>103</ele>
        <time>2011-11-13T10:32:09Z</time>
      </trkpt>
      <trkpt lat="49.20672" lon="2.33121">
        <ele>103</ele>
        <time>2011-11-13T10:32:10Z</time>
      </trkpt>
      <trkpt lat="49.20674" lon="2.33107">
        <ele>103</ele>
        <time>2011-11-13T10:32:11Z</time>
      </trkpt>
      <trkpt lat="49.20677" lon="2.33091">
        <ele>103</ele>
        <time>2011-11-13T10:32:12Z</time>
      </trkpt>
      <trkpt lat="49.2068" lon="2.33076">
        <ele>103</ele>
        <time>2011-11-13T10:32:13Z</time>
      </trkpt>
      <trkpt lat="49.20682" lon="2.33061">
        <ele>103</ele>
        <time>2011-11-13T10:32:14Z</time>
      </trkpt>
      <trkpt lat="49.20684" lon="2.33045">
        <ele>103</ele>
        <time>2011-11-13T10:32:15Z</time>
      </trkpt>
      <trkpt lat="49.20687" lon="2.33031">
        <ele>103</ele>
        <time>2011-11-13T10:32:16Z</time>
      </trkpt>
      <trkpt lat="49.20689" lon="2.33016">
        <ele>103</ele>
        <time>2011-11-13T10:32:17Z</time>
      </trkpt>
      <trkpt lat="49.20692" lon="2.33001">
        <ele>103</ele>
        <time>2011-11-13T10:32:18Z</time>
      </trkpt>
      <trkpt lat="49.20694" lon="2.32986">
        <ele>108</ele>
        <time>2011-11-13T10:32:19Z</time>
      </trkpt>
      <trkpt lat="49.20696" lon="2.32972">
        <ele>108</ele>
        <time>2011-11-13T10:32:20Z</time>
      </trkpt>
      <trkpt lat="49.20699" lon="2.32957">
        <ele>108</ele>
        <time>2011-11-13T10:32:21Z</time>
      </trkpt>
      <trkpt lat="49.20702" lon="2.32933">
        <ele>108</ele>
        <time>2011-11-13T10:32:23Z</time>
      </trkpt>
      <trkpt lat="49.20706" lon="2.32913">
        <ele>108</ele>
        <time>2011-11-13T10:32:25Z</time>
      </trkpt>
      <trkpt lat="49.20713" lon="2.32899">
        <ele>108</ele>
        <time>2011-11-13T10:32:27Z</time>
      </trkpt>
      <trkpt lat="49.20724" lon="2.32887">
        <ele>108</ele>
        <time>2011-11-13T10:32:29Z</time>
      </trkpt>
      <trkpt lat="49.20739" lon="2.32878">
        <ele>108</ele>
        <time>2011-11-13T10:32:31Z</time>
      </trkpt>
      <trkpt lat="49.20747" lon="2.32871">
        <ele>108</ele>
        <time>2011-11-13T10:32:32Z</time>
      </trkpt>
      <trkpt lat="49.20756" lon="2.32865">
        <ele>108</ele>
        <time>2011-11-13T10:32:33Z</time>
      </trkpt>
      <trkpt lat="49.20765" lon="2.32858">
        <ele>108</ele>
        <time>2011-11-13T10:32:34Z</time>
      </trkpt>
      <trkpt lat="49.20774" lon="2.32851">
        <ele>108</ele>
        <time>2011-11-13T10:32:35Z</time>
      </trkpt>
      <trkpt lat="49.20783" lon="2.32844">
        <ele>108</ele>
        <time>2011-11-13T10:32:36Z</time>
      </trkpt>
      <trkpt lat="49.20792" lon="2.32838">
        <ele>108</ele>
        <time>2011-11-13T10:32:37Z</time>
      </trkpt>
      <trkpt lat="49.208" lon="2.32832">
        <ele>108</ele>
        <time>2011-11-13T10:32:38Z</time>
      </trkpt>
      <trkpt lat="49.20808" lon="2.32825">
        <ele>108</ele>
        <time>2011-11-13T10:32:39Z</time>
      </trkpt>
      <trkpt lat="49.20816" lon="2.32819">
        <ele>108</ele>
        <time>2011-11-13T10:32:40Z</time>
      </trkpt>
      <trkpt lat="49.2083" lon="2.32807">
        <ele>108</ele>
        <time>2011-11-13T10:32:42Z</time>
      </trkpt>
      <trkpt lat="49.20841" lon="2.32798">
        <ele>108</ele>
        <time>2011-11-13T10:32:44Z</time>
      </trkpt>
      <trkpt lat="49.20849" lon="2.3279">
        <ele>108</ele>
        <time>2011-11-13T10:32:46Z</time>
      </trkpt>
      <trkpt lat="49.20859" lon="2.32781">
        <ele>108</ele>
        <time>2011-11-13T10:32:48Z</time>
      </trkpt>
      <trkpt lat="49.2087" lon="2.32771">
        <ele>108</ele>
        <time>2011-11-13T10:32:50Z</time>
      </trkpt>
      <trkpt lat="49.20882" lon="2.32759">
        <ele>108</ele>
        <time>2011-11-13T10:32:52Z</time>
      </trkpt>
      <trkpt lat="49.20895" lon="2.32746">
        <ele>108</ele>
        <time>2011-11-13T10:32:54Z</time>
      </trkpt>
      <trkpt lat="49.20905" lon="2.3273">
        <ele>108</ele>
        <time>2011-11-13T10:32:56Z</time>
      </trkpt>
      <trkpt lat="49.20912" lon="2.3271">
        <ele>108</ele>
        <time>2011-11-13T10:32:58Z</time>
      </trkpt>
      <trkpt lat="49.20918" lon="2.32688">
        <ele>108</ele>
        <time>2011-11-13T10:33:00Z</time>
      </trkpt>
      <trkpt lat="49.20923" lon="2.32671">
        <ele>108</ele>
        <time>2011-11-13T10:33:02Z</time>
      </trkpt>
      <trkpt lat="49.20929" lon="2.32654">
        <ele>108</ele>
        <time>2011-11-13T10:33:05Z</time>
      </trkpt>
      <trkpt lat="49.20932" lon="2.32639">
        <ele>108</ele>
        <time>2011-11-13T10:33:07Z</time>
      </trkpt>
      <trkpt lat="49.20936" lon="2.32623">
        <ele>108</ele>
        <time>2011-11-13T10:33:09Z</time>
      </trkpt>
      <trkpt lat="49.20941" lon="2.32607">
        <ele>108</ele>
        <time>2011-11-13T10:33:11Z</time>
      </trkpt>
      <trkpt lat="49.20945" lon="2.32591">
        <ele>108</ele>
        <time>2011-11-13T10:33:13Z</time>
      </trkpt>
      <trkpt lat="49.20949" lon="2.32575">
        <ele>108</ele>
        <time>2011-11-13T10:33:15Z</time>
      </trkpt>
      <trkpt lat="49.20953" lon="2.32559">
        <ele>108</ele>
        <time>2011-11-13T10:33:17Z</time>
      </trkpt>
      <trkpt lat="49.20958" lon="2.32544">
        <ele>108</ele>
        <time>2011-11-13T10:33:20Z</time>
      </trkpt>
      <trkpt lat="49.20962" lon="2.32532">
        <ele>108</ele>
        <time>2011-11-13T10:33:24Z</time>
      </trkpt>
      <trkpt lat="49.20969" lon="2.32522">
        <ele>108</ele>
        <time>2011-11-13T10:33:30Z</time>
      </trkpt>
      <trkpt lat="49.20962" lon="2.32506">
        <ele>108</ele>
        <time>2011-11-13T10:33:37Z</time>
      </trkpt>
      <trkpt lat="49.20948" lon="2.32498">
        <ele>108</ele>
        <time>2011-11-13T10:33:39Z</time>
      </trkpt>
      <trkpt lat="49.20931" lon="2.32491">
        <ele>108</ele>
        <time>2011-11-13T10:33:41Z</time>
      </trkpt>
      <trkpt lat="49.20913" lon="2.32486">
        <ele>108</ele>
        <time>2011-11-13T10:33:43Z</time>
      </trkpt>
      <trkpt lat="49.20903" lon="2.32485">
        <ele>108</ele>
        <time>2011-11-13T10:33:44Z</time>
      </trkpt>
      <trkpt lat="49.20885" lon="2.32483">
        <ele>108</ele>
        <time>2011-11-13T10:33:46Z</time>
      </trkpt>
      <trkpt lat="49.20867" lon="2.32481">
        <ele>103</ele>
        <time>2011-11-13T10:33:48Z</time>
      </trkpt>
      <trkpt lat="49.2085" lon="2.3248">
        <ele>103</ele>
        <time>2011-11-13T10:33:50Z</time>
      </trkpt>
      <trkpt lat="49.20834" lon="2.32479">
        <ele>103</ele>
        <time>2011-11-13T10:33:52Z</time>
      </trkpt>
      <trkpt lat="49.20816" lon="2.32479">
        <ele>103</ele>
        <time>2011-11-13T10:33:54Z</time>
      </trkpt>
      <trkpt lat="49.20807" lon="2.32479">
        <ele>103</ele>
        <time>2011-11-13T10:33:55Z</time>
      </trkpt>
      <trkpt lat="49.20797" lon="2.3248">
        <ele>103</ele>
        <time>2011-11-13T10:33:56Z</time>
      </trkpt>
      <trkpt lat="49.20786" lon="2.3248">
        <ele>103</ele>
        <time>2011-11-13T10:33:57Z</time>
      </trkpt>
      <trkpt lat="49.20776" lon="2.3248">
        <ele>103</ele>
        <time>2011-11-13T10:33:58Z</time>
      </trkpt>
      <trkpt lat="49.20764" lon="2.32481">
        <ele>103</ele>
        <time>2011-11-13T10:33:59Z</time>
      </trkpt>
      <trkpt lat="49.20753" lon="2.32481">
        <ele>103</ele>
        <time>2011-11-13T10:34:00Z</time>
      </trkpt>
      <trkpt lat="49.20743" lon="2.32482">
        <ele>103</ele>
        <time>2011-11-13T10:34:01Z</time>
      </trkpt>
      <trkpt lat="49.20734" lon="2.32483">
        <ele>103</ele>
        <time>2011-11-13T10:34:02Z</time>
      </trkpt>
      <trkpt lat="49.20719" lon="2.32486">
        <ele>103</ele>
        <time>2011-11-13T10:34:04Z</time>
      </trkpt>
      <trkpt lat="49.20706" lon="2.32482">
        <ele>103</ele>
        <time>2011-11-13T10:34:06Z</time>
      </trkpt>
      <trkpt lat="49.20696" lon="2.32473">
        <ele>103</ele>
        <time>2011-11-13T10:34:08Z</time>
      </trkpt>
      <trkpt lat="49.20687" lon="2.32462">
        <ele>103</ele>
        <time>2011-11-13T10:34:10Z</time>
      </trkpt>
      <trkpt lat="49.20678" lon="2.32453">
        <ele>98</ele>
        <time>2011-11-13T10:34:12Z</time>
      </trkpt>
      <trkpt lat="49.2067" lon="2.32444">
        <ele>98</ele>
        <time>2011-11-13T10:34:14Z</time>
      </trkpt>
      <trkpt lat="49.2066" lon="2.32434">
        <ele>98</ele>
        <time>2011-11-13T10:34:16Z</time>
      </trkpt>
      <trkpt lat="49.20649" lon="2.32421">
        <ele>98</ele>
        <time>2011-11-13T10:34:18Z</time>
      </trkpt>
      <trkpt lat="49.20637" lon="2.32408">
        <ele>98</ele>
        <time>2011-11-13T10:34:20Z</time>
      </trkpt>
      <trkpt lat="49.20625" lon="2.32395">
        <ele>98</ele>
        <time>2011-11-13T10:34:22Z</time>
      </trkpt>
      <trkpt lat="49.20613" lon="2.32381">
        <ele>98</ele>
        <time>2011-11-13T10:34:24Z</time>
      </trkpt>
      <trkpt lat="49.206" lon="2.32368">
        <ele>98</ele>
        <time>2011-11-13T10:34:26Z</time>
      </trkpt>
      <trkpt lat="49.20588" lon="2.32356">
        <ele>98</ele>
        <time>2011-11-13T10:34:28Z</time>
      </trkpt>
      <trkpt lat="49.20576" lon="2.32346">
        <ele>98</ele>
        <time>2011-11-13T10:34:30Z</time>
      </trkpt>
      <trkpt lat="49.20564" lon="2.32335">
        <ele>98</ele>
        <time>2011-11-13T10:34:32Z</time>
      </trkpt>
      <trkpt lat="49.20552" lon="2.32325">
        <ele>98</ele>
        <time>2011-11-13T10:34:34Z</time>
      </trkpt>
      <trkpt lat="49.2054" lon="2.32315">
        <ele>98</ele>
        <time>2011-11-13T10:34:36Z</time>
      </trkpt>
      <trkpt lat="49.20529" lon="2.32305">
        <ele>98</ele>
        <time>2011-11-13T10:34:38Z</time>
      </trkpt>
      <trkpt lat="49.20516" lon="2.32296">
        <ele>98</ele>
        <time>2011-11-13T10:34:40Z</time>
      </trkpt>
      <trkpt lat="49.20503" lon="2.32286">
        <ele>98</ele>
        <time>2011-11-13T10:34:42Z</time>
      </trkpt>
      <trkpt lat="49.20489" lon="2.32276">
        <ele>98</ele>
        <time>2011-11-13T10:34:44Z</time>
      </trkpt>
      <trkpt lat="49.20476" lon="2.32265">
        <ele>98</ele>
        <time>2011-11-13T10:34:46Z</time>
      </trkpt>
      <trkpt lat="49.2046" lon="2.32252">
        <ele>98</ele>
        <time>2011-11-13T10:34:48Z</time>
      </trkpt>
      <trkpt lat="49.20451" lon="2.32246">
        <ele>98</ele>
        <time>2011-11-13T10:34:49Z</time>
      </trkpt>
      <trkpt lat="49.20443" lon="2.32239">
        <ele>98</ele>
        <time>2011-11-13T10:34:50Z</time>
      </trkpt>
      <trkpt lat="49.20433" lon="2.32232">
        <ele>98</ele>
        <time>2011-11-13T10:34:51Z</time>
      </trkpt>
      <trkpt lat="49.20424" lon="2.32224">
        <ele>98</ele>
        <time>2011-11-13T10:34:52Z</time>
      </trkpt>
      <trkpt lat="49.20414" lon="2.32215">
        <ele>98</ele>
        <time>2011-11-13T10:34:53Z</time>
      </trkpt>
      <trkpt lat="49.20404" lon="2.32208">
        <ele>93</ele>
        <time>2011-11-13T10:34:54Z</time>
      </trkpt>
      <trkpt lat="49.20394" lon="2.322">
        <ele>93</ele>
        <time>2011-11-13T10:34:55Z</time>
      </trkpt>
      <trkpt lat="49.20384" lon="2.32193">
        <ele>93</ele>
        <time>2011-11-13T10:34:56Z</time>
      </trkpt>
      <trkpt lat="49.20374" lon="2.32186">
        <ele>93</ele>
        <time>2011-11-13T10:34:57Z</time>
      </trkpt>
      <trkpt lat="49.20365" lon="2.32179">
        <ele>93</ele>
        <time>2011-11-13T10:34:58Z</time>
      </trkpt>
      <trkpt lat="49.20355" lon="2.32171">
        <ele>93</ele>
        <time>2011-11-13T10:34:59Z</time>
      </trkpt>
      <trkpt lat="49.20347" lon="2.32164">
        <ele>93</ele>
        <time>2011-11-13T10:35:00Z</time>
      </trkpt>
      <trkpt lat="49.20338" lon="2.32157">
        <ele>93</ele>
        <time>2011-11-13T10:35:01Z</time>
      </trkpt>
      <trkpt lat="49.2033" lon="2.3215">
        <ele>93</ele>
        <time>2011-11-13T10:35:02Z</time>
      </trkpt>
      <trkpt lat="49.20322" lon="2.32142">
        <ele>93</ele>
        <time>2011-11-13T10:35:03Z</time>
      </trkpt>
      <trkpt lat="49.20308" lon="2.32127">
        <ele>93</ele>
        <time>2011-11-13T10:35:05Z</time>
      </trkpt>
      <trkpt lat="49.20297" lon="2.32111">
        <ele>93</ele>
        <time>2011-11-13T10:35:07Z</time>
      </trkpt>
      <trkpt lat="49.20291" lon="2.32094">
        <ele>93</ele>
        <time>2011-11-13T10:35:09Z</time>
      </trkpt>
      <trkpt lat="49.20292" lon="2.32076">
        <ele>93</ele>
        <time>2011-11-13T10:35:11Z</time>
      </trkpt>
      <trkpt lat="49.20298" lon="2.32057">
        <ele>93</ele>
        <time>2011-11-13T10:35:13Z</time>
      </trkpt>
      <trkpt lat="49.20307" lon="2.32033">
        <ele>93</ele>
        <time>2011-11-13T10:35:15Z</time>
      </trkpt>
      <trkpt lat="49.20311" lon="2.3202">
        <ele>93</ele>
        <time>2011-11-13T10:35:16Z</time>
      </trkpt>
      <trkpt lat="49.20315" lon="2.32006">
        <ele>93</ele>
        <time>2011-11-13T10:35:17Z</time>
      </trkpt>
      <trkpt lat="49.2032" lon="2.31993">
        <ele>93</ele>
        <time>2011-11-13T10:35:18Z</time>
      </trkpt>
      <trkpt lat="49.20324" lon="2.31978">
        <ele>93</ele>
        <time>2011-11-13T10:35:19Z</time>
      </trkpt>
      <trkpt lat="49.20329" lon="2.31964">
        <ele>93</ele>
        <time>2011-11-13T10:35:20Z</time>
      </trkpt>
      <trkpt lat="49.20334" lon="2.31949">
        <ele>93</ele>
        <time>2011-11-13T10:35:21Z</time>
      </trkpt>
      <trkpt lat="49.20338" lon="2.31933">
        <ele>93</ele>
        <time>2011-11-13T10:35:22Z</time>
      </trkpt>
      <trkpt lat="49.20344" lon="2.31917">
        <ele>93</ele>
        <time>2011-11-13T10:35:23Z</time>
      </trkpt>
      <trkpt lat="49.20349" lon="2.31901">
        <ele>93</ele>
        <time>2011-11-13T10:35:24Z</time>
      </trkpt>
      <trkpt lat="49.20354" lon="2.31885">
        <ele>93</ele>
        <time>2011-11-13T10:35:25Z</time>
      </trkpt>
      <trkpt lat="49.20359" lon="2.31869">
        <ele>93</ele>
        <time>2011-11-13T10:35:26Z</time>
      </trkpt>
      <trkpt lat="49.20364" lon="2.31853">
        <ele>93</ele>
        <time>2011-11-13T10:35:27Z</time>
      </trkpt>
      <trkpt lat="49.2037" lon="2.31837">
        <ele>93</ele>
        <time>2011-11-13T10:35:28Z</time>
      </trkpt>
      <trkpt lat="49.20374" lon="2.31821">
        <ele>93</ele>
        <time>2011-11-13T10:35:29Z</time>
      </trkpt>
      <trkpt lat="49.2038" lon="2.31804">
        <ele>93</ele>
        <time>2011-11-13T10:35:30Z</time>
      </trkpt>
      <trkpt lat="49.20385" lon="2.31788">
        <ele>93</ele>
        <time>2011-11-13T10:35:31Z</time>
      </trkpt>
      <trkpt lat="49.20391" lon="2.31771">
        <ele>93</ele>
        <time>2011-11-13T10:35:32Z</time>
      </trkpt>
      <trkpt lat="49.20396" lon="2.31755">
        <ele>93</ele>
        <time>2011-11-13T10:35:33Z</time>
      </trkpt>
      <trkpt lat="49.20401" lon="2.31738">
        <ele>93</ele>
        <time>2011-11-13T10:35:34Z</time>
      </trkpt>
      <trkpt lat="49.20406" lon="2.31723">
        <ele>93</ele>
        <time>2011-11-13T10:35:35Z</time>
      </trkpt>
      <trkpt lat="49.20411" lon="2.31708">
        <ele>93</ele>
        <time>2011-11-13T10:35:36Z</time>
      </trkpt>
      <trkpt lat="49.20415" lon="2.31693">
        <ele>93</ele>
        <time>2011-11-13T10:35:37Z</time>
      </trkpt>
      <trkpt lat="49.2042" lon="2.31678">
        <ele>93</ele>
        <time>2011-11-13T10:35:38Z</time>
      </trkpt>
      <trkpt lat="49.20425" lon="2.31663">
        <ele>93</ele>
        <time>2011-11-13T10:35:39Z</time>
      </trkpt>
      <trkpt lat="49.2043" lon="2.31648">
        <ele>93</ele>
        <time>2011-11-13T10:35:40Z</time>
      </trkpt>
      <trkpt lat="49.20434" lon="2.31633">
        <ele>93</ele>
        <time>2011-11-13T10:35:41Z</time>
      </trkpt>
      <trkpt lat="49.20439" lon="2.31619">
        <ele>93</ele>
        <time>2011-11-13T10:35:42Z</time>
      </trkpt>
      <trkpt lat="49.20444" lon="2.31605">
        <ele>93</ele>
        <time>2011-11-13T10:35:43Z</time>
      </trkpt>
      <trkpt lat="49.20453" lon="2.31589">
        <ele>93</ele>
        <time>2011-11-13T10:35:45Z</time>
      </trkpt>
      <trkpt lat="49.20461" lon="2.31583">
        <ele>93</ele>
        <time>2011-11-13T10:35:47Z</time>
      </trkpt>
      <trkpt lat="49.20476" lon="2.31585">
        <ele>93</ele>
        <time>2011-11-13T10:35:50Z</time>
      </trkpt>
      <trkpt lat="49.20489" lon="2.31588">
        <ele>93</ele>
        <time>2011-11-13T10:35:52Z</time>
      </trkpt>
      <trkpt lat="49.20504" lon="2.31593">
        <ele>93</ele>
        <time>2011-11-13T10:35:54Z</time>
      </trkpt>
      <trkpt lat="49.20521" lon="2.31597">
        <ele>93</ele>
        <time>2011-11-13T10:35:56Z</time>
      </trkpt>
      <trkpt lat="49.2053" lon="2.31599">
        <ele>93</ele>
        <time>2011-11-13T10:35:57Z</time>
      </trkpt>
      <trkpt lat="49.20549" lon="2.31605">
        <ele>93</ele>
        <time>2011-11-13T10:35:59Z</time>
      </trkpt>
      <trkpt lat="49.20559" lon="2.31608">
        <ele>93</ele>
        <time>2011-11-13T10:36:00Z</time>
      </trkpt>
      <trkpt lat="49.2057" lon="2.31611">
        <ele>98</ele>
        <time>2011-11-13T10:36:01Z</time>
      </trkpt>
      <trkpt lat="49.20581" lon="2.31615">
        <ele>98</ele>
        <time>2011-11-13T10:36:02Z</time>
      </trkpt>
      <trkpt lat="49.20592" lon="2.31619">
        <ele>98</ele>
        <time>2011-11-13T10:36:03Z</time>
      </trkpt>
      <trkpt lat="49.20604" lon="2.31623">
        <ele>98</ele>
        <time>2011-11-13T10:36:04Z</time>
      </trkpt>
      <trkpt lat="49.20616" lon="2.31627">
        <ele>98</ele>
        <time>2011-11-13T10:36:05Z</time>
      </trkpt>
      <trkpt lat="49.20628" lon="2.31632">
        <ele>98</ele>
        <time>2011-11-13T10:36:06Z</time>
      </trkpt>
      <trkpt lat="49.2064" lon="2.31635">
        <ele>98</ele>
        <time>2011-11-13T10:36:07Z</time>
      </trkpt>
      <trkpt lat="49.20651" lon="2.31639">
        <ele>98</ele>
        <time>2011-11-13T10:36:08Z</time>
      </trkpt>
      <trkpt lat="49.20663" lon="2.31644">
        <ele>98</ele>
        <time>2011-11-13T10:36:09Z</time>
      </trkpt>
      <trkpt lat="49.20674" lon="2.31649">
        <ele>98</ele>
        <time>2011-11-13T10:36:10Z</time>
      </trkpt>
      <trkpt lat="49.20686" lon="2.31654">
        <ele>98</ele>
        <time>2011-11-13T10:36:11Z</time>
      </trkpt>
      <trkpt lat="49.20699" lon="2.31659">
        <ele>98</ele>
        <time>2011-11-13T10:36:12Z</time>
      </trkpt>
      <trkpt lat="49.2071" lon="2.31665">
        <ele>98</ele>
        <time>2011-11-13T10:36:13Z</time>
      </trkpt>
      <trkpt lat="49.20723" lon="2.31669">
        <ele>98</ele>
        <time>2011-11-13T10:36:14Z</time>
      </trkpt>
      <trkpt lat="49.20735" lon="2.31675">
        <ele>98</ele>
        <time>2011-11-13T10:36:15Z</time>
      </trkpt>
      <trkpt lat="49.20746" lon="2.31679">
        <ele>98</ele>
        <time>2011-11-13T10:36:16Z</time>
      </trkpt>
      <trkpt lat="49.20756" lon="2.31684">
        <ele>103</ele>
        <time>2011-11-13T10:36:17Z</time>
      </trkpt>
      <trkpt lat="49.20767" lon="2.31688">
        <ele>103</ele>
        <time>2011-11-13T10:36:18Z</time>
      </trkpt>
      <trkpt lat="49.20777" lon="2.31693">
        <ele>103</ele>
        <time>2011-11-13T10:36:19Z</time>
      </trkpt>
      <trkpt lat="49.20787" lon="2.31697">
        <ele>103</ele>
        <time>2011-11-13T10:36:20Z</time>
      </trkpt>
      <trkpt lat="49.20797" lon="2.31701">
        <ele>103</ele>
        <time>2011-11-13T10:36:21Z</time>
      </trkpt>
      <trkpt lat="49.20807" lon="2.31705">
        <ele>103</ele>
        <time>2011-11-13T10:36:22Z</time>
      </trkpt>
      <trkpt lat="49.20817" lon="2.31709">
        <ele>103</ele>
        <time>2011-11-13T10:36:23Z</time>
      </trkpt>
      <trkpt lat="49.20826" lon="2.31713">
        <ele>103</ele>
        <time>2011-11-13T10:36:24Z</time>
      </trkpt>
      <trkpt lat="49.20836" lon="2.31717">
        <ele>103</ele>
        <time>2011-11-13T10:36:25Z</time>
      </trkpt>
      <trkpt lat="49.20846" lon="2.3172">
        <ele>103</ele>
        <time>2011-11-13T10:36:26Z</time>
      </trkpt>
      <trkpt lat="49.20856" lon="2.31725">
        <ele>103</ele>
        <time>2011-11-13T10:36:27Z</time>
      </trkpt>
      <trkpt lat="49.20866" lon="2.31729">
        <ele>103</ele>
        <time>2011-11-13T10:36:28Z</time>
      </trkpt>
      <trkpt lat="49.20877" lon="2.31734">
        <ele>103</ele>
        <time>2011-11-13T10:36:29Z</time>
      </trkpt>
      <trkpt lat="49.20888" lon="2.31738">
        <ele>103</ele>
        <time>2011-11-13T10:36:30Z</time>
      </trkpt>
      <trkpt lat="49.20899" lon="2.31743">
        <ele>103</ele>
        <time>2011-11-13T10:36:31Z</time>
      </trkpt>
      <trkpt lat="49.2091" lon="2.31747">
        <ele>103</ele>
        <time>2011-11-13T10:36:32Z</time>
      </trkpt>
      <trkpt lat="49.2092" lon="2.31752">
        <ele>103</ele>
        <time>2011-11-13T10:36:33Z</time>
      </trkpt>
      <trkpt lat="49.20931" lon="2.31756">
        <ele>103</ele>
        <time>2011-11-13T10:36:34Z</time>
      </trkpt>
      <trkpt lat="49.20941" lon="2.31761">
        <ele>108</ele>
        <time>2011-11-13T10:36:35Z</time>
      </trkpt>
      <trkpt lat="49.20951" lon="2.31765">
        <ele>108</ele>
        <time>2011-11-13T10:36:36Z</time>
      </trkpt>
      <trkpt lat="49.20961" lon="2.3177">
        <ele>108</ele>
        <time>2011-11-13T10:36:37Z</time>
      </trkpt>
      <trkpt lat="49.20971" lon="2.31773">
        <ele>108</ele>
        <time>2011-11-13T10:36:38Z</time>
      </trkpt>
      <trkpt lat="49.20981" lon="2.31778">
        <ele>108</ele>
        <time>2011-11-13T10:36:39Z</time>
      </trkpt>
      <trkpt lat="49.20992" lon="2.31782">
        <ele>108</ele>
        <time>2011-11-13T10:36:40Z</time>
      </trkpt>
      <trkpt lat="49.21002" lon="2.31787">
        <ele>108</ele>
        <time>2011-11-13T10:36:41Z</time>
      </trkpt>
      <trkpt lat="49.21013" lon="2.31791">
        <ele>108</ele>
        <time>2011-11-13T10:36:42Z</time>
      </trkpt>
      <trkpt lat="49.21023" lon="2.31797">
        <ele>108</ele>
        <time>2011-11-13T10:36:43Z</time>
      </trkpt>
      <trkpt lat="49.21033" lon="2.31801">
        <ele>108</ele>
        <time>2011-11-13T10:36:44Z</time>
      </trkpt>
      <trkpt lat="49.21044" lon="2.31805">
        <ele>108</ele>
        <time>2011-11-13T10:36:45Z</time>
      </trkpt>
      <trkpt lat="49.21054" lon="2.31807">
        <ele>108</ele>
        <time>2011-11-13T10:36:46Z</time>
      </trkpt>
      <trkpt lat="49.21064" lon="2.31807">
        <ele>108</ele>
        <time>2011-11-13T10:36:47Z</time>
      </trkpt>
      <trkpt lat="49.21074" lon="2.31806">
        <ele>108</ele>
        <time>2011-11-13T10:36:48Z</time>
      </trkpt>
      <trkpt lat="49.21085" lon="2.31804">
        <ele>108</ele>
        <time>2011-11-13T10:36:49Z</time>
      </trkpt>
      <trkpt lat="49.21095" lon="2.31803">
        <ele>108</ele>
        <time>2011-11-13T10:36:50Z</time>
      </trkpt>
      <trkpt lat="49.21105" lon="2.31804">
        <ele>108</ele>
        <time>2011-11-13T10:36:51Z</time>
      </trkpt>
      <trkpt lat="49.21114" lon="2.31808">
        <ele>108</ele>
        <time>2011-11-13T10:36:52Z</time>
      </trkpt>
      <trkpt lat="49.21124" lon="2.31814">
        <ele>108</ele>
        <time>2011-11-13T10:36:53Z</time>
      </trkpt>
      <trkpt lat="49.21133" lon="2.3182">
        <ele>108</ele>
        <time>2011-11-13T10:36:54Z</time>
      </trkpt>
      <trkpt lat="49.21143" lon="2.31827">
        <ele>108</ele>
        <time>2011-11-13T10:36:55Z</time>
      </trkpt>
      <trkpt lat="49.21154" lon="2.31834">
        <ele>108</ele>
        <time>2011-11-13T10:36:56Z</time>
      </trkpt>
      <trkpt lat="49.21164" lon="2.31839">
        <ele>108</ele>
        <time>2011-11-13T10:36:57Z</time>
      </trkpt>
      <trkpt lat="49.21174" lon="2.31844">
        <ele>108</ele>
        <time>2011-11-13T10:36:58Z</time>
      </trkpt>
      <trkpt lat="49.21184" lon="2.3185">
        <ele>108</ele>
        <time>2011-11-13T10:36:59Z</time>
      </trkpt>
      <trkpt lat="49.21193" lon="2.31856">
        <ele>114</ele>
        <time>2011-11-13T10:37:00Z</time>
      </trkpt>
      <trkpt lat="49.21202" lon="2.31862">
        <ele>114</ele>
        <time>2011-11-13T10:37:01Z</time>
      </trkpt>
      <trkpt lat="49.21211" lon="2.31869">
        <ele>114</ele>
        <time>2011-11-13T10:37:02Z</time>
      </trkpt>
      <trkpt lat="49.21219" lon="2.31875">
        <ele>114</ele>
        <time>2011-11-13T10:37:03Z</time>
      </trkpt>
      <trkpt lat="49.21229" lon="2.31882">
        <ele>114</ele>
        <time>2011-11-13T10:37:04Z</time>
      </trkpt>
      <trkpt lat="49.21237" lon="2.31889">
        <ele>114</ele>
        <time>2011-11-13T10:37:05Z</time>
      </trkpt>
      <trkpt lat="49.21245" lon="2.31897">
        <ele>114</ele>
        <time>2011-11-13T10:37:06Z</time>
      </trkpt>
      <trkpt lat="49.21257" lon="2.31913">
        <ele>114</ele>
        <time>2011-11-13T10:37:08Z</time>
      </trkpt>
      <trkpt lat="49.21265" lon="2.31924">
        <ele>114</ele>
        <time>2011-11-13T10:37:10Z</time>
      </trkpt>
      <trkpt lat="49.21273" lon="2.31931">
        <ele>114</ele>
        <time>2011-11-13T10:37:14Z</time>
      </trkpt>
      <trkpt lat="49.21278" lon="2.31919">
        <ele>114</ele>
        <time>2011-11-13T10:37:17Z</time>
      </trkpt>
      <trkpt lat="49.21282" lon="2.31899">
        <ele>114</ele>
        <time>2011-11-13T10:37:19Z</time>
      </trkpt>
      <trkpt lat="49.21289" lon="2.31877">
        <ele>114</ele>
        <time>2011-11-13T10:37:21Z</time>
      </trkpt>
      <trkpt lat="49.21297" lon="2.31853">
        <ele>114</ele>
        <time>2011-11-13T10:37:23Z</time>
      </trkpt>
      <trkpt lat="49.21302" lon="2.31838">
        <ele>114</ele>
        <time>2011-11-13T10:37:24Z</time>
      </trkpt>
      <trkpt lat="49.21307" lon="2.31824">
        <ele>114</ele>
        <time>2011-11-13T10:37:25Z</time>
      </trkpt>
      <trkpt lat="49.21312" lon="2.31809">
        <ele>114</ele>
        <time>2011-11-13T10:37:26Z</time>
      </trkpt>
      <trkpt lat="49.21317" lon="2.31792">
        <ele>114</ele>
        <time>2011-11-13T10:37:27Z</time>
      </trkpt>
      <trkpt lat="49.21321" lon="2.31776">
        <ele>114</ele>
        <time>2011-11-13T10:37:28Z</time>
      </trkpt>
      <trkpt lat="49.21325" lon="2.3176">
        <ele>114</ele>
        <time>2011-11-13T10:37:29Z</time>
      </trkpt>
      <trkpt lat="49.21329" lon="2.31743">
        <ele>114</ele>
        <time>2011-11-13T10:37:30Z</time>
      </trkpt>
      <trkpt lat="49.21332" lon="2.31727">
        <ele>114</ele>
        <time>2011-11-13T10:37:31Z</time>
      </trkpt>
      <trkpt lat="49.21334" lon="2.3171">
        <ele>114</ele>
        <time>2011-11-13T10:37:32Z</time>
      </trkpt>
      <trkpt lat="49.21337" lon="2.31694">
        <ele>114</ele>
        <time>2011-11-13T10:37:33Z</time>
      </trkpt>
      <trkpt lat="49.21339" lon="2.31676">
        <ele>114</ele>
        <time>2011-11-13T10:37:34Z</time>
      </trkpt>
      <trkpt lat="49.21341" lon="2.31659">
        <ele>114</ele>
        <time>2011-11-13T10:37:35Z</time>
      </trkpt>
      <trkpt lat="49.21342" lon="2.31643">
        <ele>114</ele>
        <time>2011-11-13T10:37:36Z</time>
      </trkpt>
      <trkpt lat="49.21344" lon="2.31627">
        <ele>114</ele>
        <time>2011-11-13T10:37:37Z</time>
      </trkpt>
      <trkpt lat="49.21345" lon="2.31612">
        <ele>114</ele>
        <time>2011-11-13T10:37:38Z</time>
      </trkpt>
      <trkpt lat="49.21346" lon="2.31585">
        <ele>114</ele>
        <time>2011-11-13T10:37:40Z</time>
      </trkpt>
      <trkpt lat="49.21348" lon="2.31558">
        <ele>114</ele>
        <time>2011-11-13T10:37:42Z</time>
      </trkpt>
      <trkpt lat="49.2135" lon="2.31544">
        <ele>114</ele>
        <time>2011-11-13T10:37:43Z</time>
      </trkpt>
      <trkpt lat="49.21351" lon="2.31529">
        <ele>114</ele>
        <time>2011-11-13T10:37:44Z</time>
      </trkpt>
      <trkpt lat="49.21353" lon="2.31515">
        <ele>114</ele>
        <time>2011-11-13T10:37:45Z</time>
      </trkpt>
      <trkpt lat="49.21356" lon="2.31499">
        <ele>114</ele>
        <time>2011-11-13T10:37:46Z</time>
      </trkpt>
      <trkpt lat="49.21358" lon="2.31482">
        <ele>114</ele>
        <time>2011-11-13T10:37:47Z</time>
      </trkpt>
      <trkpt lat="49.21361" lon="2.31465">
        <ele>114</ele>
        <time>2011-11-13T10:37:48Z</time>
      </trkpt>
      <trkpt lat="49.21363" lon="2.31448">
        <ele>114</ele>
        <time>2011-11-13T10:37:49Z</time>
      </trkpt>
      <trkpt lat="49.21365" lon="2.31431">
        <ele>114</ele>
        <time>2011-11-13T10:37:50Z</time>
      </trkpt>
      <trkpt lat="49.21367" lon="2.31414">
        <ele>114</ele>
        <time>2011-11-13T10:37:51Z</time>
      </trkpt>
      <trkpt lat="49.21369" lon="2.31397">
        <ele>114</ele>
        <time>2011-11-13T10:37:52Z</time>
      </trkpt>
      <trkpt lat="49.2137" lon="2.3138">
        <ele>114</ele>
        <time>2011-11-13T10:37:53Z</time>
      </trkpt>
      <trkpt lat="49.21371" lon="2.31363">
        <ele>114</ele>
        <time>2011-11-13T10:37:54Z</time>
      </trkpt>
      <trkpt lat="49.21371" lon="2.31347">
        <ele>114</ele>
        <time>2011-11-13T10:37:55Z</time>
      </trkpt>
      <trkpt lat="49.2137" lon="2.3133">
        <ele>114</ele>
        <time>2011-11-13T10:37:56Z</time>
      </trkpt>
      <trkpt lat="49.21369" lon="2.31312">
        <ele>114</ele>
        <time>2011-11-13T10:37:57Z</time>
      </trkpt>
      <trkpt lat="49.21368" lon="2.31293">
        <ele>114</ele>
        <time>2011-11-13T10:37:58Z</time>
      </trkpt>
      <trkpt lat="49.21366" lon="2.31273">
        <ele>114</ele>
        <time>2011-11-13T10:37:59Z</time>
      </trkpt>
      <trkpt lat="49.21364" lon="2.31252">
        <ele>114</ele>
        <time>2011-11-13T10:38:00Z</time>
      </trkpt>
      <trkpt lat="49.21363" lon="2.31232">
        <ele>114</ele>
        <time>2011-11-13T10:38:01Z</time>
      </trkpt>
      <trkpt lat="49.21362" lon="2.31212">
        <ele>114</ele>
        <time>2011-11-13T10:38:02Z</time>
      </trkpt>
      <trkpt lat="49.21361" lon="2.31192">
        <ele>114</ele>
        <time>2011-11-13T10:38:03Z</time>
      </trkpt>
      <trkpt lat="49.2136" lon="2.31174">
        <ele>114</ele>
        <time>2011-11-13T10:38:04Z</time>
      </trkpt>
      <trkpt lat="49.21358" lon="2.31155">
        <ele>114</ele>
        <time>2011-11-13T10:38:05Z</time>
      </trkpt>
      <trkpt lat="49.21356" lon="2.31137">
        <ele>114</ele>
        <time>2011-11-13T10:38:06Z</time>
      </trkpt>
      <trkpt lat="49.21355" lon="2.31118">
        <ele>114</ele>
        <time>2011-11-13T10:38:07Z</time>
      </trkpt>
      <trkpt lat="49.21353" lon="2.311">
        <ele>114</ele>
        <time>2011-11-13T10:38:08Z</time>
      </trkpt>
      <trkpt lat="49.21352" lon="2.31081">
        <ele>114</ele>
        <time>2011-11-13T10:38:09Z</time>
      </trkpt>
      <trkpt lat="49.21351" lon="2.31061">
        <ele>114</ele>
        <time>2011-11-13T10:38:10Z</time>
      </trkpt>
      <trkpt lat="49.2135" lon="2.31041">
        <ele>114</ele>
        <time>2011-11-13T10:38:11Z</time>
      </trkpt>
      <trkpt lat="49.21348" lon="2.31022">
        <ele>114</ele>
        <time>2011-11-13T10:38:12Z</time>
      </trkpt>
      <trkpt lat="49.21347" lon="2.31004">
        <ele>114</ele>
        <time>2011-11-13T10:38:13Z</time>
      </trkpt>
      <trkpt lat="49.21345" lon="2.30985">
        <ele>114</ele>
        <time>2011-11-13T10:38:14Z</time>
      </trkpt>
      <trkpt lat="49.21344" lon="2.30967">
        <ele>114</ele>
        <time>2011-11-13T10:38:15Z</time>
      </trkpt>
      <trkpt lat="49.21343" lon="2.30949">
        <ele>114</ele>
        <time>2011-11-13T10:38:16Z</time>
      </trkpt>
      <trkpt lat="49.21342" lon="2.3093">
        <ele>114</ele>
        <time>2011-11-13T10:38:17Z</time>
      </trkpt>
      <trkpt lat="49.21342" lon="2.30911">
        <ele>114</ele>
        <time>2011-11-13T10:38:18Z</time>
      </trkpt>
      <trkpt lat="49.21342" lon="2.30893">
        <ele>114</ele>
        <time>2011-11-13T10:38:19Z</time>
      </trkpt>
      <trkpt lat="49.21342" lon="2.30874">
        <ele>114</ele>
        <time>2011-11-13T10:38:20Z</time>
      </trkpt>
      <trkpt lat="49.21343" lon="2.30856">
        <ele>114</ele>
        <time>2011-11-13T10:38:21Z</time>
      </trkpt>
      <trkpt lat="49.21343" lon="2.30838">
        <ele>114</ele>
        <time>2011-11-13T10:38:22Z</time>
      </trkpt>
      <trkpt lat="49.21343" lon="2.30819">
        <ele>114</ele>
        <time>2011-11-13T10:38:23Z</time>
      </trkpt>
      <trkpt lat="49.21343" lon="2.30801">
        <ele>114</ele>
        <time>2011-11-13T10:38:24Z</time>
      </trkpt>
      <trkpt lat="49.21343" lon="2.30783">
        <ele>114</ele>
        <time>2011-11-13T10:38:25Z</time>
      </trkpt>
      <trkpt lat="49.21343" lon="2.30763">
        <ele>114</ele>
        <time>2011-11-13T10:38:26Z</time>
      </trkpt>
      <trkpt lat="49.21343" lon="2.30743">
        <ele>114</ele>
        <time>2011-11-13T10:38:27Z</time>
      </trkpt>
      <trkpt lat="49.21343" lon="2.30723">
        <ele>114</ele>
        <time>2011-11-13T10:38:28Z</time>
      </trkpt>
      <trkpt lat="49.21344" lon="2.30704">
        <ele>114</ele>
        <time>2011-11-13T10:38:29Z</time>
      </trkpt>
      <trkpt lat="49.21344" lon="2.30683">
        <ele>114</ele>
        <time>2011-11-13T10:38:30Z</time>
      </trkpt>
      <trkpt lat="49.21343" lon="2.30663">
        <ele>114</ele>
        <time>2011-11-13T10:38:31Z</time>
      </trkpt>
      <trkpt lat="49.21343" lon="2.30643">
        <ele>114</ele>
        <time>2011-11-13T10:38:32Z</time>
      </trkpt>
      <trkpt lat="49.21343" lon="2.30624">
        <ele>114</ele>
        <time>2011-11-13T10:38:33Z</time>
      </trkpt>
      <trkpt lat="49.21343" lon="2.30604">
        <ele>114</ele>
        <time>2011-11-13T10:38:34Z</time>
      </trkpt>
      <trkpt lat="49.21343" lon="2.30583">
        <ele>114</ele>
        <time>2011-11-13T10:38:35Z</time>
      </trkpt>
      <trkpt lat="49.21343" lon="2.30563">
        <ele>114</ele>
        <time>2011-11-13T10:38:36Z</time>
      </trkpt>
      <trkpt lat="49.21342" lon="2.30541">
        <ele>114</ele>
        <time>2011-11-13T10:38:37Z</time>
      </trkpt>
      <trkpt lat="49.21342" lon="2.30519">
        <ele>114</ele>
        <time>2011-11-13T10:38:38Z</time>
      </trkpt>
      <trkpt lat="49.21342" lon="2.30498">
        <ele>114</ele>
        <time>2011-11-13T10:38:39Z</time>
      </trkpt>
      <trkpt lat="49.21342" lon="2.30476">
        <ele>114</ele>
        <time>2011-11-13T10:38:40Z</time>
      </trkpt>
      <trkpt lat="49.21342" lon="2.30456">
        <ele>114</ele>
        <time>2011-11-13T10:38:41Z</time>
      </trkpt>
      <trkpt lat="49.21343" lon="2.30436">
        <ele>114</ele>
        <time>2011-11-13T10:38:42Z</time>
      </trkpt>
      <trkpt lat="49.21344" lon="2.30415">
        <ele>114</ele>
        <time>2011-11-13T10:38:43Z</time>
      </trkpt>
      <trkpt lat="49.21344" lon="2.30395">
        <ele>114</ele>
        <time>2011-11-13T10:38:44Z</time>
      </trkpt>
      <trkpt lat="49.21345" lon="2.30375">
        <ele>114</ele>
        <time>2011-11-13T10:38:45Z</time>
      </trkpt>
      <trkpt lat="49.21346" lon="2.30355">
        <ele>114</ele>
        <time>2011-11-13T10:38:46Z</time>
      </trkpt>
      <trkpt lat="49.21347" lon="2.30335">
        <ele>114</ele>
        <time>2011-11-13T10:38:47Z</time>
      </trkpt>
      <trkpt lat="49.21348" lon="2.30316">
        <ele>114</ele>
        <time>2011-11-13T10:38:48Z</time>
      </trkpt>
      <trkpt lat="49.2135" lon="2.30297">
        <ele>114</ele>
        <time>2011-11-13T10:38:49Z</time>
      </trkpt>
      <trkpt lat="49.21351" lon="2.30279">
        <ele>114</ele>
        <time>2011-11-13T10:38:50Z</time>
      </trkpt>
      <trkpt lat="49.21352" lon="2.30261">
        <ele>114</ele>
        <time>2011-11-13T10:38:51Z</time>
      </trkpt>
      <trkpt lat="49.21352" lon="2.30244">
        <ele>114</ele>
        <time>2011-11-13T10:38:52Z</time>
      </trkpt>
      <trkpt lat="49.21354" lon="2.30227">
        <ele>114</ele>
        <time>2011-11-13T10:38:53Z</time>
      </trkpt>
      <trkpt lat="49.21355" lon="2.3021">
        <ele>114</ele>
        <time>2011-11-13T10:38:54Z</time>
      </trkpt>
      <trkpt lat="49.21356" lon="2.30193">
        <ele>114</ele>
        <time>2011-11-13T10:38:55Z</time>
      </trkpt>
      <trkpt lat="49.21357" lon="2.30177">
        <ele>114</ele>
        <time>2011-11-13T10:38:56Z</time>
      </trkpt>
      <trkpt lat="49.21358" lon="2.3016">
        <ele>114</ele>
        <time>2011-11-13T10:38:57Z</time>
      </trkpt>
      <trkpt lat="49.2136" lon="2.30143">
        <ele>114</ele>
        <time>2011-11-13T10:38:58Z</time>
      </trkpt>
      <trkpt lat="49.21361" lon="2.30126">
        <ele>114</ele>
        <time>2011-11-13T10:38:59Z</time>
      </trkpt>
      <trkpt lat="49.21361" lon="2.30108">
        <ele>114</ele>
        <time>2011-11-13T10:39:00Z</time>
      </trkpt>
      <trkpt lat="49.21362" lon="2.30091">
        <ele>114</ele>
        <time>2011-11-13T10:39:01Z</time>
      </trkpt>
      <trkpt lat="49.21364" lon="2.30072">
        <ele>114</ele>
        <time>2011-11-13T10:39:02Z</time>
      </trkpt>
      <trkpt lat="49.21364" lon="2.30053">
        <ele>114</ele>
        <time>2011-11-13T10:39:03Z</time>
      </trkpt>
      <trkpt lat="49.21365" lon="2.30034">
        <ele>114</ele>
        <time>2011-11-13T10:39:04Z</time>
      </trkpt>
      <trkpt lat="49.21365" lon="2.30015">
        <ele>114</ele>
        <time>2011-11-13T10:39:05Z</time>
      </trkpt>
      <trkpt lat="49.21365" lon="2.29996">
        <ele>114</ele>
        <time>2011-11-13T10:39:06Z</time>
      </trkpt>
      <trkpt lat="49.21366" lon="2.29977">
        <ele>114</ele>
        <time>2011-11-13T10:39:07Z</time>
      </trkpt>
      <trkpt lat="49.21366" lon="2.29958">
        <ele>114</ele>
        <time>2011-11-13T10:39:08Z</time>
      </trkpt>
      <trkpt lat="49.21367" lon="2.2994">
        <ele>114</ele>
        <time>2011-11-13T10:39:09Z</time>
      </trkpt>
      <trkpt lat="49.21367" lon="2.29921">
        <ele>114</ele>
        <time>2011-11-13T10:39:10Z</time>
      </trkpt>
      <trkpt lat="49.21368" lon="2.29902">
        <ele>114</ele>
        <time>2011-11-13T10:39:11Z</time>
      </trkpt>
      <trkpt lat="49.21369" lon="2.29883">
        <ele>114</ele>
        <time>2011-11-13T10:39:12Z</time>
      </trkpt>
      <trkpt lat="49.2137" lon="2.29865">
        <ele>114</ele>
        <time>2011-11-13T10:39:13Z</time>
      </trkpt>
      <trkpt lat="49.21372" lon="2.29846">
        <ele>114</ele>
        <time>2011-11-13T10:39:14Z</time>
      </trkpt>
      <trkpt lat="49.21374" lon="2.29828">
        <ele>114</ele>
        <time>2011-11-13T10:39:15Z</time>
      </trkpt>
      <trkpt lat="49.21376" lon="2.29811">
        <ele>114</ele>
        <time>2011-11-13T10:39:16Z</time>
      </trkpt>
      <trkpt lat="49.21378" lon="2.29794">
        <ele>114</ele>
        <time>2011-11-13T10:39:17Z</time>
      </trkpt>
      <trkpt lat="49.2138" lon="2.29779">
        <ele>114</ele>
        <time>2011-11-13T10:39:18Z</time>
      </trkpt>
      <trkpt lat="49.21381" lon="2.29764">
        <ele>114</ele>
        <time>2011-11-13T10:39:19Z</time>
      </trkpt>
      <trkpt lat="49.21383" lon="2.2975">
        <ele>114</ele>
        <time>2011-11-13T10:39:20Z</time>
      </trkpt>
      <trkpt lat="49.21385" lon="2.29735">
        <ele>114</ele>
        <time>2011-11-13T10:39:21Z</time>
      </trkpt>
      <trkpt lat="49.21387" lon="2.29721">
        <ele>114</ele>
        <time>2011-11-13T10:39:22Z</time>
      </trkpt>
      <trkpt lat="49.21388" lon="2.29706">
        <ele>114</ele>
        <time>2011-11-13T10:39:23Z</time>
      </trkpt>
      <trkpt lat="49.2139" lon="2.29693">
        <ele>114</ele>
        <time>2011-11-13T10:39:24Z</time>
      </trkpt>
      <trkpt lat="49.21392" lon="2.29679">
        <ele>114</ele>
        <time>2011-11-13T10:39:25Z</time>
      </trkpt>
      <trkpt lat="49.21395" lon="2.29653">
        <ele>114</ele>
        <time>2011-11-13T10:39:27Z</time>
      </trkpt>
      <trkpt lat="49.21399" lon="2.29631">
        <ele>114</ele>
        <time>2011-11-13T10:39:29Z</time>
      </trkpt>
      <trkpt lat="49.21402" lon="2.29613">
        <ele>114</ele>
        <time>2011-11-13T10:39:31Z</time>
      </trkpt>
      <trkpt lat="49.21405" lon="2.296">
        <ele>114</ele>
        <time>2011-11-13T10:39:33Z</time>
      </trkpt>
      <trkpt lat="49.21408" lon="2.29583">
        <ele>114</ele>
        <time>2011-11-13T10:39:48Z</time>
      </trkpt>
      <trkpt lat="49.21413" lon="2.29563">
        <ele>114</ele>
        <time>2011-11-13T10:39:51Z</time>
      </trkpt>
      <trkpt lat="49.21419" lon="2.29545">
        <ele>114</ele>
        <time>2011-11-13T10:39:53Z</time>
      </trkpt>
      <trkpt lat="49.21426" lon="2.29525">
        <ele>114</ele>
        <time>2011-11-13T10:39:55Z</time>
      </trkpt>
      <trkpt lat="49.21435" lon="2.29503">
        <ele>119</ele>
        <time>2011-11-13T10:39:57Z</time>
      </trkpt>
      <trkpt lat="49.2144" lon="2.29491">
        <ele>119</ele>
        <time>2011-11-13T10:39:58Z</time>
      </trkpt>
      <trkpt lat="49.21445" lon="2.29479">
        <ele>119</ele>
        <time>2011-11-13T10:39:59Z</time>
      </trkpt>
      <trkpt lat="49.21451" lon="2.29467">
        <ele>119</ele>
        <time>2011-11-13T10:40:00Z</time>
      </trkpt>
      <trkpt lat="49.21457" lon="2.29454">
        <ele>119</ele>
        <time>2011-11-13T10:40:01Z</time>
      </trkpt>
      <trkpt lat="49.21463" lon="2.29441">
        <ele>119</ele>
        <time>2011-11-13T10:40:02Z</time>
      </trkpt>
      <trkpt lat="49.2147" lon="2.29429">
        <ele>119</ele>
        <time>2011-11-13T10:40:03Z</time>
      </trkpt>
      <trkpt lat="49.21477" lon="2.29416">
        <ele>119</ele>
        <time>2011-11-13T10:40:04Z</time>
      </trkpt>
      <trkpt lat="49.21484" lon="2.29405">
        <ele>119</ele>
        <time>2011-11-13T10:40:05Z</time>
      </trkpt>
      <trkpt lat="49.21491" lon="2.29392">
        <ele>119</ele>
        <time>2011-11-13T10:40:06Z</time>
      </trkpt>
      <trkpt lat="49.215" lon="2.2938">
        <ele>119</ele>
        <time>2011-11-13T10:40:07Z</time>
      </trkpt>
      <trkpt lat="49.21508" lon="2.29368">
        <ele>119</ele>
        <time>2011-11-13T10:40:08Z</time>
      </trkpt>
      <trkpt lat="49.21516" lon="2.29355">
        <ele>119</ele>
        <time>2011-11-13T10:40:09Z</time>
      </trkpt>
      <trkpt lat="49.21524" lon="2.29344">
        <ele>119</ele>
        <time>2011-11-13T10:40:10Z</time>
      </trkpt>
      <trkpt lat="49.21533" lon="2.29331">
        <ele>119</ele>
        <time>2011-11-13T10:40:11Z</time>
      </trkpt>
      <trkpt lat="49.21543" lon="2.29319">
        <ele>119</ele>
        <time>2011-11-13T10:40:12Z</time>
      </trkpt>
      <trkpt lat="49.21552" lon="2.29308">
        <ele>119</ele>
        <time>2011-11-13T10:40:13Z</time>
      </trkpt>
      <trkpt lat="49.21561" lon="2.29296">
        <ele>119</ele>
        <time>2011-11-13T10:40:14Z</time>
      </trkpt>
      <trkpt lat="49.21571" lon="2.29285">
        <ele>119</ele>
        <time>2011-11-13T10:40:15Z</time>
      </trkpt>
      <trkpt lat="49.21581" lon="2.29274">
        <ele>119</ele>
        <time>2011-11-13T10:40:16Z</time>
      </trkpt>
      <trkpt lat="49.21592" lon="2.29264">
        <ele>119</ele>
        <time>2011-11-13T10:40:17Z</time>
      </trkpt>
      <trkpt lat="49.21602" lon="2.29253">
        <ele>119</ele>
        <time>2011-11-13T10:40:18Z</time>
      </trkpt>
      <trkpt lat="49.21612" lon="2.29242">
        <ele>124</ele>
        <time>2011-11-13T10:40:19Z</time>
      </trkpt>
      <trkpt lat="49.21621" lon="2.29232">
        <ele>124</ele>
        <time>2011-11-13T10:40:20Z</time>
      </trkpt>
      <trkpt lat="49.2163" lon="2.29222">
        <ele>124</ele>
        <time>2011-11-13T10:40:21Z</time>
      </trkpt>
      <trkpt lat="49.21637" lon="2.29211">
        <ele>124</ele>
        <time>2011-11-13T10:40:22Z</time>
      </trkpt>
      <trkpt lat="49.21646" lon="2.29199">
        <ele>124</ele>
        <time>2011-11-13T10:40:23Z</time>
      </trkpt>
      <trkpt lat="49.21653" lon="2.29187">
        <ele>124</ele>
        <time>2011-11-13T10:40:24Z</time>
      </trkpt>
      <trkpt lat="49.21662" lon="2.29175">
        <ele>124</ele>
        <time>2011-11-13T10:40:25Z</time>
      </trkpt>
      <trkpt lat="49.21671" lon="2.29163">
        <ele>124</ele>
        <time>2011-11-13T10:40:26Z</time>
      </trkpt>
      <trkpt lat="49.2168" lon="2.2915">
        <ele>124</ele>
        <time>2011-11-13T10:40:27Z</time>
      </trkpt>
      <trkpt lat="49.21688" lon="2.29138">
        <ele>124</ele>
        <time>2011-11-13T10:40:28Z</time>
      </trkpt>
      <trkpt lat="49.21696" lon="2.29127">
        <ele>124</ele>
        <time>2011-11-13T10:40:29Z</time>
      </trkpt>
      <trkpt lat="49.21702" lon="2.29116">
        <ele>124</ele>
        <time>2011-11-13T10:40:30Z</time>
      </trkpt>
      <trkpt lat="49.21714" lon="2.29097">
        <ele>124</ele>
        <time>2011-11-13T10:40:32Z</time>
      </trkpt>
      <trkpt lat="49.21726" lon="2.29079">
        <ele>124</ele>
        <time>2011-11-13T10:40:34Z</time>
      </trkpt>
      <trkpt lat="49.21732" lon="2.29069">
        <ele>124</ele>
        <time>2011-11-13T10:40:35Z</time>
      </trkpt>
      <trkpt lat="49.21739" lon="2.29058">
        <ele>124</ele>
        <time>2011-11-13T10:40:36Z</time>
      </trkpt>
      <trkpt lat="49.21745" lon="2.29047">
        <ele>124</ele>
        <time>2011-11-13T10:40:37Z</time>
      </trkpt>
      <trkpt lat="49.21751" lon="2.29037">
        <ele>124</ele>
        <time>2011-11-13T10:40:38Z</time>
      </trkpt>
      <trkpt lat="49.21763" lon="2.29017">
        <ele>124</ele>
        <time>2011-11-13T10:40:40Z</time>
      </trkpt>
      <trkpt lat="49.21769" lon="2.29006">
        <ele>124</ele>
        <time>2011-11-13T10:40:41Z</time>
      </trkpt>
      <trkpt lat="49.2178" lon="2.28985">
        <ele>124</ele>
        <time>2011-11-13T10:40:43Z</time>
      </trkpt>
      <trkpt lat="49.21789" lon="2.28967">
        <ele>124</ele>
        <time>2011-11-13T10:40:45Z</time>
      </trkpt>
      <trkpt lat="49.21796" lon="2.28952">
        <ele>124</ele>
        <time>2011-11-13T10:40:47Z</time>
      </trkpt>
      <trkpt lat="49.21805" lon="2.28939">
        <ele>124</ele>
        <time>2011-11-13T10:40:49Z</time>
      </trkpt>
      <trkpt lat="49.21816" lon="2.28921">
        <ele>124</ele>
        <time>2011-11-13T10:40:51Z</time>
      </trkpt>
      <trkpt lat="49.21827" lon="2.289">
        <ele>124</ele>
        <time>2011-11-13T10:40:53Z</time>
      </trkpt>
      <trkpt lat="49.21833" lon="2.28888">
        <ele>124</ele>
        <time>2011-11-13T10:40:54Z</time>
      </trkpt>
      <trkpt lat="49.21839" lon="2.28876">
        <ele>124</ele>
        <time>2011-11-13T10:40:55Z</time>
      </trkpt>
      <trkpt lat="49.21846" lon="2.28863">
        <ele>124</ele>
        <time>2011-11-13T10:40:56Z</time>
      </trkpt>
      <trkpt lat="49.21853" lon="2.2885">
        <ele>124</ele>
        <time>2011-11-13T10:40:57Z</time>
      </trkpt>
      <trkpt lat="49.21859" lon="2.2884">
        <ele>124</ele>
        <time>2011-11-13T10:40:58Z</time>
      </trkpt>
      <trkpt lat="49.21866" lon="2.28829">
        <ele>124</ele>
        <time>2011-11-13T10:40:59Z</time>
      </trkpt>
      <trkpt lat="49.21872" lon="2.28818">
        <ele>124</ele>
        <time>2011-11-13T10:41:00Z</time>
      </trkpt>
      <trkpt lat="49.21879" lon="2.28808">
        <ele>124</ele>
        <time>2011-11-13T10:41:01Z</time>
      </trkpt>
      <trkpt lat="49.21885" lon="2.28798">
        <ele>124</ele>
        <time>2011-11-13T10:41:02Z</time>
      </trkpt>
      <trkpt lat="49.21896" lon="2.2878">
        <ele>124</ele>
        <time>2011-11-13T10:41:04Z</time>
      </trkpt>
      <trkpt lat="49.21904" lon="2.28768">
        <ele>124</ele>
        <time>2011-11-13T10:41:06Z</time>
      </trkpt>
      <trkpt lat="49.21912" lon="2.28758">
        <ele>124</ele>
        <time>2011-11-13T10:41:10Z</time>
      </trkpt>
      <trkpt lat="49.21919" lon="2.28745">
        <ele>124</ele>
        <time>2011-11-13T10:41:17Z</time>
      </trkpt>
      <trkpt lat="49.21927" lon="2.28732">
        <ele>124</ele>
        <time>2011-11-13T10:41:19Z</time>
      </trkpt>
      <trkpt lat="49.21939" lon="2.28714">
        <ele>124</ele>
        <time>2011-11-13T10:41:21Z</time>
      </trkpt>
      <trkpt lat="49.21945" lon="2.28702">
        <ele>124</ele>
        <time>2011-11-13T10:41:22Z</time>
      </trkpt>
      <trkpt lat="49.21952" lon="2.2869">
        <ele>124</ele>
        <time>2011-11-13T10:41:23Z</time>
      </trkpt>
      <trkpt lat="49.2196" lon="2.28679">
        <ele>124</ele>
        <time>2011-11-13T10:41:24Z</time>
      </trkpt>
      <trkpt lat="49.21967" lon="2.28666">
        <ele>124</ele>
        <time>2011-11-13T10:41:25Z</time>
      </trkpt>
      <trkpt lat="49.21975" lon="2.28654">
        <ele>124</ele>
        <time>2011-11-13T10:41:26Z</time>
      </trkpt>
      <trkpt lat="49.21983" lon="2.2864">
        <ele>124</ele>
        <time>2011-11-13T10:41:27Z</time>
      </trkpt>
      <trkpt lat="49.21991" lon="2.28628">
        <ele>124</ele>
        <time>2011-11-13T10:41:28Z</time>
      </trkpt>
      <trkpt lat="49.21999" lon="2.28617">
        <ele>124</ele>
        <time>2011-11-13T10:41:29Z</time>
      </trkpt>
      <trkpt lat="49.22006" lon="2.28604">
        <ele>124</ele>
        <time>2011-11-13T10:41:30Z</time>
      </trkpt>
      <trkpt lat="49.22013" lon="2.28592">
        <ele>124</ele>
        <time>2011-11-13T10:41:31Z</time>
      </trkpt>
      <trkpt lat="49.22021" lon="2.28579">
        <ele>124</ele>
        <time>2011-11-13T10:41:32Z</time>
      </trkpt>
      <trkpt lat="49.22028" lon="2.28566">
        <ele>124</ele>
        <time>2011-11-13T10:41:33Z</time>
      </trkpt>
      <trkpt lat="49.22036" lon="2.28553">
        <ele>124</ele>
        <time>2011-11-13T10:41:34Z</time>
      </trkpt>
      <trkpt lat="49.22043" lon="2.2854">
        <ele>124</ele>
        <time>2011-11-13T10:41:35Z</time>
      </trkpt>
      <trkpt lat="49.22051" lon="2.28529">
        <ele>124</ele>
        <time>2011-11-13T10:41:36Z</time>
      </trkpt>
      <trkpt lat="49.22058" lon="2.28516">
        <ele>124</ele>
        <time>2011-11-13T10:41:37Z</time>
      </trkpt>
      <trkpt lat="49.22065" lon="2.28505">
        <ele>124</ele>
        <time>2011-11-13T10:41:38Z</time>
      </trkpt>
      <trkpt lat="49.22071" lon="2.28495">
        <ele>124</ele>
        <time>2011-11-13T10:41:39Z</time>
      </trkpt>
      <trkpt lat="49.22083" lon="2.28475">
        <ele>124</ele>
        <time>2011-11-13T10:41:41Z</time>
      </trkpt>
      <trkpt lat="49.22091" lon="2.2846">
        <ele>124</ele>
        <time>2011-11-13T10:41:43Z</time>
      </trkpt>
      <trkpt lat="49.22099" lon="2.28449">
        <ele>124</ele>
        <time>2011-11-13T10:41:46Z</time>
      </trkpt>
      <trkpt lat="49.22108" lon="2.28453">
        <ele>124</ele>
        <time>2011-11-13T10:41:50Z</time>
      </trkpt>
      <trkpt lat="49.22116" lon="2.28467">
        <ele>124</ele>
        <time>2011-11-13T10:41:52Z</time>
      </trkpt>
      <trkpt lat="49.22128" lon="2.28487">
        <ele>124</ele>
        <time>2011-11-13T10:41:54Z</time>
      </trkpt>
      <trkpt lat="49.22135" lon="2.28499">
        <ele>124</ele>
        <time>2011-11-13T10:41:55Z</time>
      </trkpt>
      <trkpt lat="49.22143" lon="2.28512">
        <ele>124</ele>
        <time>2011-11-13T10:41:56Z</time>
      </trkpt>
      <trkpt lat="49.22152" lon="2.28525">
        <ele>124</ele>
        <time>2011-11-13T10:41:57Z</time>
      </trkpt>
      <trkpt lat="49.2216" lon="2.28539">
        <ele>124</ele>
        <time>2011-11-13T10:41:58Z</time>
      </trkpt>
      <trkpt lat="49.22169" lon="2.28553">
        <ele>124</ele>
        <time>2011-11-13T10:41:59Z</time>
      </trkpt>
      <trkpt lat="49.22177" lon="2.28566">
        <ele>124</ele>
        <time>2011-11-13T10:42:00Z</time>
      </trkpt>
      <trkpt lat="49.22185" lon="2.28579">
        <ele>124</ele>
        <time>2011-11-13T10:42:01Z</time>
      </trkpt>
      <trkpt lat="49.22192" lon="2.28592">
        <ele>124</ele>
        <time>2011-11-13T10:42:02Z</time>
      </trkpt>
      <trkpt lat="49.222" lon="2.28603">
        <ele>124</ele>
        <time>2011-11-13T10:42:03Z</time>
      </trkpt>
      <trkpt lat="49.22207" lon="2.28615">
        <ele>124</ele>
        <time>2011-11-13T10:42:04Z</time>
      </trkpt>
      <trkpt lat="49.22213" lon="2.28625">
        <ele>124</ele>
        <time>2011-11-13T10:42:05Z</time>
      </trkpt>
      <trkpt lat="49.22225" lon="2.28644">
        <ele>124</ele>
        <time>2011-11-13T10:42:07Z</time>
      </trkpt>
      <trkpt lat="49.22235" lon="2.28659">
        <ele>124</ele>
        <time>2011-11-13T10:42:09Z</time>
      </trkpt>
      <trkpt lat="49.22245" lon="2.28674">
        <ele>124</ele>
        <time>2011-11-13T10:42:11Z</time>
      </trkpt>
      <trkpt lat="49.22257" lon="2.28691">
        <ele>124</ele>
        <time>2011-11-13T10:42:13Z</time>
      </trkpt>
      <trkpt lat="49.22263" lon="2.28701">
        <ele>124</ele>
        <time>2011-11-13T10:42:14Z</time>
      </trkpt>
      <trkpt lat="49.2227" lon="2.2871">
        <ele>124</ele>
        <time>2011-11-13T10:42:15Z</time>
      </trkpt>
      <trkpt lat="49.22278" lon="2.2872">
        <ele>124</ele>
        <time>2011-11-13T10:42:16Z</time>
      </trkpt>
      <trkpt lat="49.22285" lon="2.2873">
        <ele>124</ele>
        <time>2011-11-13T10:42:17Z</time>
      </trkpt>
      <trkpt lat="49.22292" lon="2.28739">
        <ele>124</ele>
        <time>2011-11-13T10:42:18Z</time>
      </trkpt>
      <trkpt lat="49.22305" lon="2.28754">
        <ele>124</ele>
        <time>2011-11-13T10:42:20Z</time>
      </trkpt>
      <trkpt lat="49.22316" lon="2.28766">
        <ele>124</ele>
        <time>2011-11-13T10:42:22Z</time>
      </trkpt>
      <trkpt lat="49.22325" lon="2.28776">
        <ele>124</ele>
        <time>2011-11-13T10:42:25Z</time>
      </trkpt>
      <trkpt lat="49.22333" lon="2.28783">
        <ele>124</ele>
        <time>2011-11-13T10:42:30Z</time>
      </trkpt>
      <trkpt lat="49.2234" lon="2.28773">
        <ele>124</ele>
        <time>2011-11-13T10:42:33Z</time>
      </trkpt>
      <trkpt lat="49.22348" lon="2.28755">
        <ele>124</ele>
        <time>2011-11-13T10:42:35Z</time>
      </trkpt>
      <trkpt lat="49.22356" lon="2.28734">
        <ele>124</ele>
        <time>2011-11-13T10:42:37Z</time>
      </trkpt>
      <trkpt lat="49.22366" lon="2.28712">
        <ele>124</ele>
        <time>2011-11-13T10:42:39Z</time>
      </trkpt>
      <trkpt lat="49.22371" lon="2.287">
        <ele>124</ele>
        <time>2011-11-13T10:42:40Z</time>
      </trkpt>
      <trkpt lat="49.22377" lon="2.28688">
        <ele>124</ele>
        <time>2011-11-13T10:42:41Z</time>
      </trkpt>
      <trkpt lat="49.22383" lon="2.28675">
        <ele>124</ele>
        <time>2011-11-13T10:42:42Z</time>
      </trkpt>
      <trkpt lat="49.22389" lon="2.28663">
        <ele>124</ele>
        <time>2011-11-13T10:42:43Z</time>
      </trkpt>
      <trkpt lat="49.22395" lon="2.2865">
        <ele>124</ele>
        <time>2011-11-13T10:42:44Z</time>
      </trkpt>
      <trkpt lat="49.224" lon="2.28637">
        <ele>124</ele>
        <time>2011-11-13T10:42:45Z</time>
      </trkpt>
      <trkpt lat="49.22406" lon="2.28625">
        <ele>124</ele>
        <time>2011-11-13T10:42:46Z</time>
      </trkpt>
      <trkpt lat="49.22412" lon="2.28613">
        <ele>124</ele>
        <time>2011-11-13T10:42:47Z</time>
      </trkpt>
      <trkpt lat="49.22417" lon="2.28602">
        <ele>124</ele>
        <time>2011-11-13T10:42:48Z</time>
      </trkpt>
      <trkpt lat="49.22426" lon="2.28582">
        <ele>124</ele>
        <time>2011-11-13T10:42:50Z</time>
      </trkpt>
      <trkpt lat="49.22433" lon="2.28566">
        <ele>124</ele>
        <time>2011-11-13T10:42:52Z</time>
      </trkpt>
      <trkpt lat="49.22439" lon="2.28555">
        <ele>124</ele>
        <time>2011-11-13T10:42:54Z</time>
      </trkpt>
      <trkpt lat="49.22445" lon="2.28542">
        <ele>124</ele>
        <time>2011-11-13T10:43:25Z</time>
      </trkpt>
      <trkpt lat="49.22449" lon="2.2853">
        <ele>129</ele>
        <time>2011-11-13T10:43:43Z</time>
      </trkpt>
      <trkpt lat="49.22442" lon="2.28515">
        <ele>129</ele>
        <time>2011-11-13T10:43:50Z</time>
      </trkpt>
      <trkpt lat="49.22429" lon="2.28508">
        <ele>129</ele>
        <time>2011-11-13T10:43:52Z</time>
      </trkpt>
      <trkpt lat="49.22413" lon="2.28501">
        <ele>129</ele>
        <time>2011-11-13T10:43:54Z</time>
      </trkpt>
      <trkpt lat="49.22398" lon="2.28494">
        <ele>129</ele>
        <time>2011-11-13T10:43:56Z</time>
      </trkpt>
      <trkpt lat="49.22387" lon="2.28489">
        <ele>129</ele>
        <time>2011-11-13T10:43:58Z</time>
      </trkpt>
      <trkpt lat="49.22376" lon="2.28485">
        <ele>129</ele>
        <time>2011-11-13T10:44:00Z</time>
      </trkpt>
      <trkpt lat="49.22365" lon="2.28479">
        <ele>129</ele>
        <time>2011-11-13T10:44:02Z</time>
      </trkpt>
      <trkpt lat="49.2235" lon="2.28471">
        <ele>129</ele>
        <time>2011-11-13T10:44:04Z</time>
      </trkpt>
      <trkpt lat="49.22341" lon="2.28465">
        <ele>129</ele>
        <time>2011-11-13T10:44:05Z</time>
      </trkpt>
      <trkpt lat="49.22332" lon="2.2846">
        <ele>129</ele>
        <time>2011-11-13T10:44:06Z</time>
      </trkpt>
      <trkpt lat="49.22323" lon="2.28453">
        <ele>129</ele>
        <time>2011-11-13T10:44:07Z</time>
      </trkpt>
      <trkpt lat="49.22315" lon="2.28447">
        <ele>129</ele>
        <time>2011-11-13T10:44:08Z</time>
      </trkpt>
      <trkpt lat="49.22305" lon="2.28441">
        <ele>129</ele>
        <time>2011-11-13T10:44:09Z</time>
      </trkpt>
      <trkpt lat="49.22296" lon="2.28434">
        <ele>129</ele>
        <time>2011-11-13T10:44:10Z</time>
      </trkpt>
      <trkpt lat="49.22286" lon="2.28428">
        <ele>129</ele>
        <time>2011-11-13T10:44:11Z</time>
      </trkpt>
      <trkpt lat="49.22276" lon="2.28421">
        <ele>129</ele>
        <time>2011-11-13T10:44:12Z</time>
      </trkpt>
      <trkpt lat="49.22266" lon="2.28415">
        <ele>129</ele>
        <time>2011-11-13T10:44:13Z</time>
      </trkpt>
      <trkpt lat="49.22256" lon="2.28407">
        <ele>129</ele>
        <time>2011-11-13T10:44:14Z</time>
      </trkpt>
      <trkpt lat="49.22245" lon="2.28401">
        <ele>129</ele>
        <time>2011-11-13T10:44:15Z</time>
      </trkpt>
      <trkpt lat="49.22235" lon="2.28395">
        <ele>129</ele>
        <time>2011-11-13T10:44:16Z</time>
      </trkpt>
      <trkpt lat="49.22223" lon="2.28389">
        <ele>129</ele>
        <time>2011-11-13T10:44:17Z</time>
      </trkpt>
      <trkpt lat="49.22212" lon="2.28383">
        <ele>129</ele>
        <time>2011-11-13T10:44:18Z</time>
      </trkpt>
      <trkpt lat="49.222" lon="2.28378">
        <ele>129</ele>
        <time>2011-11-13T10:44:19Z</time>
      </trkpt>
      <trkpt lat="49.22189" lon="2.28372">
        <ele>129</ele>
        <time>2011-11-13T10:44:20Z</time>
      </trkpt>
      <trkpt lat="49.22177" lon="2.28366">
        <ele>129</ele>
        <time>2011-11-13T10:44:21Z</time>
      </trkpt>
      <trkpt lat="49.22167" lon="2.2836">
        <ele>129</ele>
        <time>2011-11-13T10:44:22Z</time>
      </trkpt>
      <trkpt lat="49.22156" lon="2.28354">
        <ele>129</ele>
        <time>2011-11-13T10:44:23Z</time>
      </trkpt>
      <trkpt lat="49.22146" lon="2.28349">
        <ele>129</ele>
        <time>2011-11-13T10:44:24Z</time>
      </trkpt>
      <trkpt lat="49.22136" lon="2.28344">
        <ele>129</ele>
        <time>2011-11-13T10:44:25Z</time>
      </trkpt>
      <trkpt lat="49.22126" lon="2.28338">
        <ele>129</ele>
        <time>2011-11-13T10:44:26Z</time>
      </trkpt>
      <trkpt lat="49.22116" lon="2.28332">
        <ele>129</ele>
        <time>2011-11-13T10:44:27Z</time>
      </trkpt>
      <trkpt lat="49.22106" lon="2.28325">
        <ele>129</ele>
        <time>2011-11-13T10:44:28Z</time>
      </trkpt>
      <trkpt lat="49.22096" lon="2.28317">
        <ele>129</ele>
        <time>2011-11-13T10:44:29Z</time>
      </trkpt>
      <trkpt lat="49.22086" lon="2.28309">
        <ele>129</ele>
        <time>2011-11-13T10:44:30Z</time>
      </trkpt>
      <trkpt lat="49.22077" lon="2.283">
        <ele>129</ele>
        <time>2011-11-13T10:44:31Z</time>
      </trkpt>
      <trkpt lat="49.22067" lon="2.28292">
        <ele>129</ele>
        <time>2011-11-13T10:44:32Z</time>
      </trkpt>
      <trkpt lat="49.22059" lon="2.28283">
        <ele>129</ele>
        <time>2011-11-13T10:44:33Z</time>
      </trkpt>
      <trkpt lat="49.2205" lon="2.28275">
        <ele>129</ele>
        <time>2011-11-13T10:44:34Z</time>
      </trkpt>
      <trkpt lat="49.22042" lon="2.28268">
        <ele>129</ele>
        <time>2011-11-13T10:44:35Z</time>
      </trkpt>
      <trkpt lat="49.22029" lon="2.28257">
        <ele>129</ele>
        <time>2011-11-13T10:44:37Z</time>
      </trkpt>
      <trkpt lat="49.2202" lon="2.28248">
        <ele>129</ele>
        <time>2011-11-13T10:44:39Z</time>
      </trkpt>
      <trkpt lat="49.2201" lon="2.2824">
        <ele>129</ele>
        <time>2011-11-13T10:44:41Z</time>
      </trkpt>
      <trkpt lat="49.21997" lon="2.28231">
        <ele>129</ele>
        <time>2011-11-13T10:44:43Z</time>
      </trkpt>
      <trkpt lat="49.21979" lon="2.2822">
        <ele>129</ele>
        <time>2011-11-13T10:44:45Z</time>
      </trkpt>
      <trkpt lat="49.21969" lon="2.28214">
        <ele>129</ele>
        <time>2011-11-13T10:44:46Z</time>
      </trkpt>
      <trkpt lat="49.21958" lon="2.28209">
        <ele>129</ele>
        <time>2011-11-13T10:44:47Z</time>
      </trkpt>
      <trkpt lat="49.21947" lon="2.28204">
        <ele>129</ele>
        <time>2011-11-13T10:44:48Z</time>
      </trkpt>
      <trkpt lat="49.21936" lon="2.28198">
        <ele>129</ele>
        <time>2011-11-13T10:44:49Z</time>
      </trkpt>
      <trkpt lat="49.21926" lon="2.28194">
        <ele>129</ele>
        <time>2011-11-13T10:44:50Z</time>
      </trkpt>
      <trkpt lat="49.21917" lon="2.28189">
        <ele>129</ele>
        <time>2011-11-13T10:44:51Z</time>
      </trkpt>
      <trkpt lat="49.21903" lon="2.28182">
        <ele>129</ele>
        <time>2011-11-13T10:44:53Z</time>
      </trkpt>
      <trkpt lat="49.21894" lon="2.28178">
        <ele>129</ele>
        <time>2011-11-13T10:44:55Z</time>
      </trkpt>
      <trkpt lat="49.21884" lon="2.28173">
        <ele>129</ele>
        <time>2011-11-13T10:45:03Z</time>
      </trkpt>
      <trkpt lat="49.21873" lon="2.28168">
        <ele>124</ele>
        <time>2011-11-13T10:45:06Z</time>
      </trkpt>
      <trkpt lat="49.21861" lon="2.28162">
        <ele>124</ele>
        <time>2011-11-13T10:45:08Z</time>
      </trkpt>
      <trkpt lat="49.21848" lon="2.28156">
        <ele>124</ele>
        <time>2011-11-13T10:45:10Z</time>
      </trkpt>
      <trkpt lat="49.21835" lon="2.2815">
        <ele>124</ele>
        <time>2011-11-13T10:45:12Z</time>
      </trkpt>
      <trkpt lat="49.21823" lon="2.28144">
        <ele>124</ele>
        <time>2011-11-13T10:45:14Z</time>
      </trkpt>
      <trkpt lat="49.21813" lon="2.28141">
        <ele>124</ele>
        <time>2011-11-13T10:45:16Z</time>
      </trkpt>
      <trkpt lat="49.21801" lon="2.28136">
        <ele>124</ele>
        <time>2011-11-13T10:45:19Z</time>
      </trkpt>
      <trkpt lat="49.21787" lon="2.28133">
        <ele>124</ele>
        <time>2011-11-13T10:45:22Z</time>
      </trkpt>
      <trkpt lat="49.21776" lon="2.28132">
        <ele>124</ele>
        <time>2011-11-13T10:45:24Z</time>
      </trkpt>
      <trkpt lat="49.21761" lon="2.28131">
        <ele>124</ele>
        <time>2011-11-13T10:45:26Z</time>
      </trkpt>
      <trkpt lat="49.21746" lon="2.28128">
        <ele>124</ele>
        <time>2011-11-13T10:45:28Z</time>
      </trkpt>
      <trkpt lat="49.21729" lon="2.28129">
        <ele>124</ele>
        <time>2011-11-13T10:45:30Z</time>
      </trkpt>
      <trkpt lat="49.21714" lon="2.28128">
        <ele>124</ele>
        <time>2011-11-13T10:45:32Z</time>
      </trkpt>
      <trkpt lat="49.21704" lon="2.28129">
        <ele>124</ele>
        <time>2011-11-13T10:45:34Z</time>
      </trkpt>
      <trkpt lat="49.21695" lon="2.2813">
        <ele>124</ele>
        <time>2011-11-13T10:45:36Z</time>
      </trkpt>
      <trkpt lat="49.21683" lon="2.28132">
        <ele>124</ele>
        <time>2011-11-13T10:45:38Z</time>
      </trkpt>
      <trkpt lat="49.21668" lon="2.28134">
        <ele>119</ele>
        <time>2011-11-13T10:45:40Z</time>
      </trkpt>
      <trkpt lat="49.21652" lon="2.28134">
        <ele>119</ele>
        <time>2011-11-13T10:45:42Z</time>
      </trkpt>
      <trkpt lat="49.21634" lon="2.28136">
        <ele>119</ele>
        <time>2011-11-13T10:45:44Z</time>
      </trkpt>
      <trkpt lat="49.21617" lon="2.28137">
        <ele>119</ele>
        <time>2011-11-13T10:45:46Z</time>
      </trkpt>
      <trkpt lat="49.21601" lon="2.28134">
        <ele>119</ele>
        <time>2011-11-13T10:45:48Z</time>
      </trkpt>
      <trkpt lat="49.21584" lon="2.28131">
        <ele>119</ele>
        <time>2011-11-13T10:45:50Z</time>
      </trkpt>
      <trkpt lat="49.2157" lon="2.28126">
        <ele>119</ele>
        <time>2011-11-13T10:45:52Z</time>
      </trkpt>
      <trkpt lat="49.21558" lon="2.28124">
        <ele>119</ele>
        <time>2011-11-13T10:45:55Z</time>
      </trkpt>
      <trkpt lat="49.2155" lon="2.2812">
        <ele>119</ele>
        <time>2011-11-13T10:46:09Z</time>
      </trkpt>
      <trkpt lat="49.21539" lon="2.28116">
        <ele>119</ele>
        <time>2011-11-13T10:46:11Z</time>
      </trkpt>
      <trkpt lat="49.21529" lon="2.2811">
        <ele>119</ele>
        <time>2011-11-13T10:46:13Z</time>
      </trkpt>
      <trkpt lat="49.21515" lon="2.28106">
        <ele>119</ele>
        <time>2011-11-13T10:46:15Z</time>
      </trkpt>
      <trkpt lat="49.21501" lon="2.28098">
        <ele>119</ele>
        <time>2011-11-13T10:46:17Z</time>
      </trkpt>
      <trkpt lat="49.21487" lon="2.2809">
        <ele>119</ele>
        <time>2011-11-13T10:46:19Z</time>
      </trkpt>
      <trkpt lat="49.21472" lon="2.28081">
        <ele>119</ele>
        <time>2011-11-13T10:46:21Z</time>
      </trkpt>
      <trkpt lat="49.21463" lon="2.28077">
        <ele>119</ele>
        <time>2011-11-13T10:46:22Z</time>
      </trkpt>
      <trkpt lat="49.21454" lon="2.28073">
        <ele>119</ele>
        <time>2011-11-13T10:46:23Z</time>
      </trkpt>
      <trkpt lat="49.21444" lon="2.28069">
        <ele>119</ele>
        <time>2011-11-13T10:46:24Z</time>
      </trkpt>
      <trkpt lat="49.21435" lon="2.28063">
        <ele>119</ele>
        <time>2011-11-13T10:46:25Z</time>
      </trkpt>
      <trkpt lat="49.21425" lon="2.28059">
        <ele>119</ele>
        <time>2011-11-13T10:46:26Z</time>
      </trkpt>
      <trkpt lat="49.21415" lon="2.28054">
        <ele>119</ele>
        <time>2011-11-13T10:46:27Z</time>
      </trkpt>
      <trkpt lat="49.21405" lon="2.28047">
        <ele>119</ele>
        <time>2011-11-13T10:46:28Z</time>
      </trkpt>
      <trkpt lat="49.21396" lon="2.28041">
        <ele>119</ele>
        <time>2011-11-13T10:46:29Z</time>
      </trkpt>
      <trkpt lat="49.21387" lon="2.28033">
        <ele>119</ele>
        <time>2011-11-13T10:46:30Z</time>
      </trkpt>
      <trkpt lat="49.21378" lon="2.28026">
        <ele>119</ele>
        <time>2011-11-13T10:46:31Z</time>
      </trkpt>
      <trkpt lat="49.2137" lon="2.28019">
        <ele>119</ele>
        <time>2011-11-13T10:46:32Z</time>
      </trkpt>
      <trkpt lat="49.21355" lon="2.28006">
        <ele>119</ele>
        <time>2011-11-13T10:46:34Z</time>
      </trkpt>
      <trkpt lat="49.21342" lon="2.27996">
        <ele>119</ele>
        <time>2011-11-13T10:46:36Z</time>
      </trkpt>
      <trkpt lat="49.2133" lon="2.27985">
        <ele>119</ele>
        <time>2011-11-13T10:46:38Z</time>
      </trkpt>
      <trkpt lat="49.21315" lon="2.27973">
        <ele>119</ele>
        <time>2011-11-13T10:46:40Z</time>
      </trkpt>
      <trkpt lat="49.21299" lon="2.27957">
        <ele>119</ele>
        <time>2011-11-13T10:46:42Z</time>
      </trkpt>
      <trkpt lat="49.21291" lon="2.2795">
        <ele>114</ele>
        <time>2011-11-13T10:46:43Z</time>
      </trkpt>
      <trkpt lat="49.21282" lon="2.27942">
        <ele>114</ele>
        <time>2011-11-13T10:46:44Z</time>
      </trkpt>
      <trkpt lat="49.21274" lon="2.27935">
        <ele>114</ele>
        <time>2011-11-13T10:46:45Z</time>
      </trkpt>
      <trkpt lat="49.2126" lon="2.27922">
        <ele>114</ele>
        <time>2011-11-13T10:46:47Z</time>
      </trkpt>
      <trkpt lat="49.21248" lon="2.27913">
        <ele>114</ele>
        <time>2011-11-13T10:46:49Z</time>
      </trkpt>
      <trkpt lat="49.21235" lon="2.27904">
        <ele>114</ele>
        <time>2011-11-13T10:46:51Z</time>
      </trkpt>
      <trkpt lat="49.21219" lon="2.27895">
        <ele>114</ele>
        <time>2011-11-13T10:46:53Z</time>
      </trkpt>
      <trkpt lat="49.21211" lon="2.27891">
        <ele>114</ele>
        <time>2011-11-13T10:46:54Z</time>
      </trkpt>
      <trkpt lat="49.21202" lon="2.27886">
        <ele>114</ele>
        <time>2011-11-13T10:46:55Z</time>
      </trkpt>
      <trkpt lat="49.21193" lon="2.27881">
        <ele>114</ele>
        <time>2011-11-13T10:46:56Z</time>
      </trkpt>
      <trkpt lat="49.21177" lon="2.27874">
        <ele>114</ele>
        <time>2011-11-13T10:46:58Z</time>
      </trkpt>
      <trkpt lat="49.21165" lon="2.27873">
        <ele>114</ele>
        <time>2011-11-13T10:47:00Z</time>
      </trkpt>
      <trkpt lat="49.21154" lon="2.27869">
        <ele>114</ele>
        <time>2011-11-13T10:47:03Z</time>
      </trkpt>
      <trkpt lat="49.21144" lon="2.27865">
        <ele>114</ele>
        <time>2011-11-13T10:47:05Z</time>
      </trkpt>
      <trkpt lat="49.21133" lon="2.27872">
        <ele>114</ele>
        <time>2011-11-13T10:47:07Z</time>
      </trkpt>
      <trkpt lat="49.21121" lon="2.27886">
        <ele>114</ele>
        <time>2011-11-13T10:47:09Z</time>
      </trkpt>
      <trkpt lat="49.21104" lon="2.27894">
        <ele>114</ele>
        <time>2011-11-13T10:47:11Z</time>
      </trkpt>
      <trkpt lat="49.21094" lon="2.27895">
        <ele>114</ele>
        <time>2011-11-13T10:47:12Z</time>
      </trkpt>
      <trkpt lat="49.21081" lon="2.27898">
        <ele>114</ele>
        <time>2011-11-13T10:47:13Z</time>
      </trkpt>
      <trkpt lat="49.21068" lon="2.27901">
        <ele>114</ele>
        <time>2011-11-13T10:47:14Z</time>
      </trkpt>
      <trkpt lat="49.21054" lon="2.27905">
        <ele>114</ele>
        <time>2011-11-13T10:47:15Z</time>
      </trkpt>
      <trkpt lat="49.2104" lon="2.2791">
        <ele>114</ele>
        <time>2011-11-13T10:47:16Z</time>
      </trkpt>
      <trkpt lat="49.21025" lon="2.27915">
        <ele>114</ele>
        <time>2011-11-13T10:47:17Z</time>
      </trkpt>
      <trkpt lat="49.21009" lon="2.27921">
        <ele>114</ele>
        <time>2011-11-13T10:47:18Z</time>
      </trkpt>
      <trkpt lat="49.20992" lon="2.27925">
        <ele>114</ele>
        <time>2011-11-13T10:47:19Z</time>
      </trkpt>
      <trkpt lat="49.20976" lon="2.2793">
        <ele>114</ele>
        <time>2011-11-13T10:47:20Z</time>
      </trkpt>
      <trkpt lat="49.20959" lon="2.27934">
        <ele>114</ele>
        <time>2011-11-13T10:47:21Z</time>
      </trkpt>
      <trkpt lat="49.20941" lon="2.27939">
        <ele>114</ele>
        <time>2011-11-13T10:47:22Z</time>
      </trkpt>
      <trkpt lat="49.20923" lon="2.27943">
        <ele>114</ele>
        <time>2011-11-13T10:47:23Z</time>
      </trkpt>
      <trkpt lat="49.20905" lon="2.27948">
        <ele>114</ele>
        <time>2011-11-13T10:47:24Z</time>
      </trkpt>
      <trkpt lat="49.20887" lon="2.27952">
        <ele>114</ele>
        <time>2011-11-13T10:47:25Z</time>
      </trkpt>
      <trkpt lat="49.20869" lon="2.27957">
        <ele>114</ele>
        <time>2011-11-13T10:47:26Z</time>
      </trkpt>
      <trkpt lat="49.2085" lon="2.27961">
        <ele>114</ele>
        <time>2011-11-13T10:47:27Z</time>
      </trkpt>
      <trkpt lat="49.20833" lon="2.27966">
        <ele>108</ele>
        <time>2011-11-13T10:47:28Z</time>
      </trkpt>
      <trkpt lat="49.20815" lon="2.2797">
        <ele>108</ele>
        <time>2011-11-13T10:47:29Z</time>
      </trkpt>
      <trkpt lat="49.20798" lon="2.27975">
        <ele>108</ele>
        <time>2011-11-13T10:47:30Z</time>
      </trkpt>
      <trkpt lat="49.20781" lon="2.27979">
        <ele>108</ele>
        <time>2011-11-13T10:47:31Z</time>
      </trkpt>
      <trkpt lat="49.20765" lon="2.27983">
        <ele>108</ele>
        <time>2011-11-13T10:47:32Z</time>
      </trkpt>
      <trkpt lat="49.20747" lon="2.27988">
        <ele>108</ele>
        <time>2011-11-13T10:47:33Z</time>
      </trkpt>
      <trkpt lat="49.2073" lon="2.27992">
        <ele>108</ele>
        <time>2011-11-13T10:47:34Z</time>
      </trkpt>
      <trkpt lat="49.20713" lon="2.27996">
        <ele>108</ele>
        <time>2011-11-13T10:47:35Z</time>
      </trkpt>
      <trkpt lat="49.20696" lon="2.28">
        <ele>108</ele>
        <time>2011-11-13T10:47:36Z</time>
      </trkpt>
      <trkpt lat="49.20679" lon="2.28004">
        <ele>108</ele>
        <time>2011-11-13T10:47:37Z</time>
      </trkpt>
      <trkpt lat="49.20662" lon="2.28009">
        <ele>108</ele>
        <time>2011-11-13T10:47:38Z</time>
      </trkpt>
      <trkpt lat="49.20645" lon="2.28013">
        <ele>108</ele>
        <time>2011-11-13T10:47:39Z</time>
      </trkpt>
      <trkpt lat="49.20629" lon="2.28017">
        <ele>108</ele>
        <time>2011-11-13T10:47:40Z</time>
      </trkpt>
      <trkpt lat="49.20612" lon="2.2802">
        <ele>108</ele>
        <time>2011-11-13T10:47:41Z</time>
      </trkpt>
      <trkpt lat="49.20596" lon="2.28025">
        <ele>108</ele>
        <time>2011-11-13T10:47:42Z</time>
      </trkpt>
      <trkpt lat="49.2058" lon="2.28028">
        <ele>108</ele>
        <time>2011-11-13T10:47:43Z</time>
      </trkpt>
      <trkpt lat="49.20563" lon="2.28033">
        <ele>108</ele>
        <time>2011-11-13T10:47:44Z</time>
      </trkpt>
      <trkpt lat="49.20547" lon="2.28036">
        <ele>103</ele>
        <time>2011-11-13T10:47:45Z</time>
      </trkpt>
      <trkpt lat="49.20532" lon="2.2804">
        <ele>103</ele>
        <time>2011-11-13T10:47:46Z</time>
      </trkpt>
      <trkpt lat="49.20516" lon="2.28045">
        <ele>103</ele>
        <time>2011-11-13T10:47:47Z</time>
      </trkpt>
      <trkpt lat="49.20501" lon="2.28048">
        <ele>103</ele>
        <time>2011-11-13T10:47:48Z</time>
      </trkpt>
      <trkpt lat="49.20486" lon="2.28053">
        <ele>103</ele>
        <time>2011-11-13T10:47:49Z</time>
      </trkpt>
      <trkpt lat="49.2047" lon="2.28056">
        <ele>103</ele>
        <time>2011-11-13T10:47:50Z</time>
      </trkpt>
      <trkpt lat="49.20455" lon="2.28061">
        <ele>103</ele>
        <time>2011-11-13T10:47:51Z</time>
      </trkpt>
      <trkpt lat="49.2044" lon="2.28064">
        <ele>103</ele>
        <time>2011-11-13T10:47:52Z</time>
      </trkpt>
      <trkpt lat="49.20423" lon="2.28068">
        <ele>103</ele>
        <time>2011-11-13T10:47:53Z</time>
      </trkpt>
      <trkpt lat="49.20407" lon="2.28072">
        <ele>103</ele>
        <time>2011-11-13T10:47:54Z</time>
      </trkpt>
      <trkpt lat="49.20391" lon="2.28076">
        <ele>103</ele>
        <time>2011-11-13T10:47:55Z</time>
      </trkpt>
      <trkpt lat="49.20375" lon="2.28081">
        <ele>103</ele>
        <time>2011-11-13T10:47:56Z</time>
      </trkpt>
      <trkpt lat="49.2036" lon="2.28085">
        <ele>103</ele>
        <time>2011-11-13T10:47:57Z</time>
      </trkpt>
      <trkpt lat="49.20344" lon="2.28089">
        <ele>103</ele>
        <time>2011-11-13T10:47:58Z</time>
      </trkpt>
      <trkpt lat="49.2033" lon="2.28093">
        <ele>103</ele>
        <time>2011-11-13T10:47:59Z</time>
      </trkpt>
      <trkpt lat="49.20315" lon="2.28097">
        <ele>103</ele>
        <time>2011-11-13T10:48:00Z</time>
      </trkpt>
      <trkpt lat="49.20301" lon="2.28099">
        <ele>98</ele>
        <time>2011-11-13T10:48:01Z</time>
      </trkpt>
      <trkpt lat="49.20287" lon="2.28103">
        <ele>98</ele>
        <time>2011-11-13T10:48:02Z</time>
      </trkpt>
      <trkpt lat="49.20272" lon="2.28107">
        <ele>98</ele>
        <time>2011-11-13T10:48:03Z</time>
      </trkpt>
      <trkpt lat="49.20258" lon="2.2811">
        <ele>98</ele>
        <time>2011-11-13T10:48:04Z</time>
      </trkpt>
      <trkpt lat="49.20244" lon="2.28113">
        <ele>98</ele>
        <time>2011-11-13T10:48:05Z</time>
      </trkpt>
      <trkpt lat="49.20229" lon="2.28116">
        <ele>98</ele>
        <time>2011-11-13T10:48:06Z</time>
      </trkpt>
      <trkpt lat="49.20215" lon="2.2812">
        <ele>98</ele>
        <time>2011-11-13T10:48:07Z</time>
      </trkpt>
      <trkpt lat="49.20201" lon="2.28124">
        <ele>98</ele>
        <time>2011-11-13T10:48:08Z</time>
      </trkpt>
      <trkpt lat="49.20187" lon="2.28127">
        <ele>98</ele>
        <time>2011-11-13T10:48:09Z</time>
      </trkpt>
      <trkpt lat="49.20172" lon="2.28131">
        <ele>98</ele>
        <time>2011-11-13T10:48:10Z</time>
      </trkpt>
      <trkpt lat="49.20158" lon="2.28134">
        <ele>98</ele>
        <time>2011-11-13T10:48:11Z</time>
      </trkpt>
      <trkpt lat="49.20145" lon="2.28137">
        <ele>98</ele>
        <time>2011-11-13T10:48:12Z</time>
      </trkpt>
      <trkpt lat="49.20131" lon="2.28141">
        <ele>98</ele>
        <time>2011-11-13T10:48:13Z</time>
      </trkpt>
      <trkpt lat="49.20118" lon="2.28143">
        <ele>98</ele>
        <time>2011-11-13T10:48:14Z</time>
      </trkpt>
      <trkpt lat="49.20105" lon="2.28147">
        <ele>98</ele>
        <time>2011-11-13T10:48:15Z</time>
      </trkpt>
      <trkpt lat="49.20092" lon="2.2815">
        <ele>98</ele>
        <time>2011-11-13T10:48:16Z</time>
      </trkpt>
      <trkpt lat="49.20079" lon="2.28152">
        <ele>93</ele>
        <time>2011-11-13T10:48:17Z</time>
      </trkpt>
      <trkpt lat="49.20066" lon="2.28155">
        <ele>93</ele>
        <time>2011-11-13T10:48:18Z</time>
      </trkpt>
      <trkpt lat="49.20053" lon="2.28158">
        <ele>93</ele>
        <time>2011-11-13T10:48:19Z</time>
      </trkpt>
      <trkpt lat="49.20042" lon="2.2816">
        <ele>93</ele>
        <time>2011-11-13T10:48:20Z</time>
      </trkpt>
      <trkpt lat="49.2003" lon="2.28163">
        <ele>93</ele>
        <time>2011-11-13T10:48:21Z</time>
      </trkpt>
      <trkpt lat="49.20019" lon="2.28165">
        <ele>93</ele>
        <time>2011-11-13T10:48:22Z</time>
      </trkpt>
      <trkpt lat="49.20009" lon="2.28168">
        <ele>93</ele>
        <time>2011-11-13T10:48:23Z</time>
      </trkpt>
      <trkpt lat="49.2" lon="2.28169">
        <ele>93</ele>
        <time>2011-11-13T10:48:24Z</time>
      </trkpt>
      <trkpt lat="49.19985" lon="2.28174">
        <ele>93</ele>
        <time>2011-11-13T10:48:26Z</time>
      </trkpt>
      <trkpt lat="49.19973" lon="2.28172">
        <ele>93</ele>
        <time>2011-11-13T10:48:28Z</time>
      </trkpt>
      <trkpt lat="49.19968" lon="2.2816">
        <ele>86</ele>
        <time>2011-11-13T10:48:33Z</time>
      </trkpt>
      <trkpt lat="49.19967" lon="2.28144">
        <ele>86</ele>
        <time>2011-11-13T10:48:48Z</time>
      </trkpt>
      <trkpt lat="49.19966" lon="2.28129">
        <ele>86</ele>
        <time>2011-11-13T10:48:50Z</time>
      </trkpt>
      <trkpt lat="49.19968" lon="2.28108">
        <ele>86</ele>
        <time>2011-11-13T10:48:52Z</time>
      </trkpt>
      <trkpt lat="49.1997" lon="2.28086">
        <ele>86</ele>
        <time>2011-11-13T10:48:54Z</time>
      </trkpt>
      <trkpt lat="49.19973" lon="2.28058">
        <ele>86</ele>
        <time>2011-11-13T10:48:56Z</time>
      </trkpt>
      <trkpt lat="49.19975" lon="2.28043">
        <ele>86</ele>
        <time>2011-11-13T10:48:57Z</time>
      </trkpt>
      <trkpt lat="49.19977" lon="2.28027">
        <ele>86</ele>
        <time>2011-11-13T10:48:58Z</time>
      </trkpt>
      <trkpt lat="49.19979" lon="2.28009">
        <ele>86</ele>
        <time>2011-11-13T10:48:59Z</time>
      </trkpt>
      <trkpt lat="49.19981" lon="2.2799">
        <ele>86</ele>
        <time>2011-11-13T10:49:00Z</time>
      </trkpt>
      <trkpt lat="49.19983" lon="2.27969">
        <ele>86</ele>
        <time>2011-11-13T10:49:01Z</time>
      </trkpt>
      <trkpt lat="49.19985" lon="2.27948">
        <ele>86</ele>
        <time>2011-11-13T10:49:02Z</time>
      </trkpt>
      <trkpt lat="49.19987" lon="2.27927">
        <ele>86</ele>
        <time>2011-11-13T10:49:03Z</time>
      </trkpt>
      <trkpt lat="49.19989" lon="2.27905">
        <ele>86</ele>
        <time>2011-11-13T10:49:04Z</time>
      </trkpt>
      <trkpt lat="49.1999" lon="2.27883">
        <ele>86</ele>
        <time>2011-11-13T10:49:05Z</time>
      </trkpt>
      <trkpt lat="49.19992" lon="2.2786">
        <ele>86</ele>
        <time>2011-11-13T10:49:06Z</time>
      </trkpt>
      <trkpt lat="49.19993" lon="2.27838">
        <ele>86</ele>
        <time>2011-11-13T10:49:07Z</time>
      </trkpt>
      <trkpt lat="49.19995" lon="2.27816">
        <ele>91</ele>
        <time>2011-11-13T10:49:08Z</time>
      </trkpt>
      <trkpt lat="49.19997" lon="2.27794">
        <ele>91</ele>
        <time>2011-11-13T10:49:09Z</time>
      </trkpt>
      <trkpt lat="49.19999" lon="2.27773">
        <ele>91</ele>
        <time>2011-11-13T10:49:10Z</time>
      </trkpt>
      <trkpt lat="49.20002" lon="2.27754">
        <ele>91</ele>
        <time>2011-11-13T10:49:11Z</time>
      </trkpt>
      <trkpt lat="49.20006" lon="2.27735">
        <ele>91</ele>
        <time>2011-11-13T10:49:12Z</time>
      </trkpt>
      <trkpt lat="49.20011" lon="2.27716">
        <ele>91</ele>
        <time>2011-11-13T10:49:13Z</time>
      </trkpt>
      <trkpt lat="49.20015" lon="2.27697">
        <ele>91</ele>
        <time>2011-11-13T10:49:14Z</time>
      </trkpt>
      <trkpt lat="49.2002" lon="2.27679">
        <ele>96</ele>
        <time>2011-11-13T10:49:15Z</time>
      </trkpt>
      <trkpt lat="49.20024" lon="2.27661">
        <ele>96</ele>
        <time>2011-11-13T10:49:16Z</time>
      </trkpt>
      <trkpt lat="49.20028" lon="2.27644">
        <ele>96</ele>
        <time>2011-11-13T10:49:17Z</time>
      </trkpt>
      <trkpt lat="49.20031" lon="2.27627">
        <ele>96</ele>
        <time>2011-11-13T10:49:18Z</time>
      </trkpt>
      <trkpt lat="49.20033" lon="2.2761">
        <ele>96</ele>
        <time>2011-11-13T10:49:19Z</time>
      </trkpt>
      <trkpt lat="49.20033" lon="2.27593">
        <ele>96</ele>
        <time>2011-11-13T10:49:20Z</time>
      </trkpt>
      <trkpt lat="49.20033" lon="2.27575">
        <ele>96</ele>
        <time>2011-11-13T10:49:21Z</time>
      </trkpt>
      <trkpt lat="49.20031" lon="2.27556">
        <ele>96</ele>
        <time>2011-11-13T10:49:22Z</time>
      </trkpt>
      <trkpt lat="49.20027" lon="2.27538">
        <ele>96</ele>
        <time>2011-11-13T10:49:23Z</time>
      </trkpt>
      <trkpt lat="49.20023" lon="2.27518">
        <ele>101</ele>
        <time>2011-11-13T10:49:24Z</time>
      </trkpt>
      <trkpt lat="49.2002" lon="2.27499">
        <ele>101</ele>
        <time>2011-11-13T10:49:25Z</time>
      </trkpt>
      <trkpt lat="49.20017" lon="2.27481">
        <ele>101</ele>
        <time>2011-11-13T10:49:26Z</time>
      </trkpt>
      <trkpt lat="49.20013" lon="2.27464">
        <ele>101</ele>
        <time>2011-11-13T10:49:27Z</time>
      </trkpt>
      <trkpt lat="49.20011" lon="2.27447">
        <ele>101</ele>
        <time>2011-11-13T10:49:28Z</time>
      </trkpt>
      <trkpt lat="49.20008" lon="2.27432">
        <ele>101</ele>
        <time>2011-11-13T10:49:29Z</time>
      </trkpt>
      <trkpt lat="49.20006" lon="2.27417">
        <ele>101</ele>
        <time>2011-11-13T10:49:30Z</time>
      </trkpt>
      <trkpt lat="49.20003" lon="2.27403">
        <ele>101</ele>
        <time>2011-11-13T10:49:31Z</time>
      </trkpt>
      <trkpt lat="49.20001" lon="2.2739">
        <ele>101</ele>
        <time>2011-11-13T10:49:32Z</time>
      </trkpt>
      <trkpt lat="49.19998" lon="2.27367">
        <ele>101</ele>
        <time>2011-11-13T10:49:34Z</time>
      </trkpt>
      <trkpt lat="49.19995" lon="2.2735">
        <ele>101</ele>
        <time>2011-11-13T10:49:36Z</time>
      </trkpt>
      <trkpt lat="49.1999" lon="2.27337">
        <ele>101</ele>
        <time>2011-11-13T10:49:39Z</time>
      </trkpt>
      <trkpt lat="49.19981" lon="2.27343">
        <ele>101</ele>
        <time>2011-11-13T10:49:43Z</time>
      </trkpt>
      <trkpt lat="49.19971" lon="2.27355">
        <ele>101</ele>
        <time>2011-11-13T10:51:59Z</time>
      </trkpt>
      <trkpt lat="49.19961" lon="2.27362">
        <ele>101</ele>
        <time>2011-11-13T10:52:01Z</time>
      </trkpt>
      <trkpt lat="49.19948" lon="2.27373">
        <ele>101</ele>
        <time>2011-11-13T10:52:03Z</time>
      </trkpt>
      <trkpt lat="49.19939" lon="2.27379">
        <ele>101</ele>
        <time>2011-11-13T10:52:04Z</time>
      </trkpt>
      <trkpt lat="49.19923" lon="2.27391">
        <ele>101</ele>
        <time>2011-11-13T10:52:06Z</time>
      </trkpt>
      <trkpt lat="49.19915" lon="2.27398">
        <ele>101</ele>
        <time>2011-11-13T10:52:07Z</time>
      </trkpt>
      <trkpt lat="49.19906" lon="2.27405">
        <ele>101</ele>
        <time>2011-11-13T10:52:08Z</time>
      </trkpt>
      <trkpt lat="49.19898" lon="2.27411">
        <ele>101</ele>
        <time>2011-11-13T10:52:09Z</time>
      </trkpt>
      <trkpt lat="49.19889" lon="2.27418">
        <ele>101</ele>
        <time>2011-11-13T10:52:10Z</time>
      </trkpt>
      <trkpt lat="49.1988" lon="2.27425">
        <ele>101</ele>
        <time>2011-11-13T10:52:11Z</time>
      </trkpt>
      <trkpt lat="49.1987" lon="2.27432">
        <ele>101</ele>
        <time>2011-11-13T10:52:12Z</time>
      </trkpt>
      <trkpt lat="49.1986" lon="2.27439">
        <ele>101</ele>
        <time>2011-11-13T10:52:13Z</time>
      </trkpt>
      <trkpt lat="49.19851" lon="2.27447">
        <ele>101</ele>
        <time>2011-11-13T10:52:14Z</time>
      </trkpt>
      <trkpt lat="49.19841" lon="2.27454">
        <ele>101</ele>
        <time>2011-11-13T10:52:15Z</time>
      </trkpt>
      <trkpt lat="49.19832" lon="2.27461">
        <ele>101</ele>
        <time>2011-11-13T10:52:16Z</time>
      </trkpt>
      <trkpt lat="49.19822" lon="2.27467">
        <ele>101</ele>
        <time>2011-11-13T10:52:17Z</time>
      </trkpt>
      <trkpt lat="49.19813" lon="2.27474">
        <ele>101</ele>
        <time>2011-11-13T10:52:18Z</time>
      </trkpt>
      <trkpt lat="49.19803" lon="2.27481">
        <ele>101</ele>
        <time>2011-11-13T10:52:19Z</time>
      </trkpt>
      <trkpt lat="49.19793" lon="2.27489">
        <ele>101</ele>
        <time>2011-11-13T10:52:20Z</time>
      </trkpt>
      <trkpt lat="49.19783" lon="2.27497">
        <ele>101</ele>
        <time>2011-11-13T10:52:21Z</time>
      </trkpt>
      <trkpt lat="49.19773" lon="2.27505">
        <ele>101</ele>
        <time>2011-11-13T10:52:22Z</time>
      </trkpt>
      <trkpt lat="49.19763" lon="2.27512">
        <ele>101</ele>
        <time>2011-11-13T10:52:23Z</time>
      </trkpt>
      <trkpt lat="49.19753" lon="2.2752">
        <ele>101</ele>
        <time>2011-11-13T10:52:24Z</time>
      </trkpt>
      <trkpt lat="49.19743" lon="2.27527">
        <ele>101</ele>
        <time>2011-11-13T10:52:25Z</time>
      </trkpt>
      <trkpt lat="49.19733" lon="2.27534">
        <ele>101</ele>
        <time>2011-11-13T10:52:26Z</time>
      </trkpt>
      <trkpt lat="49.19724" lon="2.27542">
        <ele>101</ele>
        <time>2011-11-13T10:52:27Z</time>
      </trkpt>
      <trkpt lat="49.19714" lon="2.2755">
        <ele>96</ele>
        <time>2011-11-13T10:52:28Z</time>
      </trkpt>
      <trkpt lat="49.19704" lon="2.27557">
        <ele>96</ele>
        <time>2011-11-13T10:52:29Z</time>
      </trkpt>
      <trkpt lat="49.19694" lon="2.27565">
        <ele>96</ele>
        <time>2011-11-13T10:52:30Z</time>
      </trkpt>
      <trkpt lat="49.19684" lon="2.27572">
        <ele>96</ele>
        <time>2011-11-13T10:52:31Z</time>
      </trkpt>
      <trkpt lat="49.19675" lon="2.2758">
        <ele>96</ele>
        <time>2011-11-13T10:52:32Z</time>
      </trkpt>
      <trkpt lat="49.19665" lon="2.27587">
        <ele>96</ele>
        <time>2011-11-13T10:52:33Z</time>
      </trkpt>
      <trkpt lat="49.19656" lon="2.27594">
        <ele>96</ele>
        <time>2011-11-13T10:52:34Z</time>
      </trkpt>
      <trkpt lat="49.19647" lon="2.27601">
        <ele>96</ele>
        <time>2011-11-13T10:52:35Z</time>
      </trkpt>
      <trkpt lat="49.19639" lon="2.27607">
        <ele>96</ele>
        <time>2011-11-13T10:52:36Z</time>
      </trkpt>
      <trkpt lat="49.19624" lon="2.2762">
        <ele>96</ele>
        <time>2011-11-13T10:52:38Z</time>
      </trkpt>
      <trkpt lat="49.19609" lon="2.2763">
        <ele>96</ele>
        <time>2011-11-13T10:52:40Z</time>
      </trkpt>
      <trkpt lat="49.19594" lon="2.27642">
        <ele>90</ele>
        <time>2011-11-13T10:52:42Z</time>
      </trkpt>
      <trkpt lat="49.19586" lon="2.27648">
        <ele>90</ele>
        <time>2011-11-13T10:52:43Z</time>
      </trkpt>
      <trkpt lat="49.19578" lon="2.27655">
        <ele>90</ele>
        <time>2011-11-13T10:52:44Z</time>
      </trkpt>
      <trkpt lat="49.1957" lon="2.27662">
        <ele>90</ele>
        <time>2011-11-13T10:52:45Z</time>
      </trkpt>
      <trkpt lat="49.19561" lon="2.27668">
        <ele>90</ele>
        <time>2011-11-13T10:52:46Z</time>
      </trkpt>
      <trkpt lat="49.19552" lon="2.27674">
        <ele>90</ele>
        <time>2011-11-13T10:52:47Z</time>
      </trkpt>
      <trkpt lat="49.19543" lon="2.27682">
        <ele>90</ele>
        <time>2011-11-13T10:52:48Z</time>
      </trkpt>
      <trkpt lat="49.19535" lon="2.27689">
        <ele>90</ele>
        <time>2011-11-13T10:52:49Z</time>
      </trkpt>
      <trkpt lat="49.19526" lon="2.27695">
        <ele>90</ele>
        <time>2011-11-13T10:52:50Z</time>
      </trkpt>
      <trkpt lat="49.19518" lon="2.27702">
        <ele>90</ele>
        <time>2011-11-13T10:52:51Z</time>
      </trkpt>
      <trkpt lat="49.19509" lon="2.27709">
        <ele>90</ele>
        <time>2011-11-13T10:52:52Z</time>
      </trkpt>
      <trkpt lat="49.195" lon="2.27716">
        <ele>90</ele>
        <time>2011-11-13T10:52:53Z</time>
      </trkpt>
      <trkpt lat="49.19492" lon="2.27722">
        <ele>90</ele>
        <time>2011-11-13T10:52:54Z</time>
      </trkpt>
      <trkpt lat="49.19483" lon="2.27728">
        <ele>90</ele>
        <time>2011-11-13T10:52:55Z</time>
      </trkpt>
      <trkpt lat="49.19475" lon="2.27735">
        <ele>90</ele>
        <time>2011-11-13T10:52:56Z</time>
      </trkpt>
      <trkpt lat="49.19466" lon="2.27742">
        <ele>90</ele>
        <time>2011-11-13T10:52:57Z</time>
      </trkpt>
      <trkpt lat="49.19457" lon="2.27749">
        <ele>90</ele>
        <time>2011-11-13T10:52:58Z</time>
      </trkpt>
      <trkpt lat="49.19448" lon="2.27755">
        <ele>90</ele>
        <time>2011-11-13T10:52:59Z</time>
      </trkpt>
      <trkpt lat="49.19438" lon="2.27763">
        <ele>90</ele>
        <time>2011-11-13T10:53:00Z</time>
      </trkpt>
      <trkpt lat="49.19429" lon="2.27769">
        <ele>90</ele>
        <time>2011-11-13T10:53:01Z</time>
      </trkpt>
      <trkpt lat="49.19419" lon="2.27777">
        <ele>90</ele>
        <time>2011-11-13T10:53:02Z</time>
      </trkpt>
      <trkpt lat="49.19409" lon="2.27784">
        <ele>90</ele>
        <time>2011-11-13T10:53:03Z</time>
      </trkpt>
      <trkpt lat="49.19399" lon="2.27791">
        <ele>90</ele>
        <time>2011-11-13T10:53:04Z</time>
      </trkpt>
      <trkpt lat="49.19389" lon="2.27798">
        <ele>90</ele>
        <time>2011-11-13T10:53:05Z</time>
      </trkpt>
      <trkpt lat="49.19379" lon="2.27806">
        <ele>90</ele>
        <time>2011-11-13T10:53:06Z</time>
      </trkpt>
      <trkpt lat="49.1937" lon="2.27813">
        <ele>90</ele>
        <time>2011-11-13T10:53:07Z</time>
      </trkpt>
      <trkpt lat="49.19361" lon="2.2782">
        <ele>85</ele>
        <time>2011-11-13T10:53:08Z</time>
      </trkpt>
      <trkpt lat="49.19351" lon="2.27827">
        <ele>85</ele>
        <time>2011-11-13T10:53:09Z</time>
      </trkpt>
      <trkpt lat="49.19342" lon="2.27834">
        <ele>85</ele>
        <time>2011-11-13T10:53:10Z</time>
      </trkpt>
      <trkpt lat="49.19333" lon="2.27842">
        <ele>85</ele>
        <time>2011-11-13T10:53:11Z</time>
      </trkpt>
      <trkpt lat="49.19323" lon="2.27848">
        <ele>85</ele>
        <time>2011-11-13T10:53:12Z</time>
      </trkpt>
      <trkpt lat="49.19315" lon="2.27854">
        <ele>85</ele>
        <time>2011-11-13T10:53:13Z</time>
      </trkpt>
      <trkpt lat="49.19305" lon="2.27859">
        <ele>85</ele>
        <time>2011-11-13T10:53:14Z</time>
      </trkpt>
      <trkpt lat="49.19296" lon="2.27863">
        <ele>85</ele>
        <time>2011-11-13T10:53:15Z</time>
      </trkpt>
      <trkpt lat="49.19288" lon="2.27867">
        <ele>85</ele>
        <time>2011-11-13T10:53:16Z</time>
      </trkpt>
      <trkpt lat="49.1927" lon="2.2787">
        <ele>85</ele>
        <time>2011-11-13T10:53:18Z</time>
      </trkpt>
      <trkpt lat="49.1926" lon="2.27871">
        <ele>85</ele>
        <time>2011-11-13T10:53:19Z</time>
      </trkpt>
      <trkpt lat="49.19242" lon="2.27873">
        <ele>85</ele>
        <time>2011-11-13T10:53:21Z</time>
      </trkpt>
      <trkpt lat="49.19232" lon="2.27874">
        <ele>85</ele>
        <time>2011-11-13T10:53:22Z</time>
      </trkpt>
      <trkpt lat="49.19223" lon="2.27875">
        <ele>79</ele>
        <time>2011-11-13T10:53:23Z</time>
      </trkpt>
      <trkpt lat="49.19212" lon="2.27876">
        <ele>79</ele>
        <time>2011-11-13T10:53:24Z</time>
      </trkpt>
      <trkpt lat="49.19202" lon="2.27877">
        <ele>79</ele>
        <time>2011-11-13T10:53:25Z</time>
      </trkpt>
      <trkpt lat="49.19191" lon="2.27877">
        <ele>79</ele>
        <time>2011-11-13T10:53:26Z</time>
      </trkpt>
      <trkpt lat="49.1918" lon="2.27879">
        <ele>79</ele>
        <time>2011-11-13T10:53:27Z</time>
      </trkpt>
      <trkpt lat="49.19169" lon="2.2788">
        <ele>79</ele>
        <time>2011-11-13T10:53:28Z</time>
      </trkpt>
      <trkpt lat="49.19158" lon="2.27882">
        <ele>79</ele>
        <time>2011-11-13T10:53:29Z</time>
      </trkpt>
      <trkpt lat="49.19147" lon="2.27884">
        <ele>79</ele>
        <time>2011-11-13T10:53:30Z</time>
      </trkpt>
      <trkpt lat="49.19135" lon="2.27886">
        <ele>79</ele>
        <time>2011-11-13T10:53:31Z</time>
      </trkpt>
      <trkpt lat="49.19123" lon="2.27887">
        <ele>79</ele>
        <time>2011-11-13T10:53:32Z</time>
      </trkpt>
      <trkpt lat="49.19112" lon="2.27889">
        <ele>79</ele>
        <time>2011-11-13T10:53:33Z</time>
      </trkpt>
      <trkpt lat="49.19101" lon="2.2789">
        <ele>79</ele>
        <time>2011-11-13T10:53:34Z</time>
      </trkpt>
      <trkpt lat="49.1909" lon="2.27891">
        <ele>79</ele>
        <time>2011-11-13T10:53:35Z</time>
      </trkpt>
      <trkpt lat="49.19079" lon="2.27892">
        <ele>79</ele>
        <time>2011-11-13T10:53:36Z</time>
      </trkpt>
      <trkpt lat="49.19069" lon="2.27893">
        <ele>79</ele>
        <time>2011-11-13T10:53:37Z</time>
      </trkpt>
      <trkpt lat="49.19057" lon="2.27894">
        <ele>74</ele>
        <time>2011-11-13T10:53:38Z</time>
      </trkpt>
      <trkpt lat="49.19046" lon="2.27895">
        <ele>74</ele>
        <time>2011-11-13T10:53:39Z</time>
      </trkpt>
      <trkpt lat="49.19033" lon="2.27896">
        <ele>74</ele>
        <time>2011-11-13T10:53:40Z</time>
      </trkpt>
      <trkpt lat="49.19021" lon="2.27897">
        <ele>74</ele>
        <time>2011-11-13T10:53:41Z</time>
      </trkpt>
      <trkpt lat="49.1901" lon="2.27899">
        <ele>74</ele>
        <time>2011-11-13T10:53:42Z</time>
      </trkpt>
      <trkpt lat="49.18998" lon="2.279">
        <ele>74</ele>
        <time>2011-11-13T10:53:43Z</time>
      </trkpt>
      <trkpt lat="49.18987" lon="2.27901">
        <ele>74</ele>
        <time>2011-11-13T10:53:44Z</time>
      </trkpt>
      <trkpt lat="49.18976" lon="2.27903">
        <ele>74</ele>
        <time>2011-11-13T10:53:45Z</time>
      </trkpt>
      <trkpt lat="49.18966" lon="2.27904">
        <ele>74</ele>
        <time>2011-11-13T10:53:46Z</time>
      </trkpt>
      <trkpt lat="49.18956" lon="2.27904">
        <ele>74</ele>
        <time>2011-11-13T10:53:47Z</time>
      </trkpt>
      <trkpt lat="49.18938" lon="2.27906">
        <ele>74</ele>
        <time>2011-11-13T10:53:49Z</time>
      </trkpt>
      <trkpt lat="49.18924" lon="2.27908">
        <ele>74</ele>
        <time>2011-11-13T10:53:51Z</time>
      </trkpt>
      <trkpt lat="49.18909" lon="2.2791">
        <ele>74</ele>
        <time>2011-11-13T10:53:53Z</time>
      </trkpt>
      <trkpt lat="49.18891" lon="2.27913">
        <ele>74</ele>
        <time>2011-11-13T10:53:55Z</time>
      </trkpt>
      <trkpt lat="49.18882" lon="2.27914">
        <ele>69</ele>
        <time>2011-11-13T10:53:56Z</time>
      </trkpt>
      <trkpt lat="49.18872" lon="2.27915">
        <ele>69</ele>
        <time>2011-11-13T10:53:57Z</time>
      </trkpt>
      <trkpt lat="49.18862" lon="2.27917">
        <ele>69</ele>
        <time>2011-11-13T10:53:58Z</time>
      </trkpt>
      <trkpt lat="49.18853" lon="2.27918">
        <ele>69</ele>
        <time>2011-11-13T10:53:59Z</time>
      </trkpt>
      <trkpt lat="49.18843" lon="2.27919">
        <ele>69</ele>
        <time>2011-11-13T10:54:00Z</time>
      </trkpt>
      <trkpt lat="49.18834" lon="2.2792">
        <ele>69</ele>
        <time>2011-11-13T10:54:01Z</time>
      </trkpt>
      <trkpt lat="49.18824" lon="2.27921">
        <ele>69</ele>
        <time>2011-11-13T10:54:02Z</time>
      </trkpt>
      <trkpt lat="49.18814" lon="2.27922">
        <ele>69</ele>
        <time>2011-11-13T10:54:03Z</time>
      </trkpt>
      <trkpt lat="49.18804" lon="2.27923">
        <ele>69</ele>
        <time>2011-11-13T10:54:04Z</time>
      </trkpt>
      <trkpt lat="49.18793" lon="2.27925">
        <ele>69</ele>
        <time>2011-11-13T10:54:05Z</time>
      </trkpt>
      <trkpt lat="49.18781" lon="2.27927">
        <ele>69</ele>
        <time>2011-11-13T10:54:06Z</time>
      </trkpt>
      <trkpt lat="49.18769" lon="2.27929">
        <ele>69</ele>
        <time>2011-11-13T10:54:07Z</time>
      </trkpt>
      <trkpt lat="49.18758" lon="2.2793">
        <ele>69</ele>
        <time>2011-11-13T10:54:08Z</time>
      </trkpt>
      <trkpt lat="49.18745" lon="2.27932">
        <ele>69</ele>
        <time>2011-11-13T10:54:09Z</time>
      </trkpt>
      <trkpt lat="49.18734" lon="2.27933">
        <ele>69</ele>
        <time>2011-11-13T10:54:10Z</time>
      </trkpt>
      <trkpt lat="49.18722" lon="2.27935">
        <ele>69</ele>
        <time>2011-11-13T10:54:11Z</time>
      </trkpt>
      <trkpt lat="49.1871" lon="2.27936">
        <ele>69</ele>
        <time>2011-11-13T10:54:12Z</time>
      </trkpt>
      <trkpt lat="49.18698" lon="2.27937">
        <ele>69</ele>
        <time>2011-11-13T10:54:13Z</time>
      </trkpt>
      <trkpt lat="49.18686" lon="2.27939">
        <ele>64</ele>
        <time>2011-11-13T10:54:14Z</time>
      </trkpt>
      <trkpt lat="49.18674" lon="2.27941">
        <ele>64</ele>
        <time>2011-11-13T10:54:15Z</time>
      </trkpt>
      <trkpt lat="49.18662" lon="2.27944">
        <ele>64</ele>
        <time>2011-11-13T10:54:16Z</time>
      </trkpt>
      <trkpt lat="49.18651" lon="2.27946">
        <ele>64</ele>
        <time>2011-11-13T10:54:17Z</time>
      </trkpt>
      <trkpt lat="49.18639" lon="2.27947">
        <ele>64</ele>
        <time>2011-11-13T10:54:18Z</time>
      </trkpt>
      <trkpt lat="49.18628" lon="2.27948">
        <ele>64</ele>
        <time>2011-11-13T10:54:19Z</time>
      </trkpt>
      <trkpt lat="49.18616" lon="2.27951">
        <ele>64</ele>
        <time>2011-11-13T10:54:20Z</time>
      </trkpt>
      <trkpt lat="49.18606" lon="2.27952">
        <ele>64</ele>
        <time>2011-11-13T10:54:21Z</time>
      </trkpt>
      <trkpt lat="49.18596" lon="2.27952">
        <ele>64</ele>
        <time>2011-11-13T10:54:22Z</time>
      </trkpt>
      <trkpt lat="49.18586" lon="2.27953">
        <ele>64</ele>
        <time>2011-11-13T10:54:23Z</time>
      </trkpt>
      <trkpt lat="49.18569" lon="2.27954">
        <ele>64</ele>
        <time>2011-11-13T10:54:25Z</time>
      </trkpt>
      <trkpt lat="49.18555" lon="2.27946">
        <ele>64</ele>
        <time>2011-11-13T10:54:27Z</time>
      </trkpt>
      <trkpt lat="49.18545" lon="2.27928">
        <ele>64</ele>
        <time>2011-11-13T10:54:29Z</time>
      </trkpt>
      <trkpt lat="49.18534" lon="2.27908">
        <ele>64</ele>
        <time>2011-11-13T10:54:31Z</time>
      </trkpt>
      <trkpt lat="49.18529" lon="2.27896">
        <ele>64</ele>
        <time>2011-11-13T10:54:32Z</time>
      </trkpt>
      <trkpt lat="49.18522" lon="2.27884">
        <ele>64</ele>
        <time>2011-11-13T10:54:33Z</time>
      </trkpt>
      <trkpt lat="49.18514" lon="2.2787">
        <ele>64</ele>
        <time>2011-11-13T10:54:34Z</time>
      </trkpt>
      <trkpt lat="49.18507" lon="2.27856">
        <ele>64</ele>
        <time>2011-11-13T10:54:35Z</time>
      </trkpt>
      <trkpt lat="49.18499" lon="2.27841">
        <ele>64</ele>
        <time>2011-11-13T10:54:36Z</time>
      </trkpt>
      <trkpt lat="49.18492" lon="2.27825">
        <ele>64</ele>
        <time>2011-11-13T10:54:37Z</time>
      </trkpt>
      <trkpt lat="49.18483" lon="2.2781">
        <ele>64</ele>
        <time>2011-11-13T10:54:38Z</time>
      </trkpt>
      <trkpt lat="49.18476" lon="2.27796">
        <ele>64</ele>
        <time>2011-11-13T10:54:39Z</time>
      </trkpt>
      <trkpt lat="49.18468" lon="2.27781">
        <ele>64</ele>
        <time>2011-11-13T10:54:40Z</time>
      </trkpt>
      <trkpt lat="49.1846" lon="2.27768">
        <ele>64</ele>
        <time>2011-11-13T10:54:41Z</time>
      </trkpt>
      <trkpt lat="49.18453" lon="2.27754">
        <ele>64</ele>
        <time>2011-11-13T10:54:42Z</time>
      </trkpt>
      <trkpt lat="49.18444" lon="2.27739">
        <ele>64</ele>
        <time>2011-11-13T10:54:43Z</time>
      </trkpt>
      <trkpt lat="49.18437" lon="2.27725">
        <ele>64</ele>
        <time>2011-11-13T10:54:44Z</time>
      </trkpt>
      <trkpt lat="49.18429" lon="2.27711">
        <ele>64</ele>
        <time>2011-11-13T10:54:45Z</time>
      </trkpt>
      <trkpt lat="49.18421" lon="2.27697">
        <ele>64</ele>
        <time>2011-11-13T10:54:46Z</time>
      </trkpt>
      <trkpt lat="49.18414" lon="2.27683">
        <ele>64</ele>
        <time>2011-11-13T10:54:47Z</time>
      </trkpt>
      <trkpt lat="49.18407" lon="2.27671">
        <ele>64</ele>
        <time>2011-11-13T10:54:48Z</time>
      </trkpt>
      <trkpt lat="49.184" lon="2.27659">
        <ele>64</ele>
        <time>2011-11-13T10:54:49Z</time>
      </trkpt>
      <trkpt lat="49.18394" lon="2.27647">
        <ele>64</ele>
        <time>2011-11-13T10:54:50Z</time>
      </trkpt>
      <trkpt lat="49.18388" lon="2.27636">
        <ele>64</ele>
        <time>2011-11-13T10:54:51Z</time>
      </trkpt>
      <trkpt lat="49.18376" lon="2.27617">
        <ele>64</ele>
        <time>2011-11-13T10:54:53Z</time>
      </trkpt>
      <trkpt lat="49.1837" lon="2.27605">
        <ele>64</ele>
        <time>2011-11-13T10:54:55Z</time>
      </trkpt>
      <trkpt lat="49.18361" lon="2.27599">
        <ele>58</ele>
        <time>2011-11-13T10:54:58Z</time>
      </trkpt>
      <trkpt lat="49.18351" lon="2.27602">
        <ele>58</ele>
        <time>2011-11-13T10:55:00Z</time>
      </trkpt>
      <trkpt lat="49.18338" lon="2.2761">
        <ele>58</ele>
        <time>2011-11-13T10:55:02Z</time>
      </trkpt>
      <trkpt lat="49.18321" lon="2.27621">
        <ele>58</ele>
        <time>2011-11-13T10:55:04Z</time>
      </trkpt>
      <trkpt lat="49.18311" lon="2.27626">
        <ele>58</ele>
        <time>2011-11-13T10:55:05Z</time>
      </trkpt>
      <trkpt lat="49.183" lon="2.2763">
        <ele>58</ele>
        <time>2011-11-13T10:55:06Z</time>
      </trkpt>
      <trkpt lat="49.1829" lon="2.27637">
        <ele>58</ele>
        <time>2011-11-13T10:55:07Z</time>
      </trkpt>
      <trkpt lat="49.1828" lon="2.27642">
        <ele>58</ele>
        <time>2011-11-13T10:55:08Z</time>
      </trkpt>
      <trkpt lat="49.18271" lon="2.27647">
        <ele>58</ele>
        <time>2011-11-13T10:55:09Z</time>
      </trkpt>
      <trkpt lat="49.18262" lon="2.27652">
        <ele>58</ele>
        <time>2011-11-13T10:55:10Z</time>
      </trkpt>
      <trkpt lat="49.18246" lon="2.27663">
        <ele>58</ele>
        <time>2011-11-13T10:55:12Z</time>
      </trkpt>
      <trkpt lat="49.18231" lon="2.27674">
        <ele>53</ele>
        <time>2011-11-13T10:55:14Z</time>
      </trkpt>
      <trkpt lat="49.18214" lon="2.27685">
        <ele>53</ele>
        <time>2011-11-13T10:55:16Z</time>
      </trkpt>
      <trkpt lat="49.18196" lon="2.27697">
        <ele>53</ele>
        <time>2011-11-13T10:55:18Z</time>
      </trkpt>
      <trkpt lat="49.18188" lon="2.27704">
        <ele>53</ele>
        <time>2011-11-13T10:55:19Z</time>
      </trkpt>
      <trkpt lat="49.18179" lon="2.27711">
        <ele>53</ele>
        <time>2011-11-13T10:55:20Z</time>
      </trkpt>
      <trkpt lat="49.18169" lon="2.27719">
        <ele>53</ele>
        <time>2011-11-13T10:55:21Z</time>
      </trkpt>
      <trkpt lat="49.18161" lon="2.27728">
        <ele>53</ele>
        <time>2011-11-13T10:55:22Z</time>
      </trkpt>
      <trkpt lat="49.18152" lon="2.27736">
        <ele>53</ele>
        <time>2011-11-13T10:55:23Z</time>
      </trkpt>
      <trkpt lat="49.18143" lon="2.27745">
        <ele>53</ele>
        <time>2011-11-13T10:55:24Z</time>
      </trkpt>
      <trkpt lat="49.18135" lon="2.27753">
        <ele>53</ele>
        <time>2011-11-13T10:55:25Z</time>
      </trkpt>
      <trkpt lat="49.18121" lon="2.27766">
        <ele>53</ele>
        <time>2011-11-13T10:55:27Z</time>
      </trkpt>
      <trkpt lat="49.18106" lon="2.2778">
        <ele>53</ele>
        <time>2011-11-13T10:55:29Z</time>
      </trkpt>
      <trkpt lat="49.18097" lon="2.27789">
        <ele>53</ele>
        <time>2011-11-13T10:55:30Z</time>
      </trkpt>
      <trkpt lat="49.18088" lon="2.27798">
        <ele>53</ele>
        <time>2011-11-13T10:55:31Z</time>
      </trkpt>
      <trkpt lat="49.18078" lon="2.27808">
        <ele>53</ele>
        <time>2011-11-13T10:55:32Z</time>
      </trkpt>
      <trkpt lat="49.18069" lon="2.27816">
        <ele>53</ele>
        <time>2011-11-13T10:55:33Z</time>
      </trkpt>
      <trkpt lat="49.1806" lon="2.27824">
        <ele>53</ele>
        <time>2011-11-13T10:55:34Z</time>
      </trkpt>
      <trkpt lat="49.18046" lon="2.27835">
        <ele>53</ele>
        <time>2011-11-13T10:55:36Z</time>
      </trkpt>
      <trkpt lat="49.18035" lon="2.27841">
        <ele>53</ele>
        <time>2011-11-13T10:55:38Z</time>
      </trkpt>
      <trkpt lat="49.18022" lon="2.27841">
        <ele>53</ele>
        <time>2011-11-13T10:55:41Z</time>
      </trkpt>
      <trkpt lat="49.18014" lon="2.27832">
        <ele>47</ele>
        <time>2011-11-13T10:55:46Z</time>
      </trkpt>
      <trkpt lat="49.18002" lon="2.2783">
        <ele>47</ele>
        <time>2011-11-13T10:55:53Z</time>
      </trkpt>
      <trkpt lat="49.17992" lon="2.27825">
        <ele>47</ele>
        <time>2011-11-13T10:55:55Z</time>
      </trkpt>
      <trkpt lat="49.17978" lon="2.27816">
        <ele>47</ele>
        <time>2011-11-13T10:55:57Z</time>
      </trkpt>
      <trkpt lat="49.17962" lon="2.27805">
        <ele>47</ele>
        <time>2011-11-13T10:55:59Z</time>
      </trkpt>
      <trkpt lat="49.17953" lon="2.27799">
        <ele>47</ele>
        <time>2011-11-13T10:56:00Z</time>
      </trkpt>
      <trkpt lat="49.17943" lon="2.27793">
        <ele>47</ele>
        <time>2011-11-13T10:56:01Z</time>
      </trkpt>
      <trkpt lat="49.17934" lon="2.27788">
        <ele>47</ele>
        <time>2011-11-13T10:56:02Z</time>
      </trkpt>
      <trkpt lat="49.17924" lon="2.27782">
        <ele>47</ele>
        <time>2011-11-13T10:56:03Z</time>
      </trkpt>
      <trkpt lat="49.17915" lon="2.27777">
        <ele>47</ele>
        <time>2011-11-13T10:56:04Z</time>
      </trkpt>
      <trkpt lat="49.17906" lon="2.27771">
        <ele>47</ele>
        <time>2011-11-13T10:56:05Z</time>
      </trkpt>
      <trkpt lat="49.1789" lon="2.27761">
        <ele>47</ele>
        <time>2011-11-13T10:56:07Z</time>
      </trkpt>
      <trkpt lat="49.17874" lon="2.2775">
        <ele>47</ele>
        <time>2011-11-13T10:56:09Z</time>
      </trkpt>
      <trkpt lat="49.1786" lon="2.27742">
        <ele>47</ele>
        <time>2011-11-13T10:56:11Z</time>
      </trkpt>
      <trkpt lat="49.17849" lon="2.27736">
        <ele>47</ele>
        <time>2011-11-13T10:56:13Z</time>
      </trkpt>
      <trkpt lat="49.17838" lon="2.27731">
        <ele>47</ele>
        <time>2011-11-13T10:56:15Z</time>
      </trkpt>
      <trkpt lat="49.17828" lon="2.27727">
        <ele>47</ele>
        <time>2011-11-13T10:56:17Z</time>
      </trkpt>
      <trkpt lat="49.17817" lon="2.27723">
        <ele>47</ele>
        <time>2011-11-13T10:56:19Z</time>
      </trkpt>
      <trkpt lat="49.17803" lon="2.27718">
        <ele>47</ele>
        <time>2011-11-13T10:56:21Z</time>
      </trkpt>
      <trkpt lat="49.17791" lon="2.27715">
        <ele>47</ele>
        <time>2011-11-13T10:56:23Z</time>
      </trkpt>
      <trkpt lat="49.17778" lon="2.2771">
        <ele>47</ele>
        <time>2011-11-13T10:56:25Z</time>
      </trkpt>
      <trkpt lat="49.17764" lon="2.27706">
        <ele>47</ele>
        <time>2011-11-13T10:56:27Z</time>
      </trkpt>
      <trkpt lat="49.17748" lon="2.27701">
        <ele>47</ele>
        <time>2011-11-13T10:56:29Z</time>
      </trkpt>
      <trkpt lat="49.17731" lon="2.27695">
        <ele>47</ele>
        <time>2011-11-13T10:56:31Z</time>
      </trkpt>
      <trkpt lat="49.17715" lon="2.2769">
        <ele>47</ele>
        <time>2011-11-13T10:56:33Z</time>
      </trkpt>
      <trkpt lat="49.17702" lon="2.27685">
        <ele>47</ele>
        <time>2011-11-13T10:56:35Z</time>
      </trkpt>
      <trkpt lat="49.1769" lon="2.2768">
        <ele>47</ele>
        <time>2011-11-13T10:56:37Z</time>
      </trkpt>
      <trkpt lat="49.17675" lon="2.27676">
        <ele>47</ele>
        <time>2011-11-13T10:56:39Z</time>
      </trkpt>
      <trkpt lat="49.17657" lon="2.27669">
        <ele>47</ele>
        <time>2011-11-13T10:56:41Z</time>
      </trkpt>
      <trkpt lat="49.17647" lon="2.27665">
        <ele>47</ele>
        <time>2011-11-13T10:56:42Z</time>
      </trkpt>
      <trkpt lat="49.17636" lon="2.27661">
        <ele>47</ele>
        <time>2011-11-13T10:56:43Z</time>
      </trkpt>
      <trkpt lat="49.17626" lon="2.27656">
        <ele>47</ele>
        <time>2011-11-13T10:56:44Z</time>
      </trkpt>
      <trkpt lat="49.17615" lon="2.27652">
        <ele>47</ele>
        <time>2011-11-13T10:56:45Z</time>
      </trkpt>
      <trkpt lat="49.17603" lon="2.27648">
        <ele>47</ele>
        <time>2011-11-13T10:56:46Z</time>
      </trkpt>
      <trkpt lat="49.17592" lon="2.27643">
        <ele>47</ele>
        <time>2011-11-13T10:56:47Z</time>
      </trkpt>
      <trkpt lat="49.1758" lon="2.27639">
        <ele>47</ele>
        <time>2011-11-13T10:56:48Z</time>
      </trkpt>
      <trkpt lat="49.17569" lon="2.27634">
        <ele>47</ele>
        <time>2011-11-13T10:56:49Z</time>
      </trkpt>
      <trkpt lat="49.17559" lon="2.2763">
        <ele>47</ele>
        <time>2011-11-13T10:56:50Z</time>
      </trkpt>
      <trkpt lat="49.17549" lon="2.27628">
        <ele>47</ele>
        <time>2011-11-13T10:56:51Z</time>
      </trkpt>
      <trkpt lat="49.1754" lon="2.27627">
        <ele>47</ele>
        <time>2011-11-13T10:56:52Z</time>
      </trkpt>
      <trkpt lat="49.1753" lon="2.27626">
        <ele>47</ele>
        <time>2011-11-13T10:56:53Z</time>
      </trkpt>
      <trkpt lat="49.17512" lon="2.27626">
        <ele>47</ele>
        <time>2011-11-13T10:56:55Z</time>
      </trkpt>
      <trkpt lat="49.17501" lon="2.27625">
        <ele>47</ele>
        <time>2011-11-13T10:56:56Z</time>
      </trkpt>
      <trkpt lat="49.1749" lon="2.27624">
        <ele>47</ele>
        <time>2011-11-13T10:56:57Z</time>
      </trkpt>
      <trkpt lat="49.17479" lon="2.27623">
        <ele>47</ele>
        <time>2011-11-13T10:56:58Z</time>
      </trkpt>
      <trkpt lat="49.17469" lon="2.27623">
        <ele>47</ele>
        <time>2011-11-13T10:56:59Z</time>
      </trkpt>
      <trkpt lat="49.17459" lon="2.27622">
        <ele>47</ele>
        <time>2011-11-13T10:57:00Z</time>
      </trkpt>
      <trkpt lat="49.1744" lon="2.27621">
        <ele>47</ele>
        <time>2011-11-13T10:57:02Z</time>
      </trkpt>
      <trkpt lat="49.17421" lon="2.27621">
        <ele>47</ele>
        <time>2011-11-13T10:57:04Z</time>
      </trkpt>
      <trkpt lat="49.17412" lon="2.27621">
        <ele>47</ele>
        <time>2011-11-13T10:57:05Z</time>
      </trkpt>
      <trkpt lat="49.17401" lon="2.2762">
        <ele>47</ele>
        <time>2011-11-13T10:57:06Z</time>
      </trkpt>
      <trkpt lat="49.1739" lon="2.2762">
        <ele>47</ele>
        <time>2011-11-13T10:57:07Z</time>
      </trkpt>
      <trkpt lat="49.17378" lon="2.27619">
        <ele>47</ele>
        <time>2011-11-13T10:57:08Z</time>
      </trkpt>
      <trkpt lat="49.17367" lon="2.27618">
        <ele>47</ele>
        <time>2011-11-13T10:57:09Z</time>
      </trkpt>
      <trkpt lat="49.17355" lon="2.27618">
        <ele>47</ele>
        <time>2011-11-13T10:57:10Z</time>
      </trkpt>
      <trkpt lat="49.17344" lon="2.27617">
        <ele>47</ele>
        <time>2011-11-13T10:57:11Z</time>
      </trkpt>
      <trkpt lat="49.17333" lon="2.27616">
        <ele>47</ele>
        <time>2011-11-13T10:57:12Z</time>
      </trkpt>
      <trkpt lat="49.17323" lon="2.27614">
        <ele>47</ele>
        <time>2011-11-13T10:57:13Z</time>
      </trkpt>
      <trkpt lat="49.17312" lon="2.27612">
        <ele>47</ele>
        <time>2011-11-13T10:57:14Z</time>
      </trkpt>
      <trkpt lat="49.17302" lon="2.27608">
        <ele>47</ele>
        <time>2011-11-13T10:57:15Z</time>
      </trkpt>
      <trkpt lat="49.17292" lon="2.27603">
        <ele>47</ele>
        <time>2011-11-13T10:57:16Z</time>
      </trkpt>
      <trkpt lat="49.17282" lon="2.27598">
        <ele>47</ele>
        <time>2011-11-13T10:57:17Z</time>
      </trkpt>
      <trkpt lat="49.17272" lon="2.27591">
        <ele>47</ele>
        <time>2011-11-13T10:57:18Z</time>
      </trkpt>
      <trkpt lat="49.17262" lon="2.27583">
        <ele>47</ele>
        <time>2011-11-13T10:57:19Z</time>
      </trkpt>
      <trkpt lat="49.17252" lon="2.27574">
        <ele>47</ele>
        <time>2011-11-13T10:57:20Z</time>
      </trkpt>
      <trkpt lat="49.17243" lon="2.27563">
        <ele>47</ele>
        <time>2011-11-13T10:57:21Z</time>
      </trkpt>
      <trkpt lat="49.17234" lon="2.27552">
        <ele>47</ele>
        <time>2011-11-13T10:57:22Z</time>
      </trkpt>
      <trkpt lat="49.17224" lon="2.27541">
        <ele>47</ele>
        <time>2011-11-13T10:57:23Z</time>
      </trkpt>
      <trkpt lat="49.17215" lon="2.27529">
        <ele>47</ele>
        <time>2011-11-13T10:57:24Z</time>
      </trkpt>
      <trkpt lat="49.17206" lon="2.27518">
        <ele>47</ele>
        <time>2011-11-13T10:57:25Z</time>
      </trkpt>
      <trkpt lat="49.17197" lon="2.27508">
        <ele>47</ele>
        <time>2011-11-13T10:57:26Z</time>
      </trkpt>
      <trkpt lat="49.17188" lon="2.27501">
        <ele>47</ele>
        <time>2011-11-13T10:57:27Z</time>
      </trkpt>
      <trkpt lat="49.17172" lon="2.27491">
        <ele>47</ele>
        <time>2011-11-13T10:57:29Z</time>
      </trkpt>
      <trkpt lat="49.17158" lon="2.27483">
        <ele>47</ele>
        <time>2011-11-13T10:57:31Z</time>
      </trkpt>
      <trkpt lat="49.17158" lon="2.27464">
        <ele>42</ele>
        <time>2011-11-13T10:57:34Z</time>
      </trkpt>
      <trkpt lat="49.17168" lon="2.27457">
        <ele>42</ele>
        <time>2011-11-13T10:57:36Z</time>
      </trkpt>
      <trkpt lat="49.17179" lon="2.27447">
        <ele>42</ele>
        <time>2011-11-13T10:57:38Z</time>
      </trkpt>
      <trkpt lat="49.17185" lon="2.27433">
        <ele>42</ele>
        <time>2011-11-13T10:57:40Z</time>
      </trkpt>
      <trkpt lat="49.17182" lon="2.27416">
        <ele>42</ele>
        <time>2011-11-13T10:57:42Z</time>
      </trkpt>
      <trkpt lat="49.17174" lon="2.27396">
        <ele>42</ele>
        <time>2011-11-13T10:57:44Z</time>
      </trkpt>
      <trkpt lat="49.17165" lon="2.27373">
        <ele>42</ele>
        <time>2011-11-13T10:57:46Z</time>
      </trkpt>
      <trkpt lat="49.17159" lon="2.2736">
        <ele>42</ele>
        <time>2011-11-13T10:57:47Z</time>
      </trkpt>
      <trkpt lat="49.17154" lon="2.27347">
        <ele>42</ele>
        <time>2011-11-13T10:57:48Z</time>
      </trkpt>
      <trkpt lat="49.17148" lon="2.27334">
        <ele>42</ele>
        <time>2011-11-13T10:57:49Z</time>
      </trkpt>
      <trkpt lat="49.17142" lon="2.2732">
        <ele>42</ele>
        <time>2011-11-13T10:57:50Z</time>
      </trkpt>
      <trkpt lat="49.17136" lon="2.27306">
        <ele>42</ele>
        <time>2011-11-13T10:57:51Z</time>
      </trkpt>
      <trkpt lat="49.1713" lon="2.27291">
        <ele>42</ele>
        <time>2011-11-13T10:57:52Z</time>
      </trkpt>
      <trkpt lat="49.17125" lon="2.27277">
        <ele>42</ele>
        <time>2011-11-13T10:57:53Z</time>
      </trkpt>
      <trkpt lat="49.17119" lon="2.27263">
        <ele>42</ele>
        <time>2011-11-13T10:57:54Z</time>
      </trkpt>
      <trkpt lat="49.17114" lon="2.2725">
        <ele>42</ele>
        <time>2011-11-13T10:57:55Z</time>
      </trkpt>
      <trkpt lat="49.17108" lon="2.27237">
        <ele>42</ele>
        <time>2011-11-13T10:57:56Z</time>
      </trkpt>
      <trkpt lat="49.17103" lon="2.27224">
        <ele>42</ele>
        <time>2011-11-13T10:57:57Z</time>
      </trkpt>
      <trkpt lat="49.17098" lon="2.2721">
        <ele>42</ele>
        <time>2011-11-13T10:57:58Z</time>
      </trkpt>
      <trkpt lat="49.17093" lon="2.27197">
        <ele>42</ele>
        <time>2011-11-13T10:57:59Z</time>
      </trkpt>
      <trkpt lat="49.17088" lon="2.27183">
        <ele>42</ele>
        <time>2011-11-13T10:58:00Z</time>
      </trkpt>
      <trkpt lat="49.17083" lon="2.2717">
        <ele>42</ele>
        <time>2011-11-13T10:58:01Z</time>
      </trkpt>
      <trkpt lat="49.17077" lon="2.27156">
        <ele>42</ele>
        <time>2011-11-13T10:58:02Z</time>
      </trkpt>
      <trkpt lat="49.17071" lon="2.27142">
        <ele>42</ele>
        <time>2011-11-13T10:58:03Z</time>
      </trkpt>
      <trkpt lat="49.17065" lon="2.27126">
        <ele>42</ele>
        <time>2011-11-13T10:58:04Z</time>
      </trkpt>
      <trkpt lat="49.17059" lon="2.27112">
        <ele>42</ele>
        <time>2011-11-13T10:58:05Z</time>
      </trkpt>
      <trkpt lat="49.17053" lon="2.27097">
        <ele>42</ele>
        <time>2011-11-13T10:58:06Z</time>
      </trkpt>
      <trkpt lat="49.17046" lon="2.27082">
        <ele>42</ele>
        <time>2011-11-13T10:58:07Z</time>
      </trkpt>
      <trkpt lat="49.1704" lon="2.27067">
        <ele>42</ele>
        <time>2011-11-13T10:58:08Z</time>
      </trkpt>
      <trkpt lat="49.17035" lon="2.27054">
        <ele>42</ele>
        <time>2011-11-13T10:58:09Z</time>
      </trkpt>
      <trkpt lat="49.17029" lon="2.27041">
        <ele>42</ele>
        <time>2011-11-13T10:58:10Z</time>
      </trkpt>
      <trkpt lat="49.17024" lon="2.27028">
        <ele>42</ele>
        <time>2011-11-13T10:58:11Z</time>
      </trkpt>
      <trkpt lat="49.17019" lon="2.27014">
        <ele>42</ele>
        <time>2011-11-13T10:58:12Z</time>
      </trkpt>
      <trkpt lat="49.17013" lon="2.27002">
        <ele>42</ele>
        <time>2011-11-13T10:58:13Z</time>
      </trkpt>
      <trkpt lat="49.17008" lon="2.26989">
        <ele>42</ele>
        <time>2011-11-13T10:58:14Z</time>
      </trkpt>
      <trkpt lat="49.17003" lon="2.26976">
        <ele>42</ele>
        <time>2011-11-13T10:58:15Z</time>
      </trkpt>
      <trkpt lat="49.16999" lon="2.26964">
        <ele>42</ele>
        <time>2011-11-13T10:58:16Z</time>
      </trkpt>
      <trkpt lat="49.16993" lon="2.26951">
        <ele>42</ele>
        <time>2011-11-13T10:58:17Z</time>
      </trkpt>
      <trkpt lat="49.16988" lon="2.26937">
        <ele>42</ele>
        <time>2011-11-13T10:58:18Z</time>
      </trkpt>
      <trkpt lat="49.16982" lon="2.26923">
        <ele>42</ele>
        <time>2011-11-13T10:58:19Z</time>
      </trkpt>
      <trkpt lat="49.16976" lon="2.26909">
        <ele>42</ele>
        <time>2011-11-13T10:58:20Z</time>
      </trkpt>
      <trkpt lat="49.16971" lon="2.26895">
        <ele>42</ele>
        <time>2011-11-13T10:58:21Z</time>
      </trkpt>
      <trkpt lat="49.16965" lon="2.26881">
        <ele>42</ele>
        <time>2011-11-13T10:58:22Z</time>
      </trkpt>
      <trkpt lat="49.1696" lon="2.26868">
        <ele>42</ele>
        <time>2011-11-13T10:58:23Z</time>
      </trkpt>
      <trkpt lat="49.16955" lon="2.26855">
        <ele>42</ele>
        <time>2011-11-13T10:58:24Z</time>
      </trkpt>
      <trkpt lat="49.16946" lon="2.26831">
        <ele>42</ele>
        <time>2011-11-13T10:58:26Z</time>
      </trkpt>
      <trkpt lat="49.1694" lon="2.26817">
        <ele>42</ele>
        <time>2011-11-13T10:58:27Z</time>
      </trkpt>
      <trkpt lat="49.16934" lon="2.26804">
        <ele>42</ele>
        <time>2011-11-13T10:58:28Z</time>
      </trkpt>
      <trkpt lat="49.16928" lon="2.26789">
        <ele>42</ele>
        <time>2011-11-13T10:58:29Z</time>
      </trkpt>
      <trkpt lat="49.16923" lon="2.26773">
        <ele>42</ele>
        <time>2011-11-13T10:58:30Z</time>
      </trkpt>
      <trkpt lat="49.16917" lon="2.2676">
        <ele>42</ele>
        <time>2011-11-13T10:58:31Z</time>
      </trkpt>
      <trkpt lat="49.16912" lon="2.26747">
        <ele>42</ele>
        <time>2011-11-13T10:58:32Z</time>
      </trkpt>
      <trkpt lat="49.16907" lon="2.26733">
        <ele>42</ele>
        <time>2011-11-13T10:58:33Z</time>
      </trkpt>
      <trkpt lat="49.16901" lon="2.2672">
        <ele>42</ele>
        <time>2011-11-13T10:58:34Z</time>
      </trkpt>
      <trkpt lat="49.16895" lon="2.26707">
        <ele>42</ele>
        <time>2011-11-13T10:58:35Z</time>
      </trkpt>
      <trkpt lat="49.1689" lon="2.26693">
        <ele>42</ele>
        <time>2011-11-13T10:58:36Z</time>
      </trkpt>
      <trkpt lat="49.16884" lon="2.26679">
        <ele>42</ele>
        <time>2011-11-13T10:58:37Z</time>
      </trkpt>
      <trkpt lat="49.16878" lon="2.26666">
        <ele>42</ele>
        <time>2011-11-13T10:58:38Z</time>
      </trkpt>
      <trkpt lat="49.16872" lon="2.26652">
        <ele>42</ele>
        <time>2011-11-13T10:58:39Z</time>
      </trkpt>
      <trkpt lat="49.16867" lon="2.26639">
        <ele>42</ele>
        <time>2011-11-13T10:58:40Z</time>
      </trkpt>
      <trkpt lat="49.16861" lon="2.26625">
        <ele>42</ele>
        <time>2011-11-13T10:58:41Z</time>
      </trkpt>
      <trkpt lat="49.16856" lon="2.26612">
        <ele>42</ele>
        <time>2011-11-13T10:58:42Z</time>
      </trkpt>
      <trkpt lat="49.1685" lon="2.26598">
        <ele>42</ele>
        <time>2011-11-13T10:58:43Z</time>
      </trkpt>
      <trkpt lat="49.16845" lon="2.26584">
        <ele>42</ele>
        <time>2011-11-13T10:58:44Z</time>
      </trkpt>
      <trkpt lat="49.16839" lon="2.2657">
        <ele>42</ele>
        <time>2011-11-13T10:58:45Z</time>
      </trkpt>
      <trkpt lat="49.16833" lon="2.26556">
        <ele>42</ele>
        <time>2011-11-13T10:58:46Z</time>
      </trkpt>
      <trkpt lat="49.16828" lon="2.26543">
        <ele>42</ele>
        <time>2011-11-13T10:58:47Z</time>
      </trkpt>
      <trkpt lat="49.16822" lon="2.26529">
        <ele>42</ele>
        <time>2011-11-13T10:58:48Z</time>
      </trkpt>
      <trkpt lat="49.16817" lon="2.26515">
        <ele>42</ele>
        <time>2011-11-13T10:58:49Z</time>
      </trkpt>
      <trkpt lat="49.16811" lon="2.265">
        <ele>42</ele>
        <time>2011-11-13T10:58:50Z</time>
      </trkpt>
      <trkpt lat="49.16805" lon="2.26486">
        <ele>42</ele>
        <time>2011-11-13T10:58:51Z</time>
      </trkpt>
      <trkpt lat="49.16799" lon="2.2647">
        <ele>42</ele>
        <time>2011-11-13T10:58:52Z</time>
      </trkpt>
      <trkpt lat="49.16792" lon="2.26455">
        <ele>42</ele>
        <time>2011-11-13T10:58:53Z</time>
      </trkpt>
      <trkpt lat="49.16787" lon="2.26439">
        <ele>42</ele>
        <time>2011-11-13T10:58:54Z</time>
      </trkpt>
      <trkpt lat="49.16781" lon="2.26425">
        <ele>42</ele>
        <time>2011-11-13T10:58:55Z</time>
      </trkpt>
      <trkpt lat="49.16775" lon="2.2641">
        <ele>42</ele>
        <time>2011-11-13T10:58:56Z</time>
      </trkpt>
      <trkpt lat="49.16768" lon="2.26393">
        <ele>42</ele>
        <time>2011-11-13T10:58:57Z</time>
      </trkpt>
      <trkpt lat="49.16761" lon="2.26376">
        <ele>42</ele>
        <time>2011-11-13T10:58:58Z</time>
      </trkpt>
      <trkpt lat="49.16754" lon="2.26359">
        <ele>42</ele>
        <time>2011-11-13T10:58:59Z</time>
      </trkpt>
      <trkpt lat="49.16746" lon="2.26341">
        <ele>42</ele>
        <time>2011-11-13T10:59:00Z</time>
      </trkpt>
      <trkpt lat="49.1674" lon="2.26323">
        <ele>42</ele>
        <time>2011-11-13T10:59:01Z</time>
      </trkpt>
      <trkpt lat="49.16733" lon="2.26306">
        <ele>42</ele>
        <time>2011-11-13T10:59:02Z</time>
      </trkpt>
      <trkpt lat="49.16726" lon="2.2629">
        <ele>42</ele>
        <time>2011-11-13T10:59:03Z</time>
      </trkpt>
      <trkpt lat="49.16721" lon="2.26274">
        <ele>42</ele>
        <time>2011-11-13T10:59:04Z</time>
      </trkpt>
      <trkpt lat="49.16715" lon="2.2626">
        <ele>42</ele>
        <time>2011-11-13T10:59:05Z</time>
      </trkpt>
      <trkpt lat="49.16709" lon="2.26246">
        <ele>42</ele>
        <time>2011-11-13T10:59:06Z</time>
      </trkpt>
      <trkpt lat="49.16704" lon="2.26234">
        <ele>42</ele>
        <time>2011-11-13T10:59:07Z</time>
      </trkpt>
      <trkpt lat="49.16695" lon="2.26215">
        <ele>42</ele>
        <time>2011-11-13T10:59:09Z</time>
      </trkpt>
      <trkpt lat="49.16685" lon="2.26202">
        <ele>42</ele>
        <time>2011-11-13T10:59:11Z</time>
      </trkpt>
      <trkpt lat="49.16677" lon="2.26195">
        <ele>42</ele>
        <time>2011-11-13T10:59:19Z</time>
      </trkpt>
      <trkpt lat="49.1667" lon="2.26181">
        <ele>42</ele>
        <time>2011-11-13T10:59:26Z</time>
      </trkpt>
      <trkpt lat="49.16666" lon="2.26163">
        <ele>42</ele>
        <time>2011-11-13T10:59:29Z</time>
      </trkpt>
      <trkpt lat="49.16657" lon="2.26155">
        <ele>42</ele>
        <time>2011-11-13T10:59:31Z</time>
      </trkpt>
      <trkpt lat="49.16645" lon="2.26147">
        <ele>42</ele>
        <time>2011-11-13T10:59:33Z</time>
      </trkpt>
      <trkpt lat="49.16632" lon="2.26134">
        <ele>42</ele>
        <time>2011-11-13T10:59:35Z</time>
      </trkpt>
      <trkpt lat="49.1662" lon="2.26115">
        <ele>42</ele>
        <time>2011-11-13T10:59:37Z</time>
      </trkpt>
      <trkpt lat="49.16612" lon="2.26105">
        <ele>42</ele>
        <time>2011-11-13T10:59:38Z</time>
      </trkpt>
      <trkpt lat="49.16604" lon="2.26094">
        <ele>42</ele>
        <time>2011-11-13T10:59:39Z</time>
      </trkpt>
      <trkpt lat="49.16597" lon="2.26084">
        <ele>42</ele>
        <time>2011-11-13T10:59:40Z</time>
      </trkpt>
      <trkpt lat="49.16589" lon="2.26074">
        <ele>42</ele>
        <time>2011-11-13T10:59:41Z</time>
      </trkpt>
      <trkpt lat="49.16581" lon="2.26064">
        <ele>42</ele>
        <time>2011-11-13T10:59:42Z</time>
      </trkpt>
      <trkpt lat="49.16573" lon="2.26053">
        <ele>42</ele>
        <time>2011-11-13T10:59:43Z</time>
      </trkpt>
      <trkpt lat="49.16564" lon="2.26042">
        <ele>42</ele>
        <time>2011-11-13T10:59:44Z</time>
      </trkpt>
      <trkpt lat="49.16556" lon="2.26031">
        <ele>42</ele>
        <time>2011-11-13T10:59:45Z</time>
      </trkpt>
      <trkpt lat="49.16549" lon="2.26022">
        <ele>42</ele>
        <time>2011-11-13T10:59:46Z</time>
      </trkpt>
      <trkpt lat="49.16541" lon="2.26012">
        <ele>42</ele>
        <time>2011-11-13T10:59:47Z</time>
      </trkpt>
      <trkpt lat="49.16534" lon="2.26002">
        <ele>42</ele>
        <time>2011-11-13T10:59:48Z</time>
      </trkpt>
      <trkpt lat="49.16521" lon="2.25984">
        <ele>42</ele>
        <time>2011-11-13T10:59:50Z</time>
      </trkpt>
      <trkpt lat="49.16508" lon="2.25966">
        <ele>42</ele>
        <time>2011-11-13T10:59:52Z</time>
      </trkpt>
      <trkpt lat="49.16502" lon="2.25956">
        <ele>42</ele>
        <time>2011-11-13T10:59:53Z</time>
      </trkpt>
      <trkpt lat="49.16494" lon="2.25946">
        <ele>42</ele>
        <time>2011-11-13T10:59:54Z</time>
      </trkpt>
      <trkpt lat="49.16481" lon="2.25928">
        <ele>42</ele>
        <time>2011-11-13T10:59:56Z</time>
      </trkpt>
      <trkpt lat="49.16469" lon="2.25911">
        <ele>42</ele>
        <time>2011-11-13T10:59:58Z</time>
      </trkpt>
      <trkpt lat="49.16463" lon="2.25901">
        <ele>42</ele>
        <time>2011-11-13T10:59:59Z</time>
      </trkpt>
      <trkpt lat="49.16455" lon="2.25891">
        <ele>42</ele>
        <time>2011-11-13T11:00:00Z</time>
      </trkpt>
      <trkpt lat="49.16447" lon="2.25881">
        <ele>42</ele>
        <time>2011-11-13T11:00:01Z</time>
      </trkpt>
      <trkpt lat="49.16439" lon="2.2587">
        <ele>42</ele>
        <time>2011-11-13T11:00:02Z</time>
      </trkpt>
      <trkpt lat="49.16431" lon="2.25858">
        <ele>42</ele>
        <time>2011-11-13T11:00:03Z</time>
      </trkpt>
      <trkpt lat="49.16422" lon="2.25848">
        <ele>42</ele>
        <time>2011-11-13T11:00:04Z</time>
      </trkpt>
      <trkpt lat="49.16415" lon="2.25837">
        <ele>42</ele>
        <time>2011-11-13T11:00:05Z</time>
      </trkpt>
      <trkpt lat="49.16407" lon="2.25826">
        <ele>42</ele>
        <time>2011-11-13T11:00:06Z</time>
      </trkpt>
      <trkpt lat="49.16398" lon="2.25815">
        <ele>42</ele>
        <time>2011-11-13T11:00:07Z</time>
      </trkpt>
      <trkpt lat="49.16389" lon="2.25803">
        <ele>42</ele>
        <time>2011-11-13T11:00:08Z</time>
      </trkpt>
      <trkpt lat="49.16381" lon="2.25792">
        <ele>42</ele>
        <time>2011-11-13T11:00:09Z</time>
      </trkpt>
      <trkpt lat="49.16372" lon="2.25781">
        <ele>42</ele>
        <time>2011-11-13T11:00:10Z</time>
      </trkpt>
      <trkpt lat="49.16364" lon="2.2577">
        <ele>42</ele>
        <time>2011-11-13T11:00:11Z</time>
      </trkpt>
      <trkpt lat="49.16356" lon="2.25758">
        <ele>42</ele>
        <time>2011-11-13T11:00:12Z</time>
      </trkpt>
      <trkpt lat="49.16347" lon="2.25747">
        <ele>42</ele>
        <time>2011-11-13T11:00:13Z</time>
      </trkpt>
      <trkpt lat="49.16339" lon="2.25735">
        <ele>42</ele>
        <time>2011-11-13T11:00:14Z</time>
      </trkpt>
      <trkpt lat="49.16331" lon="2.25723">
        <ele>42</ele>
        <time>2011-11-13T11:00:15Z</time>
      </trkpt>
      <trkpt lat="49.16322" lon="2.25712">
        <ele>42</ele>
        <time>2011-11-13T11:00:16Z</time>
      </trkpt>
      <trkpt lat="49.16313" lon="2.25701">
        <ele>42</ele>
        <time>2011-11-13T11:00:17Z</time>
      </trkpt>
      <trkpt lat="49.16305" lon="2.25689">
        <ele>42</ele>
        <time>2011-11-13T11:00:18Z</time>
      </trkpt>
      <trkpt lat="49.16296" lon="2.25678">
        <ele>42</ele>
        <time>2011-11-13T11:00:19Z</time>
      </trkpt>
      <trkpt lat="49.16288" lon="2.25668">
        <ele>42</ele>
        <time>2011-11-13T11:00:20Z</time>
      </trkpt>
      <trkpt lat="49.16279" lon="2.25657">
        <ele>42</ele>
        <time>2011-11-13T11:00:21Z</time>
      </trkpt>
      <trkpt lat="49.16271" lon="2.25647">
        <ele>42</ele>
        <time>2011-11-13T11:00:22Z</time>
      </trkpt>
      <trkpt lat="49.16263" lon="2.25637">
        <ele>42</ele>
        <time>2011-11-13T11:00:23Z</time>
      </trkpt>
      <trkpt lat="49.16255" lon="2.25627">
        <ele>42</ele>
        <time>2011-11-13T11:00:24Z</time>
      </trkpt>
      <trkpt lat="49.16246" lon="2.25618">
        <ele>42</ele>
        <time>2011-11-13T11:00:25Z</time>
      </trkpt>
      <trkpt lat="49.16239" lon="2.25609">
        <ele>42</ele>
        <time>2011-11-13T11:00:26Z</time>
      </trkpt>
      <trkpt lat="49.1623" lon="2.25601">
        <ele>42</ele>
        <time>2011-11-13T11:00:27Z</time>
      </trkpt>
      <trkpt lat="49.16222" lon="2.25592">
        <ele>36</ele>
        <time>2011-11-13T11:00:28Z</time>
      </trkpt>
      <trkpt lat="49.16215" lon="2.25583">
        <ele>36</ele>
        <time>2011-11-13T11:00:29Z</time>
      </trkpt>
      <trkpt lat="49.16207" lon="2.25574">
        <ele>36</ele>
        <time>2011-11-13T11:00:30Z</time>
      </trkpt>
      <trkpt lat="49.16199" lon="2.25566">
        <ele>36</ele>
        <time>2011-11-13T11:00:31Z</time>
      </trkpt>
      <trkpt lat="49.16188" lon="2.25554">
        <ele>36</ele>
        <time>2011-11-13T11:00:33Z</time>
      </trkpt>
      <trkpt lat="49.1618" lon="2.25546">
        <ele>36</ele>
        <time>2011-11-13T11:00:43Z</time>
      </trkpt>
      <trkpt lat="49.16171" lon="2.25538">
        <ele>36</ele>
        <time>2011-11-13T11:00:46Z</time>
      </trkpt>
      <trkpt lat="49.16164" lon="2.25527">
        <ele>36</ele>
        <time>2011-11-13T11:00:49Z</time>
      </trkpt>
      <trkpt lat="49.16158" lon="2.25515">
        <ele>36</ele>
        <time>2011-11-13T11:00:56Z</time>
      </trkpt>
      <trkpt lat="49.16151" lon="2.25528">
        <ele>36</ele>
        <time>2011-11-13T11:01:00Z</time>
      </trkpt>
      <trkpt lat="49.16146" lon="2.25545">
        <ele>36</ele>
        <time>2011-11-13T11:01:05Z</time>
      </trkpt>
      <trkpt lat="49.16139" lon="2.2556">
        <ele>36</ele>
        <time>2011-11-13T11:01:07Z</time>
      </trkpt>
      <trkpt lat="49.16132" lon="2.25576">
        <ele>36</ele>
        <time>2011-11-13T11:01:09Z</time>
      </trkpt>
      <trkpt lat="49.16124" lon="2.25591">
        <ele>36</ele>
        <time>2011-11-13T11:01:11Z</time>
      </trkpt>
      <trkpt lat="49.16117" lon="2.25607">
        <ele>36</ele>
        <time>2011-11-13T11:01:13Z</time>
      </trkpt>
      <trkpt lat="49.16109" lon="2.25623">
        <ele>36</ele>
        <time>2011-11-13T11:01:15Z</time>
      </trkpt>
      <trkpt lat="49.16101" lon="2.25639">
        <ele>36</ele>
        <time>2011-11-13T11:01:18Z</time>
      </trkpt>
      <trkpt lat="49.16093" lon="2.25657">
        <ele>36</ele>
        <time>2011-11-13T11:01:20Z</time>
      </trkpt>
      <trkpt lat="49.16081" lon="2.2568">
        <ele>36</ele>
        <time>2011-11-13T11:01:22Z</time>
      </trkpt>
      <trkpt lat="49.16075" lon="2.25693">
        <ele>36</ele>
        <time>2011-11-13T11:01:23Z</time>
      </trkpt>
      <trkpt lat="49.16069" lon="2.25706">
        <ele>36</ele>
        <time>2011-11-13T11:01:24Z</time>
      </trkpt>
      <trkpt lat="49.16062" lon="2.2572">
        <ele>36</ele>
        <time>2011-11-13T11:01:25Z</time>
      </trkpt>
      <trkpt lat="49.16055" lon="2.25733">
        <ele>36</ele>
        <time>2011-11-13T11:01:26Z</time>
      </trkpt>
      <trkpt lat="49.16049" lon="2.25747">
        <ele>36</ele>
        <time>2011-11-13T11:01:27Z</time>
      </trkpt>
      <trkpt lat="49.16042" lon="2.2576">
        <ele>36</ele>
        <time>2011-11-13T11:01:28Z</time>
      </trkpt>
      <trkpt lat="49.16035" lon="2.25775">
        <ele>36</ele>
        <time>2011-11-13T11:01:29Z</time>
      </trkpt>
      <trkpt lat="49.16028" lon="2.2579">
        <ele>36</ele>
        <time>2011-11-13T11:01:30Z</time>
      </trkpt>
      <trkpt lat="49.1602" lon="2.25804">
        <ele>36</ele>
        <time>2011-11-13T11:01:31Z</time>
      </trkpt>
      <trkpt lat="49.16013" lon="2.25819">
        <ele>36</ele>
        <time>2011-11-13T11:01:32Z</time>
      </trkpt>
      <trkpt lat="49.16007" lon="2.25831">
        <ele>36</ele>
        <time>2011-11-13T11:01:33Z</time>
      </trkpt>
      <trkpt lat="49.16001" lon="2.25843">
        <ele>36</ele>
        <time>2011-11-13T11:01:34Z</time>
      </trkpt>
      <trkpt lat="49.15994" lon="2.25854">
        <ele>36</ele>
        <time>2011-11-13T11:01:35Z</time>
      </trkpt>
      <trkpt lat="49.15988" lon="2.25865">
        <ele>36</ele>
        <time>2011-11-13T11:01:36Z</time>
      </trkpt>
      <trkpt lat="49.15981" lon="2.25875">
        <ele>36</ele>
        <time>2011-11-13T11:01:37Z</time>
      </trkpt>
      <trkpt lat="49.15969" lon="2.2589">
        <ele>36</ele>
        <time>2011-11-13T11:01:39Z</time>
      </trkpt>
      <trkpt lat="49.15957" lon="2.25898">
        <ele>36</ele>
        <time>2011-11-13T11:01:41Z</time>
      </trkpt>
      <trkpt lat="49.15943" lon="2.259">
        <ele>36</ele>
        <time>2011-11-13T11:01:43Z</time>
      </trkpt>
      <trkpt lat="49.15932" lon="2.25909">
        <ele>36</ele>
        <time>2011-11-13T11:01:45Z</time>
      </trkpt>
      <trkpt lat="49.15928" lon="2.25925">
        <ele>36</ele>
        <time>2011-11-13T11:01:47Z</time>
      </trkpt>
      <trkpt lat="49.15934" lon="2.2594">
        <ele>36</ele>
        <time>2011-11-13T11:01:49Z</time>
      </trkpt>
      <trkpt lat="49.15946" lon="2.25948">
        <ele>36</ele>
        <time>2011-11-13T11:01:51Z</time>
      </trkpt>
      <trkpt lat="49.1596" lon="2.25951">
        <ele>36</ele>
        <time>2011-11-13T11:01:53Z</time>
      </trkpt>
      <trkpt lat="49.15971" lon="2.25953">
        <ele>36</ele>
        <time>2011-11-13T11:01:55Z</time>
      </trkpt>
      <trkpt lat="49.1598" lon="2.25949">
        <ele>36</ele>
        <time>2011-11-13T11:01:58Z</time>
      </trkpt>
      <trkpt lat="49.15984" lon="2.25931">
        <ele>36</ele>
        <time>2011-11-13T11:02:01Z</time>
      </trkpt>
      <trkpt lat="49.15986" lon="2.2591">
        <ele>36</ele>
        <time>2011-11-13T11:02:04Z</time>
      </trkpt>
      <trkpt lat="49.15993" lon="2.25894">
        <ele>36</ele>
        <time>2011-11-13T11:02:06Z</time>
      </trkpt>
      <trkpt lat="49.16002" lon="2.25876">
        <ele>36</ele>
        <time>2011-11-13T11:02:08Z</time>
      </trkpt>
      <trkpt lat="49.16012" lon="2.25856">
        <ele>36</ele>
        <time>2011-11-13T11:02:10Z</time>
      </trkpt>
      <trkpt lat="49.16021" lon="2.25837">
        <ele>36</ele>
        <time>2011-11-13T11:02:12Z</time>
      </trkpt>
      <trkpt lat="49.1603" lon="2.25819">
        <ele>36</ele>
        <time>2011-11-13T11:02:14Z</time>
      </trkpt>
      <trkpt lat="49.16038" lon="2.25805">
        <ele>36</ele>
        <time>2011-11-13T11:02:16Z</time>
      </trkpt>
      <trkpt lat="49.16048" lon="2.25805">
        <ele>36</ele>
        <time>2011-11-13T11:02:19Z</time>
      </trkpt>
      <trkpt lat="49.1606" lon="2.25809">
        <ele>36</ele>
        <time>2011-11-13T11:02:22Z</time>
      </trkpt>
      <trkpt lat="49.16068" lon="2.25801">
        <ele>36</ele>
        <time>2011-11-13T11:02:25Z</time>
      </trkpt>
    </trkseg>
  </trk>
</gpx>